<?xml version="1.0" encoding="UTF-8"?>
<gpx version="1.1" creator="https://www.youtrack.es" xsi:schemaLocation="http://www.topografix.com/GPX/1/1 http://www.topografix.com/GPX/1/1/gpx.xsd http://www.garmin.com/xmlschemas/GpxExtensions/v3 http://www.garmin.com/xmlschemas/GpxExtensionsv3.xsd http://www.garmin.com/xmlschemas/TrackPointExtension/v1 http://www.garmin.com/xmlschemas/TrackPointExtensionv1.xsd" xmlns:gpxtpx="http://www.garmin.com/xmlschemas/TrackPointExtension/v1" xmlns:gpxx="http://www.garmin.com/xmlschemas/GpxExtensions/v3" xmlns:xsi="http://www.w3.org/2001/XMLSchema-instance">
  <metadata>
    <link href="https://www.youtrack.es">
      <text>YouTrack.es</text>
    </link>
    <time>2026-05-08T16:25:59Z</time>
  </metadata>
  <trk>
    <src>https://www.youtrack.es</src>
    <link href="https://www.youtrack.es/ruta/3333-vilassar">
      <text>YouTrack.es</text>
    </link>
    <trkseg>
      <trkpt lat="41.5053110" lon="2.1168580">
        <ele>74.0</ele>
        <time>2018-12-15T10:37:11Z</time>
      </trkpt>
      <trkpt lat="41.5053110" lon="2.1168580">
        <ele>74.0</ele>
        <time>2018-12-15T10:37:13Z</time>
      </trkpt>
      <trkpt lat="41.5053110" lon="2.1168580">
        <ele>74.0</ele>
        <time>2018-12-15T10:37:17Z</time>
      </trkpt>
      <trkpt lat="41.5053110" lon="2.1168580">
        <ele>74.0</ele>
        <time>2018-12-15T10:37:21Z</time>
      </trkpt>
      <trkpt lat="41.5052980" lon="2.1167400">
        <ele>74.4</ele>
        <time>2018-12-15T10:37:25Z</time>
      </trkpt>
      <trkpt lat="41.5051580" lon="2.1166800">
        <ele>73.6</ele>
        <time>2018-12-15T10:37:29Z</time>
      </trkpt>
      <trkpt lat="41.5051060" lon="2.1164400">
        <ele>73.2</ele>
        <time>2018-12-15T10:37:33Z</time>
      </trkpt>
      <trkpt lat="41.5051400" lon="2.1161730">
        <ele>72.2</ele>
        <time>2018-12-15T10:37:37Z</time>
      </trkpt>
      <trkpt lat="41.5052230" lon="2.1158550">
        <ele>71.4</ele>
        <time>2018-12-15T10:37:41Z</time>
      </trkpt>
      <trkpt lat="41.5053600" lon="2.1155880">
        <ele>71.6</ele>
        <time>2018-12-15T10:37:45Z</time>
      </trkpt>
      <trkpt lat="41.5055450" lon="2.1153800">
        <ele>72.2</ele>
        <time>2018-12-15T10:37:49Z</time>
      </trkpt>
      <trkpt lat="41.5057130" lon="2.1154880">
        <ele>72.6</ele>
        <time>2018-12-15T10:37:53Z</time>
      </trkpt>
      <trkpt lat="41.5058500" lon="2.1156000">
        <ele>72.6</ele>
        <time>2018-12-15T10:37:57Z</time>
      </trkpt>
      <trkpt lat="41.5059310" lon="2.1153980">
        <ele>72.4</ele>
        <time>2018-12-15T10:38:01Z</time>
      </trkpt>
      <trkpt lat="41.5059610" lon="2.1151130">
        <ele>71.6</ele>
        <time>2018-12-15T10:38:05Z</time>
      </trkpt>
      <trkpt lat="41.5059930" lon="2.1147800">
        <ele>72.4</ele>
        <time>2018-12-15T10:38:09Z</time>
      </trkpt>
      <trkpt lat="41.5060100" lon="2.1144560">
        <ele>73.4</ele>
        <time>2018-12-15T10:38:13Z</time>
      </trkpt>
      <trkpt lat="41.5060500" lon="2.1141380">
        <ele>72.8</ele>
        <time>2018-12-15T10:38:17Z</time>
      </trkpt>
      <trkpt lat="41.5060700" lon="2.1137910">
        <ele>73.6</ele>
        <time>2018-12-15T10:38:21Z</time>
      </trkpt>
      <trkpt lat="41.5061100" lon="2.1134550">
        <ele>73.2</ele>
        <time>2018-12-15T10:38:25Z</time>
      </trkpt>
      <trkpt lat="41.5061560" lon="2.1131060">
        <ele>73.6</ele>
        <time>2018-12-15T10:38:29Z</time>
      </trkpt>
      <trkpt lat="41.5061750" lon="2.1127810">
        <ele>74.0</ele>
        <time>2018-12-15T10:38:33Z</time>
      </trkpt>
      <trkpt lat="41.5062000" lon="2.1124480">
        <ele>74.4</ele>
        <time>2018-12-15T10:38:37Z</time>
      </trkpt>
      <trkpt lat="41.5062180" lon="2.1120910">
        <ele>74.2</ele>
        <time>2018-12-15T10:38:41Z</time>
      </trkpt>
      <trkpt lat="41.5062850" lon="2.1117560">
        <ele>74.2</ele>
        <time>2018-12-15T10:38:45Z</time>
      </trkpt>
      <trkpt lat="41.5064380" lon="2.1114900">
        <ele>75.0</ele>
        <time>2018-12-15T10:38:49Z</time>
      </trkpt>
      <trkpt lat="41.5066100" lon="2.1112480">
        <ele>75.4</ele>
        <time>2018-12-15T10:38:53Z</time>
      </trkpt>
      <trkpt lat="41.5067330" lon="2.1110660">
        <ele>76.0</ele>
        <time>2018-12-15T10:38:57Z</time>
      </trkpt>
      <trkpt lat="41.5068010" lon="2.1109710">
        <ele>77.0</ele>
        <time>2018-12-15T10:39:01Z</time>
      </trkpt>
      <trkpt lat="41.5068660" lon="2.1108100">
        <ele>77.2</ele>
        <time>2018-12-15T10:39:05Z</time>
      </trkpt>
      <trkpt lat="41.5068660" lon="2.1108100">
        <ele>77.2</ele>
        <time>2018-12-15T10:39:09Z</time>
      </trkpt>
      <trkpt lat="41.5068730" lon="2.1107250">
        <ele>77.8</ele>
        <time>2018-12-15T10:39:13Z</time>
      </trkpt>
      <trkpt lat="41.5068380" lon="2.1106280">
        <ele>77.8</ele>
        <time>2018-12-15T10:39:17Z</time>
      </trkpt>
      <trkpt lat="41.5069330" lon="2.1104730">
        <ele>78.0</ele>
        <time>2018-12-15T10:39:21Z</time>
      </trkpt>
      <trkpt lat="41.5070530" lon="2.1102930">
        <ele>78.6</ele>
        <time>2018-12-15T10:39:25Z</time>
      </trkpt>
      <trkpt lat="41.5071810" lon="2.1101360">
        <ele>79.8</ele>
        <time>2018-12-15T10:39:29Z</time>
      </trkpt>
      <trkpt lat="41.5073500" lon="2.1100730">
        <ele>80.6</ele>
        <time>2018-12-15T10:39:33Z</time>
      </trkpt>
      <trkpt lat="41.5074110" lon="2.1099030">
        <ele>81.0</ele>
        <time>2018-12-15T10:39:37Z</time>
      </trkpt>
      <trkpt lat="41.5074060" lon="2.1096450">
        <ele>80.4</ele>
        <time>2018-12-15T10:39:41Z</time>
      </trkpt>
      <trkpt lat="41.5074480" lon="2.1093880">
        <ele>79.6</ele>
        <time>2018-12-15T10:39:45Z</time>
      </trkpt>
      <trkpt lat="41.5076260" lon="2.1092980">
        <ele>78.2</ele>
        <time>2018-12-15T10:39:49Z</time>
      </trkpt>
      <trkpt lat="41.5078330" lon="2.1092860">
        <ele>78.8</ele>
        <time>2018-12-15T10:39:53Z</time>
      </trkpt>
      <trkpt lat="41.5080500" lon="2.1092730">
        <ele>79.0</ele>
        <time>2018-12-15T10:39:57Z</time>
      </trkpt>
      <trkpt lat="41.5082730" lon="2.1092650">
        <ele>79.2</ele>
        <time>2018-12-15T10:40:01Z</time>
      </trkpt>
      <trkpt lat="41.5085050" lon="2.1092560">
        <ele>79.2</ele>
        <time>2018-12-15T10:40:05Z</time>
      </trkpt>
      <trkpt lat="41.5087250" lon="2.1092300">
        <ele>80.0</ele>
        <time>2018-12-15T10:40:09Z</time>
      </trkpt>
      <trkpt lat="41.5089510" lon="2.1091980">
        <ele>79.8</ele>
        <time>2018-12-15T10:40:13Z</time>
      </trkpt>
      <trkpt lat="41.5091800" lon="2.1091560">
        <ele>80.2</ele>
        <time>2018-12-15T10:40:17Z</time>
      </trkpt>
      <trkpt lat="41.5094050" lon="2.1091060">
        <ele>80.6</ele>
        <time>2018-12-15T10:40:21Z</time>
      </trkpt>
      <trkpt lat="41.5096300" lon="2.1090530">
        <ele>81.2</ele>
        <time>2018-12-15T10:40:25Z</time>
      </trkpt>
      <trkpt lat="41.5098580" lon="2.1089960">
        <ele>80.4</ele>
        <time>2018-12-15T10:40:29Z</time>
      </trkpt>
      <trkpt lat="41.5100750" lon="2.1089660">
        <ele>81.4</ele>
        <time>2018-12-15T10:40:33Z</time>
      </trkpt>
      <trkpt lat="41.5102810" lon="2.1089500">
        <ele>82.0</ele>
        <time>2018-12-15T10:40:37Z</time>
      </trkpt>
      <trkpt lat="41.5104880" lon="2.1089500">
        <ele>81.6</ele>
        <time>2018-12-15T10:40:41Z</time>
      </trkpt>
      <trkpt lat="41.5106730" lon="2.1090050">
        <ele>82.0</ele>
        <time>2018-12-15T10:40:45Z</time>
      </trkpt>
      <trkpt lat="41.5108280" lon="2.1090730">
        <ele>84.2</ele>
        <time>2018-12-15T10:40:49Z</time>
      </trkpt>
      <trkpt lat="41.5109060" lon="2.1091880">
        <ele>86.0</ele>
        <time>2018-12-15T10:40:53Z</time>
      </trkpt>
      <trkpt lat="41.5109350" lon="2.1094230">
        <ele>85.4</ele>
        <time>2018-12-15T10:40:57Z</time>
      </trkpt>
      <trkpt lat="41.5110210" lon="2.1096580">
        <ele>86.6</ele>
        <time>2018-12-15T10:41:01Z</time>
      </trkpt>
      <trkpt lat="41.5111430" lon="2.1098500">
        <ele>87.0</ele>
        <time>2018-12-15T10:41:05Z</time>
      </trkpt>
      <trkpt lat="41.5112910" lon="2.1099960">
        <ele>87.4</ele>
        <time>2018-12-15T10:41:09Z</time>
      </trkpt>
      <trkpt lat="41.5114350" lon="2.1101330">
        <ele>88.4</ele>
        <time>2018-12-15T10:41:13Z</time>
      </trkpt>
      <trkpt lat="41.5115900" lon="2.1102630">
        <ele>89.4</ele>
        <time>2018-12-15T10:41:17Z</time>
      </trkpt>
      <trkpt lat="41.5117500" lon="2.1104050">
        <ele>89.8</ele>
        <time>2018-12-15T10:41:21Z</time>
      </trkpt>
      <trkpt lat="41.5119060" lon="2.1105650">
        <ele>89.8</ele>
        <time>2018-12-15T10:41:25Z</time>
      </trkpt>
      <trkpt lat="41.5120700" lon="2.1107160">
        <ele>90.0</ele>
        <time>2018-12-15T10:41:29Z</time>
      </trkpt>
      <trkpt lat="41.5122330" lon="2.1108700">
        <ele>90.2</ele>
        <time>2018-12-15T10:41:33Z</time>
      </trkpt>
      <trkpt lat="41.5123960" lon="2.1110280">
        <ele>90.4</ele>
        <time>2018-12-15T10:41:37Z</time>
      </trkpt>
      <trkpt lat="41.5125660" lon="2.1111880">
        <ele>90.8</ele>
        <time>2018-12-15T10:41:41Z</time>
      </trkpt>
      <trkpt lat="41.5127350" lon="2.1113410">
        <ele>91.0</ele>
        <time>2018-12-15T10:41:45Z</time>
      </trkpt>
      <trkpt lat="41.5129080" lon="2.1115030">
        <ele>91.4</ele>
        <time>2018-12-15T10:41:49Z</time>
      </trkpt>
      <trkpt lat="41.5130800" lon="2.1116700">
        <ele>92.0</ele>
        <time>2018-12-15T10:41:53Z</time>
      </trkpt>
      <trkpt lat="41.5132630" lon="2.1118430">
        <ele>91.4</ele>
        <time>2018-12-15T10:41:57Z</time>
      </trkpt>
      <trkpt lat="41.5134310" lon="2.1120410">
        <ele>91.8</ele>
        <time>2018-12-15T10:42:01Z</time>
      </trkpt>
      <trkpt lat="41.5135650" lon="2.1122660">
        <ele>93.4</ele>
        <time>2018-12-15T10:42:05Z</time>
      </trkpt>
      <trkpt lat="41.5136510" lon="2.1124750">
        <ele>95.2</ele>
        <time>2018-12-15T10:42:09Z</time>
      </trkpt>
      <trkpt lat="41.5137380" lon="2.1125550">
        <ele>95.8</ele>
        <time>2018-12-15T10:42:13Z</time>
      </trkpt>
      <trkpt lat="41.5138200" lon="2.1125310">
        <ele>95.6</ele>
        <time>2018-12-15T10:42:17Z</time>
      </trkpt>
      <trkpt lat="41.5139060" lon="2.1126500">
        <ele>96.8</ele>
        <time>2018-12-15T10:42:21Z</time>
      </trkpt>
      <trkpt lat="41.5140860" lon="2.1127460">
        <ele>96.4</ele>
        <time>2018-12-15T10:42:25Z</time>
      </trkpt>
      <trkpt lat="41.5142810" lon="2.1128200">
        <ele>96.0</ele>
        <time>2018-12-15T10:42:29Z</time>
      </trkpt>
      <trkpt lat="41.5144960" lon="2.1128330">
        <ele>96.2</ele>
        <time>2018-12-15T10:42:33Z</time>
      </trkpt>
      <trkpt lat="41.5147200" lon="2.1127350">
        <ele>96.0</ele>
        <time>2018-12-15T10:42:37Z</time>
      </trkpt>
      <trkpt lat="41.5149450" lon="2.1126450">
        <ele>96.6</ele>
        <time>2018-12-15T10:42:41Z</time>
      </trkpt>
      <trkpt lat="41.5151600" lon="2.1125450">
        <ele>96.4</ele>
        <time>2018-12-15T10:42:45Z</time>
      </trkpt>
      <trkpt lat="41.5153710" lon="2.1124450">
        <ele>97.0</ele>
        <time>2018-12-15T10:42:49Z</time>
      </trkpt>
      <trkpt lat="41.5155700" lon="2.1123450">
        <ele>97.4</ele>
        <time>2018-12-15T10:42:53Z</time>
      </trkpt>
      <trkpt lat="41.5157780" lon="2.1122430">
        <ele>97.2</ele>
        <time>2018-12-15T10:42:57Z</time>
      </trkpt>
      <trkpt lat="41.5159880" lon="2.1121600">
        <ele>97.0</ele>
        <time>2018-12-15T10:43:01Z</time>
      </trkpt>
      <trkpt lat="41.5161900" lon="2.1122350">
        <ele>98.0</ele>
        <time>2018-12-15T10:43:05Z</time>
      </trkpt>
      <trkpt lat="41.5164010" lon="2.1121750">
        <ele>97.4</ele>
        <time>2018-12-15T10:43:09Z</time>
      </trkpt>
      <trkpt lat="41.5166260" lon="2.1121930">
        <ele>98.2</ele>
        <time>2018-12-15T10:43:13Z</time>
      </trkpt>
      <trkpt lat="41.5168460" lon="2.1122360">
        <ele>97.8</ele>
        <time>2018-12-15T10:43:17Z</time>
      </trkpt>
      <trkpt lat="41.5170610" lon="2.1122480">
        <ele>98.8</ele>
        <time>2018-12-15T10:43:21Z</time>
      </trkpt>
      <trkpt lat="41.5172750" lon="2.1122280">
        <ele>99.6</ele>
        <time>2018-12-15T10:43:25Z</time>
      </trkpt>
      <trkpt lat="41.5174900" lon="2.1121930">
        <ele>100.2</ele>
        <time>2018-12-15T10:43:29Z</time>
      </trkpt>
      <trkpt lat="41.5176850" lon="2.1121610">
        <ele>100.4</ele>
        <time>2018-12-15T10:43:33Z</time>
      </trkpt>
      <trkpt lat="41.5178310" lon="2.1122650">
        <ele>101.0</ele>
        <time>2018-12-15T10:43:37Z</time>
      </trkpt>
      <trkpt lat="41.5179080" lon="2.1124460">
        <ele>101.8</ele>
        <time>2018-12-15T10:43:41Z</time>
      </trkpt>
      <trkpt lat="41.5179850" lon="2.1125900">
        <ele>102.0</ele>
        <time>2018-12-15T10:43:45Z</time>
      </trkpt>
      <trkpt lat="41.5180910" lon="2.1127650">
        <ele>101.6</ele>
        <time>2018-12-15T10:43:49Z</time>
      </trkpt>
      <trkpt lat="41.5182580" lon="2.1129560">
        <ele>101.2</ele>
        <time>2018-12-15T10:43:53Z</time>
      </trkpt>
      <trkpt lat="41.5184550" lon="2.1131050">
        <ele>102.0</ele>
        <time>2018-12-15T10:43:57Z</time>
      </trkpt>
      <trkpt lat="41.5186630" lon="2.1132050">
        <ele>104.0</ele>
        <time>2018-12-15T10:44:01Z</time>
      </trkpt>
      <trkpt lat="41.5188480" lon="2.1133100">
        <ele>105.4</ele>
        <time>2018-12-15T10:44:05Z</time>
      </trkpt>
      <trkpt lat="41.5190230" lon="2.1134360">
        <ele>106.2</ele>
        <time>2018-12-15T10:44:09Z</time>
      </trkpt>
      <trkpt lat="41.5191600" lon="2.1135500">
        <ele>107.0</ele>
        <time>2018-12-15T10:44:13Z</time>
      </trkpt>
      <trkpt lat="41.5192730" lon="2.1136700">
        <ele>107.6</ele>
        <time>2018-12-15T10:44:17Z</time>
      </trkpt>
      <trkpt lat="41.5194050" lon="2.1138360">
        <ele>108.0</ele>
        <time>2018-12-15T10:44:21Z</time>
      </trkpt>
      <trkpt lat="41.5195250" lon="2.1140200">
        <ele>108.8</ele>
        <time>2018-12-15T10:44:25Z</time>
      </trkpt>
      <trkpt lat="41.5196260" lon="2.1142010">
        <ele>109.4</ele>
        <time>2018-12-15T10:44:29Z</time>
      </trkpt>
      <trkpt lat="41.5197230" lon="2.1143330">
        <ele>109.8</ele>
        <time>2018-12-15T10:44:33Z</time>
      </trkpt>
      <trkpt lat="41.5197750" lon="2.1144010">
        <ele>110.0</ele>
        <time>2018-12-15T10:44:37Z</time>
      </trkpt>
      <trkpt lat="41.5197750" lon="2.1144010">
        <ele>110.0</ele>
        <time>2018-12-15T10:44:41Z</time>
      </trkpt>
      <trkpt lat="41.5197750" lon="2.1144010">
        <ele>110.0</ele>
        <time>2018-12-15T10:44:45Z</time>
      </trkpt>
      <trkpt lat="41.5197750" lon="2.1144010">
        <ele>110.0</ele>
        <time>2018-12-15T10:44:49Z</time>
      </trkpt>
      <trkpt lat="41.5197750" lon="2.1144010">
        <ele>110.0</ele>
        <time>2018-12-15T10:44:53Z</time>
      </trkpt>
      <trkpt lat="41.5197750" lon="2.1144010">
        <ele>110.0</ele>
        <time>2018-12-15T10:44:57Z</time>
      </trkpt>
      <trkpt lat="41.5197750" lon="2.1144010">
        <ele>110.0</ele>
        <time>2018-12-15T10:45:01Z</time>
      </trkpt>
      <trkpt lat="41.5197860" lon="2.1144280">
        <ele>110.8</ele>
        <time>2018-12-15T10:45:05Z</time>
      </trkpt>
      <trkpt lat="41.5197800" lon="2.1144600">
        <ele>111.0</ele>
        <time>2018-12-15T10:45:09Z</time>
      </trkpt>
      <trkpt lat="41.5198200" lon="2.1145500">
        <ele>110.8</ele>
        <time>2018-12-15T10:45:13Z</time>
      </trkpt>
      <trkpt lat="41.5198850" lon="2.1146910">
        <ele>110.8</ele>
        <time>2018-12-15T10:45:17Z</time>
      </trkpt>
      <trkpt lat="41.5199630" lon="2.1148800">
        <ele>111.4</ele>
        <time>2018-12-15T10:45:21Z</time>
      </trkpt>
      <trkpt lat="41.5201210" lon="2.1150300">
        <ele>111.4</ele>
        <time>2018-12-15T10:45:25Z</time>
      </trkpt>
      <trkpt lat="41.5203150" lon="2.1150180">
        <ele>112.0</ele>
        <time>2018-12-15T10:45:29Z</time>
      </trkpt>
      <trkpt lat="41.5205050" lon="2.1150560">
        <ele>112.2</ele>
        <time>2018-12-15T10:45:33Z</time>
      </trkpt>
      <trkpt lat="41.5207100" lon="2.1151180">
        <ele>113.0</ele>
        <time>2018-12-15T10:45:37Z</time>
      </trkpt>
      <trkpt lat="41.5209000" lon="2.1152000">
        <ele>114.6</ele>
        <time>2018-12-15T10:45:41Z</time>
      </trkpt>
      <trkpt lat="41.5210650" lon="2.1151850">
        <ele>115.8</ele>
        <time>2018-12-15T10:45:45Z</time>
      </trkpt>
      <trkpt lat="41.5212330" lon="2.1150630">
        <ele>115.4</ele>
        <time>2018-12-15T10:45:49Z</time>
      </trkpt>
      <trkpt lat="41.5213380" lon="2.1148480">
        <ele>115.4</ele>
        <time>2018-12-15T10:45:53Z</time>
      </trkpt>
      <trkpt lat="41.5214780" lon="2.1146500">
        <ele>115.2</ele>
        <time>2018-12-15T10:45:57Z</time>
      </trkpt>
      <trkpt lat="41.5216880" lon="2.1145480">
        <ele>114.4</ele>
        <time>2018-12-15T10:46:01Z</time>
      </trkpt>
      <trkpt lat="41.5218630" lon="2.1143300">
        <ele>114.0</ele>
        <time>2018-12-15T10:46:05Z</time>
      </trkpt>
      <trkpt lat="41.5220400" lon="2.1141180">
        <ele>114.4</ele>
        <time>2018-12-15T10:46:09Z</time>
      </trkpt>
      <trkpt lat="41.5222130" lon="2.1139000">
        <ele>114.2</ele>
        <time>2018-12-15T10:46:13Z</time>
      </trkpt>
      <trkpt lat="41.5223880" lon="2.1136860">
        <ele>114.2</ele>
        <time>2018-12-15T10:46:17Z</time>
      </trkpt>
      <trkpt lat="41.5225430" lon="2.1134430">
        <ele>113.6</ele>
        <time>2018-12-15T10:46:21Z</time>
      </trkpt>
      <trkpt lat="41.5226710" lon="2.1131730">
        <ele>113.0</ele>
        <time>2018-12-15T10:46:25Z</time>
      </trkpt>
      <trkpt lat="41.5227910" lon="2.1128930">
        <ele>113.0</ele>
        <time>2018-12-15T10:46:29Z</time>
      </trkpt>
      <trkpt lat="41.5228800" lon="2.1125960">
        <ele>112.8</ele>
        <time>2018-12-15T10:46:33Z</time>
      </trkpt>
      <trkpt lat="41.5229280" lon="2.1122830">
        <ele>112.2</ele>
        <time>2018-12-15T10:46:37Z</time>
      </trkpt>
      <trkpt lat="41.5229830" lon="2.1119800">
        <ele>112.4</ele>
        <time>2018-12-15T10:46:41Z</time>
      </trkpt>
      <trkpt lat="41.5230410" lon="2.1116760">
        <ele>112.6</ele>
        <time>2018-12-15T10:46:45Z</time>
      </trkpt>
      <trkpt lat="41.5231010" lon="2.1113850">
        <ele>113.0</ele>
        <time>2018-12-15T10:46:49Z</time>
      </trkpt>
      <trkpt lat="41.5232010" lon="2.1110860">
        <ele>113.2</ele>
        <time>2018-12-15T10:46:53Z</time>
      </trkpt>
      <trkpt lat="41.5233230" lon="2.1108160">
        <ele>113.2</ele>
        <time>2018-12-15T10:46:57Z</time>
      </trkpt>
      <trkpt lat="41.5234650" lon="2.1105700">
        <ele>113.4</ele>
        <time>2018-12-15T10:47:01Z</time>
      </trkpt>
      <trkpt lat="41.5236250" lon="2.1103510">
        <ele>112.8</ele>
        <time>2018-12-15T10:47:05Z</time>
      </trkpt>
      <trkpt lat="41.5237980" lon="2.1101880">
        <ele>113.2</ele>
        <time>2018-12-15T10:47:09Z</time>
      </trkpt>
      <trkpt lat="41.5238900" lon="2.1101550">
        <ele>113.8</ele>
        <time>2018-12-15T10:47:13Z</time>
      </trkpt>
      <trkpt lat="41.5239800" lon="2.1102380">
        <ele>112.4</ele>
        <time>2018-12-15T10:47:17Z</time>
      </trkpt>
      <trkpt lat="41.5242300" lon="2.1101630">
        <ele>112.2</ele>
        <time>2018-12-15T10:47:21Z</time>
      </trkpt>
      <trkpt lat="41.5244600" lon="2.1099530">
        <ele>112.4</ele>
        <time>2018-12-15T10:47:25Z</time>
      </trkpt>
      <trkpt lat="41.5247200" lon="2.1098330">
        <ele>112.4</ele>
        <time>2018-12-15T10:47:29Z</time>
      </trkpt>
      <trkpt lat="41.5249730" lon="2.1096910">
        <ele>112.8</ele>
        <time>2018-12-15T10:47:33Z</time>
      </trkpt>
      <trkpt lat="41.5252080" lon="2.1095830">
        <ele>114.0</ele>
        <time>2018-12-15T10:47:37Z</time>
      </trkpt>
      <trkpt lat="41.5254530" lon="2.1094650">
        <ele>114.6</ele>
        <time>2018-12-15T10:47:41Z</time>
      </trkpt>
      <trkpt lat="41.5256880" lon="2.1093460">
        <ele>114.6</ele>
        <time>2018-12-15T10:47:45Z</time>
      </trkpt>
      <trkpt lat="41.5258980" lon="2.1092550">
        <ele>115.0</ele>
        <time>2018-12-15T10:47:49Z</time>
      </trkpt>
      <trkpt lat="41.5260880" lon="2.1091480">
        <ele>116.2</ele>
        <time>2018-12-15T10:47:53Z</time>
      </trkpt>
      <trkpt lat="41.5263180" lon="2.1090410">
        <ele>116.0</ele>
        <time>2018-12-15T10:47:57Z</time>
      </trkpt>
      <trkpt lat="41.5265760" lon="2.1089530">
        <ele>116.4</ele>
        <time>2018-12-15T10:48:01Z</time>
      </trkpt>
      <trkpt lat="41.5268500" lon="2.1088130">
        <ele>116.6</ele>
        <time>2018-12-15T10:48:05Z</time>
      </trkpt>
      <trkpt lat="41.5271100" lon="2.1086850">
        <ele>117.4</ele>
        <time>2018-12-15T10:48:09Z</time>
      </trkpt>
      <trkpt lat="41.5273480" lon="2.1085700">
        <ele>117.4</ele>
        <time>2018-12-15T10:48:13Z</time>
      </trkpt>
      <trkpt lat="41.5275700" lon="2.1084480">
        <ele>118.0</ele>
        <time>2018-12-15T10:48:17Z</time>
      </trkpt>
      <trkpt lat="41.5277910" lon="2.1083250">
        <ele>117.8</ele>
        <time>2018-12-15T10:48:21Z</time>
      </trkpt>
      <trkpt lat="41.5280000" lon="2.1082200">
        <ele>117.8</ele>
        <time>2018-12-15T10:48:25Z</time>
      </trkpt>
      <trkpt lat="41.5281960" lon="2.1081230">
        <ele>119.0</ele>
        <time>2018-12-15T10:48:29Z</time>
      </trkpt>
      <trkpt lat="41.5284360" lon="2.1080430">
        <ele>119.6</ele>
        <time>2018-12-15T10:48:33Z</time>
      </trkpt>
      <trkpt lat="41.5287000" lon="2.1079250">
        <ele>120.2</ele>
        <time>2018-12-15T10:48:37Z</time>
      </trkpt>
      <trkpt lat="41.5289280" lon="2.1078200">
        <ele>120.2</ele>
        <time>2018-12-15T10:48:41Z</time>
      </trkpt>
      <trkpt lat="41.5291430" lon="2.1078700">
        <ele>120.6</ele>
        <time>2018-12-15T10:48:45Z</time>
      </trkpt>
      <trkpt lat="41.5293600" lon="2.1079030">
        <ele>121.6</ele>
        <time>2018-12-15T10:48:49Z</time>
      </trkpt>
      <trkpt lat="41.5295480" lon="2.1076730">
        <ele>121.4</ele>
        <time>2018-12-15T10:48:53Z</time>
      </trkpt>
      <trkpt lat="41.5297780" lon="2.1075710">
        <ele>121.6</ele>
        <time>2018-12-15T10:48:57Z</time>
      </trkpt>
      <trkpt lat="41.5299850" lon="2.1074760">
        <ele>122.2</ele>
        <time>2018-12-15T10:49:01Z</time>
      </trkpt>
      <trkpt lat="41.5301910" lon="2.1073760">
        <ele>123.0</ele>
        <time>2018-12-15T10:49:05Z</time>
      </trkpt>
      <trkpt lat="41.5304030" lon="2.1072810">
        <ele>123.6</ele>
        <time>2018-12-15T10:49:09Z</time>
      </trkpt>
      <trkpt lat="41.5306010" lon="2.1071780">
        <ele>123.6</ele>
        <time>2018-12-15T10:49:13Z</time>
      </trkpt>
      <trkpt lat="41.5308030" lon="2.1070680">
        <ele>124.0</ele>
        <time>2018-12-15T10:49:17Z</time>
      </trkpt>
      <trkpt lat="41.5310060" lon="2.1069250">
        <ele>124.0</ele>
        <time>2018-12-15T10:49:21Z</time>
      </trkpt>
      <trkpt lat="41.5312260" lon="2.1068250">
        <ele>123.6</ele>
        <time>2018-12-15T10:49:25Z</time>
      </trkpt>
      <trkpt lat="41.5314350" lon="2.1067250">
        <ele>125.4</ele>
        <time>2018-12-15T10:49:29Z</time>
      </trkpt>
      <trkpt lat="41.5316350" lon="2.1066030">
        <ele>125.2</ele>
        <time>2018-12-15T10:49:33Z</time>
      </trkpt>
      <trkpt lat="41.5318260" lon="2.1064880">
        <ele>125.8</ele>
        <time>2018-12-15T10:49:37Z</time>
      </trkpt>
      <trkpt lat="41.5320180" lon="2.1063950">
        <ele>126.2</ele>
        <time>2018-12-15T10:49:41Z</time>
      </trkpt>
      <trkpt lat="41.5322250" lon="2.1063700">
        <ele>126.2</ele>
        <time>2018-12-15T10:49:45Z</time>
      </trkpt>
      <trkpt lat="41.5324230" lon="2.1064900">
        <ele>127.6</ele>
        <time>2018-12-15T10:49:49Z</time>
      </trkpt>
      <trkpt lat="41.5325360" lon="2.1067280">
        <ele>127.2</ele>
        <time>2018-12-15T10:49:53Z</time>
      </trkpt>
      <trkpt lat="41.5326230" lon="2.1070150">
        <ele>127.8</ele>
        <time>2018-12-15T10:49:57Z</time>
      </trkpt>
      <trkpt lat="41.5327110" lon="2.1073150">
        <ele>127.6</ele>
        <time>2018-12-15T10:50:01Z</time>
      </trkpt>
      <trkpt lat="41.5327830" lon="2.1076160">
        <ele>128.2</ele>
        <time>2018-12-15T10:50:05Z</time>
      </trkpt>
      <trkpt lat="41.5328480" lon="2.1079130">
        <ele>128.6</ele>
        <time>2018-12-15T10:50:09Z</time>
      </trkpt>
      <trkpt lat="41.5329280" lon="2.1082000">
        <ele>128.6</ele>
        <time>2018-12-15T10:50:13Z</time>
      </trkpt>
      <trkpt lat="41.5330110" lon="2.1084960">
        <ele>128.2</ele>
        <time>2018-12-15T10:50:17Z</time>
      </trkpt>
      <trkpt lat="41.5331010" lon="2.1088200">
        <ele>127.8</ele>
        <time>2018-12-15T10:50:21Z</time>
      </trkpt>
      <trkpt lat="41.5332060" lon="2.1091880">
        <ele>126.0</ele>
        <time>2018-12-15T10:50:25Z</time>
      </trkpt>
      <trkpt lat="41.5333180" lon="2.1095710">
        <ele>126.0</ele>
        <time>2018-12-15T10:50:29Z</time>
      </trkpt>
      <trkpt lat="41.5334110" lon="2.1099400">
        <ele>127.0</ele>
        <time>2018-12-15T10:50:33Z</time>
      </trkpt>
      <trkpt lat="41.5334930" lon="2.1102810">
        <ele>127.6</ele>
        <time>2018-12-15T10:50:37Z</time>
      </trkpt>
      <trkpt lat="41.5335950" lon="2.1105650">
        <ele>128.6</ele>
        <time>2018-12-15T10:50:41Z</time>
      </trkpt>
      <trkpt lat="41.5336700" lon="2.1108210">
        <ele>129.4</ele>
        <time>2018-12-15T10:50:45Z</time>
      </trkpt>
      <trkpt lat="41.5337480" lon="2.1110610">
        <ele>130.6</ele>
        <time>2018-12-15T10:50:49Z</time>
      </trkpt>
      <trkpt lat="41.5338050" lon="2.1112960">
        <ele>131.0</ele>
        <time>2018-12-15T10:50:53Z</time>
      </trkpt>
      <trkpt lat="41.5338550" lon="2.1115080">
        <ele>132.0</ele>
        <time>2018-12-15T10:50:57Z</time>
      </trkpt>
      <trkpt lat="41.5339010" lon="2.1116580">
        <ele>132.6</ele>
        <time>2018-12-15T10:51:01Z</time>
      </trkpt>
      <trkpt lat="41.5339010" lon="2.1116580">
        <ele>132.6</ele>
        <time>2018-12-15T10:51:05Z</time>
      </trkpt>
      <trkpt lat="41.5339010" lon="2.1116580">
        <ele>132.6</ele>
        <time>2018-12-15T10:51:09Z</time>
      </trkpt>
      <trkpt lat="41.5339010" lon="2.1116580">
        <ele>132.6</ele>
        <time>2018-12-15T10:51:13Z</time>
      </trkpt>
      <trkpt lat="41.5339010" lon="2.1116580">
        <ele>132.6</ele>
        <time>2018-12-15T10:51:17Z</time>
      </trkpt>
      <trkpt lat="41.5339250" lon="2.1117080">
        <ele>132.2</ele>
        <time>2018-12-15T10:51:21Z</time>
      </trkpt>
      <trkpt lat="41.5339580" lon="2.1118130">
        <ele>132.6</ele>
        <time>2018-12-15T10:51:25Z</time>
      </trkpt>
      <trkpt lat="41.5339610" lon="2.1120850">
        <ele>133.4</ele>
        <time>2018-12-15T10:51:29Z</time>
      </trkpt>
      <trkpt lat="41.5340750" lon="2.1123610">
        <ele>133.8</ele>
        <time>2018-12-15T10:51:33Z</time>
      </trkpt>
      <trkpt lat="41.5341700" lon="2.1126680">
        <ele>134.4</ele>
        <time>2018-12-15T10:51:37Z</time>
      </trkpt>
      <trkpt lat="41.5342750" lon="2.1130230">
        <ele>134.6</ele>
        <time>2018-12-15T10:51:41Z</time>
      </trkpt>
      <trkpt lat="41.5343860" lon="2.1133960">
        <ele>136.2</ele>
        <time>2018-12-15T10:51:45Z</time>
      </trkpt>
      <trkpt lat="41.5344860" lon="2.1137680">
        <ele>136.8</ele>
        <time>2018-12-15T10:51:49Z</time>
      </trkpt>
      <trkpt lat="41.5345780" lon="2.1141160">
        <ele>137.0</ele>
        <time>2018-12-15T10:51:53Z</time>
      </trkpt>
      <trkpt lat="41.5346450" lon="2.1143950">
        <ele>137.8</ele>
        <time>2018-12-15T10:51:57Z</time>
      </trkpt>
      <trkpt lat="41.5347250" lon="2.1146310">
        <ele>137.2</ele>
        <time>2018-12-15T10:52:01Z</time>
      </trkpt>
      <trkpt lat="41.5348250" lon="2.1149750">
        <ele>137.4</ele>
        <time>2018-12-15T10:52:05Z</time>
      </trkpt>
      <trkpt lat="41.5349260" lon="2.1153460">
        <ele>137.0</ele>
        <time>2018-12-15T10:52:09Z</time>
      </trkpt>
      <trkpt lat="41.5350160" lon="2.1157500">
        <ele>136.0</ele>
        <time>2018-12-15T10:52:13Z</time>
      </trkpt>
      <trkpt lat="41.5349280" lon="2.1161800">
        <ele>134.2</ele>
        <time>2018-12-15T10:52:17Z</time>
      </trkpt>
      <trkpt lat="41.5348100" lon="2.1166550">
        <ele>132.2</ele>
        <time>2018-12-15T10:52:21Z</time>
      </trkpt>
      <trkpt lat="41.5346780" lon="2.1171710">
        <ele>129.6</ele>
        <time>2018-12-15T10:52:25Z</time>
      </trkpt>
      <trkpt lat="41.5345380" lon="2.1177150">
        <ele>126.4</ele>
        <time>2018-12-15T10:52:29Z</time>
      </trkpt>
      <trkpt lat="41.5343850" lon="2.1182900">
        <ele>124.2</ele>
        <time>2018-12-15T10:52:33Z</time>
      </trkpt>
      <trkpt lat="41.5342250" lon="2.1189080">
        <ele>119.8</ele>
        <time>2018-12-15T10:52:37Z</time>
      </trkpt>
      <trkpt lat="41.5340560" lon="2.1195530">
        <ele>116.4</ele>
        <time>2018-12-15T10:52:41Z</time>
      </trkpt>
      <trkpt lat="41.5338660" lon="2.1201880">
        <ele>112.8</ele>
        <time>2018-12-15T10:52:45Z</time>
      </trkpt>
      <trkpt lat="41.5336300" lon="2.1207830">
        <ele>109.4</ele>
        <time>2018-12-15T10:52:49Z</time>
      </trkpt>
      <trkpt lat="41.5333800" lon="2.1213660">
        <ele>106.4</ele>
        <time>2018-12-15T10:52:53Z</time>
      </trkpt>
      <trkpt lat="41.5331960" lon="2.1219800">
        <ele>104.2</ele>
        <time>2018-12-15T10:52:57Z</time>
      </trkpt>
      <trkpt lat="41.5330010" lon="2.1225660">
        <ele>102.4</ele>
        <time>2018-12-15T10:53:01Z</time>
      </trkpt>
      <trkpt lat="41.5325660" lon="2.1228350">
        <ele>99.8</ele>
        <time>2018-12-15T10:53:05Z</time>
      </trkpt>
      <trkpt lat="41.5321030" lon="2.1230160">
        <ele>96.4</ele>
        <time>2018-12-15T10:53:09Z</time>
      </trkpt>
      <trkpt lat="41.5316780" lon="2.1233000">
        <ele>94.0</ele>
        <time>2018-12-15T10:53:13Z</time>
      </trkpt>
      <trkpt lat="41.5313850" lon="2.1237860">
        <ele>90.6</ele>
        <time>2018-12-15T10:53:17Z</time>
      </trkpt>
      <trkpt lat="41.5311000" lon="2.1243050">
        <ele>89.0</ele>
        <time>2018-12-15T10:53:21Z</time>
      </trkpt>
      <trkpt lat="41.5307510" lon="2.1247400">
        <ele>85.2</ele>
        <time>2018-12-15T10:53:25Z</time>
      </trkpt>
      <trkpt lat="41.5303800" lon="2.1251480">
        <ele>83.6</ele>
        <time>2018-12-15T10:53:29Z</time>
      </trkpt>
      <trkpt lat="41.5301450" lon="2.1256800">
        <ele>82.4</ele>
        <time>2018-12-15T10:53:33Z</time>
      </trkpt>
      <trkpt lat="41.5300460" lon="2.1262500">
        <ele>82.4</ele>
        <time>2018-12-15T10:53:37Z</time>
      </trkpt>
      <trkpt lat="41.5299810" lon="2.1267960">
        <ele>82.2</ele>
        <time>2018-12-15T10:53:41Z</time>
      </trkpt>
      <trkpt lat="41.5299080" lon="2.1273260">
        <ele>82.4</ele>
        <time>2018-12-15T10:53:45Z</time>
      </trkpt>
      <trkpt lat="41.5298380" lon="2.1278500">
        <ele>81.2</ele>
        <time>2018-12-15T10:53:49Z</time>
      </trkpt>
      <trkpt lat="41.5298180" lon="2.1283900">
        <ele>80.6</ele>
        <time>2018-12-15T10:53:53Z</time>
      </trkpt>
      <trkpt lat="41.5298510" lon="2.1289010">
        <ele>81.4</ele>
        <time>2018-12-15T10:53:57Z</time>
      </trkpt>
      <trkpt lat="41.5299410" lon="2.1293430">
        <ele>83.4</ele>
        <time>2018-12-15T10:54:01Z</time>
      </trkpt>
      <trkpt lat="41.5300330" lon="2.1297180">
        <ele>86.0</ele>
        <time>2018-12-15T10:54:05Z</time>
      </trkpt>
      <trkpt lat="41.5300960" lon="2.1300160">
        <ele>87.4</ele>
        <time>2018-12-15T10:54:09Z</time>
      </trkpt>
      <trkpt lat="41.5301260" lon="2.1302550">
        <ele>89.0</ele>
        <time>2018-12-15T10:54:13Z</time>
      </trkpt>
      <trkpt lat="41.5301410" lon="2.1304710">
        <ele>90.2</ele>
        <time>2018-12-15T10:54:17Z</time>
      </trkpt>
      <trkpt lat="41.5301430" lon="2.1306460">
        <ele>91.6</ele>
        <time>2018-12-15T10:54:21Z</time>
      </trkpt>
      <trkpt lat="41.5301410" lon="2.1308180">
        <ele>92.6</ele>
        <time>2018-12-15T10:54:25Z</time>
      </trkpt>
      <trkpt lat="41.5301380" lon="2.1309860">
        <ele>93.0</ele>
        <time>2018-12-15T10:54:29Z</time>
      </trkpt>
      <trkpt lat="41.5301350" lon="2.1311530">
        <ele>94.4</ele>
        <time>2018-12-15T10:54:33Z</time>
      </trkpt>
      <trkpt lat="41.5301410" lon="2.1313180">
        <ele>95.4</ele>
        <time>2018-12-15T10:54:37Z</time>
      </trkpt>
      <trkpt lat="41.5301450" lon="2.1314830">
        <ele>96.6</ele>
        <time>2018-12-15T10:54:41Z</time>
      </trkpt>
      <trkpt lat="41.5301530" lon="2.1316430">
        <ele>97.4</ele>
        <time>2018-12-15T10:54:45Z</time>
      </trkpt>
      <trkpt lat="41.5301660" lon="2.1318000">
        <ele>99.0</ele>
        <time>2018-12-15T10:54:49Z</time>
      </trkpt>
      <trkpt lat="41.5301850" lon="2.1319650">
        <ele>99.0</ele>
        <time>2018-12-15T10:54:53Z</time>
      </trkpt>
      <trkpt lat="41.5302150" lon="2.1321280">
        <ele>100.0</ele>
        <time>2018-12-15T10:54:57Z</time>
      </trkpt>
      <trkpt lat="41.5302500" lon="2.1322860">
        <ele>100.6</ele>
        <time>2018-12-15T10:55:01Z</time>
      </trkpt>
      <trkpt lat="41.5302910" lon="2.1324450">
        <ele>102.0</ele>
        <time>2018-12-15T10:55:05Z</time>
      </trkpt>
      <trkpt lat="41.5303410" lon="2.1326010">
        <ele>103.0</ele>
        <time>2018-12-15T10:55:09Z</time>
      </trkpt>
      <trkpt lat="41.5303950" lon="2.1327510">
        <ele>103.6</ele>
        <time>2018-12-15T10:55:13Z</time>
      </trkpt>
      <trkpt lat="41.5304530" lon="2.1329000">
        <ele>105.0</ele>
        <time>2018-12-15T10:55:17Z</time>
      </trkpt>
      <trkpt lat="41.5305000" lon="2.1330460">
        <ele>105.4</ele>
        <time>2018-12-15T10:55:21Z</time>
      </trkpt>
      <trkpt lat="41.5305550" lon="2.1331980">
        <ele>106.2</ele>
        <time>2018-12-15T10:55:25Z</time>
      </trkpt>
      <trkpt lat="41.5306050" lon="2.1333410">
        <ele>106.6</ele>
        <time>2018-12-15T10:55:29Z</time>
      </trkpt>
      <trkpt lat="41.5306650" lon="2.1335000">
        <ele>108.6</ele>
        <time>2018-12-15T10:55:33Z</time>
      </trkpt>
      <trkpt lat="41.5307360" lon="2.1336530">
        <ele>109.8</ele>
        <time>2018-12-15T10:55:37Z</time>
      </trkpt>
      <trkpt lat="41.5308080" lon="2.1338010">
        <ele>110.0</ele>
        <time>2018-12-15T10:55:41Z</time>
      </trkpt>
      <trkpt lat="41.5308750" lon="2.1339550">
        <ele>110.4</ele>
        <time>2018-12-15T10:55:45Z</time>
      </trkpt>
      <trkpt lat="41.5309410" lon="2.1341210">
        <ele>110.6</ele>
        <time>2018-12-15T10:55:49Z</time>
      </trkpt>
      <trkpt lat="41.5310080" lon="2.1342900">
        <ele>111.4</ele>
        <time>2018-12-15T10:55:53Z</time>
      </trkpt>
      <trkpt lat="41.5310750" lon="2.1344810">
        <ele>111.6</ele>
        <time>2018-12-15T10:55:57Z</time>
      </trkpt>
      <trkpt lat="41.5311400" lon="2.1346860">
        <ele>111.6</ele>
        <time>2018-12-15T10:56:01Z</time>
      </trkpt>
      <trkpt lat="41.5311910" lon="2.1349000">
        <ele>112.0</ele>
        <time>2018-12-15T10:56:05Z</time>
      </trkpt>
      <trkpt lat="41.5312410" lon="2.1351460">
        <ele>111.4</ele>
        <time>2018-12-15T10:56:09Z</time>
      </trkpt>
      <trkpt lat="41.5312880" lon="2.1354350">
        <ele>110.2</ele>
        <time>2018-12-15T10:56:13Z</time>
      </trkpt>
      <trkpt lat="41.5313280" lon="2.1357710">
        <ele>109.8</ele>
        <time>2018-12-15T10:56:17Z</time>
      </trkpt>
      <trkpt lat="41.5313610" lon="2.1361360">
        <ele>107.2</ele>
        <time>2018-12-15T10:56:21Z</time>
      </trkpt>
      <trkpt lat="41.5313910" lon="2.1365650">
        <ele>105.2</ele>
        <time>2018-12-15T10:56:25Z</time>
      </trkpt>
      <trkpt lat="41.5314330" lon="2.1370260">
        <ele>104.4</ele>
        <time>2018-12-15T10:56:29Z</time>
      </trkpt>
      <trkpt lat="41.5314780" lon="2.1374600">
        <ele>104.8</ele>
        <time>2018-12-15T10:56:33Z</time>
      </trkpt>
      <trkpt lat="41.5315110" lon="2.1378750">
        <ele>105.6</ele>
        <time>2018-12-15T10:56:37Z</time>
      </trkpt>
      <trkpt lat="41.5315510" lon="2.1382910">
        <ele>106.2</ele>
        <time>2018-12-15T10:56:41Z</time>
      </trkpt>
      <trkpt lat="41.5315910" lon="2.1387060">
        <ele>106.0</ele>
        <time>2018-12-15T10:56:45Z</time>
      </trkpt>
      <trkpt lat="41.5316360" lon="2.1391500">
        <ele>105.2</ele>
        <time>2018-12-15T10:56:49Z</time>
      </trkpt>
      <trkpt lat="41.5316830" lon="2.1396560">
        <ele>102.0</ele>
        <time>2018-12-15T10:56:53Z</time>
      </trkpt>
      <trkpt lat="41.5317410" lon="2.1402350">
        <ele>98.2</ele>
        <time>2018-12-15T10:56:57Z</time>
      </trkpt>
      <trkpt lat="41.5318050" lon="2.1408480">
        <ele>95.2</ele>
        <time>2018-12-15T10:57:01Z</time>
      </trkpt>
      <trkpt lat="41.5318730" lon="2.1414850">
        <ele>94.0</ele>
        <time>2018-12-15T10:57:05Z</time>
      </trkpt>
      <trkpt lat="41.5319460" lon="2.1421280">
        <ele>89.6</ele>
        <time>2018-12-15T10:57:09Z</time>
      </trkpt>
      <trkpt lat="41.5320100" lon="2.1427730">
        <ele>89.4</ele>
        <time>2018-12-15T10:57:13Z</time>
      </trkpt>
      <trkpt lat="41.5320630" lon="2.1434130">
        <ele>89.4</ele>
        <time>2018-12-15T10:57:17Z</time>
      </trkpt>
      <trkpt lat="41.5321350" lon="2.1440510">
        <ele>86.8</ele>
        <time>2018-12-15T10:57:21Z</time>
      </trkpt>
      <trkpt lat="41.5322000" lon="2.1446880">
        <ele>84.4</ele>
        <time>2018-12-15T10:57:25Z</time>
      </trkpt>
      <trkpt lat="41.5322560" lon="2.1453230">
        <ele>83.0</ele>
        <time>2018-12-15T10:57:29Z</time>
      </trkpt>
      <trkpt lat="41.5323130" lon="2.1459480">
        <ele>81.8</ele>
        <time>2018-12-15T10:57:33Z</time>
      </trkpt>
      <trkpt lat="41.5323800" lon="2.1465650">
        <ele>79.8</ele>
        <time>2018-12-15T10:57:37Z</time>
      </trkpt>
      <trkpt lat="41.5324400" lon="2.1471750">
        <ele>78.6</ele>
        <time>2018-12-15T10:57:41Z</time>
      </trkpt>
      <trkpt lat="41.5325050" lon="2.1477830">
        <ele>77.4</ele>
        <time>2018-12-15T10:57:45Z</time>
      </trkpt>
      <trkpt lat="41.5325730" lon="2.1483760">
        <ele>76.6</ele>
        <time>2018-12-15T10:57:49Z</time>
      </trkpt>
      <trkpt lat="41.5326330" lon="2.1489260">
        <ele>76.8</ele>
        <time>2018-12-15T10:57:53Z</time>
      </trkpt>
      <trkpt lat="41.5326780" lon="2.1494380">
        <ele>77.6</ele>
        <time>2018-12-15T10:57:57Z</time>
      </trkpt>
      <trkpt lat="41.5327310" lon="2.1499760">
        <ele>74.0</ele>
        <time>2018-12-15T10:58:01Z</time>
      </trkpt>
      <trkpt lat="41.5327880" lon="2.1505680">
        <ele>68.8</ele>
        <time>2018-12-15T10:58:05Z</time>
      </trkpt>
      <trkpt lat="41.5328400" lon="2.1512150">
        <ele>65.8</ele>
        <time>2018-12-15T10:58:09Z</time>
      </trkpt>
      <trkpt lat="41.5329000" lon="2.1518500">
        <ele>64.8</ele>
        <time>2018-12-15T10:58:13Z</time>
      </trkpt>
      <trkpt lat="41.5329780" lon="2.1524430">
        <ele>65.2</ele>
        <time>2018-12-15T10:58:17Z</time>
      </trkpt>
      <trkpt lat="41.5330280" lon="2.1530050">
        <ele>65.8</ele>
        <time>2018-12-15T10:58:21Z</time>
      </trkpt>
      <trkpt lat="41.5330050" lon="2.1535260">
        <ele>65.0</ele>
        <time>2018-12-15T10:58:25Z</time>
      </trkpt>
      <trkpt lat="41.5331430" lon="2.1540000">
        <ele>63.2</ele>
        <time>2018-12-15T10:58:29Z</time>
      </trkpt>
      <trkpt lat="41.5332030" lon="2.1545350">
        <ele>61.2</ele>
        <time>2018-12-15T10:58:33Z</time>
      </trkpt>
      <trkpt lat="41.5332680" lon="2.1550950">
        <ele>57.8</ele>
        <time>2018-12-15T10:58:37Z</time>
      </trkpt>
      <trkpt lat="41.5333230" lon="2.1556800">
        <ele>56.4</ele>
        <time>2018-12-15T10:58:41Z</time>
      </trkpt>
      <trkpt lat="41.5333850" lon="2.1562380">
        <ele>57.0</ele>
        <time>2018-12-15T10:58:45Z</time>
      </trkpt>
      <trkpt lat="41.5334400" lon="2.1567460">
        <ele>57.0</ele>
        <time>2018-12-15T10:58:49Z</time>
      </trkpt>
      <trkpt lat="41.5334880" lon="2.1572150">
        <ele>57.6</ele>
        <time>2018-12-15T10:58:53Z</time>
      </trkpt>
      <trkpt lat="41.5335280" lon="2.1576230">
        <ele>58.8</ele>
        <time>2018-12-15T10:58:57Z</time>
      </trkpt>
      <trkpt lat="41.5335630" lon="2.1579930">
        <ele>60.6</ele>
        <time>2018-12-15T10:59:01Z</time>
      </trkpt>
      <trkpt lat="41.5335910" lon="2.1583380">
        <ele>61.4</ele>
        <time>2018-12-15T10:59:05Z</time>
      </trkpt>
      <trkpt lat="41.5336200" lon="2.1586680">
        <ele>62.2</ele>
        <time>2018-12-15T10:59:09Z</time>
      </trkpt>
      <trkpt lat="41.5336480" lon="2.1589950">
        <ele>61.8</ele>
        <time>2018-12-15T10:59:13Z</time>
      </trkpt>
      <trkpt lat="41.5336760" lon="2.1593260">
        <ele>64.2</ele>
        <time>2018-12-15T10:59:17Z</time>
      </trkpt>
      <trkpt lat="41.5337030" lon="2.1596850">
        <ele>65.0</ele>
        <time>2018-12-15T10:59:21Z</time>
      </trkpt>
      <trkpt lat="41.5337280" lon="2.1600480">
        <ele>66.0</ele>
        <time>2018-12-15T10:59:25Z</time>
      </trkpt>
      <trkpt lat="41.5337550" lon="2.1604210">
        <ele>66.8</ele>
        <time>2018-12-15T10:59:29Z</time>
      </trkpt>
      <trkpt lat="41.5337880" lon="2.1607910">
        <ele>67.6</ele>
        <time>2018-12-15T10:59:33Z</time>
      </trkpt>
      <trkpt lat="41.5338160" lon="2.1611830">
        <ele>67.6</ele>
        <time>2018-12-15T10:59:37Z</time>
      </trkpt>
      <trkpt lat="41.5338380" lon="2.1616130">
        <ele>65.0</ele>
        <time>2018-12-15T10:59:41Z</time>
      </trkpt>
      <trkpt lat="41.5338410" lon="2.1621110">
        <ele>62.8</ele>
        <time>2018-12-15T10:59:45Z</time>
      </trkpt>
      <trkpt lat="41.5338480" lon="2.1626710">
        <ele>59.8</ele>
        <time>2018-12-15T10:59:49Z</time>
      </trkpt>
      <trkpt lat="41.5338610" lon="2.1632350">
        <ele>56.2</ele>
        <time>2018-12-15T10:59:53Z</time>
      </trkpt>
      <trkpt lat="41.5338450" lon="2.1637430">
        <ele>54.6</ele>
        <time>2018-12-15T10:59:57Z</time>
      </trkpt>
      <trkpt lat="41.5336680" lon="2.1641210">
        <ele>55.4</ele>
        <time>2018-12-15T11:00:01Z</time>
      </trkpt>
      <trkpt lat="41.5337080" lon="2.1644630">
        <ele>54.2</ele>
        <time>2018-12-15T11:00:05Z</time>
      </trkpt>
      <trkpt lat="41.5338780" lon="2.1647600">
        <ele>54.0</ele>
        <time>2018-12-15T11:00:09Z</time>
      </trkpt>
      <trkpt lat="41.5339030" lon="2.1652450">
        <ele>52.4</ele>
        <time>2018-12-15T11:00:13Z</time>
      </trkpt>
      <trkpt lat="41.5339000" lon="2.1658110">
        <ele>48.6</ele>
        <time>2018-12-15T11:00:17Z</time>
      </trkpt>
      <trkpt lat="41.5339000" lon="2.1663630">
        <ele>51.4</ele>
        <time>2018-12-15T11:00:21Z</time>
      </trkpt>
      <trkpt lat="41.5339060" lon="2.1668960">
        <ele>50.8</ele>
        <time>2018-12-15T11:00:25Z</time>
      </trkpt>
      <trkpt lat="41.5339100" lon="2.1674200">
        <ele>52.2</ele>
        <time>2018-12-15T11:00:29Z</time>
      </trkpt>
      <trkpt lat="41.5339110" lon="2.1679130">
        <ele>53.0</ele>
        <time>2018-12-15T11:00:33Z</time>
      </trkpt>
      <trkpt lat="41.5339010" lon="2.1683630">
        <ele>54.6</ele>
        <time>2018-12-15T11:00:37Z</time>
      </trkpt>
      <trkpt lat="41.5338860" lon="2.1687760">
        <ele>56.0</ele>
        <time>2018-12-15T11:00:41Z</time>
      </trkpt>
      <trkpt lat="41.5338730" lon="2.1691680">
        <ele>57.6</ele>
        <time>2018-12-15T11:00:45Z</time>
      </trkpt>
      <trkpt lat="41.5338650" lon="2.1695400">
        <ele>58.4</ele>
        <time>2018-12-15T11:00:49Z</time>
      </trkpt>
      <trkpt lat="41.5338500" lon="2.1699150">
        <ele>59.4</ele>
        <time>2018-12-15T11:00:53Z</time>
      </trkpt>
      <trkpt lat="41.5338360" lon="2.1702880">
        <ele>59.4</ele>
        <time>2018-12-15T11:00:57Z</time>
      </trkpt>
      <trkpt lat="41.5338250" lon="2.1706500">
        <ele>59.6</ele>
        <time>2018-12-15T11:01:01Z</time>
      </trkpt>
      <trkpt lat="41.5338050" lon="2.1709680">
        <ele>60.8</ele>
        <time>2018-12-15T11:01:05Z</time>
      </trkpt>
      <trkpt lat="41.5338930" lon="2.1713560">
        <ele>61.4</ele>
        <time>2018-12-15T11:01:09Z</time>
      </trkpt>
      <trkpt lat="41.5339510" lon="2.1717260">
        <ele>62.0</ele>
        <time>2018-12-15T11:01:13Z</time>
      </trkpt>
      <trkpt lat="41.5339680" lon="2.1720960">
        <ele>63.2</ele>
        <time>2018-12-15T11:01:17Z</time>
      </trkpt>
      <trkpt lat="41.5341610" lon="2.1723310">
        <ele>63.2</ele>
        <time>2018-12-15T11:01:21Z</time>
      </trkpt>
      <trkpt lat="41.5344080" lon="2.1723860">
        <ele>63.4</ele>
        <time>2018-12-15T11:01:25Z</time>
      </trkpt>
      <trkpt lat="41.5346250" lon="2.1725100">
        <ele>63.6</ele>
        <time>2018-12-15T11:01:29Z</time>
      </trkpt>
      <trkpt lat="41.5348380" lon="2.1726160">
        <ele>64.6</ele>
        <time>2018-12-15T11:01:33Z</time>
      </trkpt>
      <trkpt lat="41.5350630" lon="2.1726810">
        <ele>65.0</ele>
        <time>2018-12-15T11:01:37Z</time>
      </trkpt>
      <trkpt lat="41.5352880" lon="2.1727010">
        <ele>66.0</ele>
        <time>2018-12-15T11:01:41Z</time>
      </trkpt>
      <trkpt lat="41.5355130" lon="2.1726950">
        <ele>65.0</ele>
        <time>2018-12-15T11:01:45Z</time>
      </trkpt>
      <trkpt lat="41.5357480" lon="2.1726950">
        <ele>66.2</ele>
        <time>2018-12-15T11:01:49Z</time>
      </trkpt>
      <trkpt lat="41.5359830" lon="2.1727160">
        <ele>67.4</ele>
        <time>2018-12-15T11:01:53Z</time>
      </trkpt>
      <trkpt lat="41.5362160" lon="2.1727530">
        <ele>66.8</ele>
        <time>2018-12-15T11:01:57Z</time>
      </trkpt>
      <trkpt lat="41.5364450" lon="2.1728200">
        <ele>67.2</ele>
        <time>2018-12-15T11:02:01Z</time>
      </trkpt>
      <trkpt lat="41.5366680" lon="2.1729110">
        <ele>67.2</ele>
        <time>2018-12-15T11:02:05Z</time>
      </trkpt>
      <trkpt lat="41.5368900" lon="2.1730350">
        <ele>67.2</ele>
        <time>2018-12-15T11:02:09Z</time>
      </trkpt>
      <trkpt lat="41.5371080" lon="2.1731860">
        <ele>66.2</ele>
        <time>2018-12-15T11:02:13Z</time>
      </trkpt>
      <trkpt lat="41.5373180" lon="2.1733730">
        <ele>65.0</ele>
        <time>2018-12-15T11:02:17Z</time>
      </trkpt>
      <trkpt lat="41.5375330" lon="2.1735980">
        <ele>64.8</ele>
        <time>2018-12-15T11:02:21Z</time>
      </trkpt>
      <trkpt lat="41.5377510" lon="2.1738550">
        <ele>64.2</ele>
        <time>2018-12-15T11:02:25Z</time>
      </trkpt>
      <trkpt lat="41.5379810" lon="2.1741510">
        <ele>62.8</ele>
        <time>2018-12-15T11:02:29Z</time>
      </trkpt>
      <trkpt lat="41.5382280" lon="2.1744900">
        <ele>61.8</ele>
        <time>2018-12-15T11:02:33Z</time>
      </trkpt>
      <trkpt lat="41.5384830" lon="2.1748780">
        <ele>59.4</ele>
        <time>2018-12-15T11:02:37Z</time>
      </trkpt>
      <trkpt lat="41.5387430" lon="2.1753100">
        <ele>58.2</ele>
        <time>2018-12-15T11:02:41Z</time>
      </trkpt>
      <trkpt lat="41.5390010" lon="2.1757800">
        <ele>57.0</ele>
        <time>2018-12-15T11:02:45Z</time>
      </trkpt>
      <trkpt lat="41.5392510" lon="2.1762910">
        <ele>54.2</ele>
        <time>2018-12-15T11:02:49Z</time>
      </trkpt>
      <trkpt lat="41.5394930" lon="2.1768460">
        <ele>53.0</ele>
        <time>2018-12-15T11:02:53Z</time>
      </trkpt>
      <trkpt lat="41.5397210" lon="2.1774330">
        <ele>49.6</ele>
        <time>2018-12-15T11:02:57Z</time>
      </trkpt>
      <trkpt lat="41.5399200" lon="2.1780530">
        <ele>49.4</ele>
        <time>2018-12-15T11:03:01Z</time>
      </trkpt>
      <trkpt lat="41.5401050" lon="2.1786860">
        <ele>48.6</ele>
        <time>2018-12-15T11:03:05Z</time>
      </trkpt>
      <trkpt lat="41.5402810" lon="2.1793160">
        <ele>48.2</ele>
        <time>2018-12-15T11:03:09Z</time>
      </trkpt>
      <trkpt lat="41.5404530" lon="2.1799350">
        <ele>46.8</ele>
        <time>2018-12-15T11:03:13Z</time>
      </trkpt>
      <trkpt lat="41.5406160" lon="2.1805410">
        <ele>47.2</ele>
        <time>2018-12-15T11:03:17Z</time>
      </trkpt>
      <trkpt lat="41.5407800" lon="2.1811200">
        <ele>47.6</ele>
        <time>2018-12-15T11:03:21Z</time>
      </trkpt>
      <trkpt lat="41.5409310" lon="2.1816850">
        <ele>46.2</ele>
        <time>2018-12-15T11:03:25Z</time>
      </trkpt>
      <trkpt lat="41.5410850" lon="2.1822330">
        <ele>46.4</ele>
        <time>2018-12-15T11:03:29Z</time>
      </trkpt>
      <trkpt lat="41.5412300" lon="2.1827750">
        <ele>46.8</ele>
        <time>2018-12-15T11:03:33Z</time>
      </trkpt>
      <trkpt lat="41.5413580" lon="2.1833080">
        <ele>46.0</ele>
        <time>2018-12-15T11:03:37Z</time>
      </trkpt>
      <trkpt lat="41.5414900" lon="2.1838250">
        <ele>45.4</ele>
        <time>2018-12-15T11:03:41Z</time>
      </trkpt>
      <trkpt lat="41.5415930" lon="2.1843450">
        <ele>46.2</ele>
        <time>2018-12-15T11:03:45Z</time>
      </trkpt>
      <trkpt lat="41.5416250" lon="2.1848600">
        <ele>45.8</ele>
        <time>2018-12-15T11:03:49Z</time>
      </trkpt>
      <trkpt lat="41.5415680" lon="2.1853530">
        <ele>47.2</ele>
        <time>2018-12-15T11:03:53Z</time>
      </trkpt>
      <trkpt lat="41.5414660" lon="2.1857360">
        <ele>47.2</ele>
        <time>2018-12-15T11:03:57Z</time>
      </trkpt>
      <trkpt lat="41.5413960" lon="2.1858660">
        <ele>47.0</ele>
        <time>2018-12-15T11:04:01Z</time>
      </trkpt>
      <trkpt lat="41.5413260" lon="2.1860130">
        <ele>45.6</ele>
        <time>2018-12-15T11:04:05Z</time>
      </trkpt>
      <trkpt lat="41.5412110" lon="2.1861730">
        <ele>43.8</ele>
        <time>2018-12-15T11:04:09Z</time>
      </trkpt>
      <trkpt lat="41.5409950" lon="2.1863650">
        <ele>41.4</ele>
        <time>2018-12-15T11:04:13Z</time>
      </trkpt>
      <trkpt lat="41.5407210" lon="2.1865100">
        <ele>41.4</ele>
        <time>2018-12-15T11:04:17Z</time>
      </trkpt>
      <trkpt lat="41.5407300" lon="2.1867480">
        <ele>40.6</ele>
        <time>2018-12-15T11:04:21Z</time>
      </trkpt>
      <trkpt lat="41.5408630" lon="2.1869410">
        <ele>42.4</ele>
        <time>2018-12-15T11:04:25Z</time>
      </trkpt>
      <trkpt lat="41.5409160" lon="2.1871580">
        <ele>44.8</ele>
        <time>2018-12-15T11:04:29Z</time>
      </trkpt>
      <trkpt lat="41.5409030" lon="2.1873580">
        <ele>46.2</ele>
        <time>2018-12-15T11:04:33Z</time>
      </trkpt>
      <trkpt lat="41.5408630" lon="2.1875330">
        <ele>47.6</ele>
        <time>2018-12-15T11:04:37Z</time>
      </trkpt>
      <trkpt lat="41.5408060" lon="2.1876930">
        <ele>49.2</ele>
        <time>2018-12-15T11:04:41Z</time>
      </trkpt>
      <trkpt lat="41.5407410" lon="2.1878510">
        <ele>50.8</ele>
        <time>2018-12-15T11:04:45Z</time>
      </trkpt>
      <trkpt lat="41.5406700" lon="2.1880230">
        <ele>52.4</ele>
        <time>2018-12-15T11:04:49Z</time>
      </trkpt>
      <trkpt lat="41.5405800" lon="2.1881950">
        <ele>51.2</ele>
        <time>2018-12-15T11:04:53Z</time>
      </trkpt>
      <trkpt lat="41.5404380" lon="2.1884380">
        <ele>48.6</ele>
        <time>2018-12-15T11:04:57Z</time>
      </trkpt>
      <trkpt lat="41.5402300" lon="2.1887100">
        <ele>48.2</ele>
        <time>2018-12-15T11:05:01Z</time>
      </trkpt>
      <trkpt lat="41.5399810" lon="2.1889130">
        <ele>49.6</ele>
        <time>2018-12-15T11:05:05Z</time>
      </trkpt>
      <trkpt lat="41.5397450" lon="2.1890730">
        <ele>50.4</ele>
        <time>2018-12-15T11:05:09Z</time>
      </trkpt>
      <trkpt lat="41.5395200" lon="2.1892080">
        <ele>49.0</ele>
        <time>2018-12-15T11:05:13Z</time>
      </trkpt>
      <trkpt lat="41.5392610" lon="2.1893800">
        <ele>45.8</ele>
        <time>2018-12-15T11:05:17Z</time>
      </trkpt>
      <trkpt lat="41.5389430" lon="2.1896160">
        <ele>42.4</ele>
        <time>2018-12-15T11:05:21Z</time>
      </trkpt>
      <trkpt lat="41.5386010" lon="2.1899230">
        <ele>41.8</ele>
        <time>2018-12-15T11:05:25Z</time>
      </trkpt>
      <trkpt lat="41.5383480" lon="2.1902710">
        <ele>45.0</ele>
        <time>2018-12-15T11:05:29Z</time>
      </trkpt>
      <trkpt lat="41.5381480" lon="2.1905600">
        <ele>47.2</ele>
        <time>2018-12-15T11:05:33Z</time>
      </trkpt>
      <trkpt lat="41.5379550" lon="2.1908130">
        <ele>47.2</ele>
        <time>2018-12-15T11:05:37Z</time>
      </trkpt>
      <trkpt lat="41.5377460" lon="2.1910810">
        <ele>46.4</ele>
        <time>2018-12-15T11:05:41Z</time>
      </trkpt>
      <trkpt lat="41.5375280" lon="2.1913600">
        <ele>46.2</ele>
        <time>2018-12-15T11:05:45Z</time>
      </trkpt>
      <trkpt lat="41.5372780" lon="2.1916210">
        <ele>46.0</ele>
        <time>2018-12-15T11:05:49Z</time>
      </trkpt>
      <trkpt lat="41.5370250" lon="2.1918860">
        <ele>45.8</ele>
        <time>2018-12-15T11:05:53Z</time>
      </trkpt>
      <trkpt lat="41.5367730" lon="2.1921510">
        <ele>45.4</ele>
        <time>2018-12-15T11:05:57Z</time>
      </trkpt>
      <trkpt lat="41.5365160" lon="2.1924030">
        <ele>45.0</ele>
        <time>2018-12-15T11:06:01Z</time>
      </trkpt>
      <trkpt lat="41.5362580" lon="2.1926560">
        <ele>44.2</ele>
        <time>2018-12-15T11:06:05Z</time>
      </trkpt>
      <trkpt lat="41.5360030" lon="2.1929150">
        <ele>44.6</ele>
        <time>2018-12-15T11:06:09Z</time>
      </trkpt>
      <trkpt lat="41.5357500" lon="2.1931710">
        <ele>43.8</ele>
        <time>2018-12-15T11:06:13Z</time>
      </trkpt>
      <trkpt lat="41.5354860" lon="2.1934280">
        <ele>43.4</ele>
        <time>2018-12-15T11:06:17Z</time>
      </trkpt>
      <trkpt lat="41.5352230" lon="2.1936900">
        <ele>43.8</ele>
        <time>2018-12-15T11:06:21Z</time>
      </trkpt>
      <trkpt lat="41.5349380" lon="2.1939700">
        <ele>43.6</ele>
        <time>2018-12-15T11:06:25Z</time>
      </trkpt>
      <trkpt lat="41.5346510" lon="2.1942430">
        <ele>43.4</ele>
        <time>2018-12-15T11:06:29Z</time>
      </trkpt>
      <trkpt lat="41.5343580" lon="2.1945160">
        <ele>43.2</ele>
        <time>2018-12-15T11:06:33Z</time>
      </trkpt>
      <trkpt lat="41.5340610" lon="2.1947830">
        <ele>44.4</ele>
        <time>2018-12-15T11:06:37Z</time>
      </trkpt>
      <trkpt lat="41.5337780" lon="2.1950160">
        <ele>43.6</ele>
        <time>2018-12-15T11:06:41Z</time>
      </trkpt>
      <trkpt lat="41.5335060" lon="2.1952560">
        <ele>44.8</ele>
        <time>2018-12-15T11:06:45Z</time>
      </trkpt>
      <trkpt lat="41.5332380" lon="2.1955010">
        <ele>45.4</ele>
        <time>2018-12-15T11:06:49Z</time>
      </trkpt>
      <trkpt lat="41.5329760" lon="2.1957510">
        <ele>48.0</ele>
        <time>2018-12-15T11:06:53Z</time>
      </trkpt>
      <trkpt lat="41.5327210" lon="2.1960130">
        <ele>46.4</ele>
        <time>2018-12-15T11:06:57Z</time>
      </trkpt>
      <trkpt lat="41.5324830" lon="2.1962900">
        <ele>47.2</ele>
        <time>2018-12-15T11:07:01Z</time>
      </trkpt>
      <trkpt lat="41.5322600" lon="2.1965730">
        <ele>47.4</ele>
        <time>2018-12-15T11:07:05Z</time>
      </trkpt>
      <trkpt lat="41.5320550" lon="2.1968750">
        <ele>47.8</ele>
        <time>2018-12-15T11:07:09Z</time>
      </trkpt>
      <trkpt lat="41.5318610" lon="2.1971930">
        <ele>48.2</ele>
        <time>2018-12-15T11:07:13Z</time>
      </trkpt>
      <trkpt lat="41.5316800" lon="2.1975280">
        <ele>47.2</ele>
        <time>2018-12-15T11:07:17Z</time>
      </trkpt>
      <trkpt lat="41.5315110" lon="2.1978860">
        <ele>46.6</ele>
        <time>2018-12-15T11:07:21Z</time>
      </trkpt>
      <trkpt lat="41.5313580" lon="2.1982650">
        <ele>47.2</ele>
        <time>2018-12-15T11:07:25Z</time>
      </trkpt>
      <trkpt lat="41.5312210" lon="2.1986580">
        <ele>46.0</ele>
        <time>2018-12-15T11:07:29Z</time>
      </trkpt>
      <trkpt lat="41.5310960" lon="2.1990750">
        <ele>45.8</ele>
        <time>2018-12-15T11:07:33Z</time>
      </trkpt>
      <trkpt lat="41.5309850" lon="2.1995160">
        <ele>45.2</ele>
        <time>2018-12-15T11:07:37Z</time>
      </trkpt>
      <trkpt lat="41.5308700" lon="2.1999700">
        <ele>43.8</ele>
        <time>2018-12-15T11:07:41Z</time>
      </trkpt>
      <trkpt lat="41.5307600" lon="2.2004350">
        <ele>43.2</ele>
        <time>2018-12-15T11:07:45Z</time>
      </trkpt>
      <trkpt lat="41.5306310" lon="2.2009200">
        <ele>42.2</ele>
        <time>2018-12-15T11:07:49Z</time>
      </trkpt>
      <trkpt lat="41.5304610" lon="2.2014150">
        <ele>39.6</ele>
        <time>2018-12-15T11:07:53Z</time>
      </trkpt>
      <trkpt lat="41.5302860" lon="2.2019360">
        <ele>37.6</ele>
        <time>2018-12-15T11:07:57Z</time>
      </trkpt>
      <trkpt lat="41.5300730" lon="2.2024500">
        <ele>36.2</ele>
        <time>2018-12-15T11:08:01Z</time>
      </trkpt>
      <trkpt lat="41.5298280" lon="2.2029430">
        <ele>33.8</ele>
        <time>2018-12-15T11:08:05Z</time>
      </trkpt>
      <trkpt lat="41.5295550" lon="2.2034300">
        <ele>32.2</ele>
        <time>2018-12-15T11:08:09Z</time>
      </trkpt>
      <trkpt lat="41.5292630" lon="2.2039030">
        <ele>30.8</ele>
        <time>2018-12-15T11:08:13Z</time>
      </trkpt>
      <trkpt lat="41.5289630" lon="2.2043850">
        <ele>28.8</ele>
        <time>2018-12-15T11:08:17Z</time>
      </trkpt>
      <trkpt lat="41.5285960" lon="2.2047530">
        <ele>26.2</ele>
        <time>2018-12-15T11:08:21Z</time>
      </trkpt>
      <trkpt lat="41.5281810" lon="2.2046160">
        <ele>27.0</ele>
        <time>2018-12-15T11:08:25Z</time>
      </trkpt>
      <trkpt lat="41.5278850" lon="2.2042850">
        <ele>29.2</ele>
        <time>2018-12-15T11:08:29Z</time>
      </trkpt>
      <trkpt lat="41.5275780" lon="2.2041180">
        <ele>30.6</ele>
        <time>2018-12-15T11:08:33Z</time>
      </trkpt>
      <trkpt lat="41.5272850" lon="2.2041450">
        <ele>31.4</ele>
        <time>2018-12-15T11:08:37Z</time>
      </trkpt>
      <trkpt lat="41.5270610" lon="2.2042680">
        <ele>32.6</ele>
        <time>2018-12-15T11:08:41Z</time>
      </trkpt>
      <trkpt lat="41.5269330" lon="2.2045260">
        <ele>32.6</ele>
        <time>2018-12-15T11:08:45Z</time>
      </trkpt>
      <trkpt lat="41.5270260" lon="2.2048530">
        <ele>32.2</ele>
        <time>2018-12-15T11:08:49Z</time>
      </trkpt>
      <trkpt lat="41.5272000" lon="2.2051400">
        <ele>31.8</ele>
        <time>2018-12-15T11:08:53Z</time>
      </trkpt>
      <trkpt lat="41.5274030" lon="2.2054100">
        <ele>31.8</ele>
        <time>2018-12-15T11:08:57Z</time>
      </trkpt>
      <trkpt lat="41.5276400" lon="2.2056560">
        <ele>32.0</ele>
        <time>2018-12-15T11:09:01Z</time>
      </trkpt>
      <trkpt lat="41.5278910" lon="2.2058860">
        <ele>31.8</ele>
        <time>2018-12-15T11:09:05Z</time>
      </trkpt>
      <trkpt lat="41.5281510" lon="2.2061060">
        <ele>31.8</ele>
        <time>2018-12-15T11:09:09Z</time>
      </trkpt>
      <trkpt lat="41.5284300" lon="2.2063010">
        <ele>31.8</ele>
        <time>2018-12-15T11:09:13Z</time>
      </trkpt>
      <trkpt lat="41.5287180" lon="2.2064410">
        <ele>32.6</ele>
        <time>2018-12-15T11:09:17Z</time>
      </trkpt>
      <trkpt lat="41.5289980" lon="2.2065030">
        <ele>31.8</ele>
        <time>2018-12-15T11:09:21Z</time>
      </trkpt>
      <trkpt lat="41.5292760" lon="2.2064980">
        <ele>34.6</ele>
        <time>2018-12-15T11:09:25Z</time>
      </trkpt>
      <trkpt lat="41.5295460" lon="2.2064280">
        <ele>34.8</ele>
        <time>2018-12-15T11:09:29Z</time>
      </trkpt>
      <trkpt lat="41.5298160" lon="2.2063500">
        <ele>34.6</ele>
        <time>2018-12-15T11:09:33Z</time>
      </trkpt>
      <trkpt lat="41.5300860" lon="2.2062660">
        <ele>35.4</ele>
        <time>2018-12-15T11:09:37Z</time>
      </trkpt>
      <trkpt lat="41.5303550" lon="2.2062200">
        <ele>36.0</ele>
        <time>2018-12-15T11:09:41Z</time>
      </trkpt>
      <trkpt lat="41.5306260" lon="2.2062930">
        <ele>35.4</ele>
        <time>2018-12-15T11:09:45Z</time>
      </trkpt>
      <trkpt lat="41.5309010" lon="2.2063930">
        <ele>36.0</ele>
        <time>2018-12-15T11:09:49Z</time>
      </trkpt>
      <trkpt lat="41.5311600" lon="2.2065710">
        <ele>35.4</ele>
        <time>2018-12-15T11:09:53Z</time>
      </trkpt>
      <trkpt lat="41.5314160" lon="2.2067530">
        <ele>34.6</ele>
        <time>2018-12-15T11:09:57Z</time>
      </trkpt>
      <trkpt lat="41.5316710" lon="2.2069380">
        <ele>34.6</ele>
        <time>2018-12-15T11:10:01Z</time>
      </trkpt>
      <trkpt lat="41.5319360" lon="2.2071350">
        <ele>34.4</ele>
        <time>2018-12-15T11:10:05Z</time>
      </trkpt>
      <trkpt lat="41.5322050" lon="2.2073230">
        <ele>33.6</ele>
        <time>2018-12-15T11:10:09Z</time>
      </trkpt>
      <trkpt lat="41.5324780" lon="2.2075250">
        <ele>32.6</ele>
        <time>2018-12-15T11:10:13Z</time>
      </trkpt>
      <trkpt lat="41.5327330" lon="2.2077150">
        <ele>33.4</ele>
        <time>2018-12-15T11:10:17Z</time>
      </trkpt>
      <trkpt lat="41.5329230" lon="2.2078600">
        <ele>33.8</ele>
        <time>2018-12-15T11:10:21Z</time>
      </trkpt>
      <trkpt lat="41.5330350" lon="2.2079500">
        <ele>33.6</ele>
        <time>2018-12-15T11:10:25Z</time>
      </trkpt>
      <trkpt lat="41.5330910" lon="2.2080100">
        <ele>33.4</ele>
        <time>2018-12-15T11:10:29Z</time>
      </trkpt>
      <trkpt lat="41.5331210" lon="2.2080510">
        <ele>33.2</ele>
        <time>2018-12-15T11:10:33Z</time>
      </trkpt>
      <trkpt lat="41.5331550" lon="2.2080810">
        <ele>33.2</ele>
        <time>2018-12-15T11:10:37Z</time>
      </trkpt>
      <trkpt lat="41.5332580" lon="2.2081510">
        <ele>33.2</ele>
        <time>2018-12-15T11:10:41Z</time>
      </trkpt>
      <trkpt lat="41.5334450" lon="2.2082660">
        <ele>32.8</ele>
        <time>2018-12-15T11:10:45Z</time>
      </trkpt>
      <trkpt lat="41.5336900" lon="2.2084450">
        <ele>32.0</ele>
        <time>2018-12-15T11:10:49Z</time>
      </trkpt>
      <trkpt lat="41.5339380" lon="2.2086650">
        <ele>32.4</ele>
        <time>2018-12-15T11:10:53Z</time>
      </trkpt>
      <trkpt lat="41.5342030" lon="2.2088710">
        <ele>32.2</ele>
        <time>2018-12-15T11:10:57Z</time>
      </trkpt>
      <trkpt lat="41.5344310" lon="2.2090810">
        <ele>32.2</ele>
        <time>2018-12-15T11:11:01Z</time>
      </trkpt>
      <trkpt lat="41.5344950" lon="2.2094160">
        <ele>32.2</ele>
        <time>2018-12-15T11:11:05Z</time>
      </trkpt>
      <trkpt lat="41.5344100" lon="2.2097560">
        <ele>31.8</ele>
        <time>2018-12-15T11:11:09Z</time>
      </trkpt>
      <trkpt lat="41.5343180" lon="2.2100560">
        <ele>31.2</ele>
        <time>2018-12-15T11:11:13Z</time>
      </trkpt>
      <trkpt lat="41.5342480" lon="2.2102980">
        <ele>31.4</ele>
        <time>2018-12-15T11:11:17Z</time>
      </trkpt>
      <trkpt lat="41.5342480" lon="2.2102980">
        <ele>31.4</ele>
        <time>2018-12-15T11:11:21Z</time>
      </trkpt>
      <trkpt lat="41.5342480" lon="2.2102980">
        <ele>31.4</ele>
        <time>2018-12-15T11:11:25Z</time>
      </trkpt>
      <trkpt lat="41.5342480" lon="2.2102980">
        <ele>31.4</ele>
        <time>2018-12-15T11:11:29Z</time>
      </trkpt>
      <trkpt lat="41.5342480" lon="2.2102980">
        <ele>31.4</ele>
        <time>2018-12-15T11:11:33Z</time>
      </trkpt>
      <trkpt lat="41.5342360" lon="2.2104430">
        <ele>31.4</ele>
        <time>2018-12-15T11:11:37Z</time>
      </trkpt>
      <trkpt lat="41.5342000" lon="2.2105910">
        <ele>30.6</ele>
        <time>2018-12-15T11:11:41Z</time>
      </trkpt>
      <trkpt lat="41.5341330" lon="2.2108510">
        <ele>29.4</ele>
        <time>2018-12-15T11:11:45Z</time>
      </trkpt>
      <trkpt lat="41.5340230" lon="2.2112130">
        <ele>28.2</ele>
        <time>2018-12-15T11:11:49Z</time>
      </trkpt>
      <trkpt lat="41.5338930" lon="2.2116460">
        <ele>27.8</ele>
        <time>2018-12-15T11:11:53Z</time>
      </trkpt>
      <trkpt lat="41.5337610" lon="2.2120850">
        <ele>27.2</ele>
        <time>2018-12-15T11:11:57Z</time>
      </trkpt>
      <trkpt lat="41.5336410" lon="2.2125300">
        <ele>26.2</ele>
        <time>2018-12-15T11:12:01Z</time>
      </trkpt>
      <trkpt lat="41.5335260" lon="2.2129680">
        <ele>27.4</ele>
        <time>2018-12-15T11:12:05Z</time>
      </trkpt>
      <trkpt lat="41.5334050" lon="2.2134000">
        <ele>27.0</ele>
        <time>2018-12-15T11:12:09Z</time>
      </trkpt>
      <trkpt lat="41.5332730" lon="2.2138200">
        <ele>27.2</ele>
        <time>2018-12-15T11:12:13Z</time>
      </trkpt>
      <trkpt lat="41.5331230" lon="2.2142330">
        <ele>27.2</ele>
        <time>2018-12-15T11:12:17Z</time>
      </trkpt>
      <trkpt lat="41.5329610" lon="2.2146050">
        <ele>28.8</ele>
        <time>2018-12-15T11:12:21Z</time>
      </trkpt>
      <trkpt lat="41.5327930" lon="2.2149300">
        <ele>29.8</ele>
        <time>2018-12-15T11:12:25Z</time>
      </trkpt>
      <trkpt lat="41.5326180" lon="2.2152360">
        <ele>32.0</ele>
        <time>2018-12-15T11:12:29Z</time>
      </trkpt>
      <trkpt lat="41.5324310" lon="2.2155130">
        <ele>34.0</ele>
        <time>2018-12-15T11:12:33Z</time>
      </trkpt>
      <trkpt lat="41.5322310" lon="2.2157730">
        <ele>36.0</ele>
        <time>2018-12-15T11:12:37Z</time>
      </trkpt>
      <trkpt lat="41.5320460" lon="2.2160360">
        <ele>37.0</ele>
        <time>2018-12-15T11:12:41Z</time>
      </trkpt>
      <trkpt lat="41.5318510" lon="2.2163030">
        <ele>37.0</ele>
        <time>2018-12-15T11:12:45Z</time>
      </trkpt>
      <trkpt lat="41.5316550" lon="2.2165700">
        <ele>37.0</ele>
        <time>2018-12-15T11:12:49Z</time>
      </trkpt>
      <trkpt lat="41.5314530" lon="2.2168310">
        <ele>37.2</ele>
        <time>2018-12-15T11:12:53Z</time>
      </trkpt>
      <trkpt lat="41.5312510" lon="2.2170930">
        <ele>36.6</ele>
        <time>2018-12-15T11:12:57Z</time>
      </trkpt>
      <trkpt lat="41.5310610" lon="2.2173810">
        <ele>36.6</ele>
        <time>2018-12-15T11:13:01Z</time>
      </trkpt>
      <trkpt lat="41.5308810" lon="2.2176830">
        <ele>36.6</ele>
        <time>2018-12-15T11:13:05Z</time>
      </trkpt>
      <trkpt lat="41.5307360" lon="2.2179960">
        <ele>36.8</ele>
        <time>2018-12-15T11:13:09Z</time>
      </trkpt>
      <trkpt lat="41.5306160" lon="2.2183410">
        <ele>35.8</ele>
        <time>2018-12-15T11:13:13Z</time>
      </trkpt>
      <trkpt lat="41.5304930" lon="2.2186860">
        <ele>36.0</ele>
        <time>2018-12-15T11:13:17Z</time>
      </trkpt>
      <trkpt lat="41.5303630" lon="2.2190400">
        <ele>35.8</ele>
        <time>2018-12-15T11:13:21Z</time>
      </trkpt>
      <trkpt lat="41.5302330" lon="2.2193950">
        <ele>35.8</ele>
        <time>2018-12-15T11:13:25Z</time>
      </trkpt>
      <trkpt lat="41.5301000" lon="2.2197560">
        <ele>35.4</ele>
        <time>2018-12-15T11:13:29Z</time>
      </trkpt>
      <trkpt lat="41.5299560" lon="2.2201400">
        <ele>34.0</ele>
        <time>2018-12-15T11:13:33Z</time>
      </trkpt>
      <trkpt lat="41.5298080" lon="2.2205500">
        <ele>32.6</ele>
        <time>2018-12-15T11:13:37Z</time>
      </trkpt>
      <trkpt lat="41.5296510" lon="2.2209850">
        <ele>31.6</ele>
        <time>2018-12-15T11:13:41Z</time>
      </trkpt>
      <trkpt lat="41.5295730" lon="2.2214730">
        <ele>28.6</ele>
        <time>2018-12-15T11:13:45Z</time>
      </trkpt>
      <trkpt lat="41.5296830" lon="2.2219730">
        <ele>27.0</ele>
        <time>2018-12-15T11:13:49Z</time>
      </trkpt>
      <trkpt lat="41.5297760" lon="2.2224550">
        <ele>26.4</ele>
        <time>2018-12-15T11:13:53Z</time>
      </trkpt>
      <trkpt lat="41.5299080" lon="2.2226960">
        <ele>27.2</ele>
        <time>2018-12-15T11:13:57Z</time>
      </trkpt>
      <trkpt lat="41.5301100" lon="2.2225460">
        <ele>27.8</ele>
        <time>2018-12-15T11:14:01Z</time>
      </trkpt>
      <trkpt lat="41.5303230" lon="2.2224160">
        <ele>28.4</ele>
        <time>2018-12-15T11:14:05Z</time>
      </trkpt>
      <trkpt lat="41.5305400" lon="2.2223110">
        <ele>29.2</ele>
        <time>2018-12-15T11:14:09Z</time>
      </trkpt>
      <trkpt lat="41.5307410" lon="2.2221800">
        <ele>29.4</ele>
        <time>2018-12-15T11:14:13Z</time>
      </trkpt>
      <trkpt lat="41.5309510" lon="2.2220910">
        <ele>30.2</ele>
        <time>2018-12-15T11:14:17Z</time>
      </trkpt>
      <trkpt lat="41.5311330" lon="2.2219830">
        <ele>30.8</ele>
        <time>2018-12-15T11:14:21Z</time>
      </trkpt>
      <trkpt lat="41.5312880" lon="2.2218950">
        <ele>31.2</ele>
        <time>2018-12-15T11:14:25Z</time>
      </trkpt>
      <trkpt lat="41.5314110" lon="2.2218460">
        <ele>30.4</ele>
        <time>2018-12-15T11:14:29Z</time>
      </trkpt>
      <trkpt lat="41.5315760" lon="2.2219810">
        <ele>28.4</ele>
        <time>2018-12-15T11:14:33Z</time>
      </trkpt>
      <trkpt lat="41.5317550" lon="2.2222500">
        <ele>27.8</ele>
        <time>2018-12-15T11:14:37Z</time>
      </trkpt>
      <trkpt lat="41.5319750" lon="2.2224960">
        <ele>27.2</ele>
        <time>2018-12-15T11:14:41Z</time>
      </trkpt>
      <trkpt lat="41.5322130" lon="2.2226980">
        <ele>27.6</ele>
        <time>2018-12-15T11:14:45Z</time>
      </trkpt>
      <trkpt lat="41.5324780" lon="2.2227980">
        <ele>27.8</ele>
        <time>2018-12-15T11:14:49Z</time>
      </trkpt>
      <trkpt lat="41.5326950" lon="2.2228980">
        <ele>27.2</ele>
        <time>2018-12-15T11:14:53Z</time>
      </trkpt>
      <trkpt lat="41.5328580" lon="2.2230200">
        <ele>27.0</ele>
        <time>2018-12-15T11:14:57Z</time>
      </trkpt>
      <trkpt lat="41.5329910" lon="2.2231480">
        <ele>28.8</ele>
        <time>2018-12-15T11:15:01Z</time>
      </trkpt>
      <trkpt lat="41.5331750" lon="2.2233400">
        <ele>28.8</ele>
        <time>2018-12-15T11:15:05Z</time>
      </trkpt>
      <trkpt lat="41.5333760" lon="2.2235480">
        <ele>28.8</ele>
        <time>2018-12-15T11:15:09Z</time>
      </trkpt>
      <trkpt lat="41.5335760" lon="2.2237660">
        <ele>28.8</ele>
        <time>2018-12-15T11:15:13Z</time>
      </trkpt>
      <trkpt lat="41.5338180" lon="2.2239660">
        <ele>28.8</ele>
        <time>2018-12-15T11:15:17Z</time>
      </trkpt>
      <trkpt lat="41.5340500" lon="2.2242110">
        <ele>28.8</ele>
        <time>2018-12-15T11:15:21Z</time>
      </trkpt>
      <trkpt lat="41.5342680" lon="2.2244510">
        <ele>29.2</ele>
        <time>2018-12-15T11:15:25Z</time>
      </trkpt>
      <trkpt lat="41.5344880" lon="2.2246480">
        <ele>29.6</ele>
        <time>2018-12-15T11:15:29Z</time>
      </trkpt>
      <trkpt lat="41.5346910" lon="2.2248460">
        <ele>29.4</ele>
        <time>2018-12-15T11:15:33Z</time>
      </trkpt>
      <trkpt lat="41.5348950" lon="2.2250460">
        <ele>29.8</ele>
        <time>2018-12-15T11:15:37Z</time>
      </trkpt>
      <trkpt lat="41.5351160" lon="2.2252250">
        <ele>29.4</ele>
        <time>2018-12-15T11:15:41Z</time>
      </trkpt>
      <trkpt lat="41.5353260" lon="2.2254160">
        <ele>29.8</ele>
        <time>2018-12-15T11:15:45Z</time>
      </trkpt>
      <trkpt lat="41.5355360" lon="2.2256180">
        <ele>30.2</ele>
        <time>2018-12-15T11:15:49Z</time>
      </trkpt>
      <trkpt lat="41.5357450" lon="2.2258280">
        <ele>30.0</ele>
        <time>2018-12-15T11:15:53Z</time>
      </trkpt>
      <trkpt lat="41.5359410" lon="2.2260410">
        <ele>30.4</ele>
        <time>2018-12-15T11:15:57Z</time>
      </trkpt>
      <trkpt lat="41.5361510" lon="2.2262360">
        <ele>30.4</ele>
        <time>2018-12-15T11:16:01Z</time>
      </trkpt>
      <trkpt lat="41.5363550" lon="2.2264380">
        <ele>30.8</ele>
        <time>2018-12-15T11:16:05Z</time>
      </trkpt>
      <trkpt lat="41.5365530" lon="2.2266610">
        <ele>30.6</ele>
        <time>2018-12-15T11:16:09Z</time>
      </trkpt>
      <trkpt lat="41.5367630" lon="2.2268660">
        <ele>31.2</ele>
        <time>2018-12-15T11:16:13Z</time>
      </trkpt>
      <trkpt lat="41.5369710" lon="2.2270700">
        <ele>31.4</ele>
        <time>2018-12-15T11:16:17Z</time>
      </trkpt>
      <trkpt lat="41.5371700" lon="2.2272750">
        <ele>31.2</ele>
        <time>2018-12-15T11:16:21Z</time>
      </trkpt>
      <trkpt lat="41.5373280" lon="2.2274650">
        <ele>32.0</ele>
        <time>2018-12-15T11:16:25Z</time>
      </trkpt>
      <trkpt lat="41.5375180" lon="2.2276350">
        <ele>32.4</ele>
        <time>2018-12-15T11:16:29Z</time>
      </trkpt>
      <trkpt lat="41.5377050" lon="2.2278330">
        <ele>32.6</ele>
        <time>2018-12-15T11:16:33Z</time>
      </trkpt>
      <trkpt lat="41.5378960" lon="2.2280310">
        <ele>32.4</ele>
        <time>2018-12-15T11:16:37Z</time>
      </trkpt>
      <trkpt lat="41.5380810" lon="2.2282230">
        <ele>32.6</ele>
        <time>2018-12-15T11:16:41Z</time>
      </trkpt>
      <trkpt lat="41.5382560" lon="2.2284250">
        <ele>33.2</ele>
        <time>2018-12-15T11:16:45Z</time>
      </trkpt>
      <trkpt lat="41.5384250" lon="2.2286230">
        <ele>32.6</ele>
        <time>2018-12-15T11:16:49Z</time>
      </trkpt>
      <trkpt lat="41.5385880" lon="2.2288010">
        <ele>33.0</ele>
        <time>2018-12-15T11:16:53Z</time>
      </trkpt>
      <trkpt lat="41.5387560" lon="2.2289680">
        <ele>34.2</ele>
        <time>2018-12-15T11:16:57Z</time>
      </trkpt>
      <trkpt lat="41.5389600" lon="2.2291410">
        <ele>33.6</ele>
        <time>2018-12-15T11:17:01Z</time>
      </trkpt>
      <trkpt lat="41.5391510" lon="2.2293700">
        <ele>33.4</ele>
        <time>2018-12-15T11:17:05Z</time>
      </trkpt>
      <trkpt lat="41.5393630" lon="2.2296280">
        <ele>33.4</ele>
        <time>2018-12-15T11:17:09Z</time>
      </trkpt>
      <trkpt lat="41.5395800" lon="2.2298860">
        <ele>34.0</ele>
        <time>2018-12-15T11:17:13Z</time>
      </trkpt>
      <trkpt lat="41.5397930" lon="2.2301150">
        <ele>34.0</ele>
        <time>2018-12-15T11:17:17Z</time>
      </trkpt>
      <trkpt lat="41.5399660" lon="2.2303460">
        <ele>34.4</ele>
        <time>2018-12-15T11:17:21Z</time>
      </trkpt>
      <trkpt lat="41.5401200" lon="2.2305350">
        <ele>35.0</ele>
        <time>2018-12-15T11:17:25Z</time>
      </trkpt>
      <trkpt lat="41.5402480" lon="2.2307060">
        <ele>34.8</ele>
        <time>2018-12-15T11:17:29Z</time>
      </trkpt>
      <trkpt lat="41.5403950" lon="2.2308730">
        <ele>34.6</ele>
        <time>2018-12-15T11:17:33Z</time>
      </trkpt>
      <trkpt lat="41.5405550" lon="2.2310930">
        <ele>34.6</ele>
        <time>2018-12-15T11:17:37Z</time>
      </trkpt>
      <trkpt lat="41.5407150" lon="2.2312900">
        <ele>35.2</ele>
        <time>2018-12-15T11:17:41Z</time>
      </trkpt>
      <trkpt lat="41.5408210" lon="2.2314930">
        <ele>35.4</ele>
        <time>2018-12-15T11:17:45Z</time>
      </trkpt>
      <trkpt lat="41.5409430" lon="2.2316730">
        <ele>35.6</ele>
        <time>2018-12-15T11:17:49Z</time>
      </trkpt>
      <trkpt lat="41.5410810" lon="2.2318580">
        <ele>35.2</ele>
        <time>2018-12-15T11:17:53Z</time>
      </trkpt>
      <trkpt lat="41.5412300" lon="2.2320530">
        <ele>35.2</ele>
        <time>2018-12-15T11:17:57Z</time>
      </trkpt>
      <trkpt lat="41.5413580" lon="2.2322810">
        <ele>35.4</ele>
        <time>2018-12-15T11:18:01Z</time>
      </trkpt>
      <trkpt lat="41.5415010" lon="2.2325060">
        <ele>35.2</ele>
        <time>2018-12-15T11:18:05Z</time>
      </trkpt>
      <trkpt lat="41.5416230" lon="2.2327430">
        <ele>35.6</ele>
        <time>2018-12-15T11:18:09Z</time>
      </trkpt>
      <trkpt lat="41.5417600" lon="2.2329800">
        <ele>35.6</ele>
        <time>2018-12-15T11:18:13Z</time>
      </trkpt>
      <trkpt lat="41.5418830" lon="2.2332500">
        <ele>36.0</ele>
        <time>2018-12-15T11:18:17Z</time>
      </trkpt>
      <trkpt lat="41.5420260" lon="2.2335330">
        <ele>36.0</ele>
        <time>2018-12-15T11:18:21Z</time>
      </trkpt>
      <trkpt lat="41.5421750" lon="2.2337950">
        <ele>36.0</ele>
        <time>2018-12-15T11:18:25Z</time>
      </trkpt>
      <trkpt lat="41.5423180" lon="2.2340810">
        <ele>36.6</ele>
        <time>2018-12-15T11:18:29Z</time>
      </trkpt>
      <trkpt lat="41.5424650" lon="2.2343710">
        <ele>37.0</ele>
        <time>2018-12-15T11:18:33Z</time>
      </trkpt>
      <trkpt lat="41.5426260" lon="2.2346580">
        <ele>36.6</ele>
        <time>2018-12-15T11:18:37Z</time>
      </trkpt>
      <trkpt lat="41.5427750" lon="2.2349500">
        <ele>36.8</ele>
        <time>2018-12-15T11:18:41Z</time>
      </trkpt>
      <trkpt lat="41.5429200" lon="2.2352330">
        <ele>37.6</ele>
        <time>2018-12-15T11:18:45Z</time>
      </trkpt>
      <trkpt lat="41.5430900" lon="2.2355200">
        <ele>37.2</ele>
        <time>2018-12-15T11:18:49Z</time>
      </trkpt>
      <trkpt lat="41.5432480" lon="2.2358080">
        <ele>37.0</ele>
        <time>2018-12-15T11:18:53Z</time>
      </trkpt>
      <trkpt lat="41.5433980" lon="2.2360950">
        <ele>37.4</ele>
        <time>2018-12-15T11:18:57Z</time>
      </trkpt>
      <trkpt lat="41.5435510" lon="2.2363680">
        <ele>37.6</ele>
        <time>2018-12-15T11:19:01Z</time>
      </trkpt>
      <trkpt lat="41.5436860" lon="2.2366480">
        <ele>37.8</ele>
        <time>2018-12-15T11:19:05Z</time>
      </trkpt>
      <trkpt lat="41.5438500" lon="2.2369180">
        <ele>37.2</ele>
        <time>2018-12-15T11:19:09Z</time>
      </trkpt>
      <trkpt lat="41.5439750" lon="2.2372000">
        <ele>38.0</ele>
        <time>2018-12-15T11:19:13Z</time>
      </trkpt>
      <trkpt lat="41.5440130" lon="2.2375260">
        <ele>37.8</ele>
        <time>2018-12-15T11:19:17Z</time>
      </trkpt>
      <trkpt lat="41.5441200" lon="2.2378030">
        <ele>38.4</ele>
        <time>2018-12-15T11:19:21Z</time>
      </trkpt>
      <trkpt lat="41.5442450" lon="2.2380830">
        <ele>38.4</ele>
        <time>2018-12-15T11:19:25Z</time>
      </trkpt>
      <trkpt lat="41.5443610" lon="2.2383650">
        <ele>38.8</ele>
        <time>2018-12-15T11:19:29Z</time>
      </trkpt>
      <trkpt lat="41.5444810" lon="2.2386560">
        <ele>38.6</ele>
        <time>2018-12-15T11:19:33Z</time>
      </trkpt>
      <trkpt lat="41.5445830" lon="2.2389610">
        <ele>39.4</ele>
        <time>2018-12-15T11:19:37Z</time>
      </trkpt>
      <trkpt lat="41.5446710" lon="2.2392900">
        <ele>38.6</ele>
        <time>2018-12-15T11:19:41Z</time>
      </trkpt>
      <trkpt lat="41.5447410" lon="2.2396310">
        <ele>38.8</ele>
        <time>2018-12-15T11:19:45Z</time>
      </trkpt>
      <trkpt lat="41.5448080" lon="2.2399680">
        <ele>39.2</ele>
        <time>2018-12-15T11:19:49Z</time>
      </trkpt>
      <trkpt lat="41.5448650" lon="2.2403080">
        <ele>39.4</ele>
        <time>2018-12-15T11:19:53Z</time>
      </trkpt>
      <trkpt lat="41.5449110" lon="2.2406580">
        <ele>39.2</ele>
        <time>2018-12-15T11:19:57Z</time>
      </trkpt>
      <trkpt lat="41.5449560" lon="2.2410050">
        <ele>39.4</ele>
        <time>2018-12-15T11:20:01Z</time>
      </trkpt>
      <trkpt lat="41.5450060" lon="2.2413550">
        <ele>40.0</ele>
        <time>2018-12-15T11:20:05Z</time>
      </trkpt>
      <trkpt lat="41.5450580" lon="2.2416780">
        <ele>40.0</ele>
        <time>2018-12-15T11:20:09Z</time>
      </trkpt>
      <trkpt lat="41.5451660" lon="2.2419630">
        <ele>40.0</ele>
        <time>2018-12-15T11:20:13Z</time>
      </trkpt>
      <trkpt lat="41.5452160" lon="2.2422830">
        <ele>40.0</ele>
        <time>2018-12-15T11:20:17Z</time>
      </trkpt>
      <trkpt lat="41.5452050" lon="2.2426260">
        <ele>40.0</ele>
        <time>2018-12-15T11:20:21Z</time>
      </trkpt>
      <trkpt lat="41.5452310" lon="2.2429750">
        <ele>40.0</ele>
        <time>2018-12-15T11:20:25Z</time>
      </trkpt>
      <trkpt lat="41.5452830" lon="2.2433200">
        <ele>40.0</ele>
        <time>2018-12-15T11:20:29Z</time>
      </trkpt>
      <trkpt lat="41.5453210" lon="2.2436660">
        <ele>40.4</ele>
        <time>2018-12-15T11:20:33Z</time>
      </trkpt>
      <trkpt lat="41.5453160" lon="2.2440030">
        <ele>40.6</ele>
        <time>2018-12-15T11:20:37Z</time>
      </trkpt>
      <trkpt lat="41.5452730" lon="2.2443300">
        <ele>40.4</ele>
        <time>2018-12-15T11:20:41Z</time>
      </trkpt>
      <trkpt lat="41.5453050" lon="2.2446810">
        <ele>41.2</ele>
        <time>2018-12-15T11:20:45Z</time>
      </trkpt>
      <trkpt lat="41.5453330" lon="2.2450430">
        <ele>41.6</ele>
        <time>2018-12-15T11:20:49Z</time>
      </trkpt>
      <trkpt lat="41.5453450" lon="2.2453980">
        <ele>42.0</ele>
        <time>2018-12-15T11:20:53Z</time>
      </trkpt>
      <trkpt lat="41.5453750" lon="2.2457430">
        <ele>41.8</ele>
        <time>2018-12-15T11:20:57Z</time>
      </trkpt>
      <trkpt lat="41.5454160" lon="2.2460730">
        <ele>42.2</ele>
        <time>2018-12-15T11:21:01Z</time>
      </trkpt>
      <trkpt lat="41.5454330" lon="2.2463930">
        <ele>42.0</ele>
        <time>2018-12-15T11:21:05Z</time>
      </trkpt>
      <trkpt lat="41.5454280" lon="2.2467300">
        <ele>42.4</ele>
        <time>2018-12-15T11:21:09Z</time>
      </trkpt>
      <trkpt lat="41.5454780" lon="2.2470360">
        <ele>42.4</ele>
        <time>2018-12-15T11:21:13Z</time>
      </trkpt>
      <trkpt lat="41.5455160" lon="2.2473650">
        <ele>42.8</ele>
        <time>2018-12-15T11:21:17Z</time>
      </trkpt>
      <trkpt lat="41.5456310" lon="2.2476000">
        <ele>42.8</ele>
        <time>2018-12-15T11:21:21Z</time>
      </trkpt>
      <trkpt lat="41.5458200" lon="2.2477500">
        <ele>42.0</ele>
        <time>2018-12-15T11:21:25Z</time>
      </trkpt>
      <trkpt lat="41.5458400" lon="2.2480280">
        <ele>42.6</ele>
        <time>2018-12-15T11:21:29Z</time>
      </trkpt>
      <trkpt lat="41.5458560" lon="2.2481860">
        <ele>45.8</ele>
        <time>2018-12-15T11:21:33Z</time>
      </trkpt>
      <trkpt lat="41.5459030" lon="2.2484000">
        <ele>43.4</ele>
        <time>2018-12-15T11:21:37Z</time>
      </trkpt>
      <trkpt lat="41.5459860" lon="2.2486550">
        <ele>43.8</ele>
        <time>2018-12-15T11:21:41Z</time>
      </trkpt>
      <trkpt lat="41.5460530" lon="2.2489600">
        <ele>43.6</ele>
        <time>2018-12-15T11:21:45Z</time>
      </trkpt>
      <trkpt lat="41.5461130" lon="2.2492600">
        <ele>44.6</ele>
        <time>2018-12-15T11:21:49Z</time>
      </trkpt>
      <trkpt lat="41.5461310" lon="2.2495680">
        <ele>44.8</ele>
        <time>2018-12-15T11:21:53Z</time>
      </trkpt>
      <trkpt lat="41.5461700" lon="2.2498850">
        <ele>44.6</ele>
        <time>2018-12-15T11:21:57Z</time>
      </trkpt>
      <trkpt lat="41.5462430" lon="2.2502530">
        <ele>42.8</ele>
        <time>2018-12-15T11:22:01Z</time>
      </trkpt>
      <trkpt lat="41.5462110" lon="2.2505900">
        <ele>44.2</ele>
        <time>2018-12-15T11:22:05Z</time>
      </trkpt>
      <trkpt lat="41.5461780" lon="2.2508660">
        <ele>44.2</ele>
        <time>2018-12-15T11:22:09Z</time>
      </trkpt>
      <trkpt lat="41.5461250" lon="2.2512260">
        <ele>43.0</ele>
        <time>2018-12-15T11:22:13Z</time>
      </trkpt>
      <trkpt lat="41.5460850" lon="2.2515400">
        <ele>43.2</ele>
        <time>2018-12-15T11:22:17Z</time>
      </trkpt>
      <trkpt lat="41.5460800" lon="2.2518750">
        <ele>43.2</ele>
        <time>2018-12-15T11:22:21Z</time>
      </trkpt>
      <trkpt lat="41.5460960" lon="2.2522060">
        <ele>43.6</ele>
        <time>2018-12-15T11:22:25Z</time>
      </trkpt>
      <trkpt lat="41.5460810" lon="2.2525500">
        <ele>43.6</ele>
        <time>2018-12-15T11:22:29Z</time>
      </trkpt>
      <trkpt lat="41.5461110" lon="2.2529160">
        <ele>43.8</ele>
        <time>2018-12-15T11:22:33Z</time>
      </trkpt>
      <trkpt lat="41.5461360" lon="2.2533110">
        <ele>44.0</ele>
        <time>2018-12-15T11:22:37Z</time>
      </trkpt>
      <trkpt lat="41.5461350" lon="2.2536800">
        <ele>44.4</ele>
        <time>2018-12-15T11:22:41Z</time>
      </trkpt>
      <trkpt lat="41.5460650" lon="2.2539760">
        <ele>44.0</ele>
        <time>2018-12-15T11:22:45Z</time>
      </trkpt>
      <trkpt lat="41.5459910" lon="2.2542410">
        <ele>44.4</ele>
        <time>2018-12-15T11:22:49Z</time>
      </trkpt>
      <trkpt lat="41.5459400" lon="2.2545710">
        <ele>44.6</ele>
        <time>2018-12-15T11:22:53Z</time>
      </trkpt>
      <trkpt lat="41.5459000" lon="2.2548450">
        <ele>44.8</ele>
        <time>2018-12-15T11:22:57Z</time>
      </trkpt>
      <trkpt lat="41.5458680" lon="2.2552050">
        <ele>45.0</ele>
        <time>2018-12-15T11:23:01Z</time>
      </trkpt>
      <trkpt lat="41.5459380" lon="2.2554960">
        <ele>44.6</ele>
        <time>2018-12-15T11:23:05Z</time>
      </trkpt>
      <trkpt lat="41.5459280" lon="2.2557910">
        <ele>44.8</ele>
        <time>2018-12-15T11:23:09Z</time>
      </trkpt>
      <trkpt lat="41.5458230" lon="2.2560600">
        <ele>45.2</ele>
        <time>2018-12-15T11:23:13Z</time>
      </trkpt>
      <trkpt lat="41.5457210" lon="2.2563080">
        <ele>45.4</ele>
        <time>2018-12-15T11:23:17Z</time>
      </trkpt>
      <trkpt lat="41.5456380" lon="2.2565450">
        <ele>45.2</ele>
        <time>2018-12-15T11:23:21Z</time>
      </trkpt>
      <trkpt lat="41.5455330" lon="2.2568110">
        <ele>45.6</ele>
        <time>2018-12-15T11:23:25Z</time>
      </trkpt>
      <trkpt lat="41.5454150" lon="2.2571230">
        <ele>47.6</ele>
        <time>2018-12-15T11:23:29Z</time>
      </trkpt>
      <trkpt lat="41.5453230" lon="2.2572910">
        <ele>51.0</ele>
        <time>2018-12-15T11:23:33Z</time>
      </trkpt>
      <trkpt lat="41.5452410" lon="2.2574430">
        <ele>50.6</ele>
        <time>2018-12-15T11:23:37Z</time>
      </trkpt>
      <trkpt lat="41.5450860" lon="2.2576810">
        <ele>47.6</ele>
        <time>2018-12-15T11:23:41Z</time>
      </trkpt>
      <trkpt lat="41.5449180" lon="2.2579050">
        <ele>45.6</ele>
        <time>2018-12-15T11:23:45Z</time>
      </trkpt>
      <trkpt lat="41.5447830" lon="2.2582310">
        <ele>47.6</ele>
        <time>2018-12-15T11:23:49Z</time>
      </trkpt>
      <trkpt lat="41.5447350" lon="2.2584880">
        <ele>48.4</ele>
        <time>2018-12-15T11:23:53Z</time>
      </trkpt>
      <trkpt lat="41.5447180" lon="2.2588000">
        <ele>49.2</ele>
        <time>2018-12-15T11:23:57Z</time>
      </trkpt>
      <trkpt lat="41.5447110" lon="2.2590680">
        <ele>49.6</ele>
        <time>2018-12-15T11:24:01Z</time>
      </trkpt>
      <trkpt lat="41.5447410" lon="2.2593600">
        <ele>48.6</ele>
        <time>2018-12-15T11:24:05Z</time>
      </trkpt>
      <trkpt lat="41.5447600" lon="2.2596500">
        <ele>50.0</ele>
        <time>2018-12-15T11:24:09Z</time>
      </trkpt>
      <trkpt lat="41.5448030" lon="2.2599280">
        <ele>51.4</ele>
        <time>2018-12-15T11:24:13Z</time>
      </trkpt>
      <trkpt lat="41.5448360" lon="2.2601500">
        <ele>53.0</ele>
        <time>2018-12-15T11:24:17Z</time>
      </trkpt>
      <trkpt lat="41.5448810" lon="2.2603560">
        <ele>53.6</ele>
        <time>2018-12-15T11:24:21Z</time>
      </trkpt>
      <trkpt lat="41.5449230" lon="2.2606130">
        <ele>53.4</ele>
        <time>2018-12-15T11:24:25Z</time>
      </trkpt>
      <trkpt lat="41.5449550" lon="2.2608700">
        <ele>53.6</ele>
        <time>2018-12-15T11:24:29Z</time>
      </trkpt>
      <trkpt lat="41.5449910" lon="2.2611230">
        <ele>54.2</ele>
        <time>2018-12-15T11:24:33Z</time>
      </trkpt>
      <trkpt lat="41.5450300" lon="2.2613810">
        <ele>54.4</ele>
        <time>2018-12-15T11:24:37Z</time>
      </trkpt>
      <trkpt lat="41.5450680" lon="2.2616510">
        <ele>54.4</ele>
        <time>2018-12-15T11:24:41Z</time>
      </trkpt>
      <trkpt lat="41.5451230" lon="2.2619280">
        <ele>55.0</ele>
        <time>2018-12-15T11:24:45Z</time>
      </trkpt>
      <trkpt lat="41.5451460" lon="2.2621780">
        <ele>56.6</ele>
        <time>2018-12-15T11:24:49Z</time>
      </trkpt>
      <trkpt lat="41.5451830" lon="2.2624530">
        <ele>56.0</ele>
        <time>2018-12-15T11:24:53Z</time>
      </trkpt>
      <trkpt lat="41.5452460" lon="2.2627310">
        <ele>56.0</ele>
        <time>2018-12-15T11:24:57Z</time>
      </trkpt>
      <trkpt lat="41.5453500" lon="2.2630050">
        <ele>55.0</ele>
        <time>2018-12-15T11:25:01Z</time>
      </trkpt>
      <trkpt lat="41.5454730" lon="2.2632400">
        <ele>55.2</ele>
        <time>2018-12-15T11:25:05Z</time>
      </trkpt>
      <trkpt lat="41.5456000" lon="2.2634960">
        <ele>53.4</ele>
        <time>2018-12-15T11:25:09Z</time>
      </trkpt>
      <trkpt lat="41.5457480" lon="2.2638110">
        <ele>51.4</ele>
        <time>2018-12-15T11:25:13Z</time>
      </trkpt>
      <trkpt lat="41.5459100" lon="2.2641500">
        <ele>48.8</ele>
        <time>2018-12-15T11:25:17Z</time>
      </trkpt>
      <trkpt lat="41.5460330" lon="2.2644350">
        <ele>51.0</ele>
        <time>2018-12-15T11:25:21Z</time>
      </trkpt>
      <trkpt lat="41.5461380" lon="2.2646650">
        <ele>51.6</ele>
        <time>2018-12-15T11:25:25Z</time>
      </trkpt>
      <trkpt lat="41.5462530" lon="2.2648930">
        <ele>51.6</ele>
        <time>2018-12-15T11:25:29Z</time>
      </trkpt>
      <trkpt lat="41.5463580" lon="2.2651200">
        <ele>52.0</ele>
        <time>2018-12-15T11:25:33Z</time>
      </trkpt>
      <trkpt lat="41.5464500" lon="2.2653150">
        <ele>53.0</ele>
        <time>2018-12-15T11:25:37Z</time>
      </trkpt>
      <trkpt lat="41.5465450" lon="2.2654760">
        <ele>53.0</ele>
        <time>2018-12-15T11:25:41Z</time>
      </trkpt>
      <trkpt lat="41.5466650" lon="2.2657060">
        <ele>50.6</ele>
        <time>2018-12-15T11:25:45Z</time>
      </trkpt>
      <trkpt lat="41.5467950" lon="2.2659850">
        <ele>50.6</ele>
        <time>2018-12-15T11:25:49Z</time>
      </trkpt>
      <trkpt lat="41.5469350" lon="2.2662560">
        <ele>50.6</ele>
        <time>2018-12-15T11:25:53Z</time>
      </trkpt>
      <trkpt lat="41.5471510" lon="2.2664860">
        <ele>49.0</ele>
        <time>2018-12-15T11:25:57Z</time>
      </trkpt>
      <trkpt lat="41.5473750" lon="2.2667130">
        <ele>49.8</ele>
        <time>2018-12-15T11:26:01Z</time>
      </trkpt>
      <trkpt lat="41.5475850" lon="2.2669430">
        <ele>50.6</ele>
        <time>2018-12-15T11:26:05Z</time>
      </trkpt>
      <trkpt lat="41.5477860" lon="2.2671360">
        <ele>50.8</ele>
        <time>2018-12-15T11:26:09Z</time>
      </trkpt>
      <trkpt lat="41.5480080" lon="2.2673330">
        <ele>50.2</ele>
        <time>2018-12-15T11:26:13Z</time>
      </trkpt>
      <trkpt lat="41.5482410" lon="2.2675210">
        <ele>50.6</ele>
        <time>2018-12-15T11:26:17Z</time>
      </trkpt>
      <trkpt lat="41.5484800" lon="2.2676950">
        <ele>50.8</ele>
        <time>2018-12-15T11:26:21Z</time>
      </trkpt>
      <trkpt lat="41.5487230" lon="2.2678180">
        <ele>51.6</ele>
        <time>2018-12-15T11:26:25Z</time>
      </trkpt>
      <trkpt lat="41.5489710" lon="2.2679150">
        <ele>51.2</ele>
        <time>2018-12-15T11:26:29Z</time>
      </trkpt>
      <trkpt lat="41.5492130" lon="2.2680150">
        <ele>51.6</ele>
        <time>2018-12-15T11:26:33Z</time>
      </trkpt>
      <trkpt lat="41.5494400" lon="2.2681180">
        <ele>51.6</ele>
        <time>2018-12-15T11:26:37Z</time>
      </trkpt>
      <trkpt lat="41.5496780" lon="2.2682130">
        <ele>51.4</ele>
        <time>2018-12-15T11:26:41Z</time>
      </trkpt>
      <trkpt lat="41.5499260" lon="2.2682760">
        <ele>51.6</ele>
        <time>2018-12-15T11:26:45Z</time>
      </trkpt>
      <trkpt lat="41.5501610" lon="2.2682980">
        <ele>52.0</ele>
        <time>2018-12-15T11:26:49Z</time>
      </trkpt>
      <trkpt lat="41.5503910" lon="2.2683230">
        <ele>52.2</ele>
        <time>2018-12-15T11:26:53Z</time>
      </trkpt>
      <trkpt lat="41.5506250" lon="2.2684530">
        <ele>51.6</ele>
        <time>2018-12-15T11:26:57Z</time>
      </trkpt>
      <trkpt lat="41.5507880" lon="2.2686260">
        <ele>53.2</ele>
        <time>2018-12-15T11:27:01Z</time>
      </trkpt>
      <trkpt lat="41.5509660" lon="2.2688050">
        <ele>53.6</ele>
        <time>2018-12-15T11:27:05Z</time>
      </trkpt>
      <trkpt lat="41.5511150" lon="2.2689550">
        <ele>54.0</ele>
        <time>2018-12-15T11:27:09Z</time>
      </trkpt>
      <trkpt lat="41.5513000" lon="2.2691410">
        <ele>54.0</ele>
        <time>2018-12-15T11:27:13Z</time>
      </trkpt>
      <trkpt lat="41.5514960" lon="2.2693500">
        <ele>54.2</ele>
        <time>2018-12-15T11:27:17Z</time>
      </trkpt>
      <trkpt lat="41.5516700" lon="2.2695260">
        <ele>54.0</ele>
        <time>2018-12-15T11:27:21Z</time>
      </trkpt>
      <trkpt lat="41.5518910" lon="2.2697210">
        <ele>54.4</ele>
        <time>2018-12-15T11:27:25Z</time>
      </trkpt>
      <trkpt lat="41.5520880" lon="2.2699200">
        <ele>54.4</ele>
        <time>2018-12-15T11:27:29Z</time>
      </trkpt>
      <trkpt lat="41.5522780" lon="2.2701210">
        <ele>54.2</ele>
        <time>2018-12-15T11:27:33Z</time>
      </trkpt>
      <trkpt lat="41.5524810" lon="2.2703630">
        <ele>54.6</ele>
        <time>2018-12-15T11:27:37Z</time>
      </trkpt>
      <trkpt lat="41.5526880" lon="2.2705560">
        <ele>54.4</ele>
        <time>2018-12-15T11:27:41Z</time>
      </trkpt>
      <trkpt lat="41.5528630" lon="2.2707800">
        <ele>54.0</ele>
        <time>2018-12-15T11:27:45Z</time>
      </trkpt>
      <trkpt lat="41.5530160" lon="2.2710550">
        <ele>54.4</ele>
        <time>2018-12-15T11:27:49Z</time>
      </trkpt>
      <trkpt lat="41.5532060" lon="2.2713400">
        <ele>53.8</ele>
        <time>2018-12-15T11:27:53Z</time>
      </trkpt>
      <trkpt lat="41.5533560" lon="2.2716410">
        <ele>52.8</ele>
        <time>2018-12-15T11:27:57Z</time>
      </trkpt>
      <trkpt lat="41.5535500" lon="2.2719810">
        <ele>53.6</ele>
        <time>2018-12-15T11:28:01Z</time>
      </trkpt>
      <trkpt lat="41.5536430" lon="2.2723400">
        <ele>54.8</ele>
        <time>2018-12-15T11:28:05Z</time>
      </trkpt>
      <trkpt lat="41.5536800" lon="2.2726360">
        <ele>55.2</ele>
        <time>2018-12-15T11:28:09Z</time>
      </trkpt>
      <trkpt lat="41.5537760" lon="2.2728560">
        <ele>55.0</ele>
        <time>2018-12-15T11:28:13Z</time>
      </trkpt>
      <trkpt lat="41.5538410" lon="2.2731080">
        <ele>55.6</ele>
        <time>2018-12-15T11:28:17Z</time>
      </trkpt>
      <trkpt lat="41.5539300" lon="2.2733880">
        <ele>55.6</ele>
        <time>2018-12-15T11:28:21Z</time>
      </trkpt>
      <trkpt lat="41.5541000" lon="2.2736530">
        <ele>55.4</ele>
        <time>2018-12-15T11:28:25Z</time>
      </trkpt>
      <trkpt lat="41.5541460" lon="2.2740510">
        <ele>55.2</ele>
        <time>2018-12-15T11:28:29Z</time>
      </trkpt>
      <trkpt lat="41.5541700" lon="2.2744280">
        <ele>55.0</ele>
        <time>2018-12-15T11:28:33Z</time>
      </trkpt>
      <trkpt lat="41.5541950" lon="2.2747850">
        <ele>55.6</ele>
        <time>2018-12-15T11:28:37Z</time>
      </trkpt>
      <trkpt lat="41.5542260" lon="2.2751450">
        <ele>55.8</ele>
        <time>2018-12-15T11:28:41Z</time>
      </trkpt>
      <trkpt lat="41.5542630" lon="2.2755010">
        <ele>55.6</ele>
        <time>2018-12-15T11:28:45Z</time>
      </trkpt>
      <trkpt lat="41.5543050" lon="2.2758550">
        <ele>56.4</ele>
        <time>2018-12-15T11:28:49Z</time>
      </trkpt>
      <trkpt lat="41.5543450" lon="2.2761960">
        <ele>56.2</ele>
        <time>2018-12-15T11:28:53Z</time>
      </trkpt>
      <trkpt lat="41.5543980" lon="2.2765500">
        <ele>55.6</ele>
        <time>2018-12-15T11:28:57Z</time>
      </trkpt>
      <trkpt lat="41.5544500" lon="2.2768830">
        <ele>56.2</ele>
        <time>2018-12-15T11:29:01Z</time>
      </trkpt>
      <trkpt lat="41.5544900" lon="2.2771880">
        <ele>57.6</ele>
        <time>2018-12-15T11:29:05Z</time>
      </trkpt>
      <trkpt lat="41.5544930" lon="2.2774180">
        <ele>59.0</ele>
        <time>2018-12-15T11:29:09Z</time>
      </trkpt>
      <trkpt lat="41.5544430" lon="2.2776810">
        <ele>58.8</ele>
        <time>2018-12-15T11:29:13Z</time>
      </trkpt>
      <trkpt lat="41.5543400" lon="2.2779000">
        <ele>59.2</ele>
        <time>2018-12-15T11:29:17Z</time>
      </trkpt>
      <trkpt lat="41.5543510" lon="2.2780910">
        <ele>59.6</ele>
        <time>2018-12-15T11:29:21Z</time>
      </trkpt>
      <trkpt lat="41.5543600" lon="2.2781860">
        <ele>59.6</ele>
        <time>2018-12-15T11:29:25Z</time>
      </trkpt>
      <trkpt lat="41.5543660" lon="2.2782460">
        <ele>59.8</ele>
        <time>2018-12-15T11:29:29Z</time>
      </trkpt>
      <trkpt lat="41.5544110" lon="2.2782610">
        <ele>58.0</ele>
        <time>2018-12-15T11:29:33Z</time>
      </trkpt>
      <trkpt lat="41.5544050" lon="2.2783000">
        <ele>56.8</ele>
        <time>2018-12-15T11:29:37Z</time>
      </trkpt>
      <trkpt lat="41.5543360" lon="2.2783600">
        <ele>56.0</ele>
        <time>2018-12-15T11:29:41Z</time>
      </trkpt>
      <trkpt lat="41.5543210" lon="2.2784510">
        <ele>55.2</ele>
        <time>2018-12-15T11:29:45Z</time>
      </trkpt>
      <trkpt lat="41.5543300" lon="2.2785830">
        <ele>56.0</ele>
        <time>2018-12-15T11:29:49Z</time>
      </trkpt>
      <trkpt lat="41.5543860" lon="2.2787700">
        <ele>58.0</ele>
        <time>2018-12-15T11:29:53Z</time>
      </trkpt>
      <trkpt lat="41.5544980" lon="2.2789800">
        <ele>59.0</ele>
        <time>2018-12-15T11:29:57Z</time>
      </trkpt>
      <trkpt lat="41.5545700" lon="2.2792430">
        <ele>59.2</ele>
        <time>2018-12-15T11:30:01Z</time>
      </trkpt>
      <trkpt lat="41.5546410" lon="2.2795150">
        <ele>59.6</ele>
        <time>2018-12-15T11:30:05Z</time>
      </trkpt>
      <trkpt lat="41.5547030" lon="2.2797980">
        <ele>59.2</ele>
        <time>2018-12-15T11:30:09Z</time>
      </trkpt>
      <trkpt lat="41.5547730" lon="2.2800950">
        <ele>59.2</ele>
        <time>2018-12-15T11:30:13Z</time>
      </trkpt>
      <trkpt lat="41.5548630" lon="2.2804100">
        <ele>59.4</ele>
        <time>2018-12-15T11:30:17Z</time>
      </trkpt>
      <trkpt lat="41.5549430" lon="2.2807200">
        <ele>59.8</ele>
        <time>2018-12-15T11:30:21Z</time>
      </trkpt>
      <trkpt lat="41.5550250" lon="2.2810260">
        <ele>59.8</ele>
        <time>2018-12-15T11:30:25Z</time>
      </trkpt>
      <trkpt lat="41.5551100" lon="2.2813310">
        <ele>59.8</ele>
        <time>2018-12-15T11:30:29Z</time>
      </trkpt>
      <trkpt lat="41.5552780" lon="2.2815550">
        <ele>59.6</ele>
        <time>2018-12-15T11:30:33Z</time>
      </trkpt>
      <trkpt lat="41.5555000" lon="2.2816500">
        <ele>58.6</ele>
        <time>2018-12-15T11:30:37Z</time>
      </trkpt>
      <trkpt lat="41.5555860" lon="2.2819030">
        <ele>59.2</ele>
        <time>2018-12-15T11:30:41Z</time>
      </trkpt>
      <trkpt lat="41.5556560" lon="2.2822100">
        <ele>59.4</ele>
        <time>2018-12-15T11:30:45Z</time>
      </trkpt>
      <trkpt lat="41.5557260" lon="2.2825380">
        <ele>59.2</ele>
        <time>2018-12-15T11:30:49Z</time>
      </trkpt>
      <trkpt lat="41.5556880" lon="2.2828110">
        <ele>59.4</ele>
        <time>2018-12-15T11:30:53Z</time>
      </trkpt>
      <trkpt lat="41.5556150" lon="2.2830130">
        <ele>60.0</ele>
        <time>2018-12-15T11:30:57Z</time>
      </trkpt>
      <trkpt lat="41.5556760" lon="2.2832430">
        <ele>60.2</ele>
        <time>2018-12-15T11:31:01Z</time>
      </trkpt>
      <trkpt lat="41.5557130" lon="2.2834930">
        <ele>60.0</ele>
        <time>2018-12-15T11:31:05Z</time>
      </trkpt>
      <trkpt lat="41.5557650" lon="2.2837250">
        <ele>60.4</ele>
        <time>2018-12-15T11:31:09Z</time>
      </trkpt>
      <trkpt lat="41.5558080" lon="2.2839650">
        <ele>61.2</ele>
        <time>2018-12-15T11:31:13Z</time>
      </trkpt>
      <trkpt lat="41.5558330" lon="2.2841560">
        <ele>62.4</ele>
        <time>2018-12-15T11:31:17Z</time>
      </trkpt>
      <trkpt lat="41.5558330" lon="2.2841560">
        <ele>62.4</ele>
        <time>2018-12-15T11:31:21Z</time>
      </trkpt>
      <trkpt lat="41.5558330" lon="2.2841560">
        <ele>62.4</ele>
        <time>2018-12-15T11:31:25Z</time>
      </trkpt>
      <trkpt lat="41.5558330" lon="2.2841560">
        <ele>62.4</ele>
        <time>2018-12-15T11:31:29Z</time>
      </trkpt>
      <trkpt lat="41.5558330" lon="2.2841560">
        <ele>62.4</ele>
        <time>2018-12-15T11:31:33Z</time>
      </trkpt>
      <trkpt lat="41.5558330" lon="2.2841560">
        <ele>62.4</ele>
        <time>2018-12-15T11:31:37Z</time>
      </trkpt>
      <trkpt lat="41.5558330" lon="2.2841560">
        <ele>62.4</ele>
        <time>2018-12-15T11:31:41Z</time>
      </trkpt>
      <trkpt lat="41.5558330" lon="2.2841560">
        <ele>62.4</ele>
        <time>2018-12-15T11:31:45Z</time>
      </trkpt>
      <trkpt lat="41.5558330" lon="2.2841560">
        <ele>62.4</ele>
        <time>2018-12-15T11:31:49Z</time>
      </trkpt>
      <trkpt lat="41.5558330" lon="2.2841560">
        <ele>62.4</ele>
        <time>2018-12-15T11:31:53Z</time>
      </trkpt>
      <trkpt lat="41.5558330" lon="2.2841560">
        <ele>62.4</ele>
        <time>2018-12-15T11:31:57Z</time>
      </trkpt>
      <trkpt lat="41.5558330" lon="2.2841560">
        <ele>62.4</ele>
        <time>2018-12-15T11:32:01Z</time>
      </trkpt>
      <trkpt lat="41.5558330" lon="2.2841560">
        <ele>62.4</ele>
        <time>2018-12-15T11:32:05Z</time>
      </trkpt>
      <trkpt lat="41.5558450" lon="2.2842450">
        <ele>63.2</ele>
        <time>2018-12-15T11:32:09Z</time>
      </trkpt>
      <trkpt lat="41.5557580" lon="2.2842750">
        <ele>63.4</ele>
        <time>2018-12-15T11:32:13Z</time>
      </trkpt>
      <trkpt lat="41.5555600" lon="2.2843110">
        <ele>62.8</ele>
        <time>2018-12-15T11:32:17Z</time>
      </trkpt>
      <trkpt lat="41.5553230" lon="2.2843480">
        <ele>61.8</ele>
        <time>2018-12-15T11:32:21Z</time>
      </trkpt>
      <trkpt lat="41.5550510" lon="2.2844000">
        <ele>61.4</ele>
        <time>2018-12-15T11:32:25Z</time>
      </trkpt>
      <trkpt lat="41.5547650" lon="2.2843810">
        <ele>60.6</ele>
        <time>2018-12-15T11:32:29Z</time>
      </trkpt>
      <trkpt lat="41.5544960" lon="2.2843460">
        <ele>61.0</ele>
        <time>2018-12-15T11:32:33Z</time>
      </trkpt>
      <trkpt lat="41.5542510" lon="2.2845010">
        <ele>60.6</ele>
        <time>2018-12-15T11:32:37Z</time>
      </trkpt>
      <trkpt lat="41.5539810" lon="2.2845360">
        <ele>60.8</ele>
        <time>2018-12-15T11:32:41Z</time>
      </trkpt>
      <trkpt lat="41.5537210" lon="2.2845810">
        <ele>60.8</ele>
        <time>2018-12-15T11:32:45Z</time>
      </trkpt>
      <trkpt lat="41.5534680" lon="2.2846260">
        <ele>61.8</ele>
        <time>2018-12-15T11:32:49Z</time>
      </trkpt>
      <trkpt lat="41.5532230" lon="2.2846730">
        <ele>62.6</ele>
        <time>2018-12-15T11:32:53Z</time>
      </trkpt>
      <trkpt lat="41.5529780" lon="2.2846960">
        <ele>63.0</ele>
        <time>2018-12-15T11:32:57Z</time>
      </trkpt>
      <trkpt lat="41.5527410" lon="2.2847250">
        <ele>64.4</ele>
        <time>2018-12-15T11:33:01Z</time>
      </trkpt>
      <trkpt lat="41.5524950" lon="2.2847580">
        <ele>65.0</ele>
        <time>2018-12-15T11:33:05Z</time>
      </trkpt>
      <trkpt lat="41.5522510" lon="2.2847850">
        <ele>65.2</ele>
        <time>2018-12-15T11:33:09Z</time>
      </trkpt>
      <trkpt lat="41.5520130" lon="2.2848150">
        <ele>65.8</ele>
        <time>2018-12-15T11:33:13Z</time>
      </trkpt>
      <trkpt lat="41.5517710" lon="2.2848410">
        <ele>66.0</ele>
        <time>2018-12-15T11:33:17Z</time>
      </trkpt>
      <trkpt lat="41.5515350" lon="2.2848100">
        <ele>67.0</ele>
        <time>2018-12-15T11:33:21Z</time>
      </trkpt>
      <trkpt lat="41.5513210" lon="2.2849000">
        <ele>67.6</ele>
        <time>2018-12-15T11:33:25Z</time>
      </trkpt>
      <trkpt lat="41.5511130" lon="2.2849830">
        <ele>68.0</ele>
        <time>2018-12-15T11:33:29Z</time>
      </trkpt>
      <trkpt lat="41.5509310" lon="2.2849860">
        <ele>69.0</ele>
        <time>2018-12-15T11:33:33Z</time>
      </trkpt>
      <trkpt lat="41.5507710" lon="2.2850160">
        <ele>69.0</ele>
        <time>2018-12-15T11:33:37Z</time>
      </trkpt>
      <trkpt lat="41.5505900" lon="2.2850450">
        <ele>69.8</ele>
        <time>2018-12-15T11:33:41Z</time>
      </trkpt>
      <trkpt lat="41.5504010" lon="2.2850710">
        <ele>69.8</ele>
        <time>2018-12-15T11:33:45Z</time>
      </trkpt>
      <trkpt lat="41.5502010" lon="2.2851080">
        <ele>70.0</ele>
        <time>2018-12-15T11:33:49Z</time>
      </trkpt>
      <trkpt lat="41.5499960" lon="2.2851300">
        <ele>70.6</ele>
        <time>2018-12-15T11:33:53Z</time>
      </trkpt>
      <trkpt lat="41.5497850" lon="2.2851600">
        <ele>71.6</ele>
        <time>2018-12-15T11:33:57Z</time>
      </trkpt>
      <trkpt lat="41.5495860" lon="2.2851660">
        <ele>71.8</ele>
        <time>2018-12-15T11:34:01Z</time>
      </trkpt>
      <trkpt lat="41.5493800" lon="2.2851660">
        <ele>71.8</ele>
        <time>2018-12-15T11:34:05Z</time>
      </trkpt>
      <trkpt lat="41.5491600" lon="2.2851450">
        <ele>73.2</ele>
        <time>2018-12-15T11:34:09Z</time>
      </trkpt>
      <trkpt lat="41.5489400" lon="2.2851060">
        <ele>73.6</ele>
        <time>2018-12-15T11:34:13Z</time>
      </trkpt>
      <trkpt lat="41.5487300" lon="2.2851080">
        <ele>74.0</ele>
        <time>2018-12-15T11:34:17Z</time>
      </trkpt>
      <trkpt lat="41.5485210" lon="2.2852000">
        <ele>73.6</ele>
        <time>2018-12-15T11:34:21Z</time>
      </trkpt>
      <trkpt lat="41.5483010" lon="2.2852700">
        <ele>74.6</ele>
        <time>2018-12-15T11:34:25Z</time>
      </trkpt>
      <trkpt lat="41.5482560" lon="2.2855310">
        <ele>74.2</ele>
        <time>2018-12-15T11:34:29Z</time>
      </trkpt>
      <trkpt lat="41.5482410" lon="2.2857700">
        <ele>74.8</ele>
        <time>2018-12-15T11:34:33Z</time>
      </trkpt>
      <trkpt lat="41.5482410" lon="2.2857700">
        <ele>74.8</ele>
        <time>2018-12-15T11:34:37Z</time>
      </trkpt>
      <trkpt lat="41.5482410" lon="2.2857700">
        <ele>74.8</ele>
        <time>2018-12-15T11:34:41Z</time>
      </trkpt>
      <trkpt lat="41.5482410" lon="2.2857700">
        <ele>74.8</ele>
        <time>2018-12-15T11:34:45Z</time>
      </trkpt>
      <trkpt lat="41.5482410" lon="2.2857700">
        <ele>74.8</ele>
        <time>2018-12-15T11:34:49Z</time>
      </trkpt>
      <trkpt lat="41.5482410" lon="2.2857700">
        <ele>74.8</ele>
        <time>2018-12-15T11:34:53Z</time>
      </trkpt>
      <trkpt lat="41.5482410" lon="2.2857700">
        <ele>74.8</ele>
        <time>2018-12-15T11:34:57Z</time>
      </trkpt>
      <trkpt lat="41.5482410" lon="2.2857700">
        <ele>74.8</ele>
        <time>2018-12-15T11:35:01Z</time>
      </trkpt>
      <trkpt lat="41.5482410" lon="2.2857700">
        <ele>74.8</ele>
        <time>2018-12-15T11:35:05Z</time>
      </trkpt>
      <trkpt lat="41.5482410" lon="2.2857700">
        <ele>74.8</ele>
        <time>2018-12-15T11:35:09Z</time>
      </trkpt>
      <trkpt lat="41.5482410" lon="2.2857700">
        <ele>74.8</ele>
        <time>2018-12-15T11:35:13Z</time>
      </trkpt>
      <trkpt lat="41.5482410" lon="2.2857700">
        <ele>74.8</ele>
        <time>2018-12-15T11:35:17Z</time>
      </trkpt>
      <trkpt lat="41.5482410" lon="2.2857700">
        <ele>74.8</ele>
        <time>2018-12-15T11:35:21Z</time>
      </trkpt>
      <trkpt lat="41.5482410" lon="2.2857700">
        <ele>74.8</ele>
        <time>2018-12-15T11:35:25Z</time>
      </trkpt>
      <trkpt lat="41.5482410" lon="2.2857700">
        <ele>74.8</ele>
        <time>2018-12-15T11:35:29Z</time>
      </trkpt>
      <trkpt lat="41.5482410" lon="2.2857700">
        <ele>74.8</ele>
        <time>2018-12-15T11:35:33Z</time>
      </trkpt>
      <trkpt lat="41.5482410" lon="2.2857700">
        <ele>74.8</ele>
        <time>2018-12-15T11:35:37Z</time>
      </trkpt>
      <trkpt lat="41.5482410" lon="2.2857700">
        <ele>74.8</ele>
        <time>2018-12-15T11:35:41Z</time>
      </trkpt>
      <trkpt lat="41.5482410" lon="2.2857700">
        <ele>74.8</ele>
        <time>2018-12-15T11:35:45Z</time>
      </trkpt>
      <trkpt lat="41.5482410" lon="2.2857700">
        <ele>74.8</ele>
        <time>2018-12-15T11:35:49Z</time>
      </trkpt>
      <trkpt lat="41.5482410" lon="2.2857700">
        <ele>74.8</ele>
        <time>2018-12-15T11:35:53Z</time>
      </trkpt>
      <trkpt lat="41.5482410" lon="2.2857700">
        <ele>74.8</ele>
        <time>2018-12-15T11:35:57Z</time>
      </trkpt>
      <trkpt lat="41.5482410" lon="2.2857700">
        <ele>74.8</ele>
        <time>2018-12-15T11:36:01Z</time>
      </trkpt>
      <trkpt lat="41.5482410" lon="2.2857700">
        <ele>74.8</ele>
        <time>2018-12-15T11:36:05Z</time>
      </trkpt>
      <trkpt lat="41.5482410" lon="2.2857700">
        <ele>74.8</ele>
        <time>2018-12-15T11:36:09Z</time>
      </trkpt>
      <trkpt lat="41.5482410" lon="2.2857700">
        <ele>74.8</ele>
        <time>2018-12-15T11:36:13Z</time>
      </trkpt>
      <trkpt lat="41.5482410" lon="2.2857700">
        <ele>74.8</ele>
        <time>2018-12-15T11:36:17Z</time>
      </trkpt>
      <trkpt lat="41.5482410" lon="2.2857700">
        <ele>74.8</ele>
        <time>2018-12-15T11:36:21Z</time>
      </trkpt>
      <trkpt lat="41.5482410" lon="2.2857700">
        <ele>74.8</ele>
        <time>2018-12-15T11:36:25Z</time>
      </trkpt>
      <trkpt lat="41.5482410" lon="2.2857700">
        <ele>74.8</ele>
        <time>2018-12-15T11:36:29Z</time>
      </trkpt>
      <trkpt lat="41.5482410" lon="2.2857700">
        <ele>74.8</ele>
        <time>2018-12-15T11:36:33Z</time>
      </trkpt>
      <trkpt lat="41.5482410" lon="2.2857700">
        <ele>74.8</ele>
        <time>2018-12-15T11:36:37Z</time>
      </trkpt>
      <trkpt lat="41.5482410" lon="2.2857700">
        <ele>74.8</ele>
        <time>2018-12-15T11:36:41Z</time>
      </trkpt>
      <trkpt lat="41.5482410" lon="2.2857700">
        <ele>74.8</ele>
        <time>2018-12-15T11:36:45Z</time>
      </trkpt>
      <trkpt lat="41.5481980" lon="2.2858400">
        <ele>75.4</ele>
        <time>2018-12-15T11:36:49Z</time>
      </trkpt>
      <trkpt lat="41.5482000" lon="2.2859380">
        <ele>75.6</ele>
        <time>2018-12-15T11:36:53Z</time>
      </trkpt>
      <trkpt lat="41.5481810" lon="2.2861480">
        <ele>75.0</ele>
        <time>2018-12-15T11:36:57Z</time>
      </trkpt>
      <trkpt lat="41.5481510" lon="2.2864060">
        <ele>75.8</ele>
        <time>2018-12-15T11:37:01Z</time>
      </trkpt>
      <trkpt lat="41.5481250" lon="2.2866760">
        <ele>76.0</ele>
        <time>2018-12-15T11:37:05Z</time>
      </trkpt>
      <trkpt lat="41.5480960" lon="2.2869460">
        <ele>76.2</ele>
        <time>2018-12-15T11:37:09Z</time>
      </trkpt>
      <trkpt lat="41.5480700" lon="2.2872130">
        <ele>76.4</ele>
        <time>2018-12-15T11:37:13Z</time>
      </trkpt>
      <trkpt lat="41.5480400" lon="2.2874800">
        <ele>77.0</ele>
        <time>2018-12-15T11:37:17Z</time>
      </trkpt>
      <trkpt lat="41.5480080" lon="2.2877450">
        <ele>77.2</ele>
        <time>2018-12-15T11:37:21Z</time>
      </trkpt>
      <trkpt lat="41.5479900" lon="2.2880050">
        <ele>77.8</ele>
        <time>2018-12-15T11:37:25Z</time>
      </trkpt>
      <trkpt lat="41.5479610" lon="2.2882700">
        <ele>77.6</ele>
        <time>2018-12-15T11:37:29Z</time>
      </trkpt>
      <trkpt lat="41.5479260" lon="2.2885530">
        <ele>77.8</ele>
        <time>2018-12-15T11:37:33Z</time>
      </trkpt>
      <trkpt lat="41.5478960" lon="2.2888060">
        <ele>79.0</ele>
        <time>2018-12-15T11:37:37Z</time>
      </trkpt>
      <trkpt lat="41.5478750" lon="2.2890460">
        <ele>79.8</ele>
        <time>2018-12-15T11:37:41Z</time>
      </trkpt>
      <trkpt lat="41.5478360" lon="2.2893080">
        <ele>80.2</ele>
        <time>2018-12-15T11:37:45Z</time>
      </trkpt>
      <trkpt lat="41.5478050" lon="2.2895910">
        <ele>80.6</ele>
        <time>2018-12-15T11:37:49Z</time>
      </trkpt>
      <trkpt lat="41.5477750" lon="2.2898780">
        <ele>80.8</ele>
        <time>2018-12-15T11:37:53Z</time>
      </trkpt>
      <trkpt lat="41.5477460" lon="2.2901580">
        <ele>81.4</ele>
        <time>2018-12-15T11:37:57Z</time>
      </trkpt>
      <trkpt lat="41.5477080" lon="2.2904410">
        <ele>81.8</ele>
        <time>2018-12-15T11:38:01Z</time>
      </trkpt>
      <trkpt lat="41.5476360" lon="2.2907030">
        <ele>82.6</ele>
        <time>2018-12-15T11:38:05Z</time>
      </trkpt>
      <trkpt lat="41.5475280" lon="2.2909530">
        <ele>82.8</ele>
        <time>2018-12-15T11:38:09Z</time>
      </trkpt>
      <trkpt lat="41.5473960" lon="2.2911850">
        <ele>83.4</ele>
        <time>2018-12-15T11:38:13Z</time>
      </trkpt>
      <trkpt lat="41.5472680" lon="2.2914160">
        <ele>83.6</ele>
        <time>2018-12-15T11:38:17Z</time>
      </trkpt>
      <trkpt lat="41.5471460" lon="2.2916510">
        <ele>84.4</ele>
        <time>2018-12-15T11:38:21Z</time>
      </trkpt>
      <trkpt lat="41.5470260" lon="2.2918950">
        <ele>84.4</ele>
        <time>2018-12-15T11:38:25Z</time>
      </trkpt>
      <trkpt lat="41.5469010" lon="2.2921400">
        <ele>85.0</ele>
        <time>2018-12-15T11:38:29Z</time>
      </trkpt>
      <trkpt lat="41.5467750" lon="2.2923980">
        <ele>85.0</ele>
        <time>2018-12-15T11:38:33Z</time>
      </trkpt>
      <trkpt lat="41.5466450" lon="2.2926610">
        <ele>85.4</ele>
        <time>2018-12-15T11:38:37Z</time>
      </trkpt>
      <trkpt lat="41.5465260" lon="2.2929160">
        <ele>86.0</ele>
        <time>2018-12-15T11:38:41Z</time>
      </trkpt>
      <trkpt lat="41.5464160" lon="2.2931700">
        <ele>87.0</ele>
        <time>2018-12-15T11:38:45Z</time>
      </trkpt>
      <trkpt lat="41.5462980" lon="2.2934230">
        <ele>87.4</ele>
        <time>2018-12-15T11:38:49Z</time>
      </trkpt>
      <trkpt lat="41.5461780" lon="2.2936760">
        <ele>87.8</ele>
        <time>2018-12-15T11:38:53Z</time>
      </trkpt>
      <trkpt lat="41.5460510" lon="2.2939250">
        <ele>87.8</ele>
        <time>2018-12-15T11:38:57Z</time>
      </trkpt>
      <trkpt lat="41.5459350" lon="2.2941410">
        <ele>89.2</ele>
        <time>2018-12-15T11:39:01Z</time>
      </trkpt>
      <trkpt lat="41.5458230" lon="2.2942810">
        <ele>89.4</ele>
        <time>2018-12-15T11:39:05Z</time>
      </trkpt>
      <trkpt lat="41.5456950" lon="2.2944580">
        <ele>89.6</ele>
        <time>2018-12-15T11:39:09Z</time>
      </trkpt>
      <trkpt lat="41.5455600" lon="2.2946280">
        <ele>90.2</ele>
        <time>2018-12-15T11:39:13Z</time>
      </trkpt>
      <trkpt lat="41.5454230" lon="2.2947780">
        <ele>90.8</ele>
        <time>2018-12-15T11:39:17Z</time>
      </trkpt>
      <trkpt lat="41.5453000" lon="2.2949060">
        <ele>91.2</ele>
        <time>2018-12-15T11:39:21Z</time>
      </trkpt>
      <trkpt lat="41.5451660" lon="2.2950760">
        <ele>91.2</ele>
        <time>2018-12-15T11:39:25Z</time>
      </trkpt>
      <trkpt lat="41.5450160" lon="2.2952780">
        <ele>91.6</ele>
        <time>2018-12-15T11:39:29Z</time>
      </trkpt>
      <trkpt lat="41.5448630" lon="2.2954760">
        <ele>92.4</ele>
        <time>2018-12-15T11:39:33Z</time>
      </trkpt>
      <trkpt lat="41.5447160" lon="2.2956610">
        <ele>93.4</ele>
        <time>2018-12-15T11:39:37Z</time>
      </trkpt>
      <trkpt lat="41.5445980" lon="2.2958150">
        <ele>93.4</ele>
        <time>2018-12-15T11:39:41Z</time>
      </trkpt>
      <trkpt lat="41.5445700" lon="2.2958930">
        <ele>93.0</ele>
        <time>2018-12-15T11:39:45Z</time>
      </trkpt>
      <trkpt lat="41.5445310" lon="2.2959980">
        <ele>93.0</ele>
        <time>2018-12-15T11:39:49Z</time>
      </trkpt>
      <trkpt lat="41.5445310" lon="2.2959980">
        <ele>93.0</ele>
        <time>2018-12-15T11:39:53Z</time>
      </trkpt>
      <trkpt lat="41.5444800" lon="2.2960810">
        <ele>93.0</ele>
        <time>2018-12-15T11:39:57Z</time>
      </trkpt>
      <trkpt lat="41.5444500" lon="2.2960910">
        <ele>92.2</ele>
        <time>2018-12-15T11:40:01Z</time>
      </trkpt>
      <trkpt lat="41.5444500" lon="2.2960910">
        <ele>92.2</ele>
        <time>2018-12-15T11:40:05Z</time>
      </trkpt>
      <trkpt lat="41.5444250" lon="2.2961150">
        <ele>92.2</ele>
        <time>2018-12-15T11:40:09Z</time>
      </trkpt>
      <trkpt lat="41.5443800" lon="2.2961410">
        <ele>92.6</ele>
        <time>2018-12-15T11:40:13Z</time>
      </trkpt>
      <trkpt lat="41.5443410" lon="2.2961680">
        <ele>93.2</ele>
        <time>2018-12-15T11:40:17Z</time>
      </trkpt>
      <trkpt lat="41.5443150" lon="2.2962100">
        <ele>93.8</ele>
        <time>2018-12-15T11:40:21Z</time>
      </trkpt>
      <trkpt lat="41.5442950" lon="2.2962680">
        <ele>94.4</ele>
        <time>2018-12-15T11:40:25Z</time>
      </trkpt>
      <trkpt lat="41.5442450" lon="2.2962950">
        <ele>94.8</ele>
        <time>2018-12-15T11:40:29Z</time>
      </trkpt>
      <trkpt lat="41.5441810" lon="2.2964310">
        <ele>95.0</ele>
        <time>2018-12-15T11:40:33Z</time>
      </trkpt>
      <trkpt lat="41.5441250" lon="2.2966500">
        <ele>95.6</ele>
        <time>2018-12-15T11:40:37Z</time>
      </trkpt>
      <trkpt lat="41.5440750" lon="2.2968800">
        <ele>96.4</ele>
        <time>2018-12-15T11:40:41Z</time>
      </trkpt>
      <trkpt lat="41.5440200" lon="2.2971080">
        <ele>96.0</ele>
        <time>2018-12-15T11:40:45Z</time>
      </trkpt>
      <trkpt lat="41.5439660" lon="2.2973510">
        <ele>96.8</ele>
        <time>2018-12-15T11:40:49Z</time>
      </trkpt>
      <trkpt lat="41.5439130" lon="2.2976110">
        <ele>96.8</ele>
        <time>2018-12-15T11:40:53Z</time>
      </trkpt>
      <trkpt lat="41.5438660" lon="2.2978700">
        <ele>97.4</ele>
        <time>2018-12-15T11:40:57Z</time>
      </trkpt>
      <trkpt lat="41.5438310" lon="2.2981310">
        <ele>97.6</ele>
        <time>2018-12-15T11:41:01Z</time>
      </trkpt>
      <trkpt lat="41.5438150" lon="2.2983980">
        <ele>98.4</ele>
        <time>2018-12-15T11:41:05Z</time>
      </trkpt>
      <trkpt lat="41.5438360" lon="2.2986680">
        <ele>98.8</ele>
        <time>2018-12-15T11:41:09Z</time>
      </trkpt>
      <trkpt lat="41.5438760" lon="2.2989330">
        <ele>99.4</ele>
        <time>2018-12-15T11:41:13Z</time>
      </trkpt>
      <trkpt lat="41.5439260" lon="2.2992050">
        <ele>99.8</ele>
        <time>2018-12-15T11:41:17Z</time>
      </trkpt>
      <trkpt lat="41.5439650" lon="2.2994810">
        <ele>99.6</ele>
        <time>2018-12-15T11:41:21Z</time>
      </trkpt>
      <trkpt lat="41.5439980" lon="2.2997600">
        <ele>100.6</ele>
        <time>2018-12-15T11:41:25Z</time>
      </trkpt>
      <trkpt lat="41.5440260" lon="2.3000500">
        <ele>101.2</ele>
        <time>2018-12-15T11:41:29Z</time>
      </trkpt>
      <trkpt lat="41.5440410" lon="2.3003430">
        <ele>101.8</ele>
        <time>2018-12-15T11:41:33Z</time>
      </trkpt>
      <trkpt lat="41.5440530" lon="2.3006300">
        <ele>102.0</ele>
        <time>2018-12-15T11:41:37Z</time>
      </trkpt>
      <trkpt lat="41.5440750" lon="2.3009160">
        <ele>102.0</ele>
        <time>2018-12-15T11:41:41Z</time>
      </trkpt>
      <trkpt lat="41.5440960" lon="2.3012000">
        <ele>102.6</ele>
        <time>2018-12-15T11:41:45Z</time>
      </trkpt>
      <trkpt lat="41.5441180" lon="2.3014910">
        <ele>103.0</ele>
        <time>2018-12-15T11:41:49Z</time>
      </trkpt>
      <trkpt lat="41.5441300" lon="2.3017850">
        <ele>104.0</ele>
        <time>2018-12-15T11:41:53Z</time>
      </trkpt>
      <trkpt lat="41.5441280" lon="2.3020710">
        <ele>104.2</ele>
        <time>2018-12-15T11:41:57Z</time>
      </trkpt>
      <trkpt lat="41.5441210" lon="2.3023550">
        <ele>105.0</ele>
        <time>2018-12-15T11:42:01Z</time>
      </trkpt>
      <trkpt lat="41.5441110" lon="2.3026300">
        <ele>104.8</ele>
        <time>2018-12-15T11:42:05Z</time>
      </trkpt>
      <trkpt lat="41.5440830" lon="2.3029010">
        <ele>106.0</ele>
        <time>2018-12-15T11:42:09Z</time>
      </trkpt>
      <trkpt lat="41.5440200" lon="2.3031810">
        <ele>106.4</ele>
        <time>2018-12-15T11:42:13Z</time>
      </trkpt>
      <trkpt lat="41.5439350" lon="2.3034510">
        <ele>107.0</ele>
        <time>2018-12-15T11:42:17Z</time>
      </trkpt>
      <trkpt lat="41.5438310" lon="2.3036880">
        <ele>107.2</ele>
        <time>2018-12-15T11:42:21Z</time>
      </trkpt>
      <trkpt lat="41.5436960" lon="2.3039050">
        <ele>108.4</ele>
        <time>2018-12-15T11:42:25Z</time>
      </trkpt>
      <trkpt lat="41.5435510" lon="2.3041030">
        <ele>108.4</ele>
        <time>2018-12-15T11:42:29Z</time>
      </trkpt>
      <trkpt lat="41.5434060" lon="2.3043050">
        <ele>109.0</ele>
        <time>2018-12-15T11:42:33Z</time>
      </trkpt>
      <trkpt lat="41.5432500" lon="2.3044660">
        <ele>109.4</ele>
        <time>2018-12-15T11:42:37Z</time>
      </trkpt>
      <trkpt lat="41.5431260" lon="2.3046360">
        <ele>109.6</ele>
        <time>2018-12-15T11:42:41Z</time>
      </trkpt>
      <trkpt lat="41.5430450" lon="2.3048200">
        <ele>110.0</ele>
        <time>2018-12-15T11:42:45Z</time>
      </trkpt>
      <trkpt lat="41.5429000" lon="2.3048330">
        <ele>109.8</ele>
        <time>2018-12-15T11:42:49Z</time>
      </trkpt>
      <trkpt lat="41.5427630" lon="2.3048480">
        <ele>110.2</ele>
        <time>2018-12-15T11:42:53Z</time>
      </trkpt>
      <trkpt lat="41.5426100" lon="2.3048760">
        <ele>111.0</ele>
        <time>2018-12-15T11:42:57Z</time>
      </trkpt>
      <trkpt lat="41.5424480" lon="2.3048830">
        <ele>111.0</ele>
        <time>2018-12-15T11:43:01Z</time>
      </trkpt>
      <trkpt lat="41.5422810" lon="2.3049200">
        <ele>111.4</ele>
        <time>2018-12-15T11:43:05Z</time>
      </trkpt>
      <trkpt lat="41.5421110" lon="2.3049600">
        <ele>111.4</ele>
        <time>2018-12-15T11:43:09Z</time>
      </trkpt>
      <trkpt lat="41.5419400" lon="2.3050010">
        <ele>111.2</ele>
        <time>2018-12-15T11:43:13Z</time>
      </trkpt>
      <trkpt lat="41.5417730" lon="2.3050850">
        <ele>112.0</ele>
        <time>2018-12-15T11:43:17Z</time>
      </trkpt>
      <trkpt lat="41.5416400" lon="2.3052100">
        <ele>112.4</ele>
        <time>2018-12-15T11:43:21Z</time>
      </trkpt>
      <trkpt lat="41.5415300" lon="2.3053660">
        <ele>113.2</ele>
        <time>2018-12-15T11:43:25Z</time>
      </trkpt>
      <trkpt lat="41.5414730" lon="2.3054600">
        <ele>113.4</ele>
        <time>2018-12-15T11:43:29Z</time>
      </trkpt>
      <trkpt lat="41.5415400" lon="2.3054350">
        <ele>112.6</ele>
        <time>2018-12-15T11:43:33Z</time>
      </trkpt>
      <trkpt lat="41.5417150" lon="2.3052350">
        <ele>111.8</ele>
        <time>2018-12-15T11:43:37Z</time>
      </trkpt>
      <trkpt lat="41.5419460" lon="2.3050950">
        <ele>111.0</ele>
        <time>2018-12-15T11:43:41Z</time>
      </trkpt>
      <trkpt lat="41.5422230" lon="2.3050060">
        <ele>110.6</ele>
        <time>2018-12-15T11:43:45Z</time>
      </trkpt>
      <trkpt lat="41.5425180" lon="2.3049500">
        <ele>109.4</ele>
        <time>2018-12-15T11:43:49Z</time>
      </trkpt>
      <trkpt lat="41.5428280" lon="2.3049280">
        <ele>109.6</ele>
        <time>2018-12-15T11:43:53Z</time>
      </trkpt>
      <trkpt lat="41.5431200" lon="2.3048680">
        <ele>108.8</ele>
        <time>2018-12-15T11:43:57Z</time>
      </trkpt>
      <trkpt lat="41.5433480" lon="2.3047260">
        <ele>108.2</ele>
        <time>2018-12-15T11:44:01Z</time>
      </trkpt>
      <trkpt lat="41.5432230" lon="2.3045250">
        <ele>109.2</ele>
        <time>2018-12-15T11:44:05Z</time>
      </trkpt>
      <trkpt lat="41.5430110" lon="2.3046110">
        <ele>109.2</ele>
        <time>2018-12-15T11:44:09Z</time>
      </trkpt>
      <trkpt lat="41.5427700" lon="2.3046230">
        <ele>110.0</ele>
        <time>2018-12-15T11:44:13Z</time>
      </trkpt>
      <trkpt lat="41.5425250" lon="2.3046100">
        <ele>110.8</ele>
        <time>2018-12-15T11:44:17Z</time>
      </trkpt>
      <trkpt lat="41.5422810" lon="2.3046100">
        <ele>110.4</ele>
        <time>2018-12-15T11:44:21Z</time>
      </trkpt>
      <trkpt lat="41.5420460" lon="2.3046110">
        <ele>111.6</ele>
        <time>2018-12-15T11:44:25Z</time>
      </trkpt>
      <trkpt lat="41.5418130" lon="2.3046130">
        <ele>112.0</ele>
        <time>2018-12-15T11:44:29Z</time>
      </trkpt>
      <trkpt lat="41.5415800" lon="2.3046150">
        <ele>112.4</ele>
        <time>2018-12-15T11:44:33Z</time>
      </trkpt>
      <trkpt lat="41.5413530" lon="2.3046230">
        <ele>113.6</ele>
        <time>2018-12-15T11:44:37Z</time>
      </trkpt>
      <trkpt lat="41.5411550" lon="2.3046960">
        <ele>114.4</ele>
        <time>2018-12-15T11:44:41Z</time>
      </trkpt>
      <trkpt lat="41.5410050" lon="2.3049350">
        <ele>113.4</ele>
        <time>2018-12-15T11:44:45Z</time>
      </trkpt>
      <trkpt lat="41.5407830" lon="2.3051230">
        <ele>113.2</ele>
        <time>2018-12-15T11:44:49Z</time>
      </trkpt>
      <trkpt lat="41.5405630" lon="2.3051600">
        <ele>115.0</ele>
        <time>2018-12-15T11:44:53Z</time>
      </trkpt>
      <trkpt lat="41.5403800" lon="2.3052200">
        <ele>115.2</ele>
        <time>2018-12-15T11:44:57Z</time>
      </trkpt>
      <trkpt lat="41.5402910" lon="2.3054350">
        <ele>116.2</ele>
        <time>2018-12-15T11:45:01Z</time>
      </trkpt>
      <trkpt lat="41.5402150" lon="2.3056500">
        <ele>117.4</ele>
        <time>2018-12-15T11:45:05Z</time>
      </trkpt>
      <trkpt lat="41.5401010" lon="2.3059210">
        <ele>117.6</ele>
        <time>2018-12-15T11:45:09Z</time>
      </trkpt>
      <trkpt lat="41.5400660" lon="2.3061500">
        <ele>118.6</ele>
        <time>2018-12-15T11:45:13Z</time>
      </trkpt>
      <trkpt lat="41.5400200" lon="2.3064210">
        <ele>119.2</ele>
        <time>2018-12-15T11:45:17Z</time>
      </trkpt>
      <trkpt lat="41.5399780" lon="2.3066730">
        <ele>120.0</ele>
        <time>2018-12-15T11:45:21Z</time>
      </trkpt>
      <trkpt lat="41.5399260" lon="2.3069030">
        <ele>121.2</ele>
        <time>2018-12-15T11:45:25Z</time>
      </trkpt>
      <trkpt lat="41.5398600" lon="2.3071030">
        <ele>122.2</ele>
        <time>2018-12-15T11:45:29Z</time>
      </trkpt>
      <trkpt lat="41.5397950" lon="2.3073380">
        <ele>122.8</ele>
        <time>2018-12-15T11:45:33Z</time>
      </trkpt>
      <trkpt lat="41.5397230" lon="2.3075580">
        <ele>123.4</ele>
        <time>2018-12-15T11:45:37Z</time>
      </trkpt>
      <trkpt lat="41.5396330" lon="2.3077930">
        <ele>123.4</ele>
        <time>2018-12-15T11:45:41Z</time>
      </trkpt>
      <trkpt lat="41.5395380" lon="2.3080080">
        <ele>124.0</ele>
        <time>2018-12-15T11:45:45Z</time>
      </trkpt>
      <trkpt lat="41.5394400" lon="2.3082100">
        <ele>124.0</ele>
        <time>2018-12-15T11:45:49Z</time>
      </trkpt>
      <trkpt lat="41.5393280" lon="2.3084400">
        <ele>124.0</ele>
        <time>2018-12-15T11:45:53Z</time>
      </trkpt>
      <trkpt lat="41.5392010" lon="2.3087030">
        <ele>124.4</ele>
        <time>2018-12-15T11:45:57Z</time>
      </trkpt>
      <trkpt lat="41.5390730" lon="2.3089210">
        <ele>125.6</ele>
        <time>2018-12-15T11:46:01Z</time>
      </trkpt>
      <trkpt lat="41.5389460" lon="2.3091080">
        <ele>126.6</ele>
        <time>2018-12-15T11:46:05Z</time>
      </trkpt>
      <trkpt lat="41.5388550" lon="2.3092560">
        <ele>127.2</ele>
        <time>2018-12-15T11:46:09Z</time>
      </trkpt>
      <trkpt lat="41.5387810" lon="2.3093510">
        <ele>127.4</ele>
        <time>2018-12-15T11:46:13Z</time>
      </trkpt>
      <trkpt lat="41.5386850" lon="2.3095580">
        <ele>128.4</ele>
        <time>2018-12-15T11:46:17Z</time>
      </trkpt>
      <trkpt lat="41.5385760" lon="2.3098450">
        <ele>128.4</ele>
        <time>2018-12-15T11:46:21Z</time>
      </trkpt>
      <trkpt lat="41.5384810" lon="2.3100930">
        <ele>129.8</ele>
        <time>2018-12-15T11:46:25Z</time>
      </trkpt>
      <trkpt lat="41.5383960" lon="2.3103160">
        <ele>130.4</ele>
        <time>2018-12-15T11:46:29Z</time>
      </trkpt>
      <trkpt lat="41.5383100" lon="2.3105300">
        <ele>131.4</ele>
        <time>2018-12-15T11:46:33Z</time>
      </trkpt>
      <trkpt lat="41.5382130" lon="2.3107100">
        <ele>132.4</ele>
        <time>2018-12-15T11:46:37Z</time>
      </trkpt>
      <trkpt lat="41.5381300" lon="2.3108580">
        <ele>133.2</ele>
        <time>2018-12-15T11:46:41Z</time>
      </trkpt>
      <trkpt lat="41.5380550" lon="2.3109980">
        <ele>134.4</ele>
        <time>2018-12-15T11:46:45Z</time>
      </trkpt>
      <trkpt lat="41.5379730" lon="2.3111150">
        <ele>135.4</ele>
        <time>2018-12-15T11:46:49Z</time>
      </trkpt>
      <trkpt lat="41.5379010" lon="2.3112110">
        <ele>136.4</ele>
        <time>2018-12-15T11:46:53Z</time>
      </trkpt>
      <trkpt lat="41.5378280" lon="2.3113110">
        <ele>137.8</ele>
        <time>2018-12-15T11:46:57Z</time>
      </trkpt>
      <trkpt lat="41.5377460" lon="2.3114210">
        <ele>138.8</ele>
        <time>2018-12-15T11:47:01Z</time>
      </trkpt>
      <trkpt lat="41.5376780" lon="2.3115310">
        <ele>140.8</ele>
        <time>2018-12-15T11:47:05Z</time>
      </trkpt>
      <trkpt lat="41.5376210" lon="2.3116380">
        <ele>142.4</ele>
        <time>2018-12-15T11:47:09Z</time>
      </trkpt>
      <trkpt lat="41.5375700" lon="2.3117350">
        <ele>143.4</ele>
        <time>2018-12-15T11:47:13Z</time>
      </trkpt>
      <trkpt lat="41.5375130" lon="2.3118530">
        <ele>145.0</ele>
        <time>2018-12-15T11:47:17Z</time>
      </trkpt>
      <trkpt lat="41.5374410" lon="2.3119660">
        <ele>145.8</ele>
        <time>2018-12-15T11:47:21Z</time>
      </trkpt>
      <trkpt lat="41.5373780" lon="2.3120480">
        <ele>147.2</ele>
        <time>2018-12-15T11:47:25Z</time>
      </trkpt>
      <trkpt lat="41.5373300" lon="2.3121560">
        <ele>147.6</ele>
        <time>2018-12-15T11:47:29Z</time>
      </trkpt>
      <trkpt lat="41.5372660" lon="2.3122930">
        <ele>147.8</ele>
        <time>2018-12-15T11:47:33Z</time>
      </trkpt>
      <trkpt lat="41.5372280" lon="2.3124200">
        <ele>148.2</ele>
        <time>2018-12-15T11:47:37Z</time>
      </trkpt>
      <trkpt lat="41.5371910" lon="2.3125230">
        <ele>148.6</ele>
        <time>2018-12-15T11:47:41Z</time>
      </trkpt>
      <trkpt lat="41.5371580" lon="2.3126210">
        <ele>149.2</ele>
        <time>2018-12-15T11:47:45Z</time>
      </trkpt>
      <trkpt lat="41.5370910" lon="2.3127950">
        <ele>149.8</ele>
        <time>2018-12-15T11:47:49Z</time>
      </trkpt>
      <trkpt lat="41.5370260" lon="2.3129000">
        <ele>151.6</ele>
        <time>2018-12-15T11:47:53Z</time>
      </trkpt>
      <trkpt lat="41.5369560" lon="2.3130010">
        <ele>152.6</ele>
        <time>2018-12-15T11:47:57Z</time>
      </trkpt>
      <trkpt lat="41.5369200" lon="2.3130910">
        <ele>152.8</ele>
        <time>2018-12-15T11:48:01Z</time>
      </trkpt>
      <trkpt lat="41.5368450" lon="2.3132010">
        <ele>153.4</ele>
        <time>2018-12-15T11:48:05Z</time>
      </trkpt>
      <trkpt lat="41.5367800" lon="2.3133380">
        <ele>154.0</ele>
        <time>2018-12-15T11:48:09Z</time>
      </trkpt>
      <trkpt lat="41.5367330" lon="2.3134380">
        <ele>154.4</ele>
        <time>2018-12-15T11:48:13Z</time>
      </trkpt>
      <trkpt lat="41.5366780" lon="2.3135050">
        <ele>155.8</ele>
        <time>2018-12-15T11:48:17Z</time>
      </trkpt>
      <trkpt lat="41.5366330" lon="2.3135610">
        <ele>157.4</ele>
        <time>2018-12-15T11:48:21Z</time>
      </trkpt>
      <trkpt lat="41.5365630" lon="2.3136080">
        <ele>159.0</ele>
        <time>2018-12-15T11:48:25Z</time>
      </trkpt>
      <trkpt lat="41.5365080" lon="2.3136900">
        <ele>159.8</ele>
        <time>2018-12-15T11:48:29Z</time>
      </trkpt>
      <trkpt lat="41.5364650" lon="2.3138230">
        <ele>160.4</ele>
        <time>2018-12-15T11:48:33Z</time>
      </trkpt>
      <trkpt lat="41.5364350" lon="2.3139700">
        <ele>161.6</ele>
        <time>2018-12-15T11:48:37Z</time>
      </trkpt>
      <trkpt lat="41.5364350" lon="2.3141460">
        <ele>162.4</ele>
        <time>2018-12-15T11:48:41Z</time>
      </trkpt>
      <trkpt lat="41.5364500" lon="2.3142780">
        <ele>162.8</ele>
        <time>2018-12-15T11:48:45Z</time>
      </trkpt>
      <trkpt lat="41.5364300" lon="2.3143780">
        <ele>161.4</ele>
        <time>2018-12-15T11:48:49Z</time>
      </trkpt>
      <trkpt lat="41.5362980" lon="2.3144130">
        <ele>161.0</ele>
        <time>2018-12-15T11:48:53Z</time>
      </trkpt>
      <trkpt lat="41.5361650" lon="2.3144130">
        <ele>162.0</ele>
        <time>2018-12-15T11:48:57Z</time>
      </trkpt>
      <trkpt lat="41.5360380" lon="2.3144530">
        <ele>162.0</ele>
        <time>2018-12-15T11:49:01Z</time>
      </trkpt>
      <trkpt lat="41.5359000" lon="2.3145100">
        <ele>161.6</ele>
        <time>2018-12-15T11:49:05Z</time>
      </trkpt>
      <trkpt lat="41.5357430" lon="2.3146100">
        <ele>160.6</ele>
        <time>2018-12-15T11:49:09Z</time>
      </trkpt>
      <trkpt lat="41.5355610" lon="2.3147200">
        <ele>159.8</ele>
        <time>2018-12-15T11:49:13Z</time>
      </trkpt>
      <trkpt lat="41.5353450" lon="2.3148500">
        <ele>158.0</ele>
        <time>2018-12-15T11:49:17Z</time>
      </trkpt>
      <trkpt lat="41.5351560" lon="2.3150660">
        <ele>157.8</ele>
        <time>2018-12-15T11:49:21Z</time>
      </trkpt>
      <trkpt lat="41.5349700" lon="2.3151510">
        <ele>159.4</ele>
        <time>2018-12-15T11:49:25Z</time>
      </trkpt>
      <trkpt lat="41.5347780" lon="2.3152010">
        <ele>160.0</ele>
        <time>2018-12-15T11:49:29Z</time>
      </trkpt>
      <trkpt lat="41.5346030" lon="2.3152880">
        <ele>161.0</ele>
        <time>2018-12-15T11:49:33Z</time>
      </trkpt>
      <trkpt lat="41.5344280" lon="2.3154060">
        <ele>161.6</ele>
        <time>2018-12-15T11:49:37Z</time>
      </trkpt>
      <trkpt lat="41.5342750" lon="2.3155410">
        <ele>161.2</ele>
        <time>2018-12-15T11:49:41Z</time>
      </trkpt>
      <trkpt lat="41.5340950" lon="2.3156830">
        <ele>161.6</ele>
        <time>2018-12-15T11:49:45Z</time>
      </trkpt>
      <trkpt lat="41.5339580" lon="2.3158200">
        <ele>163.2</ele>
        <time>2018-12-15T11:49:49Z</time>
      </trkpt>
      <trkpt lat="41.5338750" lon="2.3159680">
        <ele>164.2</ele>
        <time>2018-12-15T11:49:53Z</time>
      </trkpt>
      <trkpt lat="41.5337750" lon="2.3161210">
        <ele>164.2</ele>
        <time>2018-12-15T11:49:57Z</time>
      </trkpt>
      <trkpt lat="41.5336250" lon="2.3162150">
        <ele>165.6</ele>
        <time>2018-12-15T11:50:01Z</time>
      </trkpt>
      <trkpt lat="41.5334930" lon="2.3162380">
        <ele>166.2</ele>
        <time>2018-12-15T11:50:05Z</time>
      </trkpt>
      <trkpt lat="41.5333730" lon="2.3163110">
        <ele>167.2</ele>
        <time>2018-12-15T11:50:09Z</time>
      </trkpt>
      <trkpt lat="41.5332780" lon="2.3164180">
        <ele>167.6</ele>
        <time>2018-12-15T11:50:13Z</time>
      </trkpt>
      <trkpt lat="41.5331930" lon="2.3165350">
        <ele>168.2</ele>
        <time>2018-12-15T11:50:17Z</time>
      </trkpt>
      <trkpt lat="41.5331160" lon="2.3166110">
        <ele>168.4</ele>
        <time>2018-12-15T11:50:21Z</time>
      </trkpt>
      <trkpt lat="41.5330450" lon="2.3166830">
        <ele>168.8</ele>
        <time>2018-12-15T11:50:25Z</time>
      </trkpt>
      <trkpt lat="41.5329550" lon="2.3167550">
        <ele>169.2</ele>
        <time>2018-12-15T11:50:29Z</time>
      </trkpt>
      <trkpt lat="41.5328580" lon="2.3168100">
        <ele>169.2</ele>
        <time>2018-12-15T11:50:33Z</time>
      </trkpt>
      <trkpt lat="41.5327750" lon="2.3168500">
        <ele>170.2</ele>
        <time>2018-12-15T11:50:37Z</time>
      </trkpt>
      <trkpt lat="41.5327100" lon="2.3169480">
        <ele>170.6</ele>
        <time>2018-12-15T11:50:41Z</time>
      </trkpt>
      <trkpt lat="41.5326310" lon="2.3171400">
        <ele>169.8</ele>
        <time>2018-12-15T11:50:45Z</time>
      </trkpt>
      <trkpt lat="41.5326060" lon="2.3173930">
        <ele>168.8</ele>
        <time>2018-12-15T11:50:49Z</time>
      </trkpt>
      <trkpt lat="41.5326480" lon="2.3176830">
        <ele>168.8</ele>
        <time>2018-12-15T11:50:53Z</time>
      </trkpt>
      <trkpt lat="41.5326900" lon="2.3178960">
        <ele>169.8</ele>
        <time>2018-12-15T11:50:57Z</time>
      </trkpt>
      <trkpt lat="41.5327110" lon="2.3180660">
        <ele>171.0</ele>
        <time>2018-12-15T11:51:01Z</time>
      </trkpt>
      <trkpt lat="41.5327450" lon="2.3181830">
        <ele>172.0</ele>
        <time>2018-12-15T11:51:05Z</time>
      </trkpt>
      <trkpt lat="41.5327650" lon="2.3182850">
        <ele>173.2</ele>
        <time>2018-12-15T11:51:09Z</time>
      </trkpt>
      <trkpt lat="41.5327950" lon="2.3184080">
        <ele>174.6</ele>
        <time>2018-12-15T11:51:13Z</time>
      </trkpt>
      <trkpt lat="41.5328110" lon="2.3185230">
        <ele>175.0</ele>
        <time>2018-12-15T11:51:17Z</time>
      </trkpt>
      <trkpt lat="41.5328350" lon="2.3186250">
        <ele>176.4</ele>
        <time>2018-12-15T11:51:21Z</time>
      </trkpt>
      <trkpt lat="41.5328260" lon="2.3187300">
        <ele>176.6</ele>
        <time>2018-12-15T11:51:25Z</time>
      </trkpt>
      <trkpt lat="41.5328080" lon="2.3188300">
        <ele>177.2</ele>
        <time>2018-12-15T11:51:29Z</time>
      </trkpt>
      <trkpt lat="41.5327610" lon="2.3189110">
        <ele>177.8</ele>
        <time>2018-12-15T11:51:33Z</time>
      </trkpt>
      <trkpt lat="41.5327080" lon="2.3189760">
        <ele>178.6</ele>
        <time>2018-12-15T11:51:37Z</time>
      </trkpt>
      <trkpt lat="41.5326480" lon="2.3189810">
        <ele>178.8</ele>
        <time>2018-12-15T11:51:41Z</time>
      </trkpt>
      <trkpt lat="41.5325850" lon="2.3190110">
        <ele>179.4</ele>
        <time>2018-12-15T11:51:45Z</time>
      </trkpt>
      <trkpt lat="41.5325500" lon="2.3190600">
        <ele>180.6</ele>
        <time>2018-12-15T11:51:49Z</time>
      </trkpt>
      <trkpt lat="41.5324550" lon="2.3190600">
        <ele>181.6</ele>
        <time>2018-12-15T11:51:53Z</time>
      </trkpt>
      <trkpt lat="41.5323780" lon="2.3190510">
        <ele>182.4</ele>
        <time>2018-12-15T11:51:57Z</time>
      </trkpt>
      <trkpt lat="41.5322980" lon="2.3190900">
        <ele>182.8</ele>
        <time>2018-12-15T11:52:01Z</time>
      </trkpt>
      <trkpt lat="41.5322130" lon="2.3191080">
        <ele>184.6</ele>
        <time>2018-12-15T11:52:05Z</time>
      </trkpt>
      <trkpt lat="41.5321110" lon="2.3191150">
        <ele>184.8</ele>
        <time>2018-12-15T11:52:09Z</time>
      </trkpt>
      <trkpt lat="41.5319980" lon="2.3190650">
        <ele>184.8</ele>
        <time>2018-12-15T11:52:13Z</time>
      </trkpt>
      <trkpt lat="41.5319160" lon="2.3189910">
        <ele>185.4</ele>
        <time>2018-12-15T11:52:17Z</time>
      </trkpt>
      <trkpt lat="41.5318460" lon="2.3189000">
        <ele>186.4</ele>
        <time>2018-12-15T11:52:21Z</time>
      </trkpt>
      <trkpt lat="41.5317810" lon="2.3188730">
        <ele>186.8</ele>
        <time>2018-12-15T11:52:25Z</time>
      </trkpt>
      <trkpt lat="41.5317050" lon="2.3188460">
        <ele>188.0</ele>
        <time>2018-12-15T11:52:29Z</time>
      </trkpt>
      <trkpt lat="41.5316330" lon="2.3188210">
        <ele>188.6</ele>
        <time>2018-12-15T11:52:33Z</time>
      </trkpt>
      <trkpt lat="41.5315450" lon="2.3188000">
        <ele>188.8</ele>
        <time>2018-12-15T11:52:37Z</time>
      </trkpt>
      <trkpt lat="41.5314460" lon="2.3188150">
        <ele>189.4</ele>
        <time>2018-12-15T11:52:41Z</time>
      </trkpt>
      <trkpt lat="41.5313560" lon="2.3188580">
        <ele>190.0</ele>
        <time>2018-12-15T11:52:45Z</time>
      </trkpt>
      <trkpt lat="41.5312580" lon="2.3189260">
        <ele>190.2</ele>
        <time>2018-12-15T11:52:49Z</time>
      </trkpt>
      <trkpt lat="41.5311750" lon="2.3189630">
        <ele>190.4</ele>
        <time>2018-12-15T11:52:53Z</time>
      </trkpt>
      <trkpt lat="41.5310930" lon="2.3190580">
        <ele>191.2</ele>
        <time>2018-12-15T11:52:57Z</time>
      </trkpt>
      <trkpt lat="41.5310150" lon="2.3191260">
        <ele>191.6</ele>
        <time>2018-12-15T11:53:01Z</time>
      </trkpt>
      <trkpt lat="41.5309180" lon="2.3191730">
        <ele>192.0</ele>
        <time>2018-12-15T11:53:05Z</time>
      </trkpt>
      <trkpt lat="41.5308230" lon="2.3192410">
        <ele>192.8</ele>
        <time>2018-12-15T11:53:09Z</time>
      </trkpt>
      <trkpt lat="41.5307530" lon="2.3193160">
        <ele>193.6</ele>
        <time>2018-12-15T11:53:13Z</time>
      </trkpt>
      <trkpt lat="41.5306880" lon="2.3194180">
        <ele>193.6</ele>
        <time>2018-12-15T11:53:17Z</time>
      </trkpt>
      <trkpt lat="41.5305980" lon="2.3195050">
        <ele>194.6</ele>
        <time>2018-12-15T11:53:21Z</time>
      </trkpt>
      <trkpt lat="41.5304950" lon="2.3196400">
        <ele>195.0</ele>
        <time>2018-12-15T11:53:25Z</time>
      </trkpt>
      <trkpt lat="41.5303980" lon="2.3197350">
        <ele>195.4</ele>
        <time>2018-12-15T11:53:29Z</time>
      </trkpt>
      <trkpt lat="41.5303360" lon="2.3198350">
        <ele>196.0</ele>
        <time>2018-12-15T11:53:33Z</time>
      </trkpt>
      <trkpt lat="41.5303060" lon="2.3199810">
        <ele>196.6</ele>
        <time>2018-12-15T11:53:37Z</time>
      </trkpt>
      <trkpt lat="41.5302660" lon="2.3201330">
        <ele>197.2</ele>
        <time>2018-12-15T11:53:41Z</time>
      </trkpt>
      <trkpt lat="41.5302200" lon="2.3202630">
        <ele>198.4</ele>
        <time>2018-12-15T11:53:45Z</time>
      </trkpt>
      <trkpt lat="41.5301730" lon="2.3203930">
        <ele>199.2</ele>
        <time>2018-12-15T11:53:49Z</time>
      </trkpt>
      <trkpt lat="41.5301200" lon="2.3205280">
        <ele>199.6</ele>
        <time>2018-12-15T11:53:53Z</time>
      </trkpt>
      <trkpt lat="41.5300560" lon="2.3206800">
        <ele>201.0</ele>
        <time>2018-12-15T11:53:57Z</time>
      </trkpt>
      <trkpt lat="41.5300200" lon="2.3208160">
        <ele>202.6</ele>
        <time>2018-12-15T11:54:01Z</time>
      </trkpt>
      <trkpt lat="41.5300060" lon="2.3209530">
        <ele>204.2</ele>
        <time>2018-12-15T11:54:05Z</time>
      </trkpt>
      <trkpt lat="41.5299910" lon="2.3210450">
        <ele>204.2</ele>
        <time>2018-12-15T11:54:09Z</time>
      </trkpt>
      <trkpt lat="41.5299550" lon="2.3212180">
        <ele>204.0</ele>
        <time>2018-12-15T11:54:13Z</time>
      </trkpt>
      <trkpt lat="41.5299560" lon="2.3213710">
        <ele>204.4</ele>
        <time>2018-12-15T11:54:17Z</time>
      </trkpt>
      <trkpt lat="41.5299880" lon="2.3215310">
        <ele>205.2</ele>
        <time>2018-12-15T11:54:21Z</time>
      </trkpt>
      <trkpt lat="41.5300360" lon="2.3216750">
        <ele>206.0</ele>
        <time>2018-12-15T11:54:25Z</time>
      </trkpt>
      <trkpt lat="41.5301060" lon="2.3217930">
        <ele>206.0</ele>
        <time>2018-12-15T11:54:29Z</time>
      </trkpt>
      <trkpt lat="41.5301810" lon="2.3219000">
        <ele>207.6</ele>
        <time>2018-12-15T11:54:33Z</time>
      </trkpt>
      <trkpt lat="41.5302450" lon="2.3220050">
        <ele>208.4</ele>
        <time>2018-12-15T11:54:37Z</time>
      </trkpt>
      <trkpt lat="41.5302910" lon="2.3221210">
        <ele>208.6</ele>
        <time>2018-12-15T11:54:41Z</time>
      </trkpt>
      <trkpt lat="41.5303130" lon="2.3222700">
        <ele>209.0</ele>
        <time>2018-12-15T11:54:45Z</time>
      </trkpt>
      <trkpt lat="41.5303580" lon="2.3224550">
        <ele>209.4</ele>
        <time>2018-12-15T11:54:49Z</time>
      </trkpt>
      <trkpt lat="41.5304000" lon="2.3226160">
        <ele>209.4</ele>
        <time>2018-12-15T11:54:53Z</time>
      </trkpt>
      <trkpt lat="41.5304380" lon="2.3227480">
        <ele>209.8</ele>
        <time>2018-12-15T11:54:57Z</time>
      </trkpt>
      <trkpt lat="41.5304660" lon="2.3229280">
        <ele>210.6</ele>
        <time>2018-12-15T11:55:01Z</time>
      </trkpt>
      <trkpt lat="41.5305060" lon="2.3231030">
        <ele>210.6</ele>
        <time>2018-12-15T11:55:05Z</time>
      </trkpt>
      <trkpt lat="41.5305550" lon="2.3233050">
        <ele>210.4</ele>
        <time>2018-12-15T11:55:09Z</time>
      </trkpt>
      <trkpt lat="41.5305400" lon="2.3234700">
        <ele>211.0</ele>
        <time>2018-12-15T11:55:13Z</time>
      </trkpt>
      <trkpt lat="41.5305050" lon="2.3236110">
        <ele>211.8</ele>
        <time>2018-12-15T11:55:17Z</time>
      </trkpt>
      <trkpt lat="41.5304910" lon="2.3237660">
        <ele>212.6</ele>
        <time>2018-12-15T11:55:21Z</time>
      </trkpt>
      <trkpt lat="41.5304380" lon="2.3239200">
        <ele>213.6</ele>
        <time>2018-12-15T11:55:25Z</time>
      </trkpt>
      <trkpt lat="41.5303810" lon="2.3240560">
        <ele>214.4</ele>
        <time>2018-12-15T11:55:29Z</time>
      </trkpt>
      <trkpt lat="41.5303010" lon="2.3241680">
        <ele>215.0</ele>
        <time>2018-12-15T11:55:33Z</time>
      </trkpt>
      <trkpt lat="41.5302250" lon="2.3242760">
        <ele>216.4</ele>
        <time>2018-12-15T11:55:37Z</time>
      </trkpt>
      <trkpt lat="41.5301700" lon="2.3243850">
        <ele>217.6</ele>
        <time>2018-12-15T11:55:41Z</time>
      </trkpt>
      <trkpt lat="41.5301060" lon="2.3244950">
        <ele>218.6</ele>
        <time>2018-12-15T11:55:45Z</time>
      </trkpt>
      <trkpt lat="41.5300380" lon="2.3246080">
        <ele>219.2</ele>
        <time>2018-12-15T11:55:49Z</time>
      </trkpt>
      <trkpt lat="41.5299830" lon="2.3247030">
        <ele>219.6</ele>
        <time>2018-12-15T11:55:53Z</time>
      </trkpt>
      <trkpt lat="41.5299180" lon="2.3248160">
        <ele>219.8</ele>
        <time>2018-12-15T11:55:57Z</time>
      </trkpt>
      <trkpt lat="41.5298360" lon="2.3249330">
        <ele>220.6</ele>
        <time>2018-12-15T11:56:01Z</time>
      </trkpt>
      <trkpt lat="41.5297510" lon="2.3250700">
        <ele>221.0</ele>
        <time>2018-12-15T11:56:05Z</time>
      </trkpt>
      <trkpt lat="41.5296700" lon="2.3252050">
        <ele>221.4</ele>
        <time>2018-12-15T11:56:09Z</time>
      </trkpt>
      <trkpt lat="41.5296300" lon="2.3253530">
        <ele>222.0</ele>
        <time>2018-12-15T11:56:13Z</time>
      </trkpt>
      <trkpt lat="41.5296510" lon="2.3254850">
        <ele>223.2</ele>
        <time>2018-12-15T11:56:17Z</time>
      </trkpt>
      <trkpt lat="41.5296630" lon="2.3256330">
        <ele>224.4</ele>
        <time>2018-12-15T11:56:21Z</time>
      </trkpt>
      <trkpt lat="41.5296530" lon="2.3257830">
        <ele>224.2</ele>
        <time>2018-12-15T11:56:25Z</time>
      </trkpt>
      <trkpt lat="41.5296160" lon="2.3258950">
        <ele>223.8</ele>
        <time>2018-12-15T11:56:29Z</time>
      </trkpt>
      <trkpt lat="41.5295750" lon="2.3260280">
        <ele>223.8</ele>
        <time>2018-12-15T11:56:33Z</time>
      </trkpt>
      <trkpt lat="41.5295330" lon="2.3261250">
        <ele>224.2</ele>
        <time>2018-12-15T11:56:37Z</time>
      </trkpt>
      <trkpt lat="41.5294680" lon="2.3262080">
        <ele>224.4</ele>
        <time>2018-12-15T11:56:41Z</time>
      </trkpt>
      <trkpt lat="41.5293950" lon="2.3263630">
        <ele>224.8</ele>
        <time>2018-12-15T11:56:45Z</time>
      </trkpt>
      <trkpt lat="41.5293430" lon="2.3265010">
        <ele>225.4</ele>
        <time>2018-12-15T11:56:49Z</time>
      </trkpt>
      <trkpt lat="41.5292950" lon="2.3266710">
        <ele>226.0</ele>
        <time>2018-12-15T11:56:53Z</time>
      </trkpt>
      <trkpt lat="41.5292510" lon="2.3268350">
        <ele>227.0</ele>
        <time>2018-12-15T11:56:57Z</time>
      </trkpt>
      <trkpt lat="41.5292050" lon="2.3269950">
        <ele>228.2</ele>
        <time>2018-12-15T11:57:01Z</time>
      </trkpt>
      <trkpt lat="41.5291650" lon="2.3270960">
        <ele>229.0</ele>
        <time>2018-12-15T11:57:05Z</time>
      </trkpt>
      <trkpt lat="41.5291180" lon="2.3271830">
        <ele>229.6</ele>
        <time>2018-12-15T11:57:09Z</time>
      </trkpt>
      <trkpt lat="41.5290730" lon="2.3273010">
        <ele>230.4</ele>
        <time>2018-12-15T11:57:13Z</time>
      </trkpt>
      <trkpt lat="41.5290200" lon="2.3274930">
        <ele>231.4</ele>
        <time>2018-12-15T11:57:17Z</time>
      </trkpt>
      <trkpt lat="41.5289910" lon="2.3276830">
        <ele>232.0</ele>
        <time>2018-12-15T11:57:21Z</time>
      </trkpt>
      <trkpt lat="41.5289610" lon="2.3278380">
        <ele>232.0</ele>
        <time>2018-12-15T11:57:25Z</time>
      </trkpt>
      <trkpt lat="41.5288930" lon="2.3280330">
        <ele>231.6</ele>
        <time>2018-12-15T11:57:29Z</time>
      </trkpt>
      <trkpt lat="41.5288330" lon="2.3282030">
        <ele>231.6</ele>
        <time>2018-12-15T11:57:33Z</time>
      </trkpt>
      <trkpt lat="41.5287860" lon="2.3283160">
        <ele>232.0</ele>
        <time>2018-12-15T11:57:37Z</time>
      </trkpt>
      <trkpt lat="41.5287380" lon="2.3284310">
        <ele>232.4</ele>
        <time>2018-12-15T11:57:41Z</time>
      </trkpt>
      <trkpt lat="41.5287010" lon="2.3285180">
        <ele>233.2</ele>
        <time>2018-12-15T11:57:45Z</time>
      </trkpt>
      <trkpt lat="41.5286610" lon="2.3285980">
        <ele>234.6</ele>
        <time>2018-12-15T11:57:49Z</time>
      </trkpt>
      <trkpt lat="41.5286410" lon="2.3287050">
        <ele>235.2</ele>
        <time>2018-12-15T11:57:53Z</time>
      </trkpt>
      <trkpt lat="41.5286500" lon="2.3288500">
        <ele>235.8</ele>
        <time>2018-12-15T11:57:57Z</time>
      </trkpt>
      <trkpt lat="41.5286760" lon="2.3290130">
        <ele>235.4</ele>
        <time>2018-12-15T11:58:01Z</time>
      </trkpt>
      <trkpt lat="41.5287050" lon="2.3291750">
        <ele>235.8</ele>
        <time>2018-12-15T11:58:05Z</time>
      </trkpt>
      <trkpt lat="41.5287200" lon="2.3292610">
        <ele>236.2</ele>
        <time>2018-12-15T11:58:09Z</time>
      </trkpt>
      <trkpt lat="41.5287210" lon="2.3293400">
        <ele>236.4</ele>
        <time>2018-12-15T11:58:13Z</time>
      </trkpt>
      <trkpt lat="41.5287250" lon="2.3294450">
        <ele>237.4</ele>
        <time>2018-12-15T11:58:17Z</time>
      </trkpt>
      <trkpt lat="41.5287280" lon="2.3295380">
        <ele>238.2</ele>
        <time>2018-12-15T11:58:21Z</time>
      </trkpt>
      <trkpt lat="41.5287210" lon="2.3296280">
        <ele>239.6</ele>
        <time>2018-12-15T11:58:25Z</time>
      </trkpt>
      <trkpt lat="41.5287130" lon="2.3297280">
        <ele>240.4</ele>
        <time>2018-12-15T11:58:29Z</time>
      </trkpt>
      <trkpt lat="41.5287110" lon="2.3298260">
        <ele>242.0</ele>
        <time>2018-12-15T11:58:33Z</time>
      </trkpt>
      <trkpt lat="41.5287000" lon="2.3299230">
        <ele>243.2</ele>
        <time>2018-12-15T11:58:37Z</time>
      </trkpt>
      <trkpt lat="41.5286780" lon="2.3300330">
        <ele>244.4</ele>
        <time>2018-12-15T11:58:41Z</time>
      </trkpt>
      <trkpt lat="41.5286660" lon="2.3301060">
        <ele>245.8</ele>
        <time>2018-12-15T11:58:45Z</time>
      </trkpt>
      <trkpt lat="41.5286600" lon="2.3301880">
        <ele>247.6</ele>
        <time>2018-12-15T11:58:49Z</time>
      </trkpt>
      <trkpt lat="41.5286280" lon="2.3303210">
        <ele>250.0</ele>
        <time>2018-12-15T11:58:53Z</time>
      </trkpt>
      <trkpt lat="41.5286010" lon="2.3304000">
        <ele>251.0</ele>
        <time>2018-12-15T11:58:57Z</time>
      </trkpt>
      <trkpt lat="41.5285610" lon="2.3304930">
        <ele>252.0</ele>
        <time>2018-12-15T11:59:01Z</time>
      </trkpt>
      <trkpt lat="41.5285310" lon="2.3305730">
        <ele>252.8</ele>
        <time>2018-12-15T11:59:05Z</time>
      </trkpt>
      <trkpt lat="41.5285150" lon="2.3306580">
        <ele>253.8</ele>
        <time>2018-12-15T11:59:09Z</time>
      </trkpt>
      <trkpt lat="41.5285050" lon="2.3307210">
        <ele>255.4</ele>
        <time>2018-12-15T11:59:13Z</time>
      </trkpt>
      <trkpt lat="41.5284900" lon="2.3308500">
        <ele>255.8</ele>
        <time>2018-12-15T11:59:17Z</time>
      </trkpt>
      <trkpt lat="41.5284910" lon="2.3309630">
        <ele>257.6</ele>
        <time>2018-12-15T11:59:21Z</time>
      </trkpt>
      <trkpt lat="41.5284780" lon="2.3310360">
        <ele>258.6</ele>
        <time>2018-12-15T11:59:25Z</time>
      </trkpt>
      <trkpt lat="41.5284550" lon="2.3310980">
        <ele>259.2</ele>
        <time>2018-12-15T11:59:29Z</time>
      </trkpt>
      <trkpt lat="41.5283930" lon="2.3311150">
        <ele>260.0</ele>
        <time>2018-12-15T11:59:33Z</time>
      </trkpt>
      <trkpt lat="41.5283230" lon="2.3310700">
        <ele>260.4</ele>
        <time>2018-12-15T11:59:37Z</time>
      </trkpt>
      <trkpt lat="41.5282650" lon="2.3310400">
        <ele>260.4</ele>
        <time>2018-12-15T11:59:41Z</time>
      </trkpt>
      <trkpt lat="41.5281980" lon="2.3310180">
        <ele>261.0</ele>
        <time>2018-12-15T11:59:45Z</time>
      </trkpt>
      <trkpt lat="41.5281300" lon="2.3310350">
        <ele>260.4</ele>
        <time>2018-12-15T11:59:49Z</time>
      </trkpt>
      <trkpt lat="41.5280760" lon="2.3310680">
        <ele>258.8</ele>
        <time>2018-12-15T11:59:53Z</time>
      </trkpt>
      <trkpt lat="41.5280060" lon="2.3312600">
        <ele>258.0</ele>
        <time>2018-12-15T11:59:57Z</time>
      </trkpt>
      <trkpt lat="41.5278700" lon="2.3313310">
        <ele>258.4</ele>
        <time>2018-12-15T12:00:01Z</time>
      </trkpt>
      <trkpt lat="41.5277810" lon="2.3314010">
        <ele>259.2</ele>
        <time>2018-12-15T12:00:05Z</time>
      </trkpt>
      <trkpt lat="41.5277000" lon="2.3314810">
        <ele>259.2</ele>
        <time>2018-12-15T12:00:09Z</time>
      </trkpt>
      <trkpt lat="41.5276150" lon="2.3315400">
        <ele>259.4</ele>
        <time>2018-12-15T12:00:13Z</time>
      </trkpt>
      <trkpt lat="41.5275450" lon="2.3315860">
        <ele>260.0</ele>
        <time>2018-12-15T12:00:17Z</time>
      </trkpt>
      <trkpt lat="41.5274710" lon="2.3316530">
        <ele>260.6</ele>
        <time>2018-12-15T12:00:21Z</time>
      </trkpt>
      <trkpt lat="41.5274110" lon="2.3317230">
        <ele>261.4</ele>
        <time>2018-12-15T12:00:25Z</time>
      </trkpt>
      <trkpt lat="41.5273750" lon="2.3317800">
        <ele>262.2</ele>
        <time>2018-12-15T12:00:29Z</time>
      </trkpt>
      <trkpt lat="41.5273200" lon="2.3318900">
        <ele>263.2</ele>
        <time>2018-12-15T12:00:33Z</time>
      </trkpt>
      <trkpt lat="41.5272710" lon="2.3319900">
        <ele>264.0</ele>
        <time>2018-12-15T12:00:37Z</time>
      </trkpt>
      <trkpt lat="41.5272000" lon="2.3320730">
        <ele>264.8</ele>
        <time>2018-12-15T12:00:41Z</time>
      </trkpt>
      <trkpt lat="41.5271060" lon="2.3321300">
        <ele>265.0</ele>
        <time>2018-12-15T12:00:45Z</time>
      </trkpt>
      <trkpt lat="41.5270230" lon="2.3321880">
        <ele>266.2</ele>
        <time>2018-12-15T12:00:49Z</time>
      </trkpt>
      <trkpt lat="41.5269750" lon="2.3322960">
        <ele>267.0</ele>
        <time>2018-12-15T12:00:53Z</time>
      </trkpt>
      <trkpt lat="41.5269460" lon="2.3324160">
        <ele>267.6</ele>
        <time>2018-12-15T12:00:57Z</time>
      </trkpt>
      <trkpt lat="41.5269260" lon="2.3325150">
        <ele>268.4</ele>
        <time>2018-12-15T12:01:01Z</time>
      </trkpt>
      <trkpt lat="41.5269110" lon="2.3326180">
        <ele>270.2</ele>
        <time>2018-12-15T12:01:05Z</time>
      </trkpt>
      <trkpt lat="41.5268560" lon="2.3327200">
        <ele>270.8</ele>
        <time>2018-12-15T12:01:09Z</time>
      </trkpt>
      <trkpt lat="41.5267660" lon="2.3328050">
        <ele>272.2</ele>
        <time>2018-12-15T12:01:13Z</time>
      </trkpt>
      <trkpt lat="41.5267030" lon="2.3327910">
        <ele>273.4</ele>
        <time>2018-12-15T12:01:17Z</time>
      </trkpt>
      <trkpt lat="41.5266150" lon="2.3328050">
        <ele>275.0</ele>
        <time>2018-12-15T12:01:21Z</time>
      </trkpt>
      <trkpt lat="41.5265380" lon="2.3328550">
        <ele>275.8</ele>
        <time>2018-12-15T12:01:25Z</time>
      </trkpt>
      <trkpt lat="41.5265180" lon="2.3329130">
        <ele>275.8</ele>
        <time>2018-12-15T12:01:29Z</time>
      </trkpt>
      <trkpt lat="41.5265400" lon="2.3329680">
        <ele>276.6</ele>
        <time>2018-12-15T12:01:33Z</time>
      </trkpt>
      <trkpt lat="41.5265810" lon="2.3330150">
        <ele>277.4</ele>
        <time>2018-12-15T12:01:37Z</time>
      </trkpt>
      <trkpt lat="41.5266110" lon="2.3330810">
        <ele>279.0</ele>
        <time>2018-12-15T12:01:41Z</time>
      </trkpt>
      <trkpt lat="41.5266130" lon="2.3331510">
        <ele>279.8</ele>
        <time>2018-12-15T12:01:45Z</time>
      </trkpt>
      <trkpt lat="41.5266010" lon="2.3331730">
        <ele>280.0</ele>
        <time>2018-12-15T12:01:49Z</time>
      </trkpt>
      <trkpt lat="41.5265650" lon="2.3332160">
        <ele>280.8</ele>
        <time>2018-12-15T12:01:53Z</time>
      </trkpt>
      <trkpt lat="41.5265030" lon="2.3332530">
        <ele>282.0</ele>
        <time>2018-12-15T12:01:57Z</time>
      </trkpt>
      <trkpt lat="41.5264350" lon="2.3332700">
        <ele>283.2</ele>
        <time>2018-12-15T12:02:01Z</time>
      </trkpt>
      <trkpt lat="41.5263810" lon="2.3332880">
        <ele>284.2</ele>
        <time>2018-12-15T12:02:05Z</time>
      </trkpt>
      <trkpt lat="41.5263350" lon="2.3333310">
        <ele>285.2</ele>
        <time>2018-12-15T12:02:09Z</time>
      </trkpt>
      <trkpt lat="41.5262710" lon="2.3333880">
        <ele>285.6</ele>
        <time>2018-12-15T12:02:13Z</time>
      </trkpt>
      <trkpt lat="41.5262710" lon="2.3333880">
        <ele>285.6</ele>
        <time>2018-12-15T12:02:17Z</time>
      </trkpt>
      <trkpt lat="41.5262710" lon="2.3333880">
        <ele>285.6</ele>
        <time>2018-12-15T12:02:21Z</time>
      </trkpt>
      <trkpt lat="41.5262710" lon="2.3333880">
        <ele>285.6</ele>
        <time>2018-12-15T12:02:25Z</time>
      </trkpt>
      <trkpt lat="41.5262710" lon="2.3333880">
        <ele>285.6</ele>
        <time>2018-12-15T12:02:29Z</time>
      </trkpt>
      <trkpt lat="41.5262710" lon="2.3333880">
        <ele>285.6</ele>
        <time>2018-12-15T12:02:33Z</time>
      </trkpt>
      <trkpt lat="41.5261950" lon="2.3334880">
        <ele>286.0</ele>
        <time>2018-12-15T12:02:37Z</time>
      </trkpt>
      <trkpt lat="41.5261600" lon="2.3335010">
        <ele>287.0</ele>
        <time>2018-12-15T12:02:41Z</time>
      </trkpt>
      <trkpt lat="41.5261130" lon="2.3335330">
        <ele>288.2</ele>
        <time>2018-12-15T12:02:45Z</time>
      </trkpt>
      <trkpt lat="41.5260630" lon="2.3335880">
        <ele>289.2</ele>
        <time>2018-12-15T12:02:49Z</time>
      </trkpt>
      <trkpt lat="41.5259980" lon="2.3336280">
        <ele>290.0</ele>
        <time>2018-12-15T12:02:53Z</time>
      </trkpt>
      <trkpt lat="41.5259300" lon="2.3336630">
        <ele>291.4</ele>
        <time>2018-12-15T12:02:57Z</time>
      </trkpt>
      <trkpt lat="41.5258680" lon="2.3336880">
        <ele>293.0</ele>
        <time>2018-12-15T12:03:01Z</time>
      </trkpt>
      <trkpt lat="41.5257930" lon="2.3337500">
        <ele>293.6</ele>
        <time>2018-12-15T12:03:05Z</time>
      </trkpt>
      <trkpt lat="41.5256780" lon="2.3338100">
        <ele>294.4</ele>
        <time>2018-12-15T12:03:09Z</time>
      </trkpt>
      <trkpt lat="41.5255710" lon="2.3338880">
        <ele>295.6</ele>
        <time>2018-12-15T12:03:13Z</time>
      </trkpt>
      <trkpt lat="41.5254550" lon="2.3339310">
        <ele>296.4</ele>
        <time>2018-12-15T12:03:17Z</time>
      </trkpt>
      <trkpt lat="41.5253630" lon="2.3340010">
        <ele>297.2</ele>
        <time>2018-12-15T12:03:21Z</time>
      </trkpt>
      <trkpt lat="41.5253030" lon="2.3340560">
        <ele>298.0</ele>
        <time>2018-12-15T12:03:25Z</time>
      </trkpt>
      <trkpt lat="41.5252300" lon="2.3341260">
        <ele>298.6</ele>
        <time>2018-12-15T12:03:29Z</time>
      </trkpt>
      <trkpt lat="41.5251530" lon="2.3342110">
        <ele>300.0</ele>
        <time>2018-12-15T12:03:33Z</time>
      </trkpt>
      <trkpt lat="41.5251110" lon="2.3342580">
        <ele>301.0</ele>
        <time>2018-12-15T12:03:37Z</time>
      </trkpt>
      <trkpt lat="41.5250800" lon="2.3343110">
        <ele>302.2</ele>
        <time>2018-12-15T12:03:41Z</time>
      </trkpt>
      <trkpt lat="41.5250580" lon="2.3344080">
        <ele>303.0</ele>
        <time>2018-12-15T12:03:45Z</time>
      </trkpt>
      <trkpt lat="41.5250450" lon="2.3345110">
        <ele>304.6</ele>
        <time>2018-12-15T12:03:49Z</time>
      </trkpt>
      <trkpt lat="41.5250550" lon="2.3345960">
        <ele>305.6</ele>
        <time>2018-12-15T12:03:53Z</time>
      </trkpt>
      <trkpt lat="41.5250550" lon="2.3347080">
        <ele>306.4</ele>
        <time>2018-12-15T12:03:57Z</time>
      </trkpt>
      <trkpt lat="41.5250650" lon="2.3348010">
        <ele>307.4</ele>
        <time>2018-12-15T12:04:01Z</time>
      </trkpt>
      <trkpt lat="41.5250750" lon="2.3349060">
        <ele>308.2</ele>
        <time>2018-12-15T12:04:05Z</time>
      </trkpt>
      <trkpt lat="41.5251110" lon="2.3349680">
        <ele>309.4</ele>
        <time>2018-12-15T12:04:09Z</time>
      </trkpt>
      <trkpt lat="41.5251380" lon="2.3350360">
        <ele>311.0</ele>
        <time>2018-12-15T12:04:13Z</time>
      </trkpt>
      <trkpt lat="41.5251760" lon="2.3351050">
        <ele>312.4</ele>
        <time>2018-12-15T12:04:17Z</time>
      </trkpt>
      <trkpt lat="41.5251760" lon="2.3351050">
        <ele>312.4</ele>
        <time>2018-12-15T12:04:21Z</time>
      </trkpt>
      <trkpt lat="41.5251760" lon="2.3351050">
        <ele>312.4</ele>
        <time>2018-12-15T12:04:25Z</time>
      </trkpt>
      <trkpt lat="41.5251760" lon="2.3351050">
        <ele>312.4</ele>
        <time>2018-12-15T12:04:29Z</time>
      </trkpt>
      <trkpt lat="41.5251760" lon="2.3351050">
        <ele>312.4</ele>
        <time>2018-12-15T12:04:33Z</time>
      </trkpt>
      <trkpt lat="41.5252410" lon="2.3352580">
        <ele>312.6</ele>
        <time>2018-12-15T12:04:37Z</time>
      </trkpt>
      <trkpt lat="41.5252830" lon="2.3352910">
        <ele>313.2</ele>
        <time>2018-12-15T12:04:41Z</time>
      </trkpt>
      <trkpt lat="41.5253180" lon="2.3353460">
        <ele>313.6</ele>
        <time>2018-12-15T12:04:45Z</time>
      </trkpt>
      <trkpt lat="41.5253550" lon="2.3354050">
        <ele>314.4</ele>
        <time>2018-12-15T12:04:49Z</time>
      </trkpt>
      <trkpt lat="41.5253930" lon="2.3354610">
        <ele>315.6</ele>
        <time>2018-12-15T12:04:53Z</time>
      </trkpt>
      <trkpt lat="41.5254510" lon="2.3355650">
        <ele>316.4</ele>
        <time>2018-12-15T12:04:57Z</time>
      </trkpt>
      <trkpt lat="41.5254900" lon="2.3356680">
        <ele>318.0</ele>
        <time>2018-12-15T12:05:01Z</time>
      </trkpt>
      <trkpt lat="41.5255030" lon="2.3357830">
        <ele>319.4</ele>
        <time>2018-12-15T12:05:05Z</time>
      </trkpt>
      <trkpt lat="41.5255410" lon="2.3359010">
        <ele>319.8</ele>
        <time>2018-12-15T12:05:09Z</time>
      </trkpt>
      <trkpt lat="41.5255850" lon="2.3359830">
        <ele>321.4</ele>
        <time>2018-12-15T12:05:13Z</time>
      </trkpt>
      <trkpt lat="41.5256210" lon="2.3360630">
        <ele>322.8</ele>
        <time>2018-12-15T12:05:17Z</time>
      </trkpt>
      <trkpt lat="41.5256630" lon="2.3361680">
        <ele>323.4</ele>
        <time>2018-12-15T12:05:21Z</time>
      </trkpt>
      <trkpt lat="41.5257100" lon="2.3362700">
        <ele>324.2</ele>
        <time>2018-12-15T12:05:25Z</time>
      </trkpt>
      <trkpt lat="41.5257460" lon="2.3363500">
        <ele>325.0</ele>
        <time>2018-12-15T12:05:29Z</time>
      </trkpt>
      <trkpt lat="41.5257850" lon="2.3364350">
        <ele>326.2</ele>
        <time>2018-12-15T12:05:33Z</time>
      </trkpt>
      <trkpt lat="41.5258260" lon="2.3365280">
        <ele>327.4</ele>
        <time>2018-12-15T12:05:37Z</time>
      </trkpt>
      <trkpt lat="41.5258680" lon="2.3366260">
        <ele>327.4</ele>
        <time>2018-12-15T12:05:41Z</time>
      </trkpt>
      <trkpt lat="41.5259310" lon="2.3367460">
        <ele>327.6</ele>
        <time>2018-12-15T12:05:45Z</time>
      </trkpt>
      <trkpt lat="41.5259930" lon="2.3368730">
        <ele>327.8</ele>
        <time>2018-12-15T12:05:49Z</time>
      </trkpt>
      <trkpt lat="41.5260410" lon="2.3370180">
        <ele>328.6</ele>
        <time>2018-12-15T12:05:53Z</time>
      </trkpt>
      <trkpt lat="41.5260630" lon="2.3371460">
        <ele>329.0</ele>
        <time>2018-12-15T12:05:57Z</time>
      </trkpt>
      <trkpt lat="41.5260660" lon="2.3372980">
        <ele>329.2</ele>
        <time>2018-12-15T12:06:01Z</time>
      </trkpt>
      <trkpt lat="41.5260680" lon="2.3374730">
        <ele>329.6</ele>
        <time>2018-12-15T12:06:05Z</time>
      </trkpt>
      <trkpt lat="41.5260500" lon="2.3376510">
        <ele>329.2</ele>
        <time>2018-12-15T12:06:09Z</time>
      </trkpt>
      <trkpt lat="41.5260260" lon="2.3378260">
        <ele>330.2</ele>
        <time>2018-12-15T12:06:13Z</time>
      </trkpt>
      <trkpt lat="41.5260010" lon="2.3380050">
        <ele>330.0</ele>
        <time>2018-12-15T12:06:17Z</time>
      </trkpt>
      <trkpt lat="41.5259700" lon="2.3381850">
        <ele>330.8</ele>
        <time>2018-12-15T12:06:21Z</time>
      </trkpt>
      <trkpt lat="41.5259360" lon="2.3383610">
        <ele>331.0</ele>
        <time>2018-12-15T12:06:25Z</time>
      </trkpt>
      <trkpt lat="41.5259060" lon="2.3385400">
        <ele>331.2</ele>
        <time>2018-12-15T12:06:29Z</time>
      </trkpt>
      <trkpt lat="41.5258810" lon="2.3387200">
        <ele>332.2</ele>
        <time>2018-12-15T12:06:33Z</time>
      </trkpt>
      <trkpt lat="41.5258500" lon="2.3389000">
        <ele>332.8</ele>
        <time>2018-12-15T12:06:37Z</time>
      </trkpt>
      <trkpt lat="41.5258210" lon="2.3390710">
        <ele>333.6</ele>
        <time>2018-12-15T12:06:41Z</time>
      </trkpt>
      <trkpt lat="41.5258050" lon="2.3392300">
        <ele>334.2</ele>
        <time>2018-12-15T12:06:45Z</time>
      </trkpt>
      <trkpt lat="41.5257860" lon="2.3393730">
        <ele>335.4</ele>
        <time>2018-12-15T12:06:49Z</time>
      </trkpt>
      <trkpt lat="41.5257780" lon="2.3395180">
        <ele>335.8</ele>
        <time>2018-12-15T12:06:53Z</time>
      </trkpt>
      <trkpt lat="41.5257580" lon="2.3396660">
        <ele>337.4</ele>
        <time>2018-12-15T12:06:57Z</time>
      </trkpt>
      <trkpt lat="41.5257360" lon="2.3398180">
        <ele>338.2</ele>
        <time>2018-12-15T12:07:01Z</time>
      </trkpt>
      <trkpt lat="41.5257250" lon="2.3399760">
        <ele>339.2</ele>
        <time>2018-12-15T12:07:05Z</time>
      </trkpt>
      <trkpt lat="41.5257200" lon="2.3401400">
        <ele>340.0</ele>
        <time>2018-12-15T12:07:09Z</time>
      </trkpt>
      <trkpt lat="41.5257330" lon="2.3402810">
        <ele>341.4</ele>
        <time>2018-12-15T12:07:13Z</time>
      </trkpt>
      <trkpt lat="41.5257430" lon="2.3404110">
        <ele>341.2</ele>
        <time>2018-12-15T12:07:17Z</time>
      </trkpt>
      <trkpt lat="41.5257780" lon="2.3406050">
        <ele>340.4</ele>
        <time>2018-12-15T12:07:21Z</time>
      </trkpt>
      <trkpt lat="41.5258100" lon="2.3407550">
        <ele>340.2</ele>
        <time>2018-12-15T12:07:25Z</time>
      </trkpt>
      <trkpt lat="41.5258100" lon="2.3407550">
        <ele>340.2</ele>
        <time>2018-12-15T12:07:29Z</time>
      </trkpt>
      <trkpt lat="41.5258100" lon="2.3407550">
        <ele>340.2</ele>
        <time>2018-12-15T12:07:33Z</time>
      </trkpt>
      <trkpt lat="41.5258230" lon="2.3407610">
        <ele>340.0</ele>
        <time>2018-12-15T12:07:37Z</time>
      </trkpt>
      <trkpt lat="41.5258310" lon="2.3408110">
        <ele>340.0</ele>
        <time>2018-12-15T12:07:41Z</time>
      </trkpt>
      <trkpt lat="41.5258580" lon="2.3409830">
        <ele>339.0</ele>
        <time>2018-12-15T12:07:45Z</time>
      </trkpt>
      <trkpt lat="41.5258860" lon="2.3412210">
        <ele>338.4</ele>
        <time>2018-12-15T12:07:49Z</time>
      </trkpt>
      <trkpt lat="41.5259460" lon="2.3415000">
        <ele>337.6</ele>
        <time>2018-12-15T12:07:53Z</time>
      </trkpt>
      <trkpt lat="41.5260100" lon="2.3417950">
        <ele>337.2</ele>
        <time>2018-12-15T12:07:57Z</time>
      </trkpt>
      <trkpt lat="41.5261050" lon="2.3421210">
        <ele>336.2</ele>
        <time>2018-12-15T12:08:01Z</time>
      </trkpt>
      <trkpt lat="41.5262980" lon="2.3424450">
        <ele>332.8</ele>
        <time>2018-12-15T12:08:05Z</time>
      </trkpt>
      <trkpt lat="41.5265230" lon="2.3427830">
        <ele>331.0</ele>
        <time>2018-12-15T12:08:09Z</time>
      </trkpt>
      <trkpt lat="41.5266830" lon="2.3431450">
        <ele>330.8</ele>
        <time>2018-12-15T12:08:13Z</time>
      </trkpt>
      <trkpt lat="41.5268730" lon="2.3434480">
        <ele>329.2</ele>
        <time>2018-12-15T12:08:17Z</time>
      </trkpt>
      <trkpt lat="41.5270880" lon="2.3437780">
        <ele>329.2</ele>
        <time>2018-12-15T12:08:21Z</time>
      </trkpt>
      <trkpt lat="41.5271930" lon="2.3441860">
        <ele>328.6</ele>
        <time>2018-12-15T12:08:25Z</time>
      </trkpt>
      <trkpt lat="41.5272280" lon="2.3446400">
        <ele>326.8</ele>
        <time>2018-12-15T12:08:29Z</time>
      </trkpt>
      <trkpt lat="41.5272650" lon="2.3451400">
        <ele>324.4</ele>
        <time>2018-12-15T12:08:33Z</time>
      </trkpt>
      <trkpt lat="41.5273930" lon="2.3456750">
        <ele>319.2</ele>
        <time>2018-12-15T12:08:37Z</time>
      </trkpt>
      <trkpt lat="41.5275800" lon="2.3462310">
        <ele>315.2</ele>
        <time>2018-12-15T12:08:41Z</time>
      </trkpt>
      <trkpt lat="41.5278750" lon="2.3467260">
        <ele>310.0</ele>
        <time>2018-12-15T12:08:45Z</time>
      </trkpt>
      <trkpt lat="41.5279800" lon="2.3472960">
        <ele>308.0</ele>
        <time>2018-12-15T12:08:49Z</time>
      </trkpt>
      <trkpt lat="41.5279280" lon="2.3478650">
        <ele>304.8</ele>
        <time>2018-12-15T12:08:53Z</time>
      </trkpt>
      <trkpt lat="41.5278050" lon="2.3484330">
        <ele>300.6</ele>
        <time>2018-12-15T12:08:57Z</time>
      </trkpt>
      <trkpt lat="41.5278910" lon="2.3490310">
        <ele>297.2</ele>
        <time>2018-12-15T12:09:01Z</time>
      </trkpt>
      <trkpt lat="41.5280480" lon="2.3496200">
        <ele>292.2</ele>
        <time>2018-12-15T12:09:05Z</time>
      </trkpt>
      <trkpt lat="41.5280860" lon="2.3502460">
        <ele>289.2</ele>
        <time>2018-12-15T12:09:09Z</time>
      </trkpt>
      <trkpt lat="41.5282600" lon="2.3508380">
        <ele>285.4</ele>
        <time>2018-12-15T12:09:13Z</time>
      </trkpt>
      <trkpt lat="41.5282880" lon="2.3514330">
        <ele>283.2</ele>
        <time>2018-12-15T12:09:17Z</time>
      </trkpt>
      <trkpt lat="41.5281450" lon="2.3519230">
        <ele>282.8</ele>
        <time>2018-12-15T12:09:21Z</time>
      </trkpt>
      <trkpt lat="41.5280200" lon="2.3522600">
        <ele>282.0</ele>
        <time>2018-12-15T12:09:25Z</time>
      </trkpt>
      <trkpt lat="41.5278910" lon="2.3524950">
        <ele>279.8</ele>
        <time>2018-12-15T12:09:29Z</time>
      </trkpt>
      <trkpt lat="41.5277050" lon="2.3528510">
        <ele>275.6</ele>
        <time>2018-12-15T12:09:33Z</time>
      </trkpt>
      <trkpt lat="41.5275310" lon="2.3532880">
        <ele>272.2</ele>
        <time>2018-12-15T12:09:37Z</time>
      </trkpt>
      <trkpt lat="41.5274000" lon="2.3537580">
        <ele>267.6</ele>
        <time>2018-12-15T12:09:41Z</time>
      </trkpt>
      <trkpt lat="41.5273680" lon="2.3543460">
        <ele>262.4</ele>
        <time>2018-12-15T12:09:45Z</time>
      </trkpt>
      <trkpt lat="41.5274350" lon="2.3548330">
        <ele>260.2</ele>
        <time>2018-12-15T12:09:49Z</time>
      </trkpt>
      <trkpt lat="41.5273560" lon="2.3552060">
        <ele>256.8</ele>
        <time>2018-12-15T12:09:53Z</time>
      </trkpt>
      <trkpt lat="41.5272200" lon="2.3555030">
        <ele>252.6</ele>
        <time>2018-12-15T12:09:57Z</time>
      </trkpt>
      <trkpt lat="41.5269060" lon="2.3557710">
        <ele>246.2</ele>
        <time>2018-12-15T12:10:01Z</time>
      </trkpt>
      <trkpt lat="41.5266010" lon="2.3561930">
        <ele>242.4</ele>
        <time>2018-12-15T12:10:05Z</time>
      </trkpt>
      <trkpt lat="41.5262250" lon="2.3565650">
        <ele>237.8</ele>
        <time>2018-12-15T12:10:09Z</time>
      </trkpt>
      <trkpt lat="41.5258550" lon="2.3567850">
        <ele>234.2</ele>
        <time>2018-12-15T12:10:13Z</time>
      </trkpt>
      <trkpt lat="41.5255500" lon="2.3571610">
        <ele>231.2</ele>
        <time>2018-12-15T12:10:17Z</time>
      </trkpt>
      <trkpt lat="41.5253660" lon="2.3576660">
        <ele>229.2</ele>
        <time>2018-12-15T12:10:21Z</time>
      </trkpt>
      <trkpt lat="41.5252410" lon="2.3582380">
        <ele>225.8</ele>
        <time>2018-12-15T12:10:26Z</time>
      </trkpt>
      <trkpt lat="41.5251450" lon="2.3588050">
        <ele>224.8</ele>
        <time>2018-12-15T12:10:29Z</time>
      </trkpt>
      <trkpt lat="41.5249710" lon="2.3592630">
        <ele>222.6</ele>
        <time>2018-12-15T12:10:33Z</time>
      </trkpt>
      <trkpt lat="41.5248580" lon="2.3598460">
        <ele>216.4</ele>
        <time>2018-12-15T12:10:37Z</time>
      </trkpt>
      <trkpt lat="41.5246630" lon="2.3604160">
        <ele>209.0</ele>
        <time>2018-12-15T12:10:41Z</time>
      </trkpt>
      <trkpt lat="41.5243300" lon="2.3608730">
        <ele>201.6</ele>
        <time>2018-12-15T12:10:45Z</time>
      </trkpt>
      <trkpt lat="41.5240280" lon="2.3611230">
        <ele>196.6</ele>
        <time>2018-12-15T12:10:49Z</time>
      </trkpt>
      <trkpt lat="41.5237980" lon="2.3611830">
        <ele>193.4</ele>
        <time>2018-12-15T12:10:53Z</time>
      </trkpt>
      <trkpt lat="41.5235580" lon="2.3613560">
        <ele>191.4</ele>
        <time>2018-12-15T12:10:57Z</time>
      </trkpt>
      <trkpt lat="41.5232780" lon="2.3616600">
        <ele>187.6</ele>
        <time>2018-12-15T12:11:01Z</time>
      </trkpt>
      <trkpt lat="41.5229380" lon="2.3620750">
        <ele>182.0</ele>
        <time>2018-12-15T12:11:05Z</time>
      </trkpt>
      <trkpt lat="41.5225030" lon="2.3623000">
        <ele>179.0</ele>
        <time>2018-12-15T12:11:09Z</time>
      </trkpt>
      <trkpt lat="41.5221280" lon="2.3626430">
        <ele>176.8</ele>
        <time>2018-12-15T12:11:13Z</time>
      </trkpt>
      <trkpt lat="41.5217680" lon="2.3630810">
        <ele>173.4</ele>
        <time>2018-12-15T12:11:17Z</time>
      </trkpt>
      <trkpt lat="41.5215810" lon="2.3636850">
        <ele>169.2</ele>
        <time>2018-12-15T12:11:21Z</time>
      </trkpt>
      <trkpt lat="41.5215000" lon="2.3643530">
        <ele>165.2</ele>
        <time>2018-12-15T12:11:25Z</time>
      </trkpt>
      <trkpt lat="41.5211760" lon="2.3649560">
        <ele>158.4</ele>
        <time>2018-12-15T12:11:29Z</time>
      </trkpt>
      <trkpt lat="41.5209560" lon="2.3656530">
        <ele>151.6</ele>
        <time>2018-12-15T12:11:33Z</time>
      </trkpt>
      <trkpt lat="41.5208280" lon="2.3660680">
        <ele>148.4</ele>
        <time>2018-12-15T12:11:37Z</time>
      </trkpt>
      <trkpt lat="41.5205730" lon="2.3660080">
        <ele>146.0</ele>
        <time>2018-12-15T12:11:41Z</time>
      </trkpt>
      <trkpt lat="41.5201910" lon="2.3657310">
        <ele>139.4</ele>
        <time>2018-12-15T12:11:45Z</time>
      </trkpt>
      <trkpt lat="41.5197530" lon="2.3653610">
        <ele>130.6</ele>
        <time>2018-12-15T12:11:49Z</time>
      </trkpt>
      <trkpt lat="41.5193530" lon="2.3648680">
        <ele>123.0</ele>
        <time>2018-12-15T12:11:53Z</time>
      </trkpt>
      <trkpt lat="41.5190310" lon="2.3642950">
        <ele>118.2</ele>
        <time>2018-12-15T12:11:57Z</time>
      </trkpt>
      <trkpt lat="41.5188280" lon="2.3636550">
        <ele>114.6</ele>
        <time>2018-12-15T12:12:01Z</time>
      </trkpt>
      <trkpt lat="41.5186680" lon="2.3630050">
        <ele>110.0</ele>
        <time>2018-12-15T12:12:05Z</time>
      </trkpt>
      <trkpt lat="41.5185280" lon="2.3623750">
        <ele>106.8</ele>
        <time>2018-12-15T12:12:09Z</time>
      </trkpt>
      <trkpt lat="41.5183860" lon="2.3617780">
        <ele>103.0</ele>
        <time>2018-12-15T12:12:13Z</time>
      </trkpt>
      <trkpt lat="41.5183100" lon="2.3614530">
        <ele>102.0</ele>
        <time>2018-12-15T12:12:17Z</time>
      </trkpt>
      <trkpt lat="41.5182600" lon="2.3612880">
        <ele>101.0</ele>
        <time>2018-12-15T12:12:21Z</time>
      </trkpt>
      <trkpt lat="41.5182250" lon="2.3611210">
        <ele>100.0</ele>
        <time>2018-12-15T12:12:25Z</time>
      </trkpt>
      <trkpt lat="41.5181260" lon="2.3609950">
        <ele>98.4</ele>
        <time>2018-12-15T12:12:29Z</time>
      </trkpt>
      <trkpt lat="41.5179030" lon="2.3611330">
        <ele>97.2</ele>
        <time>2018-12-15T12:12:33Z</time>
      </trkpt>
      <trkpt lat="41.5175660" lon="2.3613360">
        <ele>95.2</ele>
        <time>2018-12-15T12:12:37Z</time>
      </trkpt>
      <trkpt lat="41.5172010" lon="2.3615730">
        <ele>92.4</ele>
        <time>2018-12-15T12:12:41Z</time>
      </trkpt>
      <trkpt lat="41.5168200" lon="2.3618360">
        <ele>90.2</ele>
        <time>2018-12-15T12:12:45Z</time>
      </trkpt>
      <trkpt lat="41.5164650" lon="2.3621480">
        <ele>88.0</ele>
        <time>2018-12-15T12:12:49Z</time>
      </trkpt>
      <trkpt lat="41.5160730" lon="2.3624680">
        <ele>84.8</ele>
        <time>2018-12-15T12:12:53Z</time>
      </trkpt>
      <trkpt lat="41.5156560" lon="2.3628200">
        <ele>83.0</ele>
        <time>2018-12-15T12:12:57Z</time>
      </trkpt>
      <trkpt lat="41.5152210" lon="2.3631500">
        <ele>80.6</ele>
        <time>2018-12-15T12:13:01Z</time>
      </trkpt>
      <trkpt lat="41.5147680" lon="2.3633910">
        <ele>78.0</ele>
        <time>2018-12-15T12:13:05Z</time>
      </trkpt>
      <trkpt lat="41.5143010" lon="2.3635610">
        <ele>75.4</ele>
        <time>2018-12-15T12:13:09Z</time>
      </trkpt>
      <trkpt lat="41.5138510" lon="2.3637680">
        <ele>73.0</ele>
        <time>2018-12-15T12:13:13Z</time>
      </trkpt>
      <trkpt lat="41.5134580" lon="2.3641110">
        <ele>70.4</ele>
        <time>2018-12-15T12:13:17Z</time>
      </trkpt>
      <trkpt lat="41.5130410" lon="2.3643900">
        <ele>66.6</ele>
        <time>2018-12-15T12:13:21Z</time>
      </trkpt>
      <trkpt lat="41.5126630" lon="2.3645900">
        <ele>65.8</ele>
        <time>2018-12-15T12:13:25Z</time>
      </trkpt>
      <trkpt lat="41.5122400" lon="2.3647600">
        <ele>64.4</ele>
        <time>2018-12-15T12:13:29Z</time>
      </trkpt>
      <trkpt lat="41.5118700" lon="2.3645730">
        <ele>63.2</ele>
        <time>2018-12-15T12:13:33Z</time>
      </trkpt>
      <trkpt lat="41.5115980" lon="2.3642410">
        <ele>63.4</ele>
        <time>2018-12-15T12:13:37Z</time>
      </trkpt>
      <trkpt lat="41.5113130" lon="2.3639210">
        <ele>63.8</ele>
        <time>2018-12-15T12:13:41Z</time>
      </trkpt>
      <trkpt lat="41.5110310" lon="2.3636130">
        <ele>64.8</ele>
        <time>2018-12-15T12:13:45Z</time>
      </trkpt>
      <trkpt lat="41.5108000" lon="2.3632550">
        <ele>65.0</ele>
        <time>2018-12-15T12:13:49Z</time>
      </trkpt>
      <trkpt lat="41.5106860" lon="2.3628210">
        <ele>65.8</ele>
        <time>2018-12-15T12:13:53Z</time>
      </trkpt>
      <trkpt lat="41.5105960" lon="2.3624210">
        <ele>66.8</ele>
        <time>2018-12-15T12:13:57Z</time>
      </trkpt>
      <trkpt lat="41.5106230" lon="2.3620850">
        <ele>68.8</ele>
        <time>2018-12-15T12:14:01Z</time>
      </trkpt>
      <trkpt lat="41.5105030" lon="2.3618010">
        <ele>69.4</ele>
        <time>2018-12-15T12:14:05Z</time>
      </trkpt>
      <trkpt lat="41.5101560" lon="2.3618200">
        <ele>67.6</ele>
        <time>2018-12-15T12:14:09Z</time>
      </trkpt>
      <trkpt lat="41.5097730" lon="2.3616780">
        <ele>64.8</ele>
        <time>2018-12-15T12:14:13Z</time>
      </trkpt>
      <trkpt lat="41.5093710" lon="2.3615060">
        <ele>61.4</ele>
        <time>2018-12-15T12:14:17Z</time>
      </trkpt>
      <trkpt lat="41.5089410" lon="2.3613400">
        <ele>61.4</ele>
        <time>2018-12-15T12:14:21Z</time>
      </trkpt>
      <trkpt lat="41.5084910" lon="2.3611880">
        <ele>59.2</ele>
        <time>2018-12-15T12:14:25Z</time>
      </trkpt>
      <trkpt lat="41.5080150" lon="2.3610650">
        <ele>55.2</ele>
        <time>2018-12-15T12:14:29Z</time>
      </trkpt>
      <trkpt lat="41.5075660" lon="2.3609660">
        <ele>51.2</ele>
        <time>2018-12-15T12:14:33Z</time>
      </trkpt>
      <trkpt lat="41.5073530" lon="2.3608250">
        <ele>50.2</ele>
        <time>2018-12-15T12:14:37Z</time>
      </trkpt>
      <trkpt lat="41.5070810" lon="2.3607960">
        <ele>48.6</ele>
        <time>2018-12-15T12:14:41Z</time>
      </trkpt>
      <trkpt lat="41.5067660" lon="2.3607350">
        <ele>46.6</ele>
        <time>2018-12-15T12:14:45Z</time>
      </trkpt>
      <trkpt lat="41.5064200" lon="2.3606860">
        <ele>43.8</ele>
        <time>2018-12-15T12:14:49Z</time>
      </trkpt>
      <trkpt lat="41.5060380" lon="2.3606060">
        <ele>41.4</ele>
        <time>2018-12-15T12:14:53Z</time>
      </trkpt>
      <trkpt lat="41.5056300" lon="2.3605510">
        <ele>38.4</ele>
        <time>2018-12-15T12:14:57Z</time>
      </trkpt>
      <trkpt lat="41.5051950" lon="2.3605250">
        <ele>35.6</ele>
        <time>2018-12-15T12:15:01Z</time>
      </trkpt>
      <trkpt lat="41.5047630" lon="2.3603400">
        <ele>33.4</ele>
        <time>2018-12-15T12:15:05Z</time>
      </trkpt>
      <trkpt lat="41.5043560" lon="2.3602110">
        <ele>33.4</ele>
        <time>2018-12-15T12:15:09Z</time>
      </trkpt>
      <trkpt lat="41.5039700" lon="2.3601280">
        <ele>32.0</ele>
        <time>2018-12-15T12:15:13Z</time>
      </trkpt>
      <trkpt lat="41.5036230" lon="2.3600010">
        <ele>32.2</ele>
        <time>2018-12-15T12:15:17Z</time>
      </trkpt>
      <trkpt lat="41.5033330" lon="2.3597600">
        <ele>31.6</ele>
        <time>2018-12-15T12:15:21Z</time>
      </trkpt>
      <trkpt lat="41.5029780" lon="2.3596360">
        <ele>30.6</ele>
        <time>2018-12-15T12:15:25Z</time>
      </trkpt>
      <trkpt lat="41.5026250" lon="2.3594600">
        <ele>29.6</ele>
        <time>2018-12-15T12:15:29Z</time>
      </trkpt>
      <trkpt lat="41.5023180" lon="2.3594200">
        <ele>27.8</ele>
        <time>2018-12-15T12:15:33Z</time>
      </trkpt>
      <trkpt lat="41.5021000" lon="2.3593180">
        <ele>27.8</ele>
        <time>2018-12-15T12:15:37Z</time>
      </trkpt>
      <trkpt lat="41.5018130" lon="2.3593350">
        <ele>25.6</ele>
        <time>2018-12-15T12:15:41Z</time>
      </trkpt>
      <trkpt lat="41.5015550" lon="2.3591830">
        <ele>24.2</ele>
        <time>2018-12-15T12:15:45Z</time>
      </trkpt>
      <trkpt lat="41.5015710" lon="2.3588800">
        <ele>24.2</ele>
        <time>2018-12-15T12:15:49Z</time>
      </trkpt>
      <trkpt lat="41.5015710" lon="2.3588800">
        <ele>24.2</ele>
        <time>2018-12-15T12:15:53Z</time>
      </trkpt>
      <trkpt lat="41.5144530" lon="2.3605080">
        <ele>94.8</ele>
        <time>2018-12-15T15:22:08Z</time>
      </trkpt>
      <trkpt lat="41.5144530" lon="2.3605080">
        <ele>94.8</ele>
        <time>2018-12-15T15:22:09Z</time>
      </trkpt>
      <trkpt lat="41.5144530" lon="2.3605080">
        <ele>94.8</ele>
        <time>2018-12-15T15:22:11Z</time>
      </trkpt>
      <trkpt lat="41.5144530" lon="2.3605080">
        <ele>94.8</ele>
        <time>2018-12-15T15:22:15Z</time>
      </trkpt>
      <trkpt lat="41.5144530" lon="2.3605080">
        <ele>94.8</ele>
        <time>2018-12-15T15:22:19Z</time>
      </trkpt>
      <trkpt lat="41.5145780" lon="2.3607350">
        <ele>94.8</ele>
        <time>2018-12-15T15:22:23Z</time>
      </trkpt>
      <trkpt lat="41.5145360" lon="2.3609700">
        <ele>93.6</ele>
        <time>2018-12-15T15:22:27Z</time>
      </trkpt>
      <trkpt lat="41.5144980" lon="2.3610410">
        <ele>93.0</ele>
        <time>2018-12-15T15:22:31Z</time>
      </trkpt>
      <trkpt lat="41.5144380" lon="2.3612450">
        <ele>92.8</ele>
        <time>2018-12-15T15:22:35Z</time>
      </trkpt>
      <trkpt lat="41.5145460" lon="2.3614310">
        <ele>93.6</ele>
        <time>2018-12-15T15:22:39Z</time>
      </trkpt>
      <trkpt lat="41.5146400" lon="2.3616350">
        <ele>94.0</ele>
        <time>2018-12-15T15:22:43Z</time>
      </trkpt>
      <trkpt lat="41.5148060" lon="2.3618330">
        <ele>94.2</ele>
        <time>2018-12-15T15:22:47Z</time>
      </trkpt>
      <trkpt lat="41.5150150" lon="2.3620130">
        <ele>94.8</ele>
        <time>2018-12-15T15:22:51Z</time>
      </trkpt>
      <trkpt lat="41.5151810" lon="2.3622250">
        <ele>95.0</ele>
        <time>2018-12-15T15:22:55Z</time>
      </trkpt>
      <trkpt lat="41.5152500" lon="2.3624310">
        <ele>95.2</ele>
        <time>2018-12-15T15:22:59Z</time>
      </trkpt>
      <trkpt lat="41.5154530" lon="2.3625930">
        <ele>96.4</ele>
        <time>2018-12-15T15:23:03Z</time>
      </trkpt>
      <trkpt lat="41.5156010" lon="2.3627530">
        <ele>96.4</ele>
        <time>2018-12-15T15:23:07Z</time>
      </trkpt>
      <trkpt lat="41.5158330" lon="2.3627800">
        <ele>96.0</ele>
        <time>2018-12-15T15:23:11Z</time>
      </trkpt>
      <trkpt lat="41.5160150" lon="2.3627050">
        <ele>98.0</ele>
        <time>2018-12-15T15:23:15Z</time>
      </trkpt>
      <trkpt lat="41.5161910" lon="2.3625580">
        <ele>99.0</ele>
        <time>2018-12-15T15:23:19Z</time>
      </trkpt>
      <trkpt lat="41.5163600" lon="2.3624410">
        <ele>100.0</ele>
        <time>2018-12-15T15:23:23Z</time>
      </trkpt>
      <trkpt lat="41.5165810" lon="2.3620750">
        <ele>101.2</ele>
        <time>2018-12-15T15:23:27Z</time>
      </trkpt>
      <trkpt lat="41.5167300" lon="2.3619510">
        <ele>101.6</ele>
        <time>2018-12-15T15:23:31Z</time>
      </trkpt>
      <trkpt lat="41.5168730" lon="2.3618360">
        <ele>102.8</ele>
        <time>2018-12-15T15:23:35Z</time>
      </trkpt>
      <trkpt lat="41.5170230" lon="2.3617010">
        <ele>104.0</ele>
        <time>2018-12-15T15:23:39Z</time>
      </trkpt>
      <trkpt lat="41.5171560" lon="2.3615760">
        <ele>104.6</ele>
        <time>2018-12-15T15:23:43Z</time>
      </trkpt>
      <trkpt lat="41.5173080" lon="2.3614660">
        <ele>105.8</ele>
        <time>2018-12-15T15:23:47Z</time>
      </trkpt>
      <trkpt lat="41.5174660" lon="2.3613880">
        <ele>106.4</ele>
        <time>2018-12-15T15:23:51Z</time>
      </trkpt>
      <trkpt lat="41.5176050" lon="2.3613000">
        <ele>107.0</ele>
        <time>2018-12-15T15:23:55Z</time>
      </trkpt>
      <trkpt lat="41.5177430" lon="2.3612180">
        <ele>108.6</ele>
        <time>2018-12-15T15:23:59Z</time>
      </trkpt>
      <trkpt lat="41.5178230" lon="2.3611750">
        <ele>108.2</ele>
        <time>2018-12-15T15:24:03Z</time>
      </trkpt>
      <trkpt lat="41.5179410" lon="2.3610960">
        <ele>109.6</ele>
        <time>2018-12-15T15:24:07Z</time>
      </trkpt>
      <trkpt lat="41.5180730" lon="2.3610010">
        <ele>110.8</ele>
        <time>2018-12-15T15:24:11Z</time>
      </trkpt>
      <trkpt lat="41.5181680" lon="2.3610730">
        <ele>111.2</ele>
        <time>2018-12-15T15:24:15Z</time>
      </trkpt>
      <trkpt lat="41.5182130" lon="2.3612450">
        <ele>112.6</ele>
        <time>2018-12-15T15:24:19Z</time>
      </trkpt>
      <trkpt lat="41.5182380" lon="2.3614330">
        <ele>113.8</ele>
        <time>2018-12-15T15:24:23Z</time>
      </trkpt>
      <trkpt lat="41.5182930" lon="2.3616080">
        <ele>114.2</ele>
        <time>2018-12-15T15:24:27Z</time>
      </trkpt>
      <trkpt lat="41.5183300" lon="2.3617680">
        <ele>115.6</ele>
        <time>2018-12-15T15:24:31Z</time>
      </trkpt>
      <trkpt lat="41.5183710" lon="2.3619230">
        <ele>116.4</ele>
        <time>2018-12-15T15:24:35Z</time>
      </trkpt>
      <trkpt lat="41.5184160" lon="2.3620830">
        <ele>117.2</ele>
        <time>2018-12-15T15:24:39Z</time>
      </trkpt>
      <trkpt lat="41.5184550" lon="2.3622380">
        <ele>117.6</ele>
        <time>2018-12-15T15:24:43Z</time>
      </trkpt>
      <trkpt lat="41.5184960" lon="2.3623930">
        <ele>118.4</ele>
        <time>2018-12-15T15:24:47Z</time>
      </trkpt>
      <trkpt lat="41.5185300" lon="2.3625550">
        <ele>119.8</ele>
        <time>2018-12-15T15:24:51Z</time>
      </trkpt>
      <trkpt lat="41.5185680" lon="2.3627160">
        <ele>120.8</ele>
        <time>2018-12-15T15:24:55Z</time>
      </trkpt>
      <trkpt lat="41.5186060" lon="2.3628760">
        <ele>121.4</ele>
        <time>2018-12-15T15:24:59Z</time>
      </trkpt>
      <trkpt lat="41.5186410" lon="2.3630400">
        <ele>122.6</ele>
        <time>2018-12-15T15:25:03Z</time>
      </trkpt>
      <trkpt lat="41.5186810" lon="2.3632030">
        <ele>123.4</ele>
        <time>2018-12-15T15:25:07Z</time>
      </trkpt>
      <trkpt lat="41.5187200" lon="2.3633650">
        <ele>124.2</ele>
        <time>2018-12-15T15:25:11Z</time>
      </trkpt>
      <trkpt lat="41.5187510" lon="2.3635200">
        <ele>125.8</ele>
        <time>2018-12-15T15:25:15Z</time>
      </trkpt>
      <trkpt lat="41.5187830" lon="2.3636750">
        <ele>126.8</ele>
        <time>2018-12-15T15:25:19Z</time>
      </trkpt>
      <trkpt lat="41.5188160" lon="2.3638130">
        <ele>127.8</ele>
        <time>2018-12-15T15:25:23Z</time>
      </trkpt>
      <trkpt lat="41.5188550" lon="2.3639580">
        <ele>128.6</ele>
        <time>2018-12-15T15:25:27Z</time>
      </trkpt>
      <trkpt lat="41.5189010" lon="2.3640980">
        <ele>129.8</ele>
        <time>2018-12-15T15:25:31Z</time>
      </trkpt>
      <trkpt lat="41.5189630" lon="2.3642350">
        <ele>130.6</ele>
        <time>2018-12-15T15:25:35Z</time>
      </trkpt>
      <trkpt lat="41.5190080" lon="2.3643600">
        <ele>131.4</ele>
        <time>2018-12-15T15:25:39Z</time>
      </trkpt>
      <trkpt lat="41.5190630" lon="2.3644860">
        <ele>132.2</ele>
        <time>2018-12-15T15:25:43Z</time>
      </trkpt>
      <trkpt lat="41.5191310" lon="2.3646230">
        <ele>132.8</ele>
        <time>2018-12-15T15:25:47Z</time>
      </trkpt>
      <trkpt lat="41.5192080" lon="2.3647480">
        <ele>133.8</ele>
        <time>2018-12-15T15:25:51Z</time>
      </trkpt>
      <trkpt lat="41.5192750" lon="2.3648660">
        <ele>135.0</ele>
        <time>2018-12-15T15:25:55Z</time>
      </trkpt>
      <trkpt lat="41.5193450" lon="2.3649760">
        <ele>136.0</ele>
        <time>2018-12-15T15:25:59Z</time>
      </trkpt>
      <trkpt lat="41.5194180" lon="2.3650660">
        <ele>136.4</ele>
        <time>2018-12-15T15:26:03Z</time>
      </trkpt>
      <trkpt lat="41.5194850" lon="2.3651560">
        <ele>137.8</ele>
        <time>2018-12-15T15:26:07Z</time>
      </trkpt>
      <trkpt lat="41.5195550" lon="2.3652500">
        <ele>139.2</ele>
        <time>2018-12-15T15:26:11Z</time>
      </trkpt>
      <trkpt lat="41.5196260" lon="2.3653360">
        <ele>139.0</ele>
        <time>2018-12-15T15:26:15Z</time>
      </trkpt>
      <trkpt lat="41.5196900" lon="2.3653960">
        <ele>141.0</ele>
        <time>2018-12-15T15:26:19Z</time>
      </trkpt>
      <trkpt lat="41.5197410" lon="2.3654500">
        <ele>142.2</ele>
        <time>2018-12-15T15:26:23Z</time>
      </trkpt>
      <trkpt lat="41.5198060" lon="2.3655300">
        <ele>143.0</ele>
        <time>2018-12-15T15:26:27Z</time>
      </trkpt>
      <trkpt lat="41.5198450" lon="2.3655650">
        <ele>144.2</ele>
        <time>2018-12-15T15:26:31Z</time>
      </trkpt>
      <trkpt lat="41.5199160" lon="2.3656280">
        <ele>145.4</ele>
        <time>2018-12-15T15:26:35Z</time>
      </trkpt>
      <trkpt lat="41.5199850" lon="2.3656910">
        <ele>146.8</ele>
        <time>2018-12-15T15:26:39Z</time>
      </trkpt>
      <trkpt lat="41.5200600" lon="2.3657410">
        <ele>147.8</ele>
        <time>2018-12-15T15:26:43Z</time>
      </trkpt>
      <trkpt lat="41.5201200" lon="2.3657900">
        <ele>149.2</ele>
        <time>2018-12-15T15:26:47Z</time>
      </trkpt>
      <trkpt lat="41.5201960" lon="2.3658400">
        <ele>150.6</ele>
        <time>2018-12-15T15:26:51Z</time>
      </trkpt>
      <trkpt lat="41.5202710" lon="2.3658850">
        <ele>151.2</ele>
        <time>2018-12-15T15:26:55Z</time>
      </trkpt>
      <trkpt lat="41.5203260" lon="2.3659250">
        <ele>152.2</ele>
        <time>2018-12-15T15:26:59Z</time>
      </trkpt>
      <trkpt lat="41.5204080" lon="2.3659850">
        <ele>153.8</ele>
        <time>2018-12-15T15:27:03Z</time>
      </trkpt>
      <trkpt lat="41.5204850" lon="2.3660360">
        <ele>155.0</ele>
        <time>2018-12-15T15:27:07Z</time>
      </trkpt>
      <trkpt lat="41.5205430" lon="2.3660800">
        <ele>155.8</ele>
        <time>2018-12-15T15:27:11Z</time>
      </trkpt>
      <trkpt lat="41.5206060" lon="2.3661130">
        <ele>157.4</ele>
        <time>2018-12-15T15:27:15Z</time>
      </trkpt>
      <trkpt lat="41.5207030" lon="2.3661510">
        <ele>158.4</ele>
        <time>2018-12-15T15:27:19Z</time>
      </trkpt>
      <trkpt lat="41.5208150" lon="2.3660860">
        <ele>159.0</ele>
        <time>2018-12-15T15:27:23Z</time>
      </trkpt>
      <trkpt lat="41.5208710" lon="2.3659830">
        <ele>160.2</ele>
        <time>2018-12-15T15:27:27Z</time>
      </trkpt>
      <trkpt lat="41.5208980" lon="2.3658800">
        <ele>161.0</ele>
        <time>2018-12-15T15:27:31Z</time>
      </trkpt>
      <trkpt lat="41.5209280" lon="2.3657850">
        <ele>161.6</ele>
        <time>2018-12-15T15:27:35Z</time>
      </trkpt>
      <trkpt lat="41.5209530" lon="2.3656930">
        <ele>162.2</ele>
        <time>2018-12-15T15:27:39Z</time>
      </trkpt>
      <trkpt lat="41.5209860" lon="2.3656150">
        <ele>163.2</ele>
        <time>2018-12-15T15:27:43Z</time>
      </trkpt>
      <trkpt lat="41.5210150" lon="2.3655250">
        <ele>163.8</ele>
        <time>2018-12-15T15:27:47Z</time>
      </trkpt>
      <trkpt lat="41.5210410" lon="2.3654300">
        <ele>164.8</ele>
        <time>2018-12-15T15:27:51Z</time>
      </trkpt>
      <trkpt lat="41.5210680" lon="2.3653360">
        <ele>165.8</ele>
        <time>2018-12-15T15:27:55Z</time>
      </trkpt>
      <trkpt lat="41.5210930" lon="2.3652350">
        <ele>166.2</ele>
        <time>2018-12-15T15:27:59Z</time>
      </trkpt>
      <trkpt lat="41.5211230" lon="2.3651410">
        <ele>167.0</ele>
        <time>2018-12-15T15:28:03Z</time>
      </trkpt>
      <trkpt lat="41.5211500" lon="2.3650460">
        <ele>167.8</ele>
        <time>2018-12-15T15:28:07Z</time>
      </trkpt>
      <trkpt lat="41.5211900" lon="2.3649580">
        <ele>168.8</ele>
        <time>2018-12-15T15:28:11Z</time>
      </trkpt>
      <trkpt lat="41.5212380" lon="2.3648810">
        <ele>170.0</ele>
        <time>2018-12-15T15:28:15Z</time>
      </trkpt>
      <trkpt lat="41.5212850" lon="2.3647860">
        <ele>171.0</ele>
        <time>2018-12-15T15:28:19Z</time>
      </trkpt>
      <trkpt lat="41.5213380" lon="2.3647050">
        <ele>171.4</ele>
        <time>2018-12-15T15:28:23Z</time>
      </trkpt>
      <trkpt lat="41.5213860" lon="2.3646210">
        <ele>172.6</ele>
        <time>2018-12-15T15:28:27Z</time>
      </trkpt>
      <trkpt lat="41.5214380" lon="2.3645360">
        <ele>173.8</ele>
        <time>2018-12-15T15:28:31Z</time>
      </trkpt>
      <trkpt lat="41.5214750" lon="2.3644410">
        <ele>174.4</ele>
        <time>2018-12-15T15:28:35Z</time>
      </trkpt>
      <trkpt lat="41.5215110" lon="2.3643510">
        <ele>174.8</ele>
        <time>2018-12-15T15:28:39Z</time>
      </trkpt>
      <trkpt lat="41.5215480" lon="2.3642560">
        <ele>176.0</ele>
        <time>2018-12-15T15:28:43Z</time>
      </trkpt>
      <trkpt lat="41.5215710" lon="2.3641550">
        <ele>177.2</ele>
        <time>2018-12-15T15:28:47Z</time>
      </trkpt>
      <trkpt lat="41.5215750" lon="2.3640310">
        <ele>178.4</ele>
        <time>2018-12-15T15:28:51Z</time>
      </trkpt>
      <trkpt lat="41.5215780" lon="2.3639160">
        <ele>178.6</ele>
        <time>2018-12-15T15:28:55Z</time>
      </trkpt>
      <trkpt lat="41.5215860" lon="2.3638030">
        <ele>180.2</ele>
        <time>2018-12-15T15:28:59Z</time>
      </trkpt>
      <trkpt lat="41.5215950" lon="2.3636850">
        <ele>180.2</ele>
        <time>2018-12-15T15:29:03Z</time>
      </trkpt>
      <trkpt lat="41.5216000" lon="2.3635660">
        <ele>181.0</ele>
        <time>2018-12-15T15:29:07Z</time>
      </trkpt>
      <trkpt lat="41.5216260" lon="2.3634510">
        <ele>182.4</ele>
        <time>2018-12-15T15:29:11Z</time>
      </trkpt>
      <trkpt lat="41.5216710" lon="2.3633330">
        <ele>182.8</ele>
        <time>2018-12-15T15:29:15Z</time>
      </trkpt>
      <trkpt lat="41.5217130" lon="2.3632110">
        <ele>183.2</ele>
        <time>2018-12-15T15:29:19Z</time>
      </trkpt>
      <trkpt lat="41.5217710" lon="2.3631010">
        <ele>183.8</ele>
        <time>2018-12-15T15:29:23Z</time>
      </trkpt>
      <trkpt lat="41.5218450" lon="2.3630010">
        <ele>185.2</ele>
        <time>2018-12-15T15:29:27Z</time>
      </trkpt>
      <trkpt lat="41.5219210" lon="2.3628980">
        <ele>185.8</ele>
        <time>2018-12-15T15:29:31Z</time>
      </trkpt>
      <trkpt lat="41.5220000" lon="2.3628030">
        <ele>186.0</ele>
        <time>2018-12-15T15:29:35Z</time>
      </trkpt>
      <trkpt lat="41.5220780" lon="2.3627030">
        <ele>186.8</ele>
        <time>2018-12-15T15:29:39Z</time>
      </trkpt>
      <trkpt lat="41.5221550" lon="2.3626100">
        <ele>188.0</ele>
        <time>2018-12-15T15:29:43Z</time>
      </trkpt>
      <trkpt lat="41.5222310" lon="2.3625180">
        <ele>188.8</ele>
        <time>2018-12-15T15:29:47Z</time>
      </trkpt>
      <trkpt lat="41.5223080" lon="2.3624260">
        <ele>189.6</ele>
        <time>2018-12-15T15:29:51Z</time>
      </trkpt>
      <trkpt lat="41.5223910" lon="2.3623480">
        <ele>189.8</ele>
        <time>2018-12-15T15:29:55Z</time>
      </trkpt>
      <trkpt lat="41.5225010" lon="2.3623060">
        <ele>191.0</ele>
        <time>2018-12-15T15:29:59Z</time>
      </trkpt>
      <trkpt lat="41.5226300" lon="2.3622610">
        <ele>191.2</ele>
        <time>2018-12-15T15:30:03Z</time>
      </trkpt>
      <trkpt lat="41.5227550" lon="2.3622130">
        <ele>191.6</ele>
        <time>2018-12-15T15:30:07Z</time>
      </trkpt>
      <trkpt lat="41.5228680" lon="2.3621410">
        <ele>192.4</ele>
        <time>2018-12-15T15:30:11Z</time>
      </trkpt>
      <trkpt lat="41.5229710" lon="2.3620430">
        <ele>193.2</ele>
        <time>2018-12-15T15:30:15Z</time>
      </trkpt>
      <trkpt lat="41.5230610" lon="2.3619360">
        <ele>194.2</ele>
        <time>2018-12-15T15:30:19Z</time>
      </trkpt>
      <trkpt lat="41.5231380" lon="2.3618400">
        <ele>195.2</ele>
        <time>2018-12-15T15:30:23Z</time>
      </trkpt>
      <trkpt lat="41.5232050" lon="2.3617480">
        <ele>196.4</ele>
        <time>2018-12-15T15:30:27Z</time>
      </trkpt>
      <trkpt lat="41.5232700" lon="2.3616580">
        <ele>197.2</ele>
        <time>2018-12-15T15:30:31Z</time>
      </trkpt>
      <trkpt lat="41.5233330" lon="2.3615660">
        <ele>198.0</ele>
        <time>2018-12-15T15:30:35Z</time>
      </trkpt>
      <trkpt lat="41.5234010" lon="2.3614850">
        <ele>199.0</ele>
        <time>2018-12-15T15:30:39Z</time>
      </trkpt>
      <trkpt lat="41.5234850" lon="2.3614200">
        <ele>200.0</ele>
        <time>2018-12-15T15:30:43Z</time>
      </trkpt>
      <trkpt lat="41.5235630" lon="2.3613400">
        <ele>201.4</ele>
        <time>2018-12-15T15:30:47Z</time>
      </trkpt>
      <trkpt lat="41.5236460" lon="2.3612730">
        <ele>202.6</ele>
        <time>2018-12-15T15:30:51Z</time>
      </trkpt>
      <trkpt lat="41.5237310" lon="2.3612110">
        <ele>203.2</ele>
        <time>2018-12-15T15:30:55Z</time>
      </trkpt>
      <trkpt lat="41.5238200" lon="2.3611860">
        <ele>204.0</ele>
        <time>2018-12-15T15:30:59Z</time>
      </trkpt>
      <trkpt lat="41.5239050" lon="2.3611650">
        <ele>205.2</ele>
        <time>2018-12-15T15:31:03Z</time>
      </trkpt>
      <trkpt lat="41.5239900" lon="2.3611380">
        <ele>206.0</ele>
        <time>2018-12-15T15:31:07Z</time>
      </trkpt>
      <trkpt lat="41.5240600" lon="2.3611050">
        <ele>206.4</ele>
        <time>2018-12-15T15:31:11Z</time>
      </trkpt>
      <trkpt lat="41.5241250" lon="2.3610500">
        <ele>207.0</ele>
        <time>2018-12-15T15:31:15Z</time>
      </trkpt>
      <trkpt lat="41.5242060" lon="2.3609880">
        <ele>208.0</ele>
        <time>2018-12-15T15:31:19Z</time>
      </trkpt>
      <trkpt lat="41.5242780" lon="2.3609200">
        <ele>209.4</ele>
        <time>2018-12-15T15:31:23Z</time>
      </trkpt>
      <trkpt lat="41.5243310" lon="2.3608510">
        <ele>209.8</ele>
        <time>2018-12-15T15:31:27Z</time>
      </trkpt>
      <trkpt lat="41.5243980" lon="2.3607980">
        <ele>211.4</ele>
        <time>2018-12-15T15:31:31Z</time>
      </trkpt>
      <trkpt lat="41.5244550" lon="2.3607380">
        <ele>212.6</ele>
        <time>2018-12-15T15:31:35Z</time>
      </trkpt>
      <trkpt lat="41.5245110" lon="2.3606660">
        <ele>213.8</ele>
        <time>2018-12-15T15:31:39Z</time>
      </trkpt>
      <trkpt lat="41.5245550" lon="2.3605960">
        <ele>214.8</ele>
        <time>2018-12-15T15:31:43Z</time>
      </trkpt>
      <trkpt lat="41.5246080" lon="2.3605310">
        <ele>215.4</ele>
        <time>2018-12-15T15:31:47Z</time>
      </trkpt>
      <trkpt lat="41.5246560" lon="2.3604700">
        <ele>217.0</ele>
        <time>2018-12-15T15:31:51Z</time>
      </trkpt>
      <trkpt lat="41.5247030" lon="2.3604200">
        <ele>217.4</ele>
        <time>2018-12-15T15:31:55Z</time>
      </trkpt>
      <trkpt lat="41.5247460" lon="2.3603680">
        <ele>218.4</ele>
        <time>2018-12-15T15:31:59Z</time>
      </trkpt>
      <trkpt lat="41.5247810" lon="2.3602980">
        <ele>219.4</ele>
        <time>2018-12-15T15:32:03Z</time>
      </trkpt>
      <trkpt lat="41.5248010" lon="2.3602180">
        <ele>219.8</ele>
        <time>2018-12-15T15:32:07Z</time>
      </trkpt>
      <trkpt lat="41.5248280" lon="2.3601230">
        <ele>221.8</ele>
        <time>2018-12-15T15:32:11Z</time>
      </trkpt>
      <trkpt lat="41.5248460" lon="2.3600500">
        <ele>222.0</ele>
        <time>2018-12-15T15:32:15Z</time>
      </trkpt>
      <trkpt lat="41.5248510" lon="2.3599900">
        <ele>224.0</ele>
        <time>2018-12-15T15:32:19Z</time>
      </trkpt>
      <trkpt lat="41.5248550" lon="2.3599130">
        <ele>224.8</ele>
        <time>2018-12-15T15:32:23Z</time>
      </trkpt>
      <trkpt lat="41.5248550" lon="2.3598450">
        <ele>225.4</ele>
        <time>2018-12-15T15:32:27Z</time>
      </trkpt>
      <trkpt lat="41.5248710" lon="2.3597450">
        <ele>227.0</ele>
        <time>2018-12-15T15:32:31Z</time>
      </trkpt>
      <trkpt lat="41.5248800" lon="2.3596450">
        <ele>228.2</ele>
        <time>2018-12-15T15:32:35Z</time>
      </trkpt>
      <trkpt lat="41.5248980" lon="2.3595530">
        <ele>228.8</ele>
        <time>2018-12-15T15:32:39Z</time>
      </trkpt>
      <trkpt lat="41.5249250" lon="2.3594610">
        <ele>230.0</ele>
        <time>2018-12-15T15:32:43Z</time>
      </trkpt>
      <trkpt lat="41.5249480" lon="2.3593600">
        <ele>231.2</ele>
        <time>2018-12-15T15:32:47Z</time>
      </trkpt>
      <trkpt lat="41.5249610" lon="2.3592800">
        <ele>231.8</ele>
        <time>2018-12-15T15:32:51Z</time>
      </trkpt>
      <trkpt lat="41.5250030" lon="2.3591900">
        <ele>233.4</ele>
        <time>2018-12-15T15:32:55Z</time>
      </trkpt>
      <trkpt lat="41.5250430" lon="2.3590950">
        <ele>233.4</ele>
        <time>2018-12-15T15:32:59Z</time>
      </trkpt>
      <trkpt lat="41.5251000" lon="2.3590080">
        <ele>234.4</ele>
        <time>2018-12-15T15:33:03Z</time>
      </trkpt>
      <trkpt lat="41.5251360" lon="2.3589230">
        <ele>234.4</ele>
        <time>2018-12-15T15:33:07Z</time>
      </trkpt>
      <trkpt lat="41.5251550" lon="2.3588250">
        <ele>235.6</ele>
        <time>2018-12-15T15:33:11Z</time>
      </trkpt>
      <trkpt lat="41.5251630" lon="2.3587200">
        <ele>235.6</ele>
        <time>2018-12-15T15:33:15Z</time>
      </trkpt>
      <trkpt lat="41.5251680" lon="2.3586100">
        <ele>236.4</ele>
        <time>2018-12-15T15:33:19Z</time>
      </trkpt>
      <trkpt lat="41.5251850" lon="2.3584950">
        <ele>236.8</ele>
        <time>2018-12-15T15:33:23Z</time>
      </trkpt>
      <trkpt lat="41.5252060" lon="2.3583750">
        <ele>237.0</ele>
        <time>2018-12-15T15:33:27Z</time>
      </trkpt>
      <trkpt lat="41.5252400" lon="2.3582600">
        <ele>238.2</ele>
        <time>2018-12-15T15:33:31Z</time>
      </trkpt>
      <trkpt lat="41.5252810" lon="2.3581630">
        <ele>238.6</ele>
        <time>2018-12-15T15:33:35Z</time>
      </trkpt>
      <trkpt lat="41.5253110" lon="2.3580600">
        <ele>238.4</ele>
        <time>2018-12-15T15:33:39Z</time>
      </trkpt>
      <trkpt lat="41.5253350" lon="2.3579360">
        <ele>239.0</ele>
        <time>2018-12-15T15:33:43Z</time>
      </trkpt>
      <trkpt lat="41.5253680" lon="2.3578300">
        <ele>239.8</ele>
        <time>2018-12-15T15:33:47Z</time>
      </trkpt>
      <trkpt lat="41.5254000" lon="2.3577160">
        <ele>240.8</ele>
        <time>2018-12-15T15:33:51Z</time>
      </trkpt>
      <trkpt lat="41.5254360" lon="2.3576000">
        <ele>240.8</ele>
        <time>2018-12-15T15:33:55Z</time>
      </trkpt>
      <trkpt lat="41.5254780" lon="2.3574500">
        <ele>242.2</ele>
        <time>2018-12-15T15:33:59Z</time>
      </trkpt>
      <trkpt lat="41.5255410" lon="2.3573260">
        <ele>242.4</ele>
        <time>2018-12-15T15:34:03Z</time>
      </trkpt>
      <trkpt lat="41.5256010" lon="2.3571930">
        <ele>242.6</ele>
        <time>2018-12-15T15:34:07Z</time>
      </trkpt>
      <trkpt lat="41.5256730" lon="2.3570780">
        <ele>243.4</ele>
        <time>2018-12-15T15:34:11Z</time>
      </trkpt>
      <trkpt lat="41.5257360" lon="2.3569660">
        <ele>244.6</ele>
        <time>2018-12-15T15:34:15Z</time>
      </trkpt>
      <trkpt lat="41.5258130" lon="2.3568750">
        <ele>245.8</ele>
        <time>2018-12-15T15:34:19Z</time>
      </trkpt>
      <trkpt lat="41.5258980" lon="2.3567850">
        <ele>246.2</ele>
        <time>2018-12-15T15:34:23Z</time>
      </trkpt>
      <trkpt lat="41.5259880" lon="2.3567180">
        <ele>247.6</ele>
        <time>2018-12-15T15:34:27Z</time>
      </trkpt>
      <trkpt lat="41.5260680" lon="2.3566710">
        <ele>247.6</ele>
        <time>2018-12-15T15:34:31Z</time>
      </trkpt>
      <trkpt lat="41.5261610" lon="2.3566580">
        <ele>248.4</ele>
        <time>2018-12-15T15:34:35Z</time>
      </trkpt>
      <trkpt lat="41.5262580" lon="2.3566110">
        <ele>249.0</ele>
        <time>2018-12-15T15:34:39Z</time>
      </trkpt>
      <trkpt lat="41.5263450" lon="2.3565510">
        <ele>250.2</ele>
        <time>2018-12-15T15:34:43Z</time>
      </trkpt>
      <trkpt lat="41.5264230" lon="2.3564830">
        <ele>250.8</ele>
        <time>2018-12-15T15:34:47Z</time>
      </trkpt>
      <trkpt lat="41.5264860" lon="2.3564030">
        <ele>252.2</ele>
        <time>2018-12-15T15:34:51Z</time>
      </trkpt>
      <trkpt lat="41.5265480" lon="2.3563160">
        <ele>252.8</ele>
        <time>2018-12-15T15:34:55Z</time>
      </trkpt>
      <trkpt lat="41.5266060" lon="2.3562350">
        <ele>253.2</ele>
        <time>2018-12-15T15:34:59Z</time>
      </trkpt>
      <trkpt lat="41.5266580" lon="2.3561380">
        <ele>253.8</ele>
        <time>2018-12-15T15:35:03Z</time>
      </trkpt>
      <trkpt lat="41.5267230" lon="2.3560610">
        <ele>255.4</ele>
        <time>2018-12-15T15:35:07Z</time>
      </trkpt>
      <trkpt lat="41.5267710" lon="2.3559710">
        <ele>256.4</ele>
        <time>2018-12-15T15:35:11Z</time>
      </trkpt>
      <trkpt lat="41.5268430" lon="2.3559210">
        <ele>256.6</ele>
        <time>2018-12-15T15:35:15Z</time>
      </trkpt>
      <trkpt lat="41.5268960" lon="2.3558500">
        <ele>258.2</ele>
        <time>2018-12-15T15:35:19Z</time>
      </trkpt>
      <trkpt lat="41.5269530" lon="2.3557810">
        <ele>259.4</ele>
        <time>2018-12-15T15:35:23Z</time>
      </trkpt>
      <trkpt lat="41.5270100" lon="2.3557080">
        <ele>260.2</ele>
        <time>2018-12-15T15:35:27Z</time>
      </trkpt>
      <trkpt lat="41.5270610" lon="2.3556260">
        <ele>261.0</ele>
        <time>2018-12-15T15:35:31Z</time>
      </trkpt>
      <trkpt lat="41.5270930" lon="2.3555800">
        <ele>262.0</ele>
        <time>2018-12-15T15:35:35Z</time>
      </trkpt>
      <trkpt lat="41.5271500" lon="2.3555360">
        <ele>262.4</ele>
        <time>2018-12-15T15:35:39Z</time>
      </trkpt>
      <trkpt lat="41.5271950" lon="2.3554850">
        <ele>263.2</ele>
        <time>2018-12-15T15:35:43Z</time>
      </trkpt>
      <trkpt lat="41.5272400" lon="2.3554480">
        <ele>264.6</ele>
        <time>2018-12-15T15:35:47Z</time>
      </trkpt>
      <trkpt lat="41.5272900" lon="2.3553860">
        <ele>264.8</ele>
        <time>2018-12-15T15:35:51Z</time>
      </trkpt>
      <trkpt lat="41.5273200" lon="2.3553150">
        <ele>265.8</ele>
        <time>2018-12-15T15:35:55Z</time>
      </trkpt>
      <trkpt lat="41.5273580" lon="2.3552310">
        <ele>267.0</ele>
        <time>2018-12-15T15:35:59Z</time>
      </trkpt>
      <trkpt lat="41.5273730" lon="2.3551450">
        <ele>268.2</ele>
        <time>2018-12-15T15:36:03Z</time>
      </trkpt>
      <trkpt lat="41.5274130" lon="2.3550650">
        <ele>269.4</ele>
        <time>2018-12-15T15:36:07Z</time>
      </trkpt>
      <trkpt lat="41.5274450" lon="2.3549910">
        <ele>270.6</ele>
        <time>2018-12-15T15:36:11Z</time>
      </trkpt>
      <trkpt lat="41.5274610" lon="2.3548930">
        <ele>271.8</ele>
        <time>2018-12-15T15:36:15Z</time>
      </trkpt>
      <trkpt lat="41.5274510" lon="2.3547910">
        <ele>272.6</ele>
        <time>2018-12-15T15:36:19Z</time>
      </trkpt>
      <trkpt lat="41.5274260" lon="2.3547050">
        <ele>272.6</ele>
        <time>2018-12-15T15:36:23Z</time>
      </trkpt>
      <trkpt lat="41.5274060" lon="2.3546010">
        <ele>272.8</ele>
        <time>2018-12-15T15:36:27Z</time>
      </trkpt>
      <trkpt lat="41.5273860" lon="2.3544960">
        <ele>273.8</ele>
        <time>2018-12-15T15:36:31Z</time>
      </trkpt>
      <trkpt lat="41.5273630" lon="2.3544030">
        <ele>274.2</ele>
        <time>2018-12-15T15:36:35Z</time>
      </trkpt>
      <trkpt lat="41.5273580" lon="2.3542850">
        <ele>275.0</ele>
        <time>2018-12-15T15:36:39Z</time>
      </trkpt>
      <trkpt lat="41.5273700" lon="2.3541800">
        <ele>276.0</ele>
        <time>2018-12-15T15:36:43Z</time>
      </trkpt>
      <trkpt lat="41.5273800" lon="2.3540660">
        <ele>277.0</ele>
        <time>2018-12-15T15:36:47Z</time>
      </trkpt>
      <trkpt lat="41.5273760" lon="2.3539580">
        <ele>278.0</ele>
        <time>2018-12-15T15:36:51Z</time>
      </trkpt>
      <trkpt lat="41.5273810" lon="2.3538750">
        <ele>279.2</ele>
        <time>2018-12-15T15:36:55Z</time>
      </trkpt>
      <trkpt lat="41.5273900" lon="2.3537580">
        <ele>279.4</ele>
        <time>2018-12-15T15:36:59Z</time>
      </trkpt>
      <trkpt lat="41.5274080" lon="2.3536350">
        <ele>280.8</ele>
        <time>2018-12-15T15:37:03Z</time>
      </trkpt>
      <trkpt lat="41.5274080" lon="2.3535130">
        <ele>281.6</ele>
        <time>2018-12-15T15:37:07Z</time>
      </trkpt>
      <trkpt lat="41.5274360" lon="2.3534180">
        <ele>282.0</ele>
        <time>2018-12-15T15:37:11Z</time>
      </trkpt>
      <trkpt lat="41.5274880" lon="2.3533000">
        <ele>284.0</ele>
        <time>2018-12-15T15:37:15Z</time>
      </trkpt>
      <trkpt lat="41.5275610" lon="2.3531980">
        <ele>284.2</ele>
        <time>2018-12-15T15:37:19Z</time>
      </trkpt>
      <trkpt lat="41.5276110" lon="2.3530930">
        <ele>285.4</ele>
        <time>2018-12-15T15:37:23Z</time>
      </trkpt>
      <trkpt lat="41.5276580" lon="2.3529480">
        <ele>285.8</ele>
        <time>2018-12-15T15:37:27Z</time>
      </trkpt>
      <trkpt lat="41.5277010" lon="2.3528260">
        <ele>287.8</ele>
        <time>2018-12-15T15:37:31Z</time>
      </trkpt>
      <trkpt lat="41.5277560" lon="2.3527150">
        <ele>288.6</ele>
        <time>2018-12-15T15:37:35Z</time>
      </trkpt>
      <trkpt lat="41.5277900" lon="2.3526030">
        <ele>289.4</ele>
        <time>2018-12-15T15:37:39Z</time>
      </trkpt>
      <trkpt lat="41.5278410" lon="2.3524980">
        <ele>289.6</ele>
        <time>2018-12-15T15:37:43Z</time>
      </trkpt>
      <trkpt lat="41.5279010" lon="2.3523880">
        <ele>290.8</ele>
        <time>2018-12-15T15:37:47Z</time>
      </trkpt>
      <trkpt lat="41.5279450" lon="2.3522900">
        <ele>292.0</ele>
        <time>2018-12-15T15:37:51Z</time>
      </trkpt>
      <trkpt lat="41.5279950" lon="2.3521960">
        <ele>292.6</ele>
        <time>2018-12-15T15:37:55Z</time>
      </trkpt>
      <trkpt lat="41.5280510" lon="2.3520950">
        <ele>292.8</ele>
        <time>2018-12-15T15:37:59Z</time>
      </trkpt>
      <trkpt lat="41.5281100" lon="2.3519760">
        <ele>294.0</ele>
        <time>2018-12-15T15:38:03Z</time>
      </trkpt>
      <trkpt lat="41.5281710" lon="2.3518750">
        <ele>294.8</ele>
        <time>2018-12-15T15:38:07Z</time>
      </trkpt>
      <trkpt lat="41.5282260" lon="2.3517460">
        <ele>294.8</ele>
        <time>2018-12-15T15:38:11Z</time>
      </trkpt>
      <trkpt lat="41.5282680" lon="2.3515860">
        <ele>294.4</ele>
        <time>2018-12-15T15:38:15Z</time>
      </trkpt>
      <trkpt lat="41.5282960" lon="2.3514150">
        <ele>295.2</ele>
        <time>2018-12-15T15:38:19Z</time>
      </trkpt>
      <trkpt lat="41.5283080" lon="2.3512480">
        <ele>295.4</ele>
        <time>2018-12-15T15:38:23Z</time>
      </trkpt>
      <trkpt lat="41.5282960" lon="2.3510800">
        <ele>295.8</ele>
        <time>2018-12-15T15:38:27Z</time>
      </trkpt>
      <trkpt lat="41.5282710" lon="2.3509060">
        <ele>296.4</ele>
        <time>2018-12-15T15:38:31Z</time>
      </trkpt>
      <trkpt lat="41.5282310" lon="2.3507550">
        <ele>297.4</ele>
        <time>2018-12-15T15:38:35Z</time>
      </trkpt>
      <trkpt lat="41.5281780" lon="2.3506050">
        <ele>297.8</ele>
        <time>2018-12-15T15:38:39Z</time>
      </trkpt>
      <trkpt lat="41.5281280" lon="2.3504710">
        <ele>299.2</ele>
        <time>2018-12-15T15:38:43Z</time>
      </trkpt>
      <trkpt lat="41.5280850" lon="2.3503410">
        <ele>300.0</ele>
        <time>2018-12-15T15:38:47Z</time>
      </trkpt>
      <trkpt lat="41.5280550" lon="2.3502250">
        <ele>301.0</ele>
        <time>2018-12-15T15:38:51Z</time>
      </trkpt>
      <trkpt lat="41.5280460" lon="2.3501060">
        <ele>301.2</ele>
        <time>2018-12-15T15:38:55Z</time>
      </trkpt>
      <trkpt lat="41.5280410" lon="2.3499860">
        <ele>302.4</ele>
        <time>2018-12-15T15:38:59Z</time>
      </trkpt>
      <trkpt lat="41.5280500" lon="2.3498610">
        <ele>303.4</ele>
        <time>2018-12-15T15:39:03Z</time>
      </trkpt>
      <trkpt lat="41.5280430" lon="2.3497300">
        <ele>304.4</ele>
        <time>2018-12-15T15:39:07Z</time>
      </trkpt>
      <trkpt lat="41.5280350" lon="2.3495950">
        <ele>305.4</ele>
        <time>2018-12-15T15:39:11Z</time>
      </trkpt>
      <trkpt lat="41.5280330" lon="2.3494610">
        <ele>306.0</ele>
        <time>2018-12-15T15:39:15Z</time>
      </trkpt>
      <trkpt lat="41.5280300" lon="2.3493410">
        <ele>306.4</ele>
        <time>2018-12-15T15:39:19Z</time>
      </trkpt>
      <trkpt lat="41.5279930" lon="2.3492210">
        <ele>307.6</ele>
        <time>2018-12-15T15:39:23Z</time>
      </trkpt>
      <trkpt lat="41.5279450" lon="2.3491210">
        <ele>308.2</ele>
        <time>2018-12-15T15:39:27Z</time>
      </trkpt>
      <trkpt lat="41.5278930" lon="2.3490260">
        <ele>308.4</ele>
        <time>2018-12-15T15:39:31Z</time>
      </trkpt>
      <trkpt lat="41.5278410" lon="2.3489350">
        <ele>310.2</ele>
        <time>2018-12-15T15:39:35Z</time>
      </trkpt>
      <trkpt lat="41.5278000" lon="2.3488280">
        <ele>310.4</ele>
        <time>2018-12-15T15:39:39Z</time>
      </trkpt>
      <trkpt lat="41.5277850" lon="2.3487050">
        <ele>310.8</ele>
        <time>2018-12-15T15:39:43Z</time>
      </trkpt>
      <trkpt lat="41.5277850" lon="2.3485830">
        <ele>312.4</ele>
        <time>2018-12-15T15:39:47Z</time>
      </trkpt>
      <trkpt lat="41.5277930" lon="2.3484750">
        <ele>313.2</ele>
        <time>2018-12-15T15:39:51Z</time>
      </trkpt>
      <trkpt lat="41.5278080" lon="2.3483530">
        <ele>313.6</ele>
        <time>2018-12-15T15:39:55Z</time>
      </trkpt>
      <trkpt lat="41.5278230" lon="2.3482260">
        <ele>314.4</ele>
        <time>2018-12-15T15:39:59Z</time>
      </trkpt>
      <trkpt lat="41.5278610" lon="2.3481050">
        <ele>315.4</ele>
        <time>2018-12-15T15:40:03Z</time>
      </trkpt>
      <trkpt lat="41.5279060" lon="2.3479810">
        <ele>317.0</ele>
        <time>2018-12-15T15:40:07Z</time>
      </trkpt>
      <trkpt lat="41.5279550" lon="2.3478500">
        <ele>317.4</ele>
        <time>2018-12-15T15:40:11Z</time>
      </trkpt>
      <trkpt lat="41.5279950" lon="2.3477250">
        <ele>318.8</ele>
        <time>2018-12-15T15:40:15Z</time>
      </trkpt>
      <trkpt lat="41.5280100" lon="2.3475900">
        <ele>318.8</ele>
        <time>2018-12-15T15:40:19Z</time>
      </trkpt>
      <trkpt lat="41.5280080" lon="2.3474380">
        <ele>319.4</ele>
        <time>2018-12-15T15:40:23Z</time>
      </trkpt>
      <trkpt lat="41.5280000" lon="2.3472910">
        <ele>320.4</ele>
        <time>2018-12-15T15:40:27Z</time>
      </trkpt>
      <trkpt lat="41.5279900" lon="2.3471480">
        <ele>321.2</ele>
        <time>2018-12-15T15:40:31Z</time>
      </trkpt>
      <trkpt lat="41.5279660" lon="2.3469960">
        <ele>321.8</ele>
        <time>2018-12-15T15:40:35Z</time>
      </trkpt>
      <trkpt lat="41.5279400" lon="2.3468550">
        <ele>322.8</ele>
        <time>2018-12-15T15:40:39Z</time>
      </trkpt>
      <trkpt lat="41.5279060" lon="2.3467160">
        <ele>323.4</ele>
        <time>2018-12-15T15:40:43Z</time>
      </trkpt>
      <trkpt lat="41.5278460" lon="2.3465910">
        <ele>323.6</ele>
        <time>2018-12-15T15:40:47Z</time>
      </trkpt>
      <trkpt lat="41.5277750" lon="2.3464700">
        <ele>324.6</ele>
        <time>2018-12-15T15:40:51Z</time>
      </trkpt>
      <trkpt lat="41.5277030" lon="2.3463560">
        <ele>325.0</ele>
        <time>2018-12-15T15:40:55Z</time>
      </trkpt>
      <trkpt lat="41.5276230" lon="2.3462560">
        <ele>326.4</ele>
        <time>2018-12-15T15:40:59Z</time>
      </trkpt>
      <trkpt lat="41.5275480" lon="2.3461530">
        <ele>328.0</ele>
        <time>2018-12-15T15:41:03Z</time>
      </trkpt>
      <trkpt lat="41.5275000" lon="2.3460410">
        <ele>329.4</ele>
        <time>2018-12-15T15:41:07Z</time>
      </trkpt>
      <trkpt lat="41.5274730" lon="2.3459110">
        <ele>329.4</ele>
        <time>2018-12-15T15:41:11Z</time>
      </trkpt>
      <trkpt lat="41.5274600" lon="2.3457750">
        <ele>330.4</ele>
        <time>2018-12-15T15:41:15Z</time>
      </trkpt>
      <trkpt lat="41.5274230" lon="2.3456530">
        <ele>331.4</ele>
        <time>2018-12-15T15:41:19Z</time>
      </trkpt>
      <trkpt lat="41.5273850" lon="2.3455430">
        <ele>332.6</ele>
        <time>2018-12-15T15:41:23Z</time>
      </trkpt>
      <trkpt lat="41.5273450" lon="2.3454410">
        <ele>333.6</ele>
        <time>2018-12-15T15:41:27Z</time>
      </trkpt>
      <trkpt lat="41.5273410" lon="2.3453330">
        <ele>334.4</ele>
        <time>2018-12-15T15:41:31Z</time>
      </trkpt>
      <trkpt lat="41.5273150" lon="2.3452160">
        <ele>334.6</ele>
        <time>2018-12-15T15:41:35Z</time>
      </trkpt>
      <trkpt lat="41.5272950" lon="2.3450760">
        <ele>336.2</ele>
        <time>2018-12-15T15:41:39Z</time>
      </trkpt>
      <trkpt lat="41.5272930" lon="2.3449380">
        <ele>337.0</ele>
        <time>2018-12-15T15:41:43Z</time>
      </trkpt>
      <trkpt lat="41.5272880" lon="2.3447980">
        <ele>338.0</ele>
        <time>2018-12-15T15:41:47Z</time>
      </trkpt>
      <trkpt lat="41.5272750" lon="2.3446480">
        <ele>338.6</ele>
        <time>2018-12-15T15:41:51Z</time>
      </trkpt>
      <trkpt lat="41.5272710" lon="2.3444950">
        <ele>339.2</ele>
        <time>2018-12-15T15:41:55Z</time>
      </trkpt>
      <trkpt lat="41.5272630" lon="2.3443450">
        <ele>339.8</ele>
        <time>2018-12-15T15:41:59Z</time>
      </trkpt>
      <trkpt lat="41.5272530" lon="2.3441960">
        <ele>340.2</ele>
        <time>2018-12-15T15:42:03Z</time>
      </trkpt>
      <trkpt lat="41.5272200" lon="2.3440400">
        <ele>340.6</ele>
        <time>2018-12-15T15:42:07Z</time>
      </trkpt>
      <trkpt lat="41.5271780" lon="2.3438830">
        <ele>340.6</ele>
        <time>2018-12-15T15:42:11Z</time>
      </trkpt>
      <trkpt lat="41.5271060" lon="2.3437250">
        <ele>340.6</ele>
        <time>2018-12-15T15:42:15Z</time>
      </trkpt>
      <trkpt lat="41.5270050" lon="2.3435730">
        <ele>340.6</ele>
        <time>2018-12-15T15:42:19Z</time>
      </trkpt>
      <trkpt lat="41.5269010" lon="2.3434330">
        <ele>341.4</ele>
        <time>2018-12-15T15:42:23Z</time>
      </trkpt>
      <trkpt lat="41.5268010" lon="2.3432800">
        <ele>341.6</ele>
        <time>2018-12-15T15:42:27Z</time>
      </trkpt>
      <trkpt lat="41.5267310" lon="2.3431110">
        <ele>342.0</ele>
        <time>2018-12-15T15:42:31Z</time>
      </trkpt>
      <trkpt lat="41.5266550" lon="2.3429260">
        <ele>341.8</ele>
        <time>2018-12-15T15:42:35Z</time>
      </trkpt>
      <trkpt lat="41.5265810" lon="2.3427400">
        <ele>342.4</ele>
        <time>2018-12-15T15:42:39Z</time>
      </trkpt>
      <trkpt lat="41.5264810" lon="2.3425900">
        <ele>342.6</ele>
        <time>2018-12-15T15:42:43Z</time>
      </trkpt>
      <trkpt lat="41.5263580" lon="2.3424700">
        <ele>344.0</ele>
        <time>2018-12-15T15:42:47Z</time>
      </trkpt>
      <trkpt lat="41.5262610" lon="2.3423780">
        <ele>345.0</ele>
        <time>2018-12-15T15:42:51Z</time>
      </trkpt>
      <trkpt lat="41.5261760" lon="2.3422580">
        <ele>346.0</ele>
        <time>2018-12-15T15:42:55Z</time>
      </trkpt>
      <trkpt lat="41.5260980" lon="2.3421260">
        <ele>347.0</ele>
        <time>2018-12-15T15:42:59Z</time>
      </trkpt>
      <trkpt lat="41.5260480" lon="2.3420010">
        <ele>347.0</ele>
        <time>2018-12-15T15:43:03Z</time>
      </trkpt>
      <trkpt lat="41.5260300" lon="2.3418480">
        <ele>347.6</ele>
        <time>2018-12-15T15:43:07Z</time>
      </trkpt>
      <trkpt lat="41.5260050" lon="2.3417010">
        <ele>348.2</ele>
        <time>2018-12-15T15:43:11Z</time>
      </trkpt>
      <trkpt lat="41.5259610" lon="2.3415550">
        <ele>348.4</ele>
        <time>2018-12-15T15:43:15Z</time>
      </trkpt>
      <trkpt lat="41.5259210" lon="2.3414010">
        <ele>348.6</ele>
        <time>2018-12-15T15:43:19Z</time>
      </trkpt>
      <trkpt lat="41.5259080" lon="2.3412180">
        <ele>349.2</ele>
        <time>2018-12-15T15:43:23Z</time>
      </trkpt>
      <trkpt lat="41.5258900" lon="2.3410400">
        <ele>349.4</ele>
        <time>2018-12-15T15:43:27Z</time>
      </trkpt>
      <trkpt lat="41.5258650" lon="2.3408960">
        <ele>350.2</ele>
        <time>2018-12-15T15:43:31Z</time>
      </trkpt>
      <trkpt lat="41.5258300" lon="2.3407410">
        <ele>350.6</ele>
        <time>2018-12-15T15:43:35Z</time>
      </trkpt>
      <trkpt lat="41.5258050" lon="2.3405580">
        <ele>351.8</ele>
        <time>2018-12-15T15:43:39Z</time>
      </trkpt>
      <trkpt lat="41.5257610" lon="2.3403900">
        <ele>351.6</ele>
        <time>2018-12-15T15:43:43Z</time>
      </trkpt>
      <trkpt lat="41.5256400" lon="2.3402980">
        <ele>352.4</ele>
        <time>2018-12-15T15:43:47Z</time>
      </trkpt>
      <trkpt lat="41.5255650" lon="2.3401910">
        <ele>353.4</ele>
        <time>2018-12-15T15:43:51Z</time>
      </trkpt>
      <trkpt lat="41.5254860" lon="2.3400830">
        <ele>354.0</ele>
        <time>2018-12-15T15:43:55Z</time>
      </trkpt>
      <trkpt lat="41.5253880" lon="2.3399050">
        <ele>355.0</ele>
        <time>2018-12-15T15:43:59Z</time>
      </trkpt>
      <trkpt lat="41.5252960" lon="2.3397960">
        <ele>355.2</ele>
        <time>2018-12-15T15:44:03Z</time>
      </trkpt>
      <trkpt lat="41.5251980" lon="2.3396980">
        <ele>356.6</ele>
        <time>2018-12-15T15:44:07Z</time>
      </trkpt>
      <trkpt lat="41.5251010" lon="2.3396350">
        <ele>357.6</ele>
        <time>2018-12-15T15:44:11Z</time>
      </trkpt>
      <trkpt lat="41.5250050" lon="2.3395830">
        <ele>358.0</ele>
        <time>2018-12-15T15:44:15Z</time>
      </trkpt>
      <trkpt lat="41.5249160" lon="2.3395310">
        <ele>359.6</ele>
        <time>2018-12-15T15:44:19Z</time>
      </trkpt>
      <trkpt lat="41.5248300" lon="2.3394880">
        <ele>361.0</ele>
        <time>2018-12-15T15:44:23Z</time>
      </trkpt>
      <trkpt lat="41.5247310" lon="2.3394060">
        <ele>361.6</ele>
        <time>2018-12-15T15:44:27Z</time>
      </trkpt>
      <trkpt lat="41.5246250" lon="2.3393530">
        <ele>361.8</ele>
        <time>2018-12-15T15:44:31Z</time>
      </trkpt>
      <trkpt lat="41.5245150" lon="2.3393010">
        <ele>362.4</ele>
        <time>2018-12-15T15:44:35Z</time>
      </trkpt>
      <trkpt lat="41.5244050" lon="2.3392530">
        <ele>362.8</ele>
        <time>2018-12-15T15:44:39Z</time>
      </trkpt>
      <trkpt lat="41.5243130" lon="2.3392000">
        <ele>364.2</ele>
        <time>2018-12-15T15:44:43Z</time>
      </trkpt>
      <trkpt lat="41.5242300" lon="2.3391430">
        <ele>364.2</ele>
        <time>2018-12-15T15:44:47Z</time>
      </trkpt>
      <trkpt lat="41.5241560" lon="2.3390550">
        <ele>364.8</ele>
        <time>2018-12-15T15:44:51Z</time>
      </trkpt>
      <trkpt lat="41.5240980" lon="2.3389610">
        <ele>366.2</ele>
        <time>2018-12-15T15:44:55Z</time>
      </trkpt>
      <trkpt lat="41.5240510" lon="2.3388750">
        <ele>367.4</ele>
        <time>2018-12-15T15:44:59Z</time>
      </trkpt>
      <trkpt lat="41.5240130" lon="2.3387650">
        <ele>367.6</ele>
        <time>2018-12-15T15:45:03Z</time>
      </trkpt>
      <trkpt lat="41.5239880" lon="2.3386350">
        <ele>368.0</ele>
        <time>2018-12-15T15:45:07Z</time>
      </trkpt>
      <trkpt lat="41.5239330" lon="2.3385180">
        <ele>368.6</ele>
        <time>2018-12-15T15:45:11Z</time>
      </trkpt>
      <trkpt lat="41.5238580" lon="2.3384130">
        <ele>368.8</ele>
        <time>2018-12-15T15:45:15Z</time>
      </trkpt>
      <trkpt lat="41.5237660" lon="2.3383200">
        <ele>369.2</ele>
        <time>2018-12-15T15:45:19Z</time>
      </trkpt>
      <trkpt lat="41.5236700" lon="2.3382300">
        <ele>369.6</ele>
        <time>2018-12-15T15:45:23Z</time>
      </trkpt>
      <trkpt lat="41.5235660" lon="2.3381410">
        <ele>370.4</ele>
        <time>2018-12-15T15:45:27Z</time>
      </trkpt>
      <trkpt lat="41.5234880" lon="2.3380460">
        <ele>371.2</ele>
        <time>2018-12-15T15:45:31Z</time>
      </trkpt>
      <trkpt lat="41.5234450" lon="2.3379460">
        <ele>371.8</ele>
        <time>2018-12-15T15:45:35Z</time>
      </trkpt>
      <trkpt lat="41.5234160" lon="2.3378030">
        <ele>372.6</ele>
        <time>2018-12-15T15:45:39Z</time>
      </trkpt>
      <trkpt lat="41.5234060" lon="2.3376760">
        <ele>373.0</ele>
        <time>2018-12-15T15:45:43Z</time>
      </trkpt>
      <trkpt lat="41.5233910" lon="2.3375550">
        <ele>373.8</ele>
        <time>2018-12-15T15:45:47Z</time>
      </trkpt>
      <trkpt lat="41.5233610" lon="2.3374230">
        <ele>374.6</ele>
        <time>2018-12-15T15:45:51Z</time>
      </trkpt>
      <trkpt lat="41.5233150" lon="2.3372950">
        <ele>375.2</ele>
        <time>2018-12-15T15:45:55Z</time>
      </trkpt>
      <trkpt lat="41.5232650" lon="2.3371660">
        <ele>376.6</ele>
        <time>2018-12-15T15:45:59Z</time>
      </trkpt>
      <trkpt lat="41.5232200" lon="2.3370710">
        <ele>377.6</ele>
        <time>2018-12-15T15:46:03Z</time>
      </trkpt>
      <trkpt lat="41.5231280" lon="2.3370030">
        <ele>378.0</ele>
        <time>2018-12-15T15:46:07Z</time>
      </trkpt>
      <trkpt lat="41.5230350" lon="2.3369810">
        <ele>378.0</ele>
        <time>2018-12-15T15:46:11Z</time>
      </trkpt>
      <trkpt lat="41.5229000" lon="2.3369660">
        <ele>378.4</ele>
        <time>2018-12-15T15:46:15Z</time>
      </trkpt>
      <trkpt lat="41.5227660" lon="2.3369730">
        <ele>379.0</ele>
        <time>2018-12-15T15:46:19Z</time>
      </trkpt>
      <trkpt lat="41.5226430" lon="2.3369680">
        <ele>379.8</ele>
        <time>2018-12-15T15:46:23Z</time>
      </trkpt>
      <trkpt lat="41.5225310" lon="2.3369630">
        <ele>380.8</ele>
        <time>2018-12-15T15:46:27Z</time>
      </trkpt>
      <trkpt lat="41.5223910" lon="2.3369930">
        <ele>381.0</ele>
        <time>2018-12-15T15:46:31Z</time>
      </trkpt>
      <trkpt lat="41.5222700" lon="2.3370280">
        <ele>381.8</ele>
        <time>2018-12-15T15:46:35Z</time>
      </trkpt>
      <trkpt lat="41.5221510" lon="2.3370710">
        <ele>382.4</ele>
        <time>2018-12-15T15:46:39Z</time>
      </trkpt>
      <trkpt lat="41.5220360" lon="2.3371160">
        <ele>383.2</ele>
        <time>2018-12-15T15:46:43Z</time>
      </trkpt>
      <trkpt lat="41.5219260" lon="2.3371560">
        <ele>383.8</ele>
        <time>2018-12-15T15:46:47Z</time>
      </trkpt>
      <trkpt lat="41.5218230" lon="2.3371950">
        <ele>384.6</ele>
        <time>2018-12-15T15:46:51Z</time>
      </trkpt>
      <trkpt lat="41.5217310" lon="2.3372030">
        <ele>384.8</ele>
        <time>2018-12-15T15:46:55Z</time>
      </trkpt>
      <trkpt lat="41.5216060" lon="2.3372450">
        <ele>386.0</ele>
        <time>2018-12-15T15:46:59Z</time>
      </trkpt>
      <trkpt lat="41.5214800" lon="2.3372700">
        <ele>387.2</ele>
        <time>2018-12-15T15:47:03Z</time>
      </trkpt>
      <trkpt lat="41.5213680" lon="2.3372830">
        <ele>387.8</ele>
        <time>2018-12-15T15:47:07Z</time>
      </trkpt>
      <trkpt lat="41.5212380" lon="2.3372900">
        <ele>388.6</ele>
        <time>2018-12-15T15:47:11Z</time>
      </trkpt>
      <trkpt lat="41.5211110" lon="2.3373310">
        <ele>389.6</ele>
        <time>2018-12-15T15:47:15Z</time>
      </trkpt>
      <trkpt lat="41.5209930" lon="2.3373730">
        <ele>390.2</ele>
        <time>2018-12-15T15:47:19Z</time>
      </trkpt>
      <trkpt lat="41.5208830" lon="2.3374300">
        <ele>390.6</ele>
        <time>2018-12-15T15:47:23Z</time>
      </trkpt>
      <trkpt lat="41.5207700" lon="2.3374800">
        <ele>391.8</ele>
        <time>2018-12-15T15:47:27Z</time>
      </trkpt>
      <trkpt lat="41.5206650" lon="2.3375410">
        <ele>392.2</ele>
        <time>2018-12-15T15:47:31Z</time>
      </trkpt>
      <trkpt lat="41.5205460" lon="2.3375930">
        <ele>393.8</ele>
        <time>2018-12-15T15:47:35Z</time>
      </trkpt>
      <trkpt lat="41.5204300" lon="2.3376410">
        <ele>395.2</ele>
        <time>2018-12-15T15:47:39Z</time>
      </trkpt>
      <trkpt lat="41.5203110" lon="2.3376950">
        <ele>395.6</ele>
        <time>2018-12-15T15:47:43Z</time>
      </trkpt>
      <trkpt lat="41.5201880" lon="2.3377210">
        <ele>396.6</ele>
        <time>2018-12-15T15:47:47Z</time>
      </trkpt>
      <trkpt lat="41.5200710" lon="2.3377450">
        <ele>397.8</ele>
        <time>2018-12-15T15:47:51Z</time>
      </trkpt>
      <trkpt lat="41.5199510" lon="2.3377600">
        <ele>397.8</ele>
        <time>2018-12-15T15:47:55Z</time>
      </trkpt>
      <trkpt lat="41.5198380" lon="2.3377700">
        <ele>399.2</ele>
        <time>2018-12-15T15:47:59Z</time>
      </trkpt>
      <trkpt lat="41.5197160" lon="2.3377600">
        <ele>399.4</ele>
        <time>2018-12-15T15:48:03Z</time>
      </trkpt>
      <trkpt lat="41.5196000" lon="2.3377310">
        <ele>401.0</ele>
        <time>2018-12-15T15:48:07Z</time>
      </trkpt>
      <trkpt lat="41.5194810" lon="2.3377210">
        <ele>401.6</ele>
        <time>2018-12-15T15:48:11Z</time>
      </trkpt>
      <trkpt lat="41.5193530" lon="2.3377030">
        <ele>402.8</ele>
        <time>2018-12-15T15:48:15Z</time>
      </trkpt>
      <trkpt lat="41.5192330" lon="2.3376510">
        <ele>403.8</ele>
        <time>2018-12-15T15:48:19Z</time>
      </trkpt>
      <trkpt lat="41.5191030" lon="2.3376210">
        <ele>404.8</ele>
        <time>2018-12-15T15:48:23Z</time>
      </trkpt>
      <trkpt lat="41.5189730" lon="2.3376300">
        <ele>404.6</ele>
        <time>2018-12-15T15:48:27Z</time>
      </trkpt>
      <trkpt lat="41.5188350" lon="2.3376630">
        <ele>405.2</ele>
        <time>2018-12-15T15:48:31Z</time>
      </trkpt>
      <trkpt lat="41.5186750" lon="2.3376810">
        <ele>404.8</ele>
        <time>2018-12-15T15:48:35Z</time>
      </trkpt>
      <trkpt lat="41.5185230" lon="2.3376330">
        <ele>405.8</ele>
        <time>2018-12-15T15:48:39Z</time>
      </trkpt>
      <trkpt lat="41.5183950" lon="2.3375210">
        <ele>406.0</ele>
        <time>2018-12-15T15:48:43Z</time>
      </trkpt>
      <trkpt lat="41.5182830" lon="2.3374150">
        <ele>406.4</ele>
        <time>2018-12-15T15:48:47Z</time>
      </trkpt>
      <trkpt lat="41.5182000" lon="2.3373060">
        <ele>407.6</ele>
        <time>2018-12-15T15:48:51Z</time>
      </trkpt>
      <trkpt lat="41.5181200" lon="2.3371850">
        <ele>408.4</ele>
        <time>2018-12-15T15:48:55Z</time>
      </trkpt>
      <trkpt lat="41.5180660" lon="2.3370400">
        <ele>409.2</ele>
        <time>2018-12-15T15:48:59Z</time>
      </trkpt>
      <trkpt lat="41.5180030" lon="2.3369200">
        <ele>410.0</ele>
        <time>2018-12-15T15:49:03Z</time>
      </trkpt>
      <trkpt lat="41.5179730" lon="2.3367700">
        <ele>411.0</ele>
        <time>2018-12-15T15:49:07Z</time>
      </trkpt>
      <trkpt lat="41.5179550" lon="2.3366180">
        <ele>411.8</ele>
        <time>2018-12-15T15:49:11Z</time>
      </trkpt>
      <trkpt lat="41.5179660" lon="2.3364530">
        <ele>412.6</ele>
        <time>2018-12-15T15:49:15Z</time>
      </trkpt>
      <trkpt lat="41.5179580" lon="2.3362930">
        <ele>414.2</ele>
        <time>2018-12-15T15:49:19Z</time>
      </trkpt>
      <trkpt lat="41.5179500" lon="2.3361300">
        <ele>414.4</ele>
        <time>2018-12-15T15:49:23Z</time>
      </trkpt>
      <trkpt lat="41.5179350" lon="2.3359610">
        <ele>414.4</ele>
        <time>2018-12-15T15:49:27Z</time>
      </trkpt>
      <trkpt lat="41.5179030" lon="2.3357950">
        <ele>415.4</ele>
        <time>2018-12-15T15:49:31Z</time>
      </trkpt>
      <trkpt lat="41.5178530" lon="2.3356360">
        <ele>415.6</ele>
        <time>2018-12-15T15:49:35Z</time>
      </trkpt>
      <trkpt lat="41.5178100" lon="2.3354860">
        <ele>416.0</ele>
        <time>2018-12-15T15:49:39Z</time>
      </trkpt>
      <trkpt lat="41.5177900" lon="2.3353150">
        <ele>416.2</ele>
        <time>2018-12-15T15:49:43Z</time>
      </trkpt>
      <trkpt lat="41.5177980" lon="2.3351510">
        <ele>417.0</ele>
        <time>2018-12-15T15:49:47Z</time>
      </trkpt>
      <trkpt lat="41.5177960" lon="2.3350050">
        <ele>417.2</ele>
        <time>2018-12-15T15:49:51Z</time>
      </trkpt>
      <trkpt lat="41.5177900" lon="2.3348250">
        <ele>417.8</ele>
        <time>2018-12-15T15:49:55Z</time>
      </trkpt>
      <trkpt lat="41.5177750" lon="2.3346780">
        <ele>420.0</ele>
        <time>2018-12-15T15:49:59Z</time>
      </trkpt>
      <trkpt lat="41.5177350" lon="2.3345360">
        <ele>421.0</ele>
        <time>2018-12-15T15:50:03Z</time>
      </trkpt>
      <trkpt lat="41.5177010" lon="2.3344280">
        <ele>422.2</ele>
        <time>2018-12-15T15:50:07Z</time>
      </trkpt>
      <trkpt lat="41.5176510" lon="2.3343100">
        <ele>423.2</ele>
        <time>2018-12-15T15:50:11Z</time>
      </trkpt>
      <trkpt lat="41.5176150" lon="2.3341860">
        <ele>423.8</ele>
        <time>2018-12-15T15:50:15Z</time>
      </trkpt>
      <trkpt lat="41.5175650" lon="2.3340580">
        <ele>424.2</ele>
        <time>2018-12-15T15:50:19Z</time>
      </trkpt>
      <trkpt lat="41.5174850" lon="2.3339130">
        <ele>425.2</ele>
        <time>2018-12-15T15:50:23Z</time>
      </trkpt>
      <trkpt lat="41.5174310" lon="2.3338110">
        <ele>424.8</ele>
        <time>2018-12-15T15:50:27Z</time>
      </trkpt>
      <trkpt lat="41.5173830" lon="2.3336450">
        <ele>425.2</ele>
        <time>2018-12-15T15:50:31Z</time>
      </trkpt>
      <trkpt lat="41.5173460" lon="2.3333630">
        <ele>425.0</ele>
        <time>2018-12-15T15:50:35Z</time>
      </trkpt>
      <trkpt lat="41.5173260" lon="2.3331610">
        <ele>425.2</ele>
        <time>2018-12-15T15:50:39Z</time>
      </trkpt>
      <trkpt lat="41.5173210" lon="2.3329760">
        <ele>426.6</ele>
        <time>2018-12-15T15:50:43Z</time>
      </trkpt>
      <trkpt lat="41.5173330" lon="2.3327950">
        <ele>426.6</ele>
        <time>2018-12-15T15:50:47Z</time>
      </trkpt>
      <trkpt lat="41.5173350" lon="2.3326150">
        <ele>427.6</ele>
        <time>2018-12-15T15:50:51Z</time>
      </trkpt>
      <trkpt lat="41.5173380" lon="2.3324430">
        <ele>428.8</ele>
        <time>2018-12-15T15:50:55Z</time>
      </trkpt>
      <trkpt lat="41.5173350" lon="2.3322860">
        <ele>429.0</ele>
        <time>2018-12-15T15:50:59Z</time>
      </trkpt>
      <trkpt lat="41.5172930" lon="2.3321050">
        <ele>429.4</ele>
        <time>2018-12-15T15:51:03Z</time>
      </trkpt>
      <trkpt lat="41.5172360" lon="2.3319250">
        <ele>429.6</ele>
        <time>2018-12-15T15:51:07Z</time>
      </trkpt>
      <trkpt lat="41.5171750" lon="2.3317460">
        <ele>430.6</ele>
        <time>2018-12-15T15:51:11Z</time>
      </trkpt>
      <trkpt lat="41.5171010" lon="2.3315300">
        <ele>431.4</ele>
        <time>2018-12-15T15:51:15Z</time>
      </trkpt>
      <trkpt lat="41.5170400" lon="2.3313300">
        <ele>431.4</ele>
        <time>2018-12-15T15:51:19Z</time>
      </trkpt>
      <trkpt lat="41.5169710" lon="2.3311310">
        <ele>431.6</ele>
        <time>2018-12-15T15:51:23Z</time>
      </trkpt>
      <trkpt lat="41.5169060" lon="2.3309260">
        <ele>432.4</ele>
        <time>2018-12-15T15:51:27Z</time>
      </trkpt>
      <trkpt lat="41.5168450" lon="2.3307360">
        <ele>433.0</ele>
        <time>2018-12-15T15:51:31Z</time>
      </trkpt>
      <trkpt lat="41.5167580" lon="2.3305700">
        <ele>434.0</ele>
        <time>2018-12-15T15:51:35Z</time>
      </trkpt>
      <trkpt lat="41.5166400" lon="2.3304760">
        <ele>434.8</ele>
        <time>2018-12-15T15:51:39Z</time>
      </trkpt>
      <trkpt lat="41.5165110" lon="2.3304560">
        <ele>435.6</ele>
        <time>2018-12-15T15:51:43Z</time>
      </trkpt>
      <trkpt lat="41.5163950" lon="2.3304560">
        <ele>436.0</ele>
        <time>2018-12-15T15:51:47Z</time>
      </trkpt>
      <trkpt lat="41.5162760" lon="2.3304350">
        <ele>437.2</ele>
        <time>2018-12-15T15:51:51Z</time>
      </trkpt>
      <trkpt lat="41.5161560" lon="2.3303930">
        <ele>437.2</ele>
        <time>2018-12-15T15:51:55Z</time>
      </trkpt>
      <trkpt lat="41.5160230" lon="2.3303610">
        <ele>438.4</ele>
        <time>2018-12-15T15:51:59Z</time>
      </trkpt>
      <trkpt lat="41.5159010" lon="2.3302980">
        <ele>438.4</ele>
        <time>2018-12-15T15:52:03Z</time>
      </trkpt>
      <trkpt lat="41.5157860" lon="2.3302200">
        <ele>439.0</ele>
        <time>2018-12-15T15:52:07Z</time>
      </trkpt>
      <trkpt lat="41.5156830" lon="2.3301160">
        <ele>440.2</ele>
        <time>2018-12-15T15:52:11Z</time>
      </trkpt>
      <trkpt lat="41.5155730" lon="2.3300330">
        <ele>441.2</ele>
        <time>2018-12-15T15:52:15Z</time>
      </trkpt>
      <trkpt lat="41.5154910" lon="2.3298950">
        <ele>440.8</ele>
        <time>2018-12-15T15:52:19Z</time>
      </trkpt>
      <trkpt lat="41.5154360" lon="2.3297510">
        <ele>442.2</ele>
        <time>2018-12-15T15:52:23Z</time>
      </trkpt>
      <trkpt lat="41.5153980" lon="2.3296050">
        <ele>442.8</ele>
        <time>2018-12-15T15:52:27Z</time>
      </trkpt>
      <trkpt lat="41.5153600" lon="2.3294410">
        <ele>443.8</ele>
        <time>2018-12-15T15:52:31Z</time>
      </trkpt>
      <trkpt lat="41.5153310" lon="2.3292780">
        <ele>445.4</ele>
        <time>2018-12-15T15:52:35Z</time>
      </trkpt>
      <trkpt lat="41.5153050" lon="2.3291080">
        <ele>446.2</ele>
        <time>2018-12-15T15:52:39Z</time>
      </trkpt>
      <trkpt lat="41.5153060" lon="2.3289350">
        <ele>446.8</ele>
        <time>2018-12-15T15:52:43Z</time>
      </trkpt>
      <trkpt lat="41.5153380" lon="2.3287730">
        <ele>448.0</ele>
        <time>2018-12-15T15:52:47Z</time>
      </trkpt>
      <trkpt lat="41.5153480" lon="2.3286000">
        <ele>449.0</ele>
        <time>2018-12-15T15:52:51Z</time>
      </trkpt>
      <trkpt lat="41.5153010" lon="2.3284200">
        <ele>449.0</ele>
        <time>2018-12-15T15:52:55Z</time>
      </trkpt>
      <trkpt lat="41.5152180" lon="2.3282650">
        <ele>448.8</ele>
        <time>2018-12-15T15:52:59Z</time>
      </trkpt>
      <trkpt lat="41.5151250" lon="2.3280710">
        <ele>448.4</ele>
        <time>2018-12-15T15:53:03Z</time>
      </trkpt>
      <trkpt lat="41.5149950" lon="2.3279100">
        <ele>447.4</ele>
        <time>2018-12-15T15:53:07Z</time>
      </trkpt>
      <trkpt lat="41.5148230" lon="2.3277510">
        <ele>446.2</ele>
        <time>2018-12-15T15:53:11Z</time>
      </trkpt>
      <trkpt lat="41.5146080" lon="2.3275700">
        <ele>444.8</ele>
        <time>2018-12-15T15:53:15Z</time>
      </trkpt>
      <trkpt lat="41.5143730" lon="2.3273560">
        <ele>443.2</ele>
        <time>2018-12-15T15:53:19Z</time>
      </trkpt>
      <trkpt lat="41.5141150" lon="2.3270950">
        <ele>441.0</ele>
        <time>2018-12-15T15:53:23Z</time>
      </trkpt>
      <trkpt lat="41.5138350" lon="2.3268330">
        <ele>438.8</ele>
        <time>2018-12-15T15:53:27Z</time>
      </trkpt>
      <trkpt lat="41.5135460" lon="2.3265550">
        <ele>437.4</ele>
        <time>2018-12-15T15:53:31Z</time>
      </trkpt>
      <trkpt lat="41.5132660" lon="2.3262510">
        <ele>434.4</ele>
        <time>2018-12-15T15:53:35Z</time>
      </trkpt>
      <trkpt lat="41.5129680" lon="2.3259680">
        <ele>431.2</ele>
        <time>2018-12-15T15:53:39Z</time>
      </trkpt>
      <trkpt lat="41.5127000" lon="2.3256100">
        <ele>429.2</ele>
        <time>2018-12-15T15:53:43Z</time>
      </trkpt>
      <trkpt lat="41.5126110" lon="2.3250730">
        <ele>426.2</ele>
        <time>2018-12-15T15:53:47Z</time>
      </trkpt>
      <trkpt lat="41.5124480" lon="2.3245480">
        <ele>421.6</ele>
        <time>2018-12-15T15:53:51Z</time>
      </trkpt>
      <trkpt lat="41.5123130" lon="2.3241410">
        <ele>421.4</ele>
        <time>2018-12-15T15:53:55Z</time>
      </trkpt>
      <trkpt lat="41.5124030" lon="2.3239480">
        <ele>421.6</ele>
        <time>2018-12-15T15:53:59Z</time>
      </trkpt>
      <trkpt lat="41.5124110" lon="2.3238810">
        <ele>422.0</ele>
        <time>2018-12-15T15:54:03Z</time>
      </trkpt>
      <trkpt lat="41.5123650" lon="2.3239100">
        <ele>422.2</ele>
        <time>2018-12-15T15:54:07Z</time>
      </trkpt>
      <trkpt lat="41.5123280" lon="2.3239000">
        <ele>422.4</ele>
        <time>2018-12-15T15:54:11Z</time>
      </trkpt>
      <trkpt lat="41.5122760" lon="2.3238880">
        <ele>422.2</ele>
        <time>2018-12-15T15:54:15Z</time>
      </trkpt>
      <trkpt lat="41.5122760" lon="2.3238880">
        <ele>422.2</ele>
        <time>2018-12-15T15:54:19Z</time>
      </trkpt>
      <trkpt lat="41.5122760" lon="2.3238880">
        <ele>422.2</ele>
        <time>2018-12-15T15:54:23Z</time>
      </trkpt>
      <trkpt lat="41.5122760" lon="2.3238880">
        <ele>422.2</ele>
        <time>2018-12-15T15:54:27Z</time>
      </trkpt>
      <trkpt lat="41.5122760" lon="2.3238880">
        <ele>422.2</ele>
        <time>2018-12-15T15:54:31Z</time>
      </trkpt>
      <trkpt lat="41.5122760" lon="2.3238880">
        <ele>422.2</ele>
        <time>2018-12-15T15:54:35Z</time>
      </trkpt>
      <trkpt lat="41.5122760" lon="2.3238880">
        <ele>422.2</ele>
        <time>2018-12-15T15:54:39Z</time>
      </trkpt>
      <trkpt lat="41.5122760" lon="2.3238880">
        <ele>422.2</ele>
        <time>2018-12-15T15:54:43Z</time>
      </trkpt>
      <trkpt lat="41.5122760" lon="2.3238880">
        <ele>422.2</ele>
        <time>2018-12-15T15:54:47Z</time>
      </trkpt>
      <trkpt lat="41.5122760" lon="2.3238880">
        <ele>422.2</ele>
        <time>2018-12-15T15:54:51Z</time>
      </trkpt>
      <trkpt lat="41.5122760" lon="2.3238880">
        <ele>422.2</ele>
        <time>2018-12-15T15:54:55Z</time>
      </trkpt>
      <trkpt lat="41.5122760" lon="2.3238880">
        <ele>422.2</ele>
        <time>2018-12-15T15:54:59Z</time>
      </trkpt>
      <trkpt lat="41.5122760" lon="2.3238880">
        <ele>422.2</ele>
        <time>2018-12-15T15:55:03Z</time>
      </trkpt>
      <trkpt lat="41.5122760" lon="2.3238880">
        <ele>422.2</ele>
        <time>2018-12-15T15:55:07Z</time>
      </trkpt>
      <trkpt lat="41.5122760" lon="2.3238880">
        <ele>422.2</ele>
        <time>2018-12-15T15:55:11Z</time>
      </trkpt>
      <trkpt lat="41.5122760" lon="2.3238880">
        <ele>422.2</ele>
        <time>2018-12-15T15:55:15Z</time>
      </trkpt>
      <trkpt lat="41.5122760" lon="2.3238880">
        <ele>422.2</ele>
        <time>2018-12-15T15:55:19Z</time>
      </trkpt>
      <trkpt lat="41.5122250" lon="2.3239180">
        <ele>422.6</ele>
        <time>2018-12-15T15:55:23Z</time>
      </trkpt>
      <trkpt lat="41.5122530" lon="2.3238950">
        <ele>422.4</ele>
        <time>2018-12-15T15:55:27Z</time>
      </trkpt>
      <trkpt lat="41.5123300" lon="2.3239150">
        <ele>422.2</ele>
        <time>2018-12-15T15:55:31Z</time>
      </trkpt>
      <trkpt lat="41.5124760" lon="2.3238260">
        <ele>420.6</ele>
        <time>2018-12-15T15:55:35Z</time>
      </trkpt>
      <trkpt lat="41.5126650" lon="2.3236600">
        <ele>419.2</ele>
        <time>2018-12-15T15:55:39Z</time>
      </trkpt>
      <trkpt lat="41.5128900" lon="2.3234980">
        <ele>417.2</ele>
        <time>2018-12-15T15:55:43Z</time>
      </trkpt>
      <trkpt lat="41.5131600" lon="2.3233850">
        <ele>416.2</ele>
        <time>2018-12-15T15:55:47Z</time>
      </trkpt>
      <trkpt lat="41.5134710" lon="2.3233030">
        <ele>414.4</ele>
        <time>2018-12-15T15:55:51Z</time>
      </trkpt>
      <trkpt lat="41.5137960" lon="2.3232260">
        <ele>411.2</ele>
        <time>2018-12-15T15:55:55Z</time>
      </trkpt>
      <trkpt lat="41.5140560" lon="2.3231200">
        <ele>411.0</ele>
        <time>2018-12-15T15:55:59Z</time>
      </trkpt>
      <trkpt lat="41.5140310" lon="2.3227650">
        <ele>409.4</ele>
        <time>2018-12-15T15:56:03Z</time>
      </trkpt>
      <trkpt lat="41.5138480" lon="2.3224560">
        <ele>406.4</ele>
        <time>2018-12-15T15:56:07Z</time>
      </trkpt>
      <trkpt lat="41.5137730" lon="2.3221850">
        <ele>405.0</ele>
        <time>2018-12-15T15:56:11Z</time>
      </trkpt>
      <trkpt lat="41.5137730" lon="2.3221850">
        <ele>405.0</ele>
        <time>2018-12-15T15:56:15Z</time>
      </trkpt>
      <trkpt lat="41.5137730" lon="2.3221850">
        <ele>405.0</ele>
        <time>2018-12-15T15:56:19Z</time>
      </trkpt>
      <trkpt lat="41.5137730" lon="2.3221850">
        <ele>405.0</ele>
        <time>2018-12-15T15:56:23Z</time>
      </trkpt>
      <trkpt lat="41.5137730" lon="2.3221850">
        <ele>405.0</ele>
        <time>2018-12-15T15:56:27Z</time>
      </trkpt>
      <trkpt lat="41.5137730" lon="2.3221850">
        <ele>405.0</ele>
        <time>2018-12-15T15:56:31Z</time>
      </trkpt>
      <trkpt lat="41.5137730" lon="2.3221850">
        <ele>405.0</ele>
        <time>2018-12-15T15:56:35Z</time>
      </trkpt>
      <trkpt lat="41.5137730" lon="2.3221850">
        <ele>405.0</ele>
        <time>2018-12-15T15:56:39Z</time>
      </trkpt>
      <trkpt lat="41.5137730" lon="2.3221850">
        <ele>405.0</ele>
        <time>2018-12-15T15:56:43Z</time>
      </trkpt>
      <trkpt lat="41.5137730" lon="2.3221850">
        <ele>405.0</ele>
        <time>2018-12-15T15:56:47Z</time>
      </trkpt>
      <trkpt lat="41.5137730" lon="2.3221850">
        <ele>405.0</ele>
        <time>2018-12-15T15:56:51Z</time>
      </trkpt>
      <trkpt lat="41.5137730" lon="2.3221850">
        <ele>405.0</ele>
        <time>2018-12-15T15:56:55Z</time>
      </trkpt>
      <trkpt lat="41.5137730" lon="2.3221850">
        <ele>405.0</ele>
        <time>2018-12-15T15:56:59Z</time>
      </trkpt>
      <trkpt lat="41.5137750" lon="2.3220410">
        <ele>405.2</ele>
        <time>2018-12-15T15:57:03Z</time>
      </trkpt>
      <trkpt lat="41.5138710" lon="2.3219750">
        <ele>403.0</ele>
        <time>2018-12-15T15:57:07Z</time>
      </trkpt>
      <trkpt lat="41.5140360" lon="2.3217910">
        <ele>401.2</ele>
        <time>2018-12-15T15:57:11Z</time>
      </trkpt>
      <trkpt lat="41.5142500" lon="2.3216200">
        <ele>399.8</ele>
        <time>2018-12-15T15:57:15Z</time>
      </trkpt>
      <trkpt lat="41.5145180" lon="2.3215930">
        <ele>397.0</ele>
        <time>2018-12-15T15:57:19Z</time>
      </trkpt>
      <trkpt lat="41.5148250" lon="2.3216280">
        <ele>394.2</ele>
        <time>2018-12-15T15:57:23Z</time>
      </trkpt>
      <trkpt lat="41.5150330" lon="2.3214280">
        <ele>392.2</ele>
        <time>2018-12-15T15:57:27Z</time>
      </trkpt>
      <trkpt lat="41.5151900" lon="2.3210880">
        <ele>388.8</ele>
        <time>2018-12-15T15:57:31Z</time>
      </trkpt>
      <trkpt lat="41.5153130" lon="2.3206450">
        <ele>386.0</ele>
        <time>2018-12-15T15:57:35Z</time>
      </trkpt>
      <trkpt lat="41.5153800" lon="2.3202600">
        <ele>384.4</ele>
        <time>2018-12-15T15:57:39Z</time>
      </trkpt>
      <trkpt lat="41.5154530" lon="2.3201200">
        <ele>383.6</ele>
        <time>2018-12-15T15:57:43Z</time>
      </trkpt>
      <trkpt lat="41.5154960" lon="2.3200930">
        <ele>382.8</ele>
        <time>2018-12-15T15:57:47Z</time>
      </trkpt>
      <trkpt lat="41.5155730" lon="2.3200300">
        <ele>381.8</ele>
        <time>2018-12-15T15:57:51Z</time>
      </trkpt>
      <trkpt lat="41.5157480" lon="2.3198810">
        <ele>379.2</ele>
        <time>2018-12-15T15:57:55Z</time>
      </trkpt>
      <trkpt lat="41.5159910" lon="2.3196980">
        <ele>377.4</ele>
        <time>2018-12-15T15:57:59Z</time>
      </trkpt>
      <trkpt lat="41.5162410" lon="2.3194810">
        <ele>375.6</ele>
        <time>2018-12-15T15:58:03Z</time>
      </trkpt>
      <trkpt lat="41.5163950" lon="2.3190550">
        <ele>370.8</ele>
        <time>2018-12-15T15:58:07Z</time>
      </trkpt>
      <trkpt lat="41.5165200" lon="2.3186010">
        <ele>368.0</ele>
        <time>2018-12-15T15:58:11Z</time>
      </trkpt>
      <trkpt lat="41.5164710" lon="2.3180860">
        <ele>363.6</ele>
        <time>2018-12-15T15:58:15Z</time>
      </trkpt>
      <trkpt lat="41.5163860" lon="2.3176110">
        <ele>362.6</ele>
        <time>2018-12-15T15:58:19Z</time>
      </trkpt>
      <trkpt lat="41.5165210" lon="2.3173410">
        <ele>358.8</ele>
        <time>2018-12-15T15:58:23Z</time>
      </trkpt>
      <trkpt lat="41.5168760" lon="2.3170950">
        <ele>352.8</ele>
        <time>2018-12-15T15:58:27Z</time>
      </trkpt>
      <trkpt lat="41.5172010" lon="2.3167930">
        <ele>347.2</ele>
        <time>2018-12-15T15:58:31Z</time>
      </trkpt>
      <trkpt lat="41.5174380" lon="2.3162380">
        <ele>340.4</ele>
        <time>2018-12-15T15:58:35Z</time>
      </trkpt>
      <trkpt lat="41.5174360" lon="2.3156430">
        <ele>341.4</ele>
        <time>2018-12-15T15:58:39Z</time>
      </trkpt>
      <trkpt lat="41.5171850" lon="2.3153110">
        <ele>342.8</ele>
        <time>2018-12-15T15:58:43Z</time>
      </trkpt>
      <trkpt lat="41.5168130" lon="2.3152210">
        <ele>341.2</ele>
        <time>2018-12-15T15:58:47Z</time>
      </trkpt>
      <trkpt lat="41.5163960" lon="2.3151860">
        <ele>337.8</ele>
        <time>2018-12-15T15:58:51Z</time>
      </trkpt>
      <trkpt lat="41.5159980" lon="2.3149980">
        <ele>335.6</ele>
        <time>2018-12-15T15:58:55Z</time>
      </trkpt>
      <trkpt lat="41.5159000" lon="2.3145450">
        <ele>332.0</ele>
        <time>2018-12-15T15:58:59Z</time>
      </trkpt>
      <trkpt lat="41.5159400" lon="2.3139600">
        <ele>328.0</ele>
        <time>2018-12-15T15:59:03Z</time>
      </trkpt>
      <trkpt lat="41.5159050" lon="2.3133230">
        <ele>325.2</ele>
        <time>2018-12-15T15:59:07Z</time>
      </trkpt>
      <trkpt lat="41.5157930" lon="2.3127160">
        <ele>323.8</ele>
        <time>2018-12-15T15:59:11Z</time>
      </trkpt>
      <trkpt lat="41.5156830" lon="2.3121730">
        <ele>322.0</ele>
        <time>2018-12-15T15:59:15Z</time>
      </trkpt>
      <trkpt lat="41.5156630" lon="2.3116200">
        <ele>321.4</ele>
        <time>2018-12-15T15:59:19Z</time>
      </trkpt>
      <trkpt lat="41.5156500" lon="2.3110650">
        <ele>316.0</ele>
        <time>2018-12-15T15:59:23Z</time>
      </trkpt>
      <trkpt lat="41.5157760" lon="2.3105110">
        <ele>311.4</ele>
        <time>2018-12-15T15:59:27Z</time>
      </trkpt>
      <trkpt lat="41.5159250" lon="2.3099500">
        <ele>308.6</ele>
        <time>2018-12-15T15:59:31Z</time>
      </trkpt>
      <trkpt lat="41.5160250" lon="2.3094050">
        <ele>307.2</ele>
        <time>2018-12-15T15:59:35Z</time>
      </trkpt>
      <trkpt lat="41.5158300" lon="2.3090030">
        <ele>308.8</ele>
        <time>2018-12-15T15:59:39Z</time>
      </trkpt>
      <trkpt lat="41.5155450" lon="2.3088380">
        <ele>311.8</ele>
        <time>2018-12-15T15:59:43Z</time>
      </trkpt>
      <trkpt lat="41.5152910" lon="2.3087160">
        <ele>313.6</ele>
        <time>2018-12-15T15:59:47Z</time>
      </trkpt>
      <trkpt lat="41.5150900" lon="2.3085850">
        <ele>315.2</ele>
        <time>2018-12-15T15:59:51Z</time>
      </trkpt>
      <trkpt lat="41.5149250" lon="2.3083860">
        <ele>316.4</ele>
        <time>2018-12-15T15:59:55Z</time>
      </trkpt>
      <trkpt lat="41.5147580" lon="2.3081780">
        <ele>316.8</ele>
        <time>2018-12-15T15:59:59Z</time>
      </trkpt>
      <trkpt lat="41.5145430" lon="2.3080260">
        <ele>318.2</ele>
        <time>2018-12-15T16:00:03Z</time>
      </trkpt>
      <trkpt lat="41.5143180" lon="2.3078860">
        <ele>319.4</ele>
        <time>2018-12-15T16:00:07Z</time>
      </trkpt>
      <trkpt lat="41.5141330" lon="2.3077850">
        <ele>320.8</ele>
        <time>2018-12-15T16:00:11Z</time>
      </trkpt>
      <trkpt lat="41.5139760" lon="2.3077210">
        <ele>322.2</ele>
        <time>2018-12-15T16:00:15Z</time>
      </trkpt>
      <trkpt lat="41.5138360" lon="2.3076580">
        <ele>323.2</ele>
        <time>2018-12-15T16:00:19Z</time>
      </trkpt>
      <trkpt lat="41.5137110" lon="2.3075580">
        <ele>324.4</ele>
        <time>2018-12-15T16:00:23Z</time>
      </trkpt>
      <trkpt lat="41.5135910" lon="2.3074610">
        <ele>325.6</ele>
        <time>2018-12-15T16:00:27Z</time>
      </trkpt>
      <trkpt lat="41.5134860" lon="2.3073560">
        <ele>326.6</ele>
        <time>2018-12-15T16:00:31Z</time>
      </trkpt>
      <trkpt lat="41.5133880" lon="2.3072580">
        <ele>327.2</ele>
        <time>2018-12-15T16:00:35Z</time>
      </trkpt>
      <trkpt lat="41.5132880" lon="2.3071600">
        <ele>327.4</ele>
        <time>2018-12-15T16:00:39Z</time>
      </trkpt>
      <trkpt lat="41.5131900" lon="2.3070560">
        <ele>327.0</ele>
        <time>2018-12-15T16:00:43Z</time>
      </trkpt>
      <trkpt lat="41.5131810" lon="2.3068560">
        <ele>324.6</ele>
        <time>2018-12-15T16:00:47Z</time>
      </trkpt>
      <trkpt lat="41.5132750" lon="2.3065250">
        <ele>320.8</ele>
        <time>2018-12-15T16:00:51Z</time>
      </trkpt>
      <trkpt lat="41.5134000" lon="2.3060950">
        <ele>316.0</ele>
        <time>2018-12-15T16:00:55Z</time>
      </trkpt>
      <trkpt lat="41.5135600" lon="2.3056430">
        <ele>314.2</ele>
        <time>2018-12-15T16:00:59Z</time>
      </trkpt>
      <trkpt lat="41.5137600" lon="2.3052510">
        <ele>311.0</ele>
        <time>2018-12-15T16:01:03Z</time>
      </trkpt>
      <trkpt lat="41.5140250" lon="2.3048650">
        <ele>309.0</ele>
        <time>2018-12-15T16:01:07Z</time>
      </trkpt>
      <trkpt lat="41.5142450" lon="2.3044850">
        <ele>310.4</ele>
        <time>2018-12-15T16:01:11Z</time>
      </trkpt>
      <trkpt lat="41.5144410" lon="2.3041380">
        <ele>311.6</ele>
        <time>2018-12-15T16:01:15Z</time>
      </trkpt>
      <trkpt lat="41.5145460" lon="2.3037560">
        <ele>310.0</ele>
        <time>2018-12-15T16:01:19Z</time>
      </trkpt>
      <trkpt lat="41.5145810" lon="2.3033180">
        <ele>310.2</ele>
        <time>2018-12-15T16:01:23Z</time>
      </trkpt>
      <trkpt lat="41.5145880" lon="2.3028600">
        <ele>310.2</ele>
        <time>2018-12-15T16:01:27Z</time>
      </trkpt>
      <trkpt lat="41.5146350" lon="2.3024450">
        <ele>308.8</ele>
        <time>2018-12-15T16:01:31Z</time>
      </trkpt>
      <trkpt lat="41.5145550" lon="2.3020300">
        <ele>307.0</ele>
        <time>2018-12-15T16:01:35Z</time>
      </trkpt>
      <trkpt lat="41.5143510" lon="2.3015910">
        <ele>305.0</ele>
        <time>2018-12-15T16:01:39Z</time>
      </trkpt>
      <trkpt lat="41.5141550" lon="2.3012180">
        <ele>305.8</ele>
        <time>2018-12-15T16:01:43Z</time>
      </trkpt>
      <trkpt lat="41.5140080" lon="2.3007850">
        <ele>303.4</ele>
        <time>2018-12-15T16:01:47Z</time>
      </trkpt>
      <trkpt lat="41.5139160" lon="2.3003130">
        <ele>301.2</ele>
        <time>2018-12-15T16:01:51Z</time>
      </trkpt>
      <trkpt lat="41.5138310" lon="2.2998410">
        <ele>300.4</ele>
        <time>2018-12-15T16:01:55Z</time>
      </trkpt>
      <trkpt lat="41.5137110" lon="2.2993760">
        <ele>297.4</ele>
        <time>2018-12-15T16:01:59Z</time>
      </trkpt>
      <trkpt lat="41.5135480" lon="2.2988500">
        <ele>293.0</ele>
        <time>2018-12-15T16:02:03Z</time>
      </trkpt>
      <trkpt lat="41.5133310" lon="2.2982830">
        <ele>287.8</ele>
        <time>2018-12-15T16:02:07Z</time>
      </trkpt>
      <trkpt lat="41.5131260" lon="2.2976580">
        <ele>282.8</ele>
        <time>2018-12-15T16:02:11Z</time>
      </trkpt>
      <trkpt lat="41.5129730" lon="2.2970760">
        <ele>280.8</ele>
        <time>2018-12-15T16:02:15Z</time>
      </trkpt>
      <trkpt lat="41.5128280" lon="2.2965060">
        <ele>279.8</ele>
        <time>2018-12-15T16:02:19Z</time>
      </trkpt>
      <trkpt lat="41.5127480" lon="2.2960660">
        <ele>279.4</ele>
        <time>2018-12-15T16:02:23Z</time>
      </trkpt>
      <trkpt lat="41.5126430" lon="2.2957510">
        <ele>279.2</ele>
        <time>2018-12-15T16:02:27Z</time>
      </trkpt>
      <trkpt lat="41.5126180" lon="2.2955480">
        <ele>281.6</ele>
        <time>2018-12-15T16:02:31Z</time>
      </trkpt>
      <trkpt lat="41.5126960" lon="2.2953850">
        <ele>279.6</ele>
        <time>2018-12-15T16:02:35Z</time>
      </trkpt>
      <trkpt lat="41.5129400" lon="2.2951430">
        <ele>274.0</ele>
        <time>2018-12-15T16:02:39Z</time>
      </trkpt>
      <trkpt lat="41.5132450" lon="2.2948410">
        <ele>272.6</ele>
        <time>2018-12-15T16:02:43Z</time>
      </trkpt>
      <trkpt lat="41.5135150" lon="2.2946160">
        <ele>271.4</ele>
        <time>2018-12-15T16:02:47Z</time>
      </trkpt>
      <trkpt lat="41.5137910" lon="2.2944160">
        <ele>269.2</ele>
        <time>2018-12-15T16:02:51Z</time>
      </trkpt>
      <trkpt lat="41.5140460" lon="2.2941200">
        <ele>265.8</ele>
        <time>2018-12-15T16:02:55Z</time>
      </trkpt>
      <trkpt lat="41.5142950" lon="2.2938160">
        <ele>264.0</ele>
        <time>2018-12-15T16:02:59Z</time>
      </trkpt>
      <trkpt lat="41.5146050" lon="2.2936000">
        <ele>262.2</ele>
        <time>2018-12-15T16:03:03Z</time>
      </trkpt>
      <trkpt lat="41.5148710" lon="2.2934450">
        <ele>259.6</ele>
        <time>2018-12-15T16:03:07Z</time>
      </trkpt>
      <trkpt lat="41.5152860" lon="2.2934080">
        <ele>257.6</ele>
        <time>2018-12-15T16:03:11Z</time>
      </trkpt>
      <trkpt lat="41.5157100" lon="2.2933800">
        <ele>255.0</ele>
        <time>2018-12-15T16:03:15Z</time>
      </trkpt>
      <trkpt lat="41.5161260" lon="2.2934910">
        <ele>252.2</ele>
        <time>2018-12-15T16:03:19Z</time>
      </trkpt>
      <trkpt lat="41.5165860" lon="2.2935110">
        <ele>248.6</ele>
        <time>2018-12-15T16:03:23Z</time>
      </trkpt>
      <trkpt lat="41.5170610" lon="2.2933610">
        <ele>243.4</ele>
        <time>2018-12-15T16:03:27Z</time>
      </trkpt>
      <trkpt lat="41.5174900" lon="2.2930230">
        <ele>240.4</ele>
        <time>2018-12-15T16:03:31Z</time>
      </trkpt>
      <trkpt lat="41.5179180" lon="2.2926830">
        <ele>236.0</ele>
        <time>2018-12-15T16:03:35Z</time>
      </trkpt>
      <trkpt lat="41.5184210" lon="2.2926800">
        <ele>231.8</ele>
        <time>2018-12-15T16:03:39Z</time>
      </trkpt>
      <trkpt lat="41.5188750" lon="2.2927210">
        <ele>228.2</ele>
        <time>2018-12-15T16:03:43Z</time>
      </trkpt>
      <trkpt lat="41.5191860" lon="2.2931200">
        <ele>223.6</ele>
        <time>2018-12-15T16:03:47Z</time>
      </trkpt>
      <trkpt lat="41.5195860" lon="2.2933030">
        <ele>220.0</ele>
        <time>2018-12-15T16:03:51Z</time>
      </trkpt>
      <trkpt lat="41.5199950" lon="2.2935210">
        <ele>215.6</ele>
        <time>2018-12-15T16:03:55Z</time>
      </trkpt>
      <trkpt lat="41.5203880" lon="2.2939560">
        <ele>212.0</ele>
        <time>2018-12-15T16:03:59Z</time>
      </trkpt>
      <trkpt lat="41.5206860" lon="2.2944580">
        <ele>208.8</ele>
        <time>2018-12-15T16:04:03Z</time>
      </trkpt>
      <trkpt lat="41.5210530" lon="2.2946650">
        <ele>204.8</ele>
        <time>2018-12-15T16:04:07Z</time>
      </trkpt>
      <trkpt lat="41.5217230" lon="2.2948000">
        <ele>201.2</ele>
        <time>2018-12-15T16:04:11Z</time>
      </trkpt>
      <trkpt lat="41.5219680" lon="2.2945510">
        <ele>200.2</ele>
        <time>2018-12-15T16:04:15Z</time>
      </trkpt>
      <trkpt lat="41.5217460" lon="2.2942680">
        <ele>197.2</ele>
        <time>2018-12-15T16:04:19Z</time>
      </trkpt>
      <trkpt lat="41.5215110" lon="2.2938730">
        <ele>194.0</ele>
        <time>2018-12-15T16:04:23Z</time>
      </trkpt>
      <trkpt lat="41.5212580" lon="2.2934700">
        <ele>191.0</ele>
        <time>2018-12-15T16:04:27Z</time>
      </trkpt>
      <trkpt lat="41.5213180" lon="2.2931910">
        <ele>189.8</ele>
        <time>2018-12-15T16:04:31Z</time>
      </trkpt>
      <trkpt lat="41.5215350" lon="2.2933900">
        <ele>185.8</ele>
        <time>2018-12-15T16:04:35Z</time>
      </trkpt>
      <trkpt lat="41.5219310" lon="2.2934250">
        <ele>182.4</ele>
        <time>2018-12-15T16:04:39Z</time>
      </trkpt>
      <trkpt lat="41.5223010" lon="2.2935780">
        <ele>178.0</ele>
        <time>2018-12-15T16:04:43Z</time>
      </trkpt>
      <trkpt lat="41.5226130" lon="2.2940380">
        <ele>174.0</ele>
        <time>2018-12-15T16:04:47Z</time>
      </trkpt>
      <trkpt lat="41.5229460" lon="2.2944780">
        <ele>170.0</ele>
        <time>2018-12-15T16:04:51Z</time>
      </trkpt>
      <trkpt lat="41.5232950" lon="2.2944780">
        <ele>168.2</ele>
        <time>2018-12-15T16:04:55Z</time>
      </trkpt>
      <trkpt lat="41.5233880" lon="2.2940750">
        <ele>164.8</ele>
        <time>2018-12-15T16:04:59Z</time>
      </trkpt>
      <trkpt lat="41.5237530" lon="2.2937730">
        <ele>161.8</ele>
        <time>2018-12-15T16:05:03Z</time>
      </trkpt>
      <trkpt lat="41.5241510" lon="2.2936410">
        <ele>159.0</ele>
        <time>2018-12-15T16:05:07Z</time>
      </trkpt>
      <trkpt lat="41.5245930" lon="2.2935930">
        <ele>155.4</ele>
        <time>2018-12-15T16:05:11Z</time>
      </trkpt>
      <trkpt lat="41.5250500" lon="2.2935110">
        <ele>154.8</ele>
        <time>2018-12-15T16:05:15Z</time>
      </trkpt>
      <trkpt lat="41.5255510" lon="2.2934100">
        <ele>153.4</ele>
        <time>2018-12-15T16:05:19Z</time>
      </trkpt>
      <trkpt lat="41.5260030" lon="2.2933310">
        <ele>151.2</ele>
        <time>2018-12-15T16:05:23Z</time>
      </trkpt>
      <trkpt lat="41.5264760" lon="2.2932630">
        <ele>149.2</ele>
        <time>2018-12-15T16:05:27Z</time>
      </trkpt>
      <trkpt lat="41.5269360" lon="2.2932000">
        <ele>148.8</ele>
        <time>2018-12-15T16:05:31Z</time>
      </trkpt>
      <trkpt lat="41.5273400" lon="2.2928910">
        <ele>148.8</ele>
        <time>2018-12-15T16:05:35Z</time>
      </trkpt>
      <trkpt lat="41.5276310" lon="2.2924530">
        <ele>147.4</ele>
        <time>2018-12-15T16:05:39Z</time>
      </trkpt>
      <trkpt lat="41.5279300" lon="2.2920260">
        <ele>146.6</ele>
        <time>2018-12-15T16:05:43Z</time>
      </trkpt>
      <trkpt lat="41.5282960" lon="2.2916850">
        <ele>144.2</ele>
        <time>2018-12-15T16:05:47Z</time>
      </trkpt>
      <trkpt lat="41.5287010" lon="2.2914300">
        <ele>142.0</ele>
        <time>2018-12-15T16:05:51Z</time>
      </trkpt>
      <trkpt lat="41.5291000" lon="2.2911810">
        <ele>140.2</ele>
        <time>2018-12-15T16:05:55Z</time>
      </trkpt>
      <trkpt lat="41.5294650" lon="2.2909200">
        <ele>139.2</ele>
        <time>2018-12-15T16:05:59Z</time>
      </trkpt>
      <trkpt lat="41.5298510" lon="2.2907130">
        <ele>139.2</ele>
        <time>2018-12-15T16:06:03Z</time>
      </trkpt>
      <trkpt lat="41.5302360" lon="2.2905980">
        <ele>138.4</ele>
        <time>2018-12-15T16:06:07Z</time>
      </trkpt>
      <trkpt lat="41.5306250" lon="2.2906530">
        <ele>138.2</ele>
        <time>2018-12-15T16:06:11Z</time>
      </trkpt>
      <trkpt lat="41.5310050" lon="2.2907430">
        <ele>137.2</ele>
        <time>2018-12-15T16:06:15Z</time>
      </trkpt>
      <trkpt lat="41.5313880" lon="2.2907800">
        <ele>136.0</ele>
        <time>2018-12-15T16:06:19Z</time>
      </trkpt>
      <trkpt lat="41.5317760" lon="2.2907480">
        <ele>134.2</ele>
        <time>2018-12-15T16:06:23Z</time>
      </trkpt>
      <trkpt lat="41.5321630" lon="2.2907650">
        <ele>133.8</ele>
        <time>2018-12-15T16:06:27Z</time>
      </trkpt>
      <trkpt lat="41.5325200" lon="2.2906400">
        <ele>132.2</ele>
        <time>2018-12-15T16:06:31Z</time>
      </trkpt>
      <trkpt lat="41.5328850" lon="2.2905750">
        <ele>131.2</ele>
        <time>2018-12-15T16:06:35Z</time>
      </trkpt>
      <trkpt lat="41.5332260" lon="2.2904480">
        <ele>132.2</ele>
        <time>2018-12-15T16:06:39Z</time>
      </trkpt>
      <trkpt lat="41.5335150" lon="2.2901810">
        <ele>131.2</ele>
        <time>2018-12-15T16:06:43Z</time>
      </trkpt>
      <trkpt lat="41.5337400" lon="2.2898080">
        <ele>130.2</ele>
        <time>2018-12-15T16:06:47Z</time>
      </trkpt>
      <trkpt lat="41.5339360" lon="2.2894030">
        <ele>131.4</ele>
        <time>2018-12-15T16:06:51Z</time>
      </trkpt>
      <trkpt lat="41.5341030" lon="2.2889900">
        <ele>131.0</ele>
        <time>2018-12-15T16:06:55Z</time>
      </trkpt>
      <trkpt lat="41.5342600" lon="2.2885760">
        <ele>130.4</ele>
        <time>2018-12-15T16:06:59Z</time>
      </trkpt>
      <trkpt lat="41.5344710" lon="2.2882200">
        <ele>131.0</ele>
        <time>2018-12-15T16:07:03Z</time>
      </trkpt>
      <trkpt lat="41.5347780" lon="2.2880050">
        <ele>130.6</ele>
        <time>2018-12-15T16:07:07Z</time>
      </trkpt>
      <trkpt lat="41.5351000" lon="2.2878380">
        <ele>129.8</ele>
        <time>2018-12-15T16:07:11Z</time>
      </trkpt>
      <trkpt lat="41.5354080" lon="2.2876430">
        <ele>129.8</ele>
        <time>2018-12-15T16:07:15Z</time>
      </trkpt>
      <trkpt lat="41.5356700" lon="2.2873460">
        <ele>128.6</ele>
        <time>2018-12-15T16:07:19Z</time>
      </trkpt>
      <trkpt lat="41.5358180" lon="2.2869300">
        <ele>127.8</ele>
        <time>2018-12-15T16:07:23Z</time>
      </trkpt>
      <trkpt lat="41.5358860" lon="2.2864700">
        <ele>126.2</ele>
        <time>2018-12-15T16:07:27Z</time>
      </trkpt>
      <trkpt lat="41.5359860" lon="2.2860710">
        <ele>125.4</ele>
        <time>2018-12-15T16:07:31Z</time>
      </trkpt>
      <trkpt lat="41.5361200" lon="2.2856050">
        <ele>124.6</ele>
        <time>2018-12-15T16:07:35Z</time>
      </trkpt>
      <trkpt lat="41.5363560" lon="2.2853260">
        <ele>124.2</ele>
        <time>2018-12-15T16:07:39Z</time>
      </trkpt>
      <trkpt lat="41.5366210" lon="2.2850110">
        <ele>124.4</ele>
        <time>2018-12-15T16:07:43Z</time>
      </trkpt>
      <trkpt lat="41.5369110" lon="2.2847130">
        <ele>123.4</ele>
        <time>2018-12-15T16:07:47Z</time>
      </trkpt>
      <trkpt lat="41.5372230" lon="2.2844950">
        <ele>122.4</ele>
        <time>2018-12-15T16:07:51Z</time>
      </trkpt>
      <trkpt lat="41.5375450" lon="2.2843900">
        <ele>121.2</ele>
        <time>2018-12-15T16:07:55Z</time>
      </trkpt>
      <trkpt lat="41.5379130" lon="2.2843460">
        <ele>119.6</ele>
        <time>2018-12-15T16:07:59Z</time>
      </trkpt>
      <trkpt lat="41.5382830" lon="2.2843960">
        <ele>118.0</ele>
        <time>2018-12-15T16:08:03Z</time>
      </trkpt>
      <trkpt lat="41.5386060" lon="2.2845010">
        <ele>118.4</ele>
        <time>2018-12-15T16:08:07Z</time>
      </trkpt>
      <trkpt lat="41.5388330" lon="2.2845780">
        <ele>117.2</ele>
        <time>2018-12-15T16:08:11Z</time>
      </trkpt>
      <trkpt lat="41.5390900" lon="2.2846510">
        <ele>116.6</ele>
        <time>2018-12-15T16:08:15Z</time>
      </trkpt>
      <trkpt lat="41.5394600" lon="2.2847710">
        <ele>116.0</ele>
        <time>2018-12-15T16:08:19Z</time>
      </trkpt>
      <trkpt lat="41.5398060" lon="2.2848850">
        <ele>115.4</ele>
        <time>2018-12-15T16:08:23Z</time>
      </trkpt>
      <trkpt lat="41.5401760" lon="2.2850210">
        <ele>113.8</ele>
        <time>2018-12-15T16:08:27Z</time>
      </trkpt>
      <trkpt lat="41.5404800" lon="2.2851580">
        <ele>114.0</ele>
        <time>2018-12-15T16:08:31Z</time>
      </trkpt>
      <trkpt lat="41.5408230" lon="2.2853050">
        <ele>113.0</ele>
        <time>2018-12-15T16:08:35Z</time>
      </trkpt>
      <trkpt lat="41.5411660" lon="2.2854260">
        <ele>111.2</ele>
        <time>2018-12-15T16:08:39Z</time>
      </trkpt>
      <trkpt lat="41.5415360" lon="2.2855600">
        <ele>109.2</ele>
        <time>2018-12-15T16:08:43Z</time>
      </trkpt>
      <trkpt lat="41.5418730" lon="2.2856630">
        <ele>107.6</ele>
        <time>2018-12-15T16:08:47Z</time>
      </trkpt>
      <trkpt lat="41.5422930" lon="2.2858260">
        <ele>106.0</ele>
        <time>2018-12-15T16:08:51Z</time>
      </trkpt>
      <trkpt lat="41.5427380" lon="2.2859850">
        <ele>104.8</ele>
        <time>2018-12-15T16:08:55Z</time>
      </trkpt>
      <trkpt lat="41.5431530" lon="2.2860810">
        <ele>103.8</ele>
        <time>2018-12-15T16:08:59Z</time>
      </trkpt>
      <trkpt lat="41.5435710" lon="2.2860610">
        <ele>101.4</ele>
        <time>2018-12-15T16:09:03Z</time>
      </trkpt>
      <trkpt lat="41.5440080" lon="2.2860110">
        <ele>99.6</ele>
        <time>2018-12-15T16:09:07Z</time>
      </trkpt>
      <trkpt lat="41.5444530" lon="2.2859580">
        <ele>97.4</ele>
        <time>2018-12-15T16:09:11Z</time>
      </trkpt>
      <trkpt lat="41.5448750" lon="2.2859100">
        <ele>96.8</ele>
        <time>2018-12-15T16:09:15Z</time>
      </trkpt>
      <trkpt lat="41.5452860" lon="2.2858610">
        <ele>95.2</ele>
        <time>2018-12-15T16:09:19Z</time>
      </trkpt>
      <trkpt lat="41.5456810" lon="2.2858060">
        <ele>94.8</ele>
        <time>2018-12-15T16:09:23Z</time>
      </trkpt>
      <trkpt lat="41.5460700" lon="2.2857550">
        <ele>94.0</ele>
        <time>2018-12-15T16:09:27Z</time>
      </trkpt>
      <trkpt lat="41.5464380" lon="2.2857030">
        <ele>93.2</ele>
        <time>2018-12-15T16:09:31Z</time>
      </trkpt>
      <trkpt lat="41.5467950" lon="2.2856460">
        <ele>93.4</ele>
        <time>2018-12-15T16:09:35Z</time>
      </trkpt>
      <trkpt lat="41.5471310" lon="2.2855910">
        <ele>92.4</ele>
        <time>2018-12-15T16:09:39Z</time>
      </trkpt>
      <trkpt lat="41.5474900" lon="2.2855400">
        <ele>92.2</ele>
        <time>2018-12-15T16:09:43Z</time>
      </trkpt>
      <trkpt lat="41.5478380" lon="2.2854900">
        <ele>91.6</ele>
        <time>2018-12-15T16:09:47Z</time>
      </trkpt>
      <trkpt lat="41.5481710" lon="2.2855060">
        <ele>91.8</ele>
        <time>2018-12-15T16:09:51Z</time>
      </trkpt>
      <trkpt lat="41.5484650" lon="2.2854310">
        <ele>91.0</ele>
        <time>2018-12-15T16:09:55Z</time>
      </trkpt>
      <trkpt lat="41.5486910" lon="2.2851700">
        <ele>90.6</ele>
        <time>2018-12-15T16:09:59Z</time>
      </trkpt>
      <trkpt lat="41.5490030" lon="2.2851880">
        <ele>90.0</ele>
        <time>2018-12-15T16:10:03Z</time>
      </trkpt>
      <trkpt lat="41.5493260" lon="2.2852380">
        <ele>89.0</ele>
        <time>2018-12-15T16:10:07Z</time>
      </trkpt>
      <trkpt lat="41.5496450" lon="2.2852160">
        <ele>88.0</ele>
        <time>2018-12-15T16:10:11Z</time>
      </trkpt>
      <trkpt lat="41.5499810" lon="2.2851760">
        <ele>87.6</ele>
        <time>2018-12-15T16:10:15Z</time>
      </trkpt>
      <trkpt lat="41.5503210" lon="2.2851450">
        <ele>86.2</ele>
        <time>2018-12-15T16:10:19Z</time>
      </trkpt>
      <trkpt lat="41.5506630" lon="2.2851100">
        <ele>85.4</ele>
        <time>2018-12-15T16:10:23Z</time>
      </trkpt>
      <trkpt lat="41.5510130" lon="2.2850980">
        <ele>84.6</ele>
        <time>2018-12-15T16:10:27Z</time>
      </trkpt>
      <trkpt lat="41.5513530" lon="2.2851810">
        <ele>83.6</ele>
        <time>2018-12-15T16:10:31Z</time>
      </trkpt>
      <trkpt lat="41.5516350" lon="2.2850310">
        <ele>84.2</ele>
        <time>2018-12-15T16:10:35Z</time>
      </trkpt>
      <trkpt lat="41.5519260" lon="2.2849110">
        <ele>82.4</ele>
        <time>2018-12-15T16:10:39Z</time>
      </trkpt>
      <trkpt lat="41.5522610" lon="2.2848610">
        <ele>81.4</ele>
        <time>2018-12-15T16:10:43Z</time>
      </trkpt>
      <trkpt lat="41.5525980" lon="2.2848200">
        <ele>81.0</ele>
        <time>2018-12-15T16:10:47Z</time>
      </trkpt>
      <trkpt lat="41.5529360" lon="2.2847710">
        <ele>80.8</ele>
        <time>2018-12-15T16:10:51Z</time>
      </trkpt>
      <trkpt lat="41.5532780" lon="2.2847200">
        <ele>79.8</ele>
        <time>2018-12-15T16:10:55Z</time>
      </trkpt>
      <trkpt lat="41.5536210" lon="2.2846800">
        <ele>78.8</ele>
        <time>2018-12-15T16:10:59Z</time>
      </trkpt>
      <trkpt lat="41.5539600" lon="2.2846300">
        <ele>79.0</ele>
        <time>2018-12-15T16:11:03Z</time>
      </trkpt>
      <trkpt lat="41.5542830" lon="2.2845810">
        <ele>78.0</ele>
        <time>2018-12-15T16:11:07Z</time>
      </trkpt>
      <trkpt lat="41.5545550" lon="2.2846410">
        <ele>78.4</ele>
        <time>2018-12-15T16:11:11Z</time>
      </trkpt>
      <trkpt lat="41.5546610" lon="2.2844160">
        <ele>79.0</ele>
        <time>2018-12-15T16:11:15Z</time>
      </trkpt>
      <trkpt lat="41.5544500" lon="2.2843500">
        <ele>79.2</ele>
        <time>2018-12-15T16:11:19Z</time>
      </trkpt>
      <trkpt lat="41.5542080" lon="2.2844950">
        <ele>78.4</ele>
        <time>2018-12-15T16:11:23Z</time>
      </trkpt>
      <trkpt lat="41.5539160" lon="2.2845400">
        <ele>78.6</ele>
        <time>2018-12-15T16:11:27Z</time>
      </trkpt>
      <trkpt lat="41.5536250" lon="2.2845860">
        <ele>79.0</ele>
        <time>2018-12-15T16:11:31Z</time>
      </trkpt>
      <trkpt lat="41.5533310" lon="2.2846300">
        <ele>79.2</ele>
        <time>2018-12-15T16:11:35Z</time>
      </trkpt>
      <trkpt lat="41.5530400" lon="2.2846660">
        <ele>79.0</ele>
        <time>2018-12-15T16:11:39Z</time>
      </trkpt>
      <trkpt lat="41.5527650" lon="2.2846950">
        <ele>81.2</ele>
        <time>2018-12-15T16:11:43Z</time>
      </trkpt>
      <trkpt lat="41.5524900" lon="2.2847310">
        <ele>81.4</ele>
        <time>2018-12-15T16:11:47Z</time>
      </trkpt>
      <trkpt lat="41.5522180" lon="2.2847660">
        <ele>82.2</ele>
        <time>2018-12-15T16:11:51Z</time>
      </trkpt>
      <trkpt lat="41.5519510" lon="2.2848010">
        <ele>83.0</ele>
        <time>2018-12-15T16:11:55Z</time>
      </trkpt>
      <trkpt lat="41.5517130" lon="2.2848160">
        <ele>84.2</ele>
        <time>2018-12-15T16:11:59Z</time>
      </trkpt>
      <trkpt lat="41.5515050" lon="2.2847400">
        <ele>84.4</ele>
        <time>2018-12-15T16:12:03Z</time>
      </trkpt>
      <trkpt lat="41.5513660" lon="2.2844960">
        <ele>85.0</ele>
        <time>2018-12-15T16:12:07Z</time>
      </trkpt>
      <trkpt lat="41.5512580" lon="2.2842130">
        <ele>85.0</ele>
        <time>2018-12-15T16:12:11Z</time>
      </trkpt>
      <trkpt lat="41.5511500" lon="2.2839280">
        <ele>85.0</ele>
        <time>2018-12-15T16:12:15Z</time>
      </trkpt>
      <trkpt lat="41.5510400" lon="2.2836450">
        <ele>85.0</ele>
        <time>2018-12-15T16:12:19Z</time>
      </trkpt>
      <trkpt lat="41.5509310" lon="2.2833560">
        <ele>85.2</ele>
        <time>2018-12-15T16:12:23Z</time>
      </trkpt>
      <trkpt lat="41.5508250" lon="2.2830650">
        <ele>85.2</ele>
        <time>2018-12-15T16:12:27Z</time>
      </trkpt>
      <trkpt lat="41.5507630" lon="2.2827530">
        <ele>85.4</ele>
        <time>2018-12-15T16:12:31Z</time>
      </trkpt>
      <trkpt lat="41.5507380" lon="2.2824350">
        <ele>85.4</ele>
        <time>2018-12-15T16:12:35Z</time>
      </trkpt>
      <trkpt lat="41.5505500" lon="2.2822260">
        <ele>84.8</ele>
        <time>2018-12-15T16:12:39Z</time>
      </trkpt>
      <trkpt lat="41.5504160" lon="2.2819380">
        <ele>85.0</ele>
        <time>2018-12-15T16:12:43Z</time>
      </trkpt>
      <trkpt lat="41.5503130" lon="2.2816310">
        <ele>85.0</ele>
        <time>2018-12-15T16:12:47Z</time>
      </trkpt>
      <trkpt lat="41.5501930" lon="2.2813500">
        <ele>85.4</ele>
        <time>2018-12-15T16:12:51Z</time>
      </trkpt>
      <trkpt lat="41.5500560" lon="2.2810810">
        <ele>85.0</ele>
        <time>2018-12-15T16:12:55Z</time>
      </trkpt>
      <trkpt lat="41.5498880" lon="2.2808300">
        <ele>84.4</ele>
        <time>2018-12-15T16:12:59Z</time>
      </trkpt>
      <trkpt lat="41.5496750" lon="2.2805600">
        <ele>84.0</ele>
        <time>2018-12-15T16:13:03Z</time>
      </trkpt>
      <trkpt lat="41.5494610" lon="2.2802860">
        <ele>83.8</ele>
        <time>2018-12-15T16:13:07Z</time>
      </trkpt>
      <trkpt lat="41.5492550" lon="2.2800160">
        <ele>83.4</ele>
        <time>2018-12-15T16:13:11Z</time>
      </trkpt>
      <trkpt lat="41.5490450" lon="2.2797500">
        <ele>84.0</ele>
        <time>2018-12-15T16:13:15Z</time>
      </trkpt>
      <trkpt lat="41.5488350" lon="2.2794860">
        <ele>83.8</ele>
        <time>2018-12-15T16:13:19Z</time>
      </trkpt>
      <trkpt lat="41.5486110" lon="2.2792580">
        <ele>83.6</ele>
        <time>2018-12-15T16:13:23Z</time>
      </trkpt>
      <trkpt lat="41.5483650" lon="2.2790910">
        <ele>85.0</ele>
        <time>2018-12-15T16:13:27Z</time>
      </trkpt>
      <trkpt lat="41.5480980" lon="2.2790060">
        <ele>84.6</ele>
        <time>2018-12-15T16:13:31Z</time>
      </trkpt>
      <trkpt lat="41.5478230" lon="2.2789900">
        <ele>86.0</ele>
        <time>2018-12-15T16:13:35Z</time>
      </trkpt>
      <trkpt lat="41.5475400" lon="2.2789630">
        <ele>87.0</ele>
        <time>2018-12-15T16:13:39Z</time>
      </trkpt>
      <trkpt lat="41.5472610" lon="2.2788910">
        <ele>87.0</ele>
        <time>2018-12-15T16:13:43Z</time>
      </trkpt>
      <trkpt lat="41.5470050" lon="2.2787530">
        <ele>87.0</ele>
        <time>2018-12-15T16:13:47Z</time>
      </trkpt>
      <trkpt lat="41.5467810" lon="2.2785360">
        <ele>87.8</ele>
        <time>2018-12-15T16:13:51Z</time>
      </trkpt>
      <trkpt lat="41.5466050" lon="2.2782500">
        <ele>87.4</ele>
        <time>2018-12-15T16:13:55Z</time>
      </trkpt>
      <trkpt lat="41.5464880" lon="2.2779150">
        <ele>87.6</ele>
        <time>2018-12-15T16:13:59Z</time>
      </trkpt>
      <trkpt lat="41.5464210" lon="2.2775600">
        <ele>88.4</ele>
        <time>2018-12-15T16:14:03Z</time>
      </trkpt>
      <trkpt lat="41.5463910" lon="2.2771980">
        <ele>88.8</ele>
        <time>2018-12-15T16:14:07Z</time>
      </trkpt>
      <trkpt lat="41.5463710" lon="2.2768380">
        <ele>89.4</ele>
        <time>2018-12-15T16:14:11Z</time>
      </trkpt>
      <trkpt lat="41.5463630" lon="2.2764730">
        <ele>90.0</ele>
        <time>2018-12-15T16:14:15Z</time>
      </trkpt>
      <trkpt lat="41.5463530" lon="2.2761000">
        <ele>90.2</ele>
        <time>2018-12-15T16:14:19Z</time>
      </trkpt>
      <trkpt lat="41.5463510" lon="2.2757380">
        <ele>90.2</ele>
        <time>2018-12-15T16:14:23Z</time>
      </trkpt>
      <trkpt lat="41.5463530" lon="2.2753780">
        <ele>90.4</ele>
        <time>2018-12-15T16:14:27Z</time>
      </trkpt>
      <trkpt lat="41.5463450" lon="2.2750130">
        <ele>90.8</ele>
        <time>2018-12-15T16:14:31Z</time>
      </trkpt>
      <trkpt lat="41.5463380" lon="2.2746460">
        <ele>91.0</ele>
        <time>2018-12-15T16:14:35Z</time>
      </trkpt>
      <trkpt lat="41.5463200" lon="2.2742780">
        <ele>91.2</ele>
        <time>2018-12-15T16:14:39Z</time>
      </trkpt>
      <trkpt lat="41.5462600" lon="2.2739200">
        <ele>90.8</ele>
        <time>2018-12-15T16:14:43Z</time>
      </trkpt>
      <trkpt lat="41.5461750" lon="2.2735650">
        <ele>91.0</ele>
        <time>2018-12-15T16:14:47Z</time>
      </trkpt>
      <trkpt lat="41.5460880" lon="2.2732130">
        <ele>91.0</ele>
        <time>2018-12-15T16:14:51Z</time>
      </trkpt>
      <trkpt lat="41.5460100" lon="2.2728710">
        <ele>91.6</ele>
        <time>2018-12-15T16:14:55Z</time>
      </trkpt>
      <trkpt lat="41.5459280" lon="2.2725400">
        <ele>92.4</ele>
        <time>2018-12-15T16:14:59Z</time>
      </trkpt>
      <trkpt lat="41.5458130" lon="2.2722310">
        <ele>92.4</ele>
        <time>2018-12-15T16:15:03Z</time>
      </trkpt>
      <trkpt lat="41.5456350" lon="2.2719460">
        <ele>91.6</ele>
        <time>2018-12-15T16:15:07Z</time>
      </trkpt>
      <trkpt lat="41.5454280" lon="2.2716430">
        <ele>90.4</ele>
        <time>2018-12-15T16:15:11Z</time>
      </trkpt>
      <trkpt lat="41.5452330" lon="2.2712950">
        <ele>88.4</ele>
        <time>2018-12-15T16:15:15Z</time>
      </trkpt>
      <trkpt lat="41.5451600" lon="2.2708510">
        <ele>87.2</ele>
        <time>2018-12-15T16:15:19Z</time>
      </trkpt>
      <trkpt lat="41.5451810" lon="2.2704010">
        <ele>87.0</ele>
        <time>2018-12-15T16:15:23Z</time>
      </trkpt>
      <trkpt lat="41.5452180" lon="2.2699660">
        <ele>86.4</ele>
        <time>2018-12-15T16:15:27Z</time>
      </trkpt>
      <trkpt lat="41.5452430" lon="2.2695250">
        <ele>84.6</ele>
        <time>2018-12-15T16:15:31Z</time>
      </trkpt>
      <trkpt lat="41.5452350" lon="2.2690800">
        <ele>83.6</ele>
        <time>2018-12-15T16:15:35Z</time>
      </trkpt>
      <trkpt lat="41.5452050" lon="2.2686200">
        <ele>82.4</ele>
        <time>2018-12-15T16:15:39Z</time>
      </trkpt>
      <trkpt lat="41.5451500" lon="2.2682480">
        <ele>81.6</ele>
        <time>2018-12-15T16:15:43Z</time>
      </trkpt>
      <trkpt lat="41.5450530" lon="2.2679530">
        <ele>80.6</ele>
        <time>2018-12-15T16:15:47Z</time>
      </trkpt>
      <trkpt lat="41.5449630" lon="2.2676950">
        <ele>78.8</ele>
        <time>2018-12-15T16:15:51Z</time>
      </trkpt>
      <trkpt lat="41.5449010" lon="2.2675110">
        <ele>79.0</ele>
        <time>2018-12-15T16:15:55Z</time>
      </trkpt>
      <trkpt lat="41.5449010" lon="2.2675110">
        <ele>79.0</ele>
        <time>2018-12-15T16:15:59Z</time>
      </trkpt>
      <trkpt lat="41.5448980" lon="2.2674780">
        <ele>78.8</ele>
        <time>2018-12-15T16:16:03Z</time>
      </trkpt>
      <trkpt lat="41.5448510" lon="2.2673480">
        <ele>77.0</ele>
        <time>2018-12-15T16:16:07Z</time>
      </trkpt>
      <trkpt lat="41.5447460" lon="2.2670460">
        <ele>73.8</ele>
        <time>2018-12-15T16:16:11Z</time>
      </trkpt>
      <trkpt lat="41.5446010" lon="2.2665980">
        <ele>73.6</ele>
        <time>2018-12-15T16:16:15Z</time>
      </trkpt>
      <trkpt lat="41.5443830" lon="2.2661100">
        <ele>73.6</ele>
        <time>2018-12-15T16:16:19Z</time>
      </trkpt>
      <trkpt lat="41.5441430" lon="2.2657530">
        <ele>76.8</ele>
        <time>2018-12-15T16:16:23Z</time>
      </trkpt>
      <trkpt lat="41.5439010" lon="2.2654980">
        <ele>78.2</ele>
        <time>2018-12-15T16:16:27Z</time>
      </trkpt>
      <trkpt lat="41.5438210" lon="2.2653580">
        <ele>79.0</ele>
        <time>2018-12-15T16:16:31Z</time>
      </trkpt>
      <trkpt lat="41.5438210" lon="2.2653580">
        <ele>79.0</ele>
        <time>2018-12-15T16:16:35Z</time>
      </trkpt>
      <trkpt lat="41.5438210" lon="2.2653580">
        <ele>79.0</ele>
        <time>2018-12-15T16:16:39Z</time>
      </trkpt>
      <trkpt lat="41.5438210" lon="2.2653580">
        <ele>79.0</ele>
        <time>2018-12-15T16:16:43Z</time>
      </trkpt>
      <trkpt lat="41.5437310" lon="2.2653280">
        <ele>79.4</ele>
        <time>2018-12-15T16:16:47Z</time>
      </trkpt>
      <trkpt lat="41.5436810" lon="2.2652550">
        <ele>79.2</ele>
        <time>2018-12-15T16:16:51Z</time>
      </trkpt>
      <trkpt lat="41.5435760" lon="2.2650730">
        <ele>79.6</ele>
        <time>2018-12-15T16:16:55Z</time>
      </trkpt>
      <trkpt lat="41.5434760" lon="2.2649060">
        <ele>81.0</ele>
        <time>2018-12-15T16:16:59Z</time>
      </trkpt>
      <trkpt lat="41.5432030" lon="2.2646250">
        <ele>81.4</ele>
        <time>2018-12-15T16:17:03Z</time>
      </trkpt>
      <trkpt lat="41.5429510" lon="2.2643310">
        <ele>83.0</ele>
        <time>2018-12-15T16:17:07Z</time>
      </trkpt>
      <trkpt lat="41.5427200" lon="2.2640150">
        <ele>84.2</ele>
        <time>2018-12-15T16:17:11Z</time>
      </trkpt>
      <trkpt lat="41.5425250" lon="2.2637510">
        <ele>84.2</ele>
        <time>2018-12-15T16:17:15Z</time>
      </trkpt>
      <trkpt lat="41.5423230" lon="2.2635180">
        <ele>85.0</ele>
        <time>2018-12-15T16:17:19Z</time>
      </trkpt>
      <trkpt lat="41.5421810" lon="2.2632610">
        <ele>85.0</ele>
        <time>2018-12-15T16:17:23Z</time>
      </trkpt>
      <trkpt lat="41.5421280" lon="2.2629300">
        <ele>85.6</ele>
        <time>2018-12-15T16:17:27Z</time>
      </trkpt>
      <trkpt lat="41.5421630" lon="2.2625950">
        <ele>85.6</ele>
        <time>2018-12-15T16:17:31Z</time>
      </trkpt>
      <trkpt lat="41.5422700" lon="2.2622980">
        <ele>86.0</ele>
        <time>2018-12-15T16:17:35Z</time>
      </trkpt>
      <trkpt lat="41.5424180" lon="2.2620200">
        <ele>86.4</ele>
        <time>2018-12-15T16:17:39Z</time>
      </trkpt>
      <trkpt lat="41.5425680" lon="2.2617530">
        <ele>86.6</ele>
        <time>2018-12-15T16:17:43Z</time>
      </trkpt>
      <trkpt lat="41.5427110" lon="2.2614760">
        <ele>87.4</ele>
        <time>2018-12-15T16:17:47Z</time>
      </trkpt>
      <trkpt lat="41.5428510" lon="2.2612010">
        <ele>87.2</ele>
        <time>2018-12-15T16:17:51Z</time>
      </trkpt>
      <trkpt lat="41.5429960" lon="2.2609280">
        <ele>88.2</ele>
        <time>2018-12-15T16:17:55Z</time>
      </trkpt>
      <trkpt lat="41.5431530" lon="2.2606330">
        <ele>87.6</ele>
        <time>2018-12-15T16:17:59Z</time>
      </trkpt>
      <trkpt lat="41.5433210" lon="2.2603130">
        <ele>86.4</ele>
        <time>2018-12-15T16:18:03Z</time>
      </trkpt>
      <trkpt lat="41.5434860" lon="2.2599510">
        <ele>84.4</ele>
        <time>2018-12-15T16:18:07Z</time>
      </trkpt>
      <trkpt lat="41.5437610" lon="2.2597230">
        <ele>83.0</ele>
        <time>2018-12-15T16:18:11Z</time>
      </trkpt>
      <trkpt lat="41.5440150" lon="2.2595000">
        <ele>81.8</ele>
        <time>2018-12-15T16:18:15Z</time>
      </trkpt>
      <trkpt lat="41.5439500" lon="2.2590860">
        <ele>81.6</ele>
        <time>2018-12-15T16:18:19Z</time>
      </trkpt>
      <trkpt lat="41.5440330" lon="2.2586400">
        <ele>79.4</ele>
        <time>2018-12-15T16:18:23Z</time>
      </trkpt>
      <trkpt lat="41.5442260" lon="2.2582030">
        <ele>77.6</ele>
        <time>2018-12-15T16:18:27Z</time>
      </trkpt>
      <trkpt lat="41.5444000" lon="2.2577710">
        <ele>77.4</ele>
        <time>2018-12-15T16:18:31Z</time>
      </trkpt>
      <trkpt lat="41.5445550" lon="2.2574000">
        <ele>77.6</ele>
        <time>2018-12-15T16:18:35Z</time>
      </trkpt>
      <trkpt lat="41.5446650" lon="2.2569700">
        <ele>77.6</ele>
        <time>2018-12-15T16:18:39Z</time>
      </trkpt>
      <trkpt lat="41.5447650" lon="2.2565560">
        <ele>77.6</ele>
        <time>2018-12-15T16:18:43Z</time>
      </trkpt>
      <trkpt lat="41.5448510" lon="2.2561830">
        <ele>77.6</ele>
        <time>2018-12-15T16:18:47Z</time>
      </trkpt>
      <trkpt lat="41.5449360" lon="2.2558060">
        <ele>77.6</ele>
        <time>2018-12-15T16:18:51Z</time>
      </trkpt>
      <trkpt lat="41.5450360" lon="2.2554030">
        <ele>77.2</ele>
        <time>2018-12-15T16:18:55Z</time>
      </trkpt>
      <trkpt lat="41.5451710" lon="2.2549960">
        <ele>77.0</ele>
        <time>2018-12-15T16:18:59Z</time>
      </trkpt>
      <trkpt lat="41.5453830" lon="2.2546880">
        <ele>77.6</ele>
        <time>2018-12-15T16:19:03Z</time>
      </trkpt>
      <trkpt lat="41.5456060" lon="2.2543660">
        <ele>77.6</ele>
        <time>2018-12-15T16:19:07Z</time>
      </trkpt>
      <trkpt lat="41.5457930" lon="2.2539900">
        <ele>77.0</ele>
        <time>2018-12-15T16:19:11Z</time>
      </trkpt>
      <trkpt lat="41.5458250" lon="2.2535410">
        <ele>75.8</ele>
        <time>2018-12-15T16:19:15Z</time>
      </trkpt>
      <trkpt lat="41.5457480" lon="2.2531010">
        <ele>75.8</ele>
        <time>2018-12-15T16:19:19Z</time>
      </trkpt>
      <trkpt lat="41.5456930" lon="2.2526680">
        <ele>75.2</ele>
        <time>2018-12-15T16:19:23Z</time>
      </trkpt>
      <trkpt lat="41.5456800" lon="2.2522000">
        <ele>75.0</ele>
        <time>2018-12-15T16:19:27Z</time>
      </trkpt>
      <trkpt lat="41.5457710" lon="2.2517410">
        <ele>74.8</ele>
        <time>2018-12-15T16:19:31Z</time>
      </trkpt>
      <trkpt lat="41.5458650" lon="2.2512910">
        <ele>75.2</ele>
        <time>2018-12-15T16:19:35Z</time>
      </trkpt>
      <trkpt lat="41.5459580" lon="2.2508330">
        <ele>74.2</ele>
        <time>2018-12-15T16:19:39Z</time>
      </trkpt>
      <trkpt lat="41.5460200" lon="2.2503580">
        <ele>73.4</ele>
        <time>2018-12-15T16:19:43Z</time>
      </trkpt>
      <trkpt lat="41.5460460" lon="2.2498800">
        <ele>72.0</ele>
        <time>2018-12-15T16:19:47Z</time>
      </trkpt>
      <trkpt lat="41.5460130" lon="2.2494030">
        <ele>71.4</ele>
        <time>2018-12-15T16:19:51Z</time>
      </trkpt>
      <trkpt lat="41.5459010" lon="2.2489360">
        <ele>70.0</ele>
        <time>2018-12-15T16:19:55Z</time>
      </trkpt>
      <trkpt lat="41.5457160" lon="2.2485180">
        <ele>69.2</ele>
        <time>2018-12-15T16:19:59Z</time>
      </trkpt>
      <trkpt lat="41.5454460" lon="2.2482160">
        <ele>68.0</ele>
        <time>2018-12-15T16:20:03Z</time>
      </trkpt>
      <trkpt lat="41.5451660" lon="2.2479480">
        <ele>67.2</ele>
        <time>2018-12-15T16:20:07Z</time>
      </trkpt>
      <trkpt lat="41.5448400" lon="2.2477460">
        <ele>66.2</ele>
        <time>2018-12-15T16:20:11Z</time>
      </trkpt>
      <trkpt lat="41.5444880" lon="2.2475810">
        <ele>64.6</ele>
        <time>2018-12-15T16:20:15Z</time>
      </trkpt>
      <trkpt lat="41.5441310" lon="2.2474130">
        <ele>64.0</ele>
        <time>2018-12-15T16:20:19Z</time>
      </trkpt>
      <trkpt lat="41.5438080" lon="2.2471500">
        <ele>62.8</ele>
        <time>2018-12-15T16:20:23Z</time>
      </trkpt>
      <trkpt lat="41.5435580" lon="2.2467980">
        <ele>61.8</ele>
        <time>2018-12-15T16:20:27Z</time>
      </trkpt>
      <trkpt lat="41.5433300" lon="2.2464600">
        <ele>62.6</ele>
        <time>2018-12-15T16:20:31Z</time>
      </trkpt>
      <trkpt lat="41.5430730" lon="2.2461880">
        <ele>62.4</ele>
        <time>2018-12-15T16:20:35Z</time>
      </trkpt>
      <trkpt lat="41.5427860" lon="2.2459750">
        <ele>62.2</ele>
        <time>2018-12-15T16:20:39Z</time>
      </trkpt>
      <trkpt lat="41.5424960" lon="2.2457880">
        <ele>61.0</ele>
        <time>2018-12-15T16:20:43Z</time>
      </trkpt>
      <trkpt lat="41.5422200" lon="2.2455780">
        <ele>63.0</ele>
        <time>2018-12-15T16:20:47Z</time>
      </trkpt>
      <trkpt lat="41.5419260" lon="2.2454080">
        <ele>62.8</ele>
        <time>2018-12-15T16:20:51Z</time>
      </trkpt>
      <trkpt lat="41.5416510" lon="2.2452250">
        <ele>62.8</ele>
        <time>2018-12-15T16:20:55Z</time>
      </trkpt>
      <trkpt lat="41.5413700" lon="2.2451030">
        <ele>63.2</ele>
        <time>2018-12-15T16:20:59Z</time>
      </trkpt>
      <trkpt lat="41.5410930" lon="2.2449550">
        <ele>62.6</ele>
        <time>2018-12-15T16:21:03Z</time>
      </trkpt>
      <trkpt lat="41.5408350" lon="2.2447900">
        <ele>62.4</ele>
        <time>2018-12-15T16:21:07Z</time>
      </trkpt>
      <trkpt lat="41.5405350" lon="2.2448210">
        <ele>61.6</ele>
        <time>2018-12-15T16:21:11Z</time>
      </trkpt>
      <trkpt lat="41.5402560" lon="2.2446700">
        <ele>63.6</ele>
        <time>2018-12-15T16:21:15Z</time>
      </trkpt>
      <trkpt lat="41.5399910" lon="2.2444830">
        <ele>63.4</ele>
        <time>2018-12-15T16:21:19Z</time>
      </trkpt>
      <trkpt lat="41.5397180" lon="2.2443530">
        <ele>63.6</ele>
        <time>2018-12-15T16:21:23Z</time>
      </trkpt>
      <trkpt lat="41.5394530" lon="2.2441930">
        <ele>64.0</ele>
        <time>2018-12-15T16:21:27Z</time>
      </trkpt>
      <trkpt lat="41.5391910" lon="2.2439950">
        <ele>63.4</ele>
        <time>2018-12-15T16:21:31Z</time>
      </trkpt>
      <trkpt lat="41.5389300" lon="2.2437780">
        <ele>62.0</ele>
        <time>2018-12-15T16:21:35Z</time>
      </trkpt>
      <trkpt lat="41.5387180" lon="2.2434760">
        <ele>61.8</ele>
        <time>2018-12-15T16:21:39Z</time>
      </trkpt>
      <trkpt lat="41.5385460" lon="2.2431650">
        <ele>61.4</ele>
        <time>2018-12-15T16:21:43Z</time>
      </trkpt>
      <trkpt lat="41.5383650" lon="2.2428660">
        <ele>61.2</ele>
        <time>2018-12-15T16:21:47Z</time>
      </trkpt>
      <trkpt lat="41.5381530" lon="2.2425850">
        <ele>61.4</ele>
        <time>2018-12-15T16:21:51Z</time>
      </trkpt>
      <trkpt lat="41.5379280" lon="2.2423060">
        <ele>61.0</ele>
        <time>2018-12-15T16:21:55Z</time>
      </trkpt>
      <trkpt lat="41.5377050" lon="2.2420360">
        <ele>61.4</ele>
        <time>2018-12-15T16:21:59Z</time>
      </trkpt>
      <trkpt lat="41.5375130" lon="2.2417660">
        <ele>63.2</ele>
        <time>2018-12-15T16:22:03Z</time>
      </trkpt>
      <trkpt lat="41.5373430" lon="2.2414850">
        <ele>64.2</ele>
        <time>2018-12-15T16:22:07Z</time>
      </trkpt>
      <trkpt lat="41.5371800" lon="2.2412110">
        <ele>65.6</ele>
        <time>2018-12-15T16:22:11Z</time>
      </trkpt>
      <trkpt lat="41.5369810" lon="2.2409800">
        <ele>66.0</ele>
        <time>2018-12-15T16:22:15Z</time>
      </trkpt>
      <trkpt lat="41.5367700" lon="2.2407410">
        <ele>65.8</ele>
        <time>2018-12-15T16:22:19Z</time>
      </trkpt>
      <trkpt lat="41.5365360" lon="2.2405250">
        <ele>65.0</ele>
        <time>2018-12-15T16:22:23Z</time>
      </trkpt>
      <trkpt lat="41.5362500" lon="2.2403730">
        <ele>63.0</ele>
        <time>2018-12-15T16:22:27Z</time>
      </trkpt>
      <trkpt lat="41.5359350" lon="2.2402510">
        <ele>62.2</ele>
        <time>2018-12-15T16:22:31Z</time>
      </trkpt>
      <trkpt lat="41.5356700" lon="2.2400060">
        <ele>60.6</ele>
        <time>2018-12-15T16:22:35Z</time>
      </trkpt>
      <trkpt lat="41.5354100" lon="2.2397280">
        <ele>59.0</ele>
        <time>2018-12-15T16:22:39Z</time>
      </trkpt>
      <trkpt lat="41.5351150" lon="2.2395100">
        <ele>58.4</ele>
        <time>2018-12-15T16:22:43Z</time>
      </trkpt>
      <trkpt lat="41.5348060" lon="2.2393310">
        <ele>58.8</ele>
        <time>2018-12-15T16:22:47Z</time>
      </trkpt>
      <trkpt lat="41.5345330" lon="2.2391380">
        <ele>58.0</ele>
        <time>2018-12-15T16:22:51Z</time>
      </trkpt>
      <trkpt lat="41.5343230" lon="2.2388180">
        <ele>58.4</ele>
        <time>2018-12-15T16:22:55Z</time>
      </trkpt>
      <trkpt lat="41.5341530" lon="2.2384710">
        <ele>58.0</ele>
        <time>2018-12-15T16:22:59Z</time>
      </trkpt>
      <trkpt lat="41.5340360" lon="2.2381410">
        <ele>56.4</ele>
        <time>2018-12-15T16:23:03Z</time>
      </trkpt>
      <trkpt lat="41.5338780" lon="2.2377780">
        <ele>55.4</ele>
        <time>2018-12-15T16:23:07Z</time>
      </trkpt>
      <trkpt lat="41.5336960" lon="2.2373910">
        <ele>54.0</ele>
        <time>2018-12-15T16:23:11Z</time>
      </trkpt>
      <trkpt lat="41.5334530" lon="2.2369380">
        <ele>53.6</ele>
        <time>2018-12-15T16:23:15Z</time>
      </trkpt>
      <trkpt lat="41.5332630" lon="2.2365130">
        <ele>53.8</ele>
        <time>2018-12-15T16:23:19Z</time>
      </trkpt>
      <trkpt lat="41.5331750" lon="2.2360450">
        <ele>52.2</ele>
        <time>2018-12-15T16:23:23Z</time>
      </trkpt>
      <trkpt lat="41.5331030" lon="2.2355810">
        <ele>51.0</ele>
        <time>2018-12-15T16:23:27Z</time>
      </trkpt>
      <trkpt lat="41.5328110" lon="2.2354180">
        <ele>51.4</ele>
        <time>2018-12-15T16:23:31Z</time>
      </trkpt>
      <trkpt lat="41.5325650" lon="2.2352730">
        <ele>53.0</ele>
        <time>2018-12-15T16:23:35Z</time>
      </trkpt>
      <trkpt lat="41.5323900" lon="2.2350830">
        <ele>55.2</ele>
        <time>2018-12-15T16:23:39Z</time>
      </trkpt>
      <trkpt lat="41.5322260" lon="2.2349410">
        <ele>57.0</ele>
        <time>2018-12-15T16:23:43Z</time>
      </trkpt>
      <trkpt lat="41.5320700" lon="2.2348210">
        <ele>57.8</ele>
        <time>2018-12-15T16:23:47Z</time>
      </trkpt>
      <trkpt lat="41.5319280" lon="2.2346810">
        <ele>59.8</ele>
        <time>2018-12-15T16:23:51Z</time>
      </trkpt>
      <trkpt lat="41.5318130" lon="2.2344910">
        <ele>60.2</ele>
        <time>2018-12-15T16:23:55Z</time>
      </trkpt>
      <trkpt lat="41.5317050" lon="2.2342860">
        <ele>61.4</ele>
        <time>2018-12-15T16:23:59Z</time>
      </trkpt>
      <trkpt lat="41.5316060" lon="2.2340200">
        <ele>61.4</ele>
        <time>2018-12-15T16:24:03Z</time>
      </trkpt>
      <trkpt lat="41.5315100" lon="2.2337250">
        <ele>60.8</ele>
        <time>2018-12-15T16:24:07Z</time>
      </trkpt>
      <trkpt lat="41.5314210" lon="2.2333750">
        <ele>60.0</ele>
        <time>2018-12-15T16:24:11Z</time>
      </trkpt>
      <trkpt lat="41.5313660" lon="2.2330000">
        <ele>59.4</ele>
        <time>2018-12-15T16:24:15Z</time>
      </trkpt>
      <trkpt lat="41.5312260" lon="2.2326610">
        <ele>58.8</ele>
        <time>2018-12-15T16:24:19Z</time>
      </trkpt>
      <trkpt lat="41.5310150" lon="2.2323830">
        <ele>58.4</ele>
        <time>2018-12-15T16:24:23Z</time>
      </trkpt>
      <trkpt lat="41.5307910" lon="2.2321410">
        <ele>57.6</ele>
        <time>2018-12-15T16:24:27Z</time>
      </trkpt>
      <trkpt lat="41.5306100" lon="2.2318360">
        <ele>57.6</ele>
        <time>2018-12-15T16:24:31Z</time>
      </trkpt>
      <trkpt lat="41.5305010" lon="2.2314680">
        <ele>57.6</ele>
        <time>2018-12-15T16:24:35Z</time>
      </trkpt>
      <trkpt lat="41.5303580" lon="2.2310600">
        <ele>57.2</ele>
        <time>2018-12-15T16:24:39Z</time>
      </trkpt>
      <trkpt lat="41.5301950" lon="2.2307300">
        <ele>57.0</ele>
        <time>2018-12-15T16:24:43Z</time>
      </trkpt>
      <trkpt lat="41.5299860" lon="2.2304210">
        <ele>56.0</ele>
        <time>2018-12-15T16:24:47Z</time>
      </trkpt>
      <trkpt lat="41.5297750" lon="2.2301230">
        <ele>55.4</ele>
        <time>2018-12-15T16:24:51Z</time>
      </trkpt>
      <trkpt lat="41.5294980" lon="2.2298960">
        <ele>55.4</ele>
        <time>2018-12-15T16:24:55Z</time>
      </trkpt>
      <trkpt lat="41.5292230" lon="2.2297080">
        <ele>54.4</ele>
        <time>2018-12-15T16:24:59Z</time>
      </trkpt>
      <trkpt lat="41.5289480" lon="2.2295200">
        <ele>54.6</ele>
        <time>2018-12-15T16:25:03Z</time>
      </trkpt>
      <trkpt lat="41.5286900" lon="2.2293210">
        <ele>53.4</ele>
        <time>2018-12-15T16:25:07Z</time>
      </trkpt>
      <trkpt lat="41.5285110" lon="2.2289900">
        <ele>52.8</ele>
        <time>2018-12-15T16:25:11Z</time>
      </trkpt>
      <trkpt lat="41.5284460" lon="2.2285680">
        <ele>51.2</ele>
        <time>2018-12-15T16:25:15Z</time>
      </trkpt>
      <trkpt lat="41.5283910" lon="2.2281600">
        <ele>50.8</ele>
        <time>2018-12-15T16:25:19Z</time>
      </trkpt>
      <trkpt lat="41.5282110" lon="2.2278900">
        <ele>50.6</ele>
        <time>2018-12-15T16:25:23Z</time>
      </trkpt>
      <trkpt lat="41.5280700" lon="2.2277150">
        <ele>50.6</ele>
        <time>2018-12-15T16:25:27Z</time>
      </trkpt>
      <trkpt lat="41.5280050" lon="2.2276160">
        <ele>51.0</ele>
        <time>2018-12-15T16:25:31Z</time>
      </trkpt>
      <trkpt lat="41.5278910" lon="2.2274860">
        <ele>50.6</ele>
        <time>2018-12-15T16:25:35Z</time>
      </trkpt>
      <trkpt lat="41.5277430" lon="2.2273080">
        <ele>50.6</ele>
        <time>2018-12-15T16:25:39Z</time>
      </trkpt>
      <trkpt lat="41.5275450" lon="2.2270830">
        <ele>50.2</ele>
        <time>2018-12-15T16:25:43Z</time>
      </trkpt>
      <trkpt lat="41.5273230" lon="2.2268160">
        <ele>50.4</ele>
        <time>2018-12-15T16:25:47Z</time>
      </trkpt>
      <trkpt lat="41.5270900" lon="2.2265330">
        <ele>50.8</ele>
        <time>2018-12-15T16:25:51Z</time>
      </trkpt>
      <trkpt lat="41.5267900" lon="2.2263110">
        <ele>50.8</ele>
        <time>2018-12-15T16:25:55Z</time>
      </trkpt>
      <trkpt lat="41.5264660" lon="2.2262160">
        <ele>50.8</ele>
        <time>2018-12-15T16:25:59Z</time>
      </trkpt>
      <trkpt lat="41.5261650" lon="2.2261230">
        <ele>51.4</ele>
        <time>2018-12-15T16:26:03Z</time>
      </trkpt>
      <trkpt lat="41.5258730" lon="2.2260460">
        <ele>52.4</ele>
        <time>2018-12-15T16:26:07Z</time>
      </trkpt>
      <trkpt lat="41.5255950" lon="2.2259860">
        <ele>52.0</ele>
        <time>2018-12-15T16:26:11Z</time>
      </trkpt>
      <trkpt lat="41.5253310" lon="2.2259130">
        <ele>51.8</ele>
        <time>2018-12-15T16:26:15Z</time>
      </trkpt>
      <trkpt lat="41.5250560" lon="2.2258510">
        <ele>50.8</ele>
        <time>2018-12-15T16:26:19Z</time>
      </trkpt>
      <trkpt lat="41.5247760" lon="2.2257810">
        <ele>49.6</ele>
        <time>2018-12-15T16:26:23Z</time>
      </trkpt>
      <trkpt lat="41.5244730" lon="2.2257010">
        <ele>48.4</ele>
        <time>2018-12-15T16:26:27Z</time>
      </trkpt>
      <trkpt lat="41.5241700" lon="2.2256110">
        <ele>47.4</ele>
        <time>2018-12-15T16:26:31Z</time>
      </trkpt>
      <trkpt lat="41.5238750" lon="2.2255260">
        <ele>47.2</ele>
        <time>2018-12-15T16:26:35Z</time>
      </trkpt>
      <trkpt lat="41.5235980" lon="2.2253730">
        <ele>45.6</ele>
        <time>2018-12-15T16:26:39Z</time>
      </trkpt>
      <trkpt lat="41.5233010" lon="2.2253500">
        <ele>45.6</ele>
        <time>2018-12-15T16:26:43Z</time>
      </trkpt>
      <trkpt lat="41.5229950" lon="2.2252730">
        <ele>45.4</ele>
        <time>2018-12-15T16:26:47Z</time>
      </trkpt>
      <trkpt lat="41.5227200" lon="2.2250810">
        <ele>45.4</ele>
        <time>2018-12-15T16:26:51Z</time>
      </trkpt>
      <trkpt lat="41.5225410" lon="2.2247810">
        <ele>45.2</ele>
        <time>2018-12-15T16:26:55Z</time>
      </trkpt>
      <trkpt lat="41.5224000" lon="2.2244480">
        <ele>45.8</ele>
        <time>2018-12-15T16:26:59Z</time>
      </trkpt>
      <trkpt lat="41.5222650" lon="2.2241560">
        <ele>46.0</ele>
        <time>2018-12-15T16:27:03Z</time>
      </trkpt>
      <trkpt lat="41.5220610" lon="2.2238750">
        <ele>45.6</ele>
        <time>2018-12-15T16:27:07Z</time>
      </trkpt>
      <trkpt lat="41.5218430" lon="2.2236030">
        <ele>46.0</ele>
        <time>2018-12-15T16:27:11Z</time>
      </trkpt>
      <trkpt lat="41.5216700" lon="2.2232860">
        <ele>45.8</ele>
        <time>2018-12-15T16:27:15Z</time>
      </trkpt>
      <trkpt lat="41.5214300" lon="2.2230730">
        <ele>46.4</ele>
        <time>2018-12-15T16:27:19Z</time>
      </trkpt>
      <trkpt lat="41.5212050" lon="2.2228880">
        <ele>47.2</ele>
        <time>2018-12-15T16:27:23Z</time>
      </trkpt>
      <trkpt lat="41.5210000" lon="2.2226710">
        <ele>47.6</ele>
        <time>2018-12-15T16:27:27Z</time>
      </trkpt>
      <trkpt lat="41.5208030" lon="2.2224530">
        <ele>48.2</ele>
        <time>2018-12-15T16:27:31Z</time>
      </trkpt>
      <trkpt lat="41.5206430" lon="2.2221960">
        <ele>49.6</ele>
        <time>2018-12-15T16:27:35Z</time>
      </trkpt>
      <trkpt lat="41.5204800" lon="2.2219230">
        <ele>50.0</ele>
        <time>2018-12-15T16:27:39Z</time>
      </trkpt>
      <trkpt lat="41.5203500" lon="2.2216380">
        <ele>50.8</ele>
        <time>2018-12-15T16:27:43Z</time>
      </trkpt>
      <trkpt lat="41.5202250" lon="2.2213530">
        <ele>51.4</ele>
        <time>2018-12-15T16:27:47Z</time>
      </trkpt>
      <trkpt lat="41.5201230" lon="2.2210350">
        <ele>51.4</ele>
        <time>2018-12-15T16:27:51Z</time>
      </trkpt>
      <trkpt lat="41.5200260" lon="2.2206980">
        <ele>51.4</ele>
        <time>2018-12-15T16:27:55Z</time>
      </trkpt>
      <trkpt lat="41.5199110" lon="2.2203650">
        <ele>50.4</ele>
        <time>2018-12-15T16:27:59Z</time>
      </trkpt>
      <trkpt lat="41.5197380" lon="2.2200650">
        <ele>50.0</ele>
        <time>2018-12-15T16:28:03Z</time>
      </trkpt>
      <trkpt lat="41.5195230" lon="2.2197980">
        <ele>49.2</ele>
        <time>2018-12-15T16:28:07Z</time>
      </trkpt>
      <trkpt lat="41.5192900" lon="2.2195380">
        <ele>48.2</ele>
        <time>2018-12-15T16:28:11Z</time>
      </trkpt>
      <trkpt lat="41.5190480" lon="2.2192700">
        <ele>47.6</ele>
        <time>2018-12-15T16:28:15Z</time>
      </trkpt>
      <trkpt lat="41.5188460" lon="2.2189650">
        <ele>48.0</ele>
        <time>2018-12-15T16:28:19Z</time>
      </trkpt>
      <trkpt lat="41.5186750" lon="2.2186360">
        <ele>47.8</ele>
        <time>2018-12-15T16:28:23Z</time>
      </trkpt>
      <trkpt lat="41.5184610" lon="2.2183480">
        <ele>47.2</ele>
        <time>2018-12-15T16:28:27Z</time>
      </trkpt>
      <trkpt lat="41.5182000" lon="2.2181200">
        <ele>46.8</ele>
        <time>2018-12-15T16:28:31Z</time>
      </trkpt>
      <trkpt lat="41.5179130" lon="2.2179780">
        <ele>46.6</ele>
        <time>2018-12-15T16:28:35Z</time>
      </trkpt>
      <trkpt lat="41.5176210" lon="2.2179460">
        <ele>47.2</ele>
        <time>2018-12-15T16:28:39Z</time>
      </trkpt>
      <trkpt lat="41.5173350" lon="2.2178780">
        <ele>47.2</ele>
        <time>2018-12-15T16:28:43Z</time>
      </trkpt>
      <trkpt lat="41.5170630" lon="2.2177230">
        <ele>47.6</ele>
        <time>2018-12-15T16:28:47Z</time>
      </trkpt>
      <trkpt lat="41.5167860" lon="2.2175650">
        <ele>47.4</ele>
        <time>2018-12-15T16:28:51Z</time>
      </trkpt>
      <trkpt lat="41.5165060" lon="2.2174000">
        <ele>47.8</ele>
        <time>2018-12-15T16:28:55Z</time>
      </trkpt>
      <trkpt lat="41.5162230" lon="2.2172310">
        <ele>47.2</ele>
        <time>2018-12-15T16:28:59Z</time>
      </trkpt>
      <trkpt lat="41.5159610" lon="2.2169980">
        <ele>45.4</ele>
        <time>2018-12-15T16:29:03Z</time>
      </trkpt>
      <trkpt lat="41.5157780" lon="2.2166530">
        <ele>45.0</ele>
        <time>2018-12-15T16:29:07Z</time>
      </trkpt>
      <trkpt lat="41.5156100" lon="2.2162700">
        <ele>44.2</ele>
        <time>2018-12-15T16:29:11Z</time>
      </trkpt>
      <trkpt lat="41.5154330" lon="2.2158880">
        <ele>43.8</ele>
        <time>2018-12-15T16:29:15Z</time>
      </trkpt>
      <trkpt lat="41.5152530" lon="2.2155180">
        <ele>43.8</ele>
        <time>2018-12-15T16:29:19Z</time>
      </trkpt>
      <trkpt lat="41.5150710" lon="2.2151410">
        <ele>42.8</ele>
        <time>2018-12-15T16:29:23Z</time>
      </trkpt>
      <trkpt lat="41.5148930" lon="2.2147750">
        <ele>42.8</ele>
        <time>2018-12-15T16:29:27Z</time>
      </trkpt>
      <trkpt lat="41.5147380" lon="2.2144100">
        <ele>43.6</ele>
        <time>2018-12-15T16:29:31Z</time>
      </trkpt>
      <trkpt lat="41.5145360" lon="2.2140280">
        <ele>43.6</ele>
        <time>2018-12-15T16:29:35Z</time>
      </trkpt>
      <trkpt lat="41.5143130" lon="2.2136980">
        <ele>43.2</ele>
        <time>2018-12-15T16:29:39Z</time>
      </trkpt>
      <trkpt lat="41.5140660" lon="2.2134110">
        <ele>43.4</ele>
        <time>2018-12-15T16:29:43Z</time>
      </trkpt>
      <trkpt lat="41.5137510" lon="2.2131350">
        <ele>42.6</ele>
        <time>2018-12-15T16:29:47Z</time>
      </trkpt>
      <trkpt lat="41.5134330" lon="2.2128700">
        <ele>42.6</ele>
        <time>2018-12-15T16:29:51Z</time>
      </trkpt>
      <trkpt lat="41.5131400" lon="2.2126180">
        <ele>42.8</ele>
        <time>2018-12-15T16:29:55Z</time>
      </trkpt>
      <trkpt lat="41.5128780" lon="2.2123130">
        <ele>42.2</ele>
        <time>2018-12-15T16:29:59Z</time>
      </trkpt>
      <trkpt lat="41.5126800" lon="2.2120130">
        <ele>42.6</ele>
        <time>2018-12-15T16:30:03Z</time>
      </trkpt>
      <trkpt lat="41.5124700" lon="2.2117200">
        <ele>41.8</ele>
        <time>2018-12-15T16:30:07Z</time>
      </trkpt>
      <trkpt lat="41.5122600" lon="2.2114600">
        <ele>41.4</ele>
        <time>2018-12-15T16:30:11Z</time>
      </trkpt>
      <trkpt lat="41.5120330" lon="2.2112030">
        <ele>41.2</ele>
        <time>2018-12-15T16:30:15Z</time>
      </trkpt>
      <trkpt lat="41.5118050" lon="2.2109600">
        <ele>41.0</ele>
        <time>2018-12-15T16:30:19Z</time>
      </trkpt>
      <trkpt lat="41.5115000" lon="2.2107780">
        <ele>41.2</ele>
        <time>2018-12-15T16:30:23Z</time>
      </trkpt>
      <trkpt lat="41.5112150" lon="2.2106950">
        <ele>40.8</ele>
        <time>2018-12-15T16:30:27Z</time>
      </trkpt>
      <trkpt lat="41.5109260" lon="2.2106210">
        <ele>41.2</ele>
        <time>2018-12-15T16:30:31Z</time>
      </trkpt>
      <trkpt lat="41.5106460" lon="2.2105560">
        <ele>41.4</ele>
        <time>2018-12-15T16:30:35Z</time>
      </trkpt>
      <trkpt lat="41.5103730" lon="2.2104730">
        <ele>41.2</ele>
        <time>2018-12-15T16:30:39Z</time>
      </trkpt>
      <trkpt lat="41.5101000" lon="2.2103880">
        <ele>40.8</ele>
        <time>2018-12-15T16:30:43Z</time>
      </trkpt>
      <trkpt lat="41.5098460" lon="2.2102580">
        <ele>40.8</ele>
        <time>2018-12-15T16:30:47Z</time>
      </trkpt>
      <trkpt lat="41.5095930" lon="2.2100860">
        <ele>40.8</ele>
        <time>2018-12-15T16:30:51Z</time>
      </trkpt>
      <trkpt lat="41.5093450" lon="2.2098630">
        <ele>40.0</ele>
        <time>2018-12-15T16:30:55Z</time>
      </trkpt>
      <trkpt lat="41.5090950" lon="2.2096400">
        <ele>39.8</ele>
        <time>2018-12-15T16:30:59Z</time>
      </trkpt>
      <trkpt lat="41.5088550" lon="2.2094250">
        <ele>39.4</ele>
        <time>2018-12-15T16:31:03Z</time>
      </trkpt>
      <trkpt lat="41.5086180" lon="2.2092130">
        <ele>39.4</ele>
        <time>2018-12-15T16:31:07Z</time>
      </trkpt>
      <trkpt lat="41.5083850" lon="2.2089950">
        <ele>38.8</ele>
        <time>2018-12-15T16:31:11Z</time>
      </trkpt>
      <trkpt lat="41.5081810" lon="2.2087560">
        <ele>38.8</ele>
        <time>2018-12-15T16:31:15Z</time>
      </trkpt>
      <trkpt lat="41.5079810" lon="2.2085080">
        <ele>38.8</ele>
        <time>2018-12-15T16:31:19Z</time>
      </trkpt>
      <trkpt lat="41.5077660" lon="2.2082710">
        <ele>39.0</ele>
        <time>2018-12-15T16:31:23Z</time>
      </trkpt>
      <trkpt lat="41.5075180" lon="2.2081000">
        <ele>37.6</ele>
        <time>2018-12-15T16:31:27Z</time>
      </trkpt>
      <trkpt lat="41.5072480" lon="2.2079980">
        <ele>37.2</ele>
        <time>2018-12-15T16:31:31Z</time>
      </trkpt>
      <trkpt lat="41.5069750" lon="2.2079060">
        <ele>37.4</ele>
        <time>2018-12-15T16:31:35Z</time>
      </trkpt>
      <trkpt lat="41.5067010" lon="2.2078030">
        <ele>37.0</ele>
        <time>2018-12-15T16:31:39Z</time>
      </trkpt>
      <trkpt lat="41.5064430" lon="2.2076710">
        <ele>36.6</ele>
        <time>2018-12-15T16:31:43Z</time>
      </trkpt>
      <trkpt lat="41.5062060" lon="2.2075100">
        <ele>37.2</ele>
        <time>2018-12-15T16:31:47Z</time>
      </trkpt>
      <trkpt lat="41.5059780" lon="2.2073530">
        <ele>37.0</ele>
        <time>2018-12-15T16:31:51Z</time>
      </trkpt>
      <trkpt lat="41.5057480" lon="2.2071880">
        <ele>37.2</ele>
        <time>2018-12-15T16:31:55Z</time>
      </trkpt>
      <trkpt lat="41.5055400" lon="2.2069710">
        <ele>37.6</ele>
        <time>2018-12-15T16:31:59Z</time>
      </trkpt>
      <trkpt lat="41.5054060" lon="2.2066930">
        <ele>37.4</ele>
        <time>2018-12-15T16:32:03Z</time>
      </trkpt>
      <trkpt lat="41.5053350" lon="2.2064930">
        <ele>37.6</ele>
        <time>2018-12-15T16:32:07Z</time>
      </trkpt>
      <trkpt lat="41.5053350" lon="2.2064930">
        <ele>37.6</ele>
        <time>2018-12-15T16:32:11Z</time>
      </trkpt>
      <trkpt lat="41.5053350" lon="2.2064930">
        <ele>37.6</ele>
        <time>2018-12-15T16:32:15Z</time>
      </trkpt>
      <trkpt lat="41.5053350" lon="2.2064930">
        <ele>37.6</ele>
        <time>2018-12-15T16:32:19Z</time>
      </trkpt>
      <trkpt lat="41.5053350" lon="2.2064930">
        <ele>37.6</ele>
        <time>2018-12-15T16:32:23Z</time>
      </trkpt>
      <trkpt lat="41.5053350" lon="2.2064930">
        <ele>37.6</ele>
        <time>2018-12-15T16:32:27Z</time>
      </trkpt>
      <trkpt lat="41.5053350" lon="2.2064930">
        <ele>37.6</ele>
        <time>2018-12-15T16:32:31Z</time>
      </trkpt>
      <trkpt lat="41.5053350" lon="2.2064930">
        <ele>37.6</ele>
        <time>2018-12-15T16:32:35Z</time>
      </trkpt>
      <trkpt lat="41.5053350" lon="2.2064930">
        <ele>37.6</ele>
        <time>2018-12-15T16:32:39Z</time>
      </trkpt>
      <trkpt lat="41.5053350" lon="2.2064930">
        <ele>37.6</ele>
        <time>2018-12-15T16:32:43Z</time>
      </trkpt>
      <trkpt lat="41.5053350" lon="2.2064930">
        <ele>37.6</ele>
        <time>2018-12-15T16:32:47Z</time>
      </trkpt>
      <trkpt lat="41.5053350" lon="2.2064930">
        <ele>37.6</ele>
        <time>2018-12-15T16:32:51Z</time>
      </trkpt>
      <trkpt lat="41.5053350" lon="2.2064930">
        <ele>37.6</ele>
        <time>2018-12-15T16:32:55Z</time>
      </trkpt>
      <trkpt lat="41.5053350" lon="2.2064930">
        <ele>37.6</ele>
        <time>2018-12-15T16:32:59Z</time>
      </trkpt>
      <trkpt lat="41.5053260" lon="2.2064580">
        <ele>37.0</ele>
        <time>2018-12-15T16:33:03Z</time>
      </trkpt>
      <trkpt lat="41.5052650" lon="2.2063850">
        <ele>37.0</ele>
        <time>2018-12-15T16:33:07Z</time>
      </trkpt>
      <trkpt lat="41.5051710" lon="2.2062380">
        <ele>36.2</ele>
        <time>2018-12-15T16:33:11Z</time>
      </trkpt>
      <trkpt lat="41.5050180" lon="2.2060100">
        <ele>35.4</ele>
        <time>2018-12-15T16:33:15Z</time>
      </trkpt>
      <trkpt lat="41.5048310" lon="2.2057510">
        <ele>35.4</ele>
        <time>2018-12-15T16:33:19Z</time>
      </trkpt>
      <trkpt lat="41.5046050" lon="2.2055360">
        <ele>34.6</ele>
        <time>2018-12-15T16:33:23Z</time>
      </trkpt>
      <trkpt lat="41.5043560" lon="2.2053500">
        <ele>35.0</ele>
        <time>2018-12-15T16:33:27Z</time>
      </trkpt>
      <trkpt lat="41.5040880" lon="2.2052160">
        <ele>35.2</ele>
        <time>2018-12-15T16:33:31Z</time>
      </trkpt>
      <trkpt lat="41.5038260" lon="2.2051280">
        <ele>35.0</ele>
        <time>2018-12-15T16:33:35Z</time>
      </trkpt>
      <trkpt lat="41.5036080" lon="2.2049380">
        <ele>35.6</ele>
        <time>2018-12-15T16:33:39Z</time>
      </trkpt>
      <trkpt lat="41.5033550" lon="2.2047910">
        <ele>35.2</ele>
        <time>2018-12-15T16:33:43Z</time>
      </trkpt>
      <trkpt lat="41.5030910" lon="2.2046700">
        <ele>35.2</ele>
        <time>2018-12-15T16:33:47Z</time>
      </trkpt>
      <trkpt lat="41.5028310" lon="2.2045160">
        <ele>34.8</ele>
        <time>2018-12-15T16:33:51Z</time>
      </trkpt>
      <trkpt lat="41.5025730" lon="2.2043710">
        <ele>34.2</ele>
        <time>2018-12-15T16:33:55Z</time>
      </trkpt>
      <trkpt lat="41.5023060" lon="2.2042410">
        <ele>33.6</ele>
        <time>2018-12-15T16:33:59Z</time>
      </trkpt>
      <trkpt lat="41.5020310" lon="2.2041110">
        <ele>33.2</ele>
        <time>2018-12-15T16:34:03Z</time>
      </trkpt>
      <trkpt lat="41.5017630" lon="2.2039750">
        <ele>33.2</ele>
        <time>2018-12-15T16:34:07Z</time>
      </trkpt>
      <trkpt lat="41.5014960" lon="2.2038430">
        <ele>33.6</ele>
        <time>2018-12-15T16:34:11Z</time>
      </trkpt>
      <trkpt lat="41.5012330" lon="2.2036680">
        <ele>33.6</ele>
        <time>2018-12-15T16:34:15Z</time>
      </trkpt>
      <trkpt lat="41.5010160" lon="2.2033910">
        <ele>33.6</ele>
        <time>2018-12-15T16:34:19Z</time>
      </trkpt>
      <trkpt lat="41.5008580" lon="2.2030480">
        <ele>33.0</ele>
        <time>2018-12-15T16:34:23Z</time>
      </trkpt>
      <trkpt lat="41.5007330" lon="2.2026930">
        <ele>33.0</ele>
        <time>2018-12-15T16:34:27Z</time>
      </trkpt>
      <trkpt lat="41.5006160" lon="2.2023230">
        <ele>32.8</ele>
        <time>2018-12-15T16:34:31Z</time>
      </trkpt>
      <trkpt lat="41.5004850" lon="2.2019560">
        <ele>33.0</ele>
        <time>2018-12-15T16:34:35Z</time>
      </trkpt>
      <trkpt lat="41.5003600" lon="2.2015860">
        <ele>32.8</ele>
        <time>2018-12-15T16:34:39Z</time>
      </trkpt>
      <trkpt lat="41.5002410" lon="2.2012100">
        <ele>32.8</ele>
        <time>2018-12-15T16:34:43Z</time>
      </trkpt>
      <trkpt lat="41.5001300" lon="2.2008380">
        <ele>32.2</ele>
        <time>2018-12-15T16:34:47Z</time>
      </trkpt>
      <trkpt lat="41.5000150" lon="2.2004560">
        <ele>32.0</ele>
        <time>2018-12-15T16:34:51Z</time>
      </trkpt>
      <trkpt lat="41.4998950" lon="2.2000760">
        <ele>31.6</ele>
        <time>2018-12-15T16:34:55Z</time>
      </trkpt>
      <trkpt lat="41.4997450" lon="2.1997330">
        <ele>31.6</ele>
        <time>2018-12-15T16:34:59Z</time>
      </trkpt>
      <trkpt lat="41.4995630" lon="2.1994210">
        <ele>32.0</ele>
        <time>2018-12-15T16:35:03Z</time>
      </trkpt>
      <trkpt lat="41.4993300" lon="2.1991550">
        <ele>31.8</ele>
        <time>2018-12-15T16:35:07Z</time>
      </trkpt>
      <trkpt lat="41.4990760" lon="2.1989510">
        <ele>31.2</ele>
        <time>2018-12-15T16:35:11Z</time>
      </trkpt>
      <trkpt lat="41.4988000" lon="2.1988230">
        <ele>31.2</ele>
        <time>2018-12-15T16:35:15Z</time>
      </trkpt>
      <trkpt lat="41.4985230" lon="2.1987680">
        <ele>31.4</ele>
        <time>2018-12-15T16:35:19Z</time>
      </trkpt>
      <trkpt lat="41.4982410" lon="2.1988380">
        <ele>31.4</ele>
        <time>2018-12-15T16:35:23Z</time>
      </trkpt>
      <trkpt lat="41.4979560" lon="2.1989580">
        <ele>30.6</ele>
        <time>2018-12-15T16:35:27Z</time>
      </trkpt>
      <trkpt lat="41.4976530" lon="2.1989680">
        <ele>30.6</ele>
        <time>2018-12-15T16:35:31Z</time>
      </trkpt>
      <trkpt lat="41.4973610" lon="2.1989230">
        <ele>30.6</ele>
        <time>2018-12-15T16:35:35Z</time>
      </trkpt>
      <trkpt lat="41.4970710" lon="2.1989430">
        <ele>30.8</ele>
        <time>2018-12-15T16:35:39Z</time>
      </trkpt>
      <trkpt lat="41.4967880" lon="2.1990080">
        <ele>30.6</ele>
        <time>2018-12-15T16:35:43Z</time>
      </trkpt>
      <trkpt lat="41.4965100" lon="2.1990910">
        <ele>31.2</ele>
        <time>2018-12-15T16:35:47Z</time>
      </trkpt>
      <trkpt lat="41.4962300" lon="2.1990910">
        <ele>30.6</ele>
        <time>2018-12-15T16:35:51Z</time>
      </trkpt>
      <trkpt lat="41.4959660" lon="2.1989300">
        <ele>30.6</ele>
        <time>2018-12-15T16:35:55Z</time>
      </trkpt>
      <trkpt lat="41.4957510" lon="2.1986780">
        <ele>30.4</ele>
        <time>2018-12-15T16:35:59Z</time>
      </trkpt>
      <trkpt lat="41.4955450" lon="2.1984200">
        <ele>30.2</ele>
        <time>2018-12-15T16:36:03Z</time>
      </trkpt>
      <trkpt lat="41.4953380" lon="2.1981530">
        <ele>30.2</ele>
        <time>2018-12-15T16:36:07Z</time>
      </trkpt>
      <trkpt lat="41.4951310" lon="2.1978900">
        <ele>29.2</ele>
        <time>2018-12-15T16:36:11Z</time>
      </trkpt>
      <trkpt lat="41.4949250" lon="2.1976300">
        <ele>30.0</ele>
        <time>2018-12-15T16:36:15Z</time>
      </trkpt>
      <trkpt lat="41.4947210" lon="2.1973660">
        <ele>29.4</ele>
        <time>2018-12-15T16:36:19Z</time>
      </trkpt>
      <trkpt lat="41.4945100" lon="2.1971050">
        <ele>29.2</ele>
        <time>2018-12-15T16:36:23Z</time>
      </trkpt>
      <trkpt lat="41.4942850" lon="2.1968730">
        <ele>29.4</ele>
        <time>2018-12-15T16:36:27Z</time>
      </trkpt>
      <trkpt lat="41.4940330" lon="2.1966750">
        <ele>29.0</ele>
        <time>2018-12-15T16:36:31Z</time>
      </trkpt>
      <trkpt lat="41.4937810" lon="2.1964960">
        <ele>28.6</ele>
        <time>2018-12-15T16:36:35Z</time>
      </trkpt>
      <trkpt lat="41.4935060" lon="2.1963610">
        <ele>28.4</ele>
        <time>2018-12-15T16:36:39Z</time>
      </trkpt>
      <trkpt lat="41.4932430" lon="2.1962160">
        <ele>28.8</ele>
        <time>2018-12-15T16:36:43Z</time>
      </trkpt>
      <trkpt lat="41.4930100" lon="2.1959680">
        <ele>28.4</ele>
        <time>2018-12-15T16:36:47Z</time>
      </trkpt>
      <trkpt lat="41.4928000" lon="2.1956830">
        <ele>28.8</ele>
        <time>2018-12-15T16:36:51Z</time>
      </trkpt>
      <trkpt lat="41.4925730" lon="2.1954000">
        <ele>28.2</ele>
        <time>2018-12-15T16:36:55Z</time>
      </trkpt>
      <trkpt lat="41.4923400" lon="2.1951480">
        <ele>28.2</ele>
        <time>2018-12-15T16:36:59Z</time>
      </trkpt>
      <trkpt lat="41.4920860" lon="2.1949410">
        <ele>27.6</ele>
        <time>2018-12-15T16:37:03Z</time>
      </trkpt>
      <trkpt lat="41.4918250" lon="2.1947280">
        <ele>28.2</ele>
        <time>2018-12-15T16:37:07Z</time>
      </trkpt>
      <trkpt lat="41.4915730" lon="2.1945210">
        <ele>27.4</ele>
        <time>2018-12-15T16:37:11Z</time>
      </trkpt>
      <trkpt lat="41.4913110" lon="2.1943450">
        <ele>27.6</ele>
        <time>2018-12-15T16:37:15Z</time>
      </trkpt>
      <trkpt lat="41.4910350" lon="2.1941960">
        <ele>27.0</ele>
        <time>2018-12-15T16:37:19Z</time>
      </trkpt>
      <trkpt lat="41.4907550" lon="2.1940760">
        <ele>27.0</ele>
        <time>2018-12-15T16:37:23Z</time>
      </trkpt>
      <trkpt lat="41.4904780" lon="2.1939980">
        <ele>28.0</ele>
        <time>2018-12-15T16:37:27Z</time>
      </trkpt>
      <trkpt lat="41.4901930" lon="2.1939550">
        <ele>27.4</ele>
        <time>2018-12-15T16:37:31Z</time>
      </trkpt>
      <trkpt lat="41.4899050" lon="2.1939010">
        <ele>27.4</ele>
        <time>2018-12-15T16:37:35Z</time>
      </trkpt>
      <trkpt lat="41.4895980" lon="2.1938460">
        <ele>26.8</ele>
        <time>2018-12-15T16:37:39Z</time>
      </trkpt>
      <trkpt lat="41.4893000" lon="2.1937910">
        <ele>26.8</ele>
        <time>2018-12-15T16:37:43Z</time>
      </trkpt>
      <trkpt lat="41.4890110" lon="2.1937850">
        <ele>27.2</ele>
        <time>2018-12-15T16:37:47Z</time>
      </trkpt>
      <trkpt lat="41.4887330" lon="2.1938800">
        <ele>26.4</ele>
        <time>2018-12-15T16:37:51Z</time>
      </trkpt>
      <trkpt lat="41.4884430" lon="2.1939150">
        <ele>26.0</ele>
        <time>2018-12-15T16:37:55Z</time>
      </trkpt>
      <trkpt lat="41.4881600" lon="2.1938600">
        <ele>26.6</ele>
        <time>2018-12-15T16:37:59Z</time>
      </trkpt>
      <trkpt lat="41.4878730" lon="2.1937780">
        <ele>26.2</ele>
        <time>2018-12-15T16:38:03Z</time>
      </trkpt>
      <trkpt lat="41.4875900" lon="2.1936900">
        <ele>26.6</ele>
        <time>2018-12-15T16:38:07Z</time>
      </trkpt>
      <trkpt lat="41.4872900" lon="2.1936080">
        <ele>26.0</ele>
        <time>2018-12-15T16:38:11Z</time>
      </trkpt>
      <trkpt lat="41.4869960" lon="2.1935180">
        <ele>26.2</ele>
        <time>2018-12-15T16:38:15Z</time>
      </trkpt>
      <trkpt lat="41.4867080" lon="2.1934310">
        <ele>26.4</ele>
        <time>2018-12-15T16:38:19Z</time>
      </trkpt>
      <trkpt lat="41.4864200" lon="2.1933100">
        <ele>26.2</ele>
        <time>2018-12-15T16:38:23Z</time>
      </trkpt>
      <trkpt lat="41.4861550" lon="2.1931180">
        <ele>26.4</ele>
        <time>2018-12-15T16:38:27Z</time>
      </trkpt>
      <trkpt lat="41.4858830" lon="2.1929580">
        <ele>25.6</ele>
        <time>2018-12-15T16:38:31Z</time>
      </trkpt>
      <trkpt lat="41.4856030" lon="2.1928530">
        <ele>26.0</ele>
        <time>2018-12-15T16:38:35Z</time>
      </trkpt>
      <trkpt lat="41.4853200" lon="2.1927630">
        <ele>25.6</ele>
        <time>2018-12-15T16:38:39Z</time>
      </trkpt>
      <trkpt lat="41.4850300" lon="2.1926780">
        <ele>25.0</ele>
        <time>2018-12-15T16:38:43Z</time>
      </trkpt>
      <trkpt lat="41.4847350" lon="2.1926230">
        <ele>25.0</ele>
        <time>2018-12-15T16:38:47Z</time>
      </trkpt>
      <trkpt lat="41.4844260" lon="2.1926260">
        <ele>25.6</ele>
        <time>2018-12-15T16:38:51Z</time>
      </trkpt>
      <trkpt lat="41.4841160" lon="2.1926360">
        <ele>25.2</ele>
        <time>2018-12-15T16:38:55Z</time>
      </trkpt>
      <trkpt lat="41.4838080" lon="2.1926280">
        <ele>25.4</ele>
        <time>2018-12-15T16:38:59Z</time>
      </trkpt>
      <trkpt lat="41.4834950" lon="2.1926160">
        <ele>25.0</ele>
        <time>2018-12-15T16:39:03Z</time>
      </trkpt>
      <trkpt lat="41.4831880" lon="2.1925860">
        <ele>24.6</ele>
        <time>2018-12-15T16:39:07Z</time>
      </trkpt>
      <trkpt lat="41.4829080" lon="2.1925110">
        <ele>25.0</ele>
        <time>2018-12-15T16:39:11Z</time>
      </trkpt>
      <trkpt lat="41.4827610" lon="2.1921950">
        <ele>23.6</ele>
        <time>2018-12-15T16:39:15Z</time>
      </trkpt>
      <trkpt lat="41.4828110" lon="2.1917950">
        <ele>23.4</ele>
        <time>2018-12-15T16:39:19Z</time>
      </trkpt>
      <trkpt lat="41.4828630" lon="2.1914060">
        <ele>22.4</ele>
        <time>2018-12-15T16:39:23Z</time>
      </trkpt>
      <trkpt lat="41.4829050" lon="2.1910210">
        <ele>23.8</ele>
        <time>2018-12-15T16:39:27Z</time>
      </trkpt>
      <trkpt lat="41.4829430" lon="2.1906550">
        <ele>23.6</ele>
        <time>2018-12-15T16:39:31Z</time>
      </trkpt>
      <trkpt lat="41.4831160" lon="2.1904860">
        <ele>22.8</ele>
        <time>2018-12-15T16:39:35Z</time>
      </trkpt>
      <trkpt lat="41.4833480" lon="2.1905750">
        <ele>22.6</ele>
        <time>2018-12-15T16:39:39Z</time>
      </trkpt>
      <trkpt lat="41.4835700" lon="2.1906110">
        <ele>22.6</ele>
        <time>2018-12-15T16:39:43Z</time>
      </trkpt>
      <trkpt lat="41.4838280" lon="2.1906750">
        <ele>22.8</ele>
        <time>2018-12-15T16:39:47Z</time>
      </trkpt>
      <trkpt lat="41.4840260" lon="2.1907400">
        <ele>23.2</ele>
        <time>2018-12-15T16:39:51Z</time>
      </trkpt>
      <trkpt lat="41.4842560" lon="2.1908000">
        <ele>23.4</ele>
        <time>2018-12-15T16:39:55Z</time>
      </trkpt>
      <trkpt lat="41.4844780" lon="2.1908280">
        <ele>23.8</ele>
        <time>2018-12-15T16:39:59Z</time>
      </trkpt>
      <trkpt lat="41.4846250" lon="2.1908660">
        <ele>23.8</ele>
        <time>2018-12-15T16:40:03Z</time>
      </trkpt>
      <trkpt lat="41.4847760" lon="2.1908710">
        <ele>23.6</ele>
        <time>2018-12-15T16:40:07Z</time>
      </trkpt>
      <trkpt lat="41.4849450" lon="2.1908980">
        <ele>23.2</ele>
        <time>2018-12-15T16:40:11Z</time>
      </trkpt>
      <trkpt lat="41.4851760" lon="2.1909780">
        <ele>23.4</ele>
        <time>2018-12-15T16:40:15Z</time>
      </trkpt>
      <trkpt lat="41.4854260" lon="2.1910410">
        <ele>23.4</ele>
        <time>2018-12-15T16:40:19Z</time>
      </trkpt>
      <trkpt lat="41.4856510" lon="2.1910610">
        <ele>23.6</ele>
        <time>2018-12-15T16:40:23Z</time>
      </trkpt>
      <trkpt lat="41.4858580" lon="2.1911030">
        <ele>23.8</ele>
        <time>2018-12-15T16:40:27Z</time>
      </trkpt>
      <trkpt lat="41.4861380" lon="2.1911650">
        <ele>23.6</ele>
        <time>2018-12-15T16:40:31Z</time>
      </trkpt>
      <trkpt lat="41.4863960" lon="2.1911750">
        <ele>23.6</ele>
        <time>2018-12-15T16:40:35Z</time>
      </trkpt>
      <trkpt lat="41.4866850" lon="2.1910930">
        <ele>23.8</ele>
        <time>2018-12-15T16:40:39Z</time>
      </trkpt>
      <trkpt lat="41.4869480" lon="2.1909250">
        <ele>24.0</ele>
        <time>2018-12-15T16:40:43Z</time>
      </trkpt>
      <trkpt lat="41.4871800" lon="2.1906750">
        <ele>24.2</ele>
        <time>2018-12-15T16:40:47Z</time>
      </trkpt>
      <trkpt lat="41.4873500" lon="2.1903880">
        <ele>25.0</ele>
        <time>2018-12-15T16:40:51Z</time>
      </trkpt>
      <trkpt lat="41.4874760" lon="2.1900760">
        <ele>25.2</ele>
        <time>2018-12-15T16:40:55Z</time>
      </trkpt>
      <trkpt lat="41.4875250" lon="2.1897000">
        <ele>25.0</ele>
        <time>2018-12-15T16:40:59Z</time>
      </trkpt>
      <trkpt lat="41.4875150" lon="2.1892910">
        <ele>23.6</ele>
        <time>2018-12-15T16:41:03Z</time>
      </trkpt>
      <trkpt lat="41.4875260" lon="2.1888350">
        <ele>22.2</ele>
        <time>2018-12-15T16:41:07Z</time>
      </trkpt>
      <trkpt lat="41.4875680" lon="2.1884600">
        <ele>24.6</ele>
        <time>2018-12-15T16:41:11Z</time>
      </trkpt>
      <trkpt lat="41.4876050" lon="2.1882200">
        <ele>27.0</ele>
        <time>2018-12-15T16:41:15Z</time>
      </trkpt>
      <trkpt lat="41.4876050" lon="2.1882200">
        <ele>27.0</ele>
        <time>2018-12-15T16:41:19Z</time>
      </trkpt>
      <trkpt lat="41.4876050" lon="2.1882200">
        <ele>27.0</ele>
        <time>2018-12-15T16:41:23Z</time>
      </trkpt>
      <trkpt lat="41.4876050" lon="2.1882200">
        <ele>27.0</ele>
        <time>2018-12-15T16:41:27Z</time>
      </trkpt>
      <trkpt lat="41.4876050" lon="2.1882200">
        <ele>27.0</ele>
        <time>2018-12-15T16:41:31Z</time>
      </trkpt>
      <trkpt lat="41.4876050" lon="2.1882200">
        <ele>27.0</ele>
        <time>2018-12-15T16:41:35Z</time>
      </trkpt>
      <trkpt lat="41.4876050" lon="2.1882200">
        <ele>27.0</ele>
        <time>2018-12-15T16:41:39Z</time>
      </trkpt>
      <trkpt lat="41.4876050" lon="2.1882200">
        <ele>27.0</ele>
        <time>2018-12-15T16:41:43Z</time>
      </trkpt>
      <trkpt lat="41.4876110" lon="2.1880810">
        <ele>27.8</ele>
        <time>2018-12-15T16:41:47Z</time>
      </trkpt>
      <trkpt lat="41.4876110" lon="2.1880810">
        <ele>27.8</ele>
        <time>2018-12-15T16:41:51Z</time>
      </trkpt>
      <trkpt lat="41.4876060" lon="2.1880450">
        <ele>28.4</ele>
        <time>2018-12-15T16:41:55Z</time>
      </trkpt>
      <trkpt lat="41.4876050" lon="2.1879380">
        <ele>28.4</ele>
        <time>2018-12-15T16:41:59Z</time>
      </trkpt>
      <trkpt lat="41.4875900" lon="2.1877110">
        <ele>29.6</ele>
        <time>2018-12-15T16:42:03Z</time>
      </trkpt>
      <trkpt lat="41.4875410" lon="2.1874510">
        <ele>31.2</ele>
        <time>2018-12-15T16:42:07Z</time>
      </trkpt>
      <trkpt lat="41.4874950" lon="2.1872000">
        <ele>29.6</ele>
        <time>2018-12-15T16:42:11Z</time>
      </trkpt>
      <trkpt lat="41.4874500" lon="2.1868360">
        <ele>28.6</ele>
        <time>2018-12-15T16:42:15Z</time>
      </trkpt>
      <trkpt lat="41.4873610" lon="2.1864280">
        <ele>28.8</ele>
        <time>2018-12-15T16:42:19Z</time>
      </trkpt>
      <trkpt lat="41.4872960" lon="2.1860180">
        <ele>28.4</ele>
        <time>2018-12-15T16:42:23Z</time>
      </trkpt>
      <trkpt lat="41.4871980" lon="2.1856110">
        <ele>30.0</ele>
        <time>2018-12-15T16:42:27Z</time>
      </trkpt>
      <trkpt lat="41.4870980" lon="2.1852330">
        <ele>30.2</ele>
        <time>2018-12-15T16:42:31Z</time>
      </trkpt>
      <trkpt lat="41.4869950" lon="2.1848530">
        <ele>29.4</ele>
        <time>2018-12-15T16:42:35Z</time>
      </trkpt>
      <trkpt lat="41.4868830" lon="2.1845560">
        <ele>30.6</ele>
        <time>2018-12-15T16:42:39Z</time>
      </trkpt>
      <trkpt lat="41.4867980" lon="2.1842010">
        <ele>31.6</ele>
        <time>2018-12-15T16:42:43Z</time>
      </trkpt>
      <trkpt lat="41.4866960" lon="2.1838660">
        <ele>29.8</ele>
        <time>2018-12-15T16:42:47Z</time>
      </trkpt>
      <trkpt lat="41.4865850" lon="2.1834760">
        <ele>28.6</ele>
        <time>2018-12-15T16:42:51Z</time>
      </trkpt>
      <trkpt lat="41.4865130" lon="2.1830500">
        <ele>31.2</ele>
        <time>2018-12-15T16:42:55Z</time>
      </trkpt>
      <trkpt lat="41.4864150" lon="2.1827600">
        <ele>31.6</ele>
        <time>2018-12-15T16:42:59Z</time>
      </trkpt>
      <trkpt lat="41.4863010" lon="2.1825060">
        <ele>31.6</ele>
        <time>2018-12-15T16:43:03Z</time>
      </trkpt>
      <trkpt lat="41.4861760" lon="2.1822560">
        <ele>32.8</ele>
        <time>2018-12-15T16:43:07Z</time>
      </trkpt>
      <trkpt lat="41.4860660" lon="2.1820230">
        <ele>32.2</ele>
        <time>2018-12-15T16:43:11Z</time>
      </trkpt>
      <trkpt lat="41.4859450" lon="2.1817500">
        <ele>31.4</ele>
        <time>2018-12-15T16:43:15Z</time>
      </trkpt>
      <trkpt lat="41.4858810" lon="2.1814960">
        <ele>31.8</ele>
        <time>2018-12-15T16:43:19Z</time>
      </trkpt>
      <trkpt lat="41.4857350" lon="2.1812100">
        <ele>31.4</ele>
        <time>2018-12-15T16:43:23Z</time>
      </trkpt>
      <trkpt lat="41.4856450" lon="2.1809560">
        <ele>32.2</ele>
        <time>2018-12-15T16:43:27Z</time>
      </trkpt>
      <trkpt lat="41.4856160" lon="2.1807050">
        <ele>32.2</ele>
        <time>2018-12-15T16:43:31Z</time>
      </trkpt>
      <trkpt lat="41.4855400" lon="2.1804430">
        <ele>32.2</ele>
        <time>2018-12-15T16:43:35Z</time>
      </trkpt>
      <trkpt lat="41.4855310" lon="2.1802430">
        <ele>32.8</ele>
        <time>2018-12-15T16:43:39Z</time>
      </trkpt>
      <trkpt lat="41.4854750" lon="2.1800260">
        <ele>32.4</ele>
        <time>2018-12-15T16:43:43Z</time>
      </trkpt>
      <trkpt lat="41.4853360" lon="2.1797430">
        <ele>32.2</ele>
        <time>2018-12-15T16:43:47Z</time>
      </trkpt>
      <trkpt lat="41.4851880" lon="2.1794750">
        <ele>32.4</ele>
        <time>2018-12-15T16:43:51Z</time>
      </trkpt>
      <trkpt lat="41.4849410" lon="2.1792030">
        <ele>32.6</ele>
        <time>2018-12-15T16:43:55Z</time>
      </trkpt>
      <trkpt lat="41.4846100" lon="2.1788830">
        <ele>33.0</ele>
        <time>2018-12-15T16:43:59Z</time>
      </trkpt>
      <trkpt lat="41.4843410" lon="2.1786580">
        <ele>33.2</ele>
        <time>2018-12-15T16:44:03Z</time>
      </trkpt>
      <trkpt lat="41.4840610" lon="2.1784280">
        <ele>32.8</ele>
        <time>2018-12-15T16:44:07Z</time>
      </trkpt>
      <trkpt lat="41.4838250" lon="2.1781830">
        <ele>33.6</ele>
        <time>2018-12-15T16:44:11Z</time>
      </trkpt>
      <trkpt lat="41.4836210" lon="2.1779080">
        <ele>33.4</ele>
        <time>2018-12-15T16:44:15Z</time>
      </trkpt>
      <trkpt lat="41.4834600" lon="2.1776260">
        <ele>33.8</ele>
        <time>2018-12-15T16:44:19Z</time>
      </trkpt>
      <trkpt lat="41.4833660" lon="2.1773310">
        <ele>33.8</ele>
        <time>2018-12-15T16:44:23Z</time>
      </trkpt>
      <trkpt lat="41.4832650" lon="2.1770010">
        <ele>34.2</ele>
        <time>2018-12-15T16:44:27Z</time>
      </trkpt>
      <trkpt lat="41.4831480" lon="2.1766780">
        <ele>34.6</ele>
        <time>2018-12-15T16:44:31Z</time>
      </trkpt>
      <trkpt lat="41.4830530" lon="2.1763460">
        <ele>34.6</ele>
        <time>2018-12-15T16:44:35Z</time>
      </trkpt>
      <trkpt lat="41.4829560" lon="2.1760130">
        <ele>35.0</ele>
        <time>2018-12-15T16:44:39Z</time>
      </trkpt>
      <trkpt lat="41.4828650" lon="2.1756800">
        <ele>35.6</ele>
        <time>2018-12-15T16:44:43Z</time>
      </trkpt>
      <trkpt lat="41.4827960" lon="2.1753430">
        <ele>35.6</ele>
        <time>2018-12-15T16:44:47Z</time>
      </trkpt>
      <trkpt lat="41.4827400" lon="2.1750060">
        <ele>35.8</ele>
        <time>2018-12-15T16:44:51Z</time>
      </trkpt>
      <trkpt lat="41.4826880" lon="2.1747160">
        <ele>35.2</ele>
        <time>2018-12-15T16:44:55Z</time>
      </trkpt>
      <trkpt lat="41.4827030" lon="2.1744080">
        <ele>34.8</ele>
        <time>2018-12-15T16:44:59Z</time>
      </trkpt>
      <trkpt lat="41.4827960" lon="2.1741230">
        <ele>35.2</ele>
        <time>2018-12-15T16:45:03Z</time>
      </trkpt>
      <trkpt lat="41.4828830" lon="2.1738310">
        <ele>34.8</ele>
        <time>2018-12-15T16:45:07Z</time>
      </trkpt>
      <trkpt lat="41.4829080" lon="2.1735100">
        <ele>35.2</ele>
        <time>2018-12-15T16:45:11Z</time>
      </trkpt>
      <trkpt lat="41.4828460" lon="2.1731750">
        <ele>35.2</ele>
        <time>2018-12-15T16:45:15Z</time>
      </trkpt>
      <trkpt lat="41.4827810" lon="2.1728330">
        <ele>35.2</ele>
        <time>2018-12-15T16:45:19Z</time>
      </trkpt>
      <trkpt lat="41.4827230" lon="2.1724960">
        <ele>35.2</ele>
        <time>2018-12-15T16:45:23Z</time>
      </trkpt>
      <trkpt lat="41.4826630" lon="2.1721380">
        <ele>35.6</ele>
        <time>2018-12-15T16:45:27Z</time>
      </trkpt>
      <trkpt lat="41.4826010" lon="2.1717880">
        <ele>36.2</ele>
        <time>2018-12-15T16:45:31Z</time>
      </trkpt>
      <trkpt lat="41.4825550" lon="2.1714410">
        <ele>36.2</ele>
        <time>2018-12-15T16:45:35Z</time>
      </trkpt>
      <trkpt lat="41.4824950" lon="2.1710830">
        <ele>37.6</ele>
        <time>2018-12-15T16:45:39Z</time>
      </trkpt>
      <trkpt lat="41.4824430" lon="2.1707450">
        <ele>37.4</ele>
        <time>2018-12-15T16:45:43Z</time>
      </trkpt>
      <trkpt lat="41.4823910" lon="2.1704130">
        <ele>38.0</ele>
        <time>2018-12-15T16:45:47Z</time>
      </trkpt>
      <trkpt lat="41.4823350" lon="2.1700830">
        <ele>38.2</ele>
        <time>2018-12-15T16:45:51Z</time>
      </trkpt>
      <trkpt lat="41.4822860" lon="2.1697510">
        <ele>38.8</ele>
        <time>2018-12-15T16:45:55Z</time>
      </trkpt>
      <trkpt lat="41.4822310" lon="2.1694110">
        <ele>38.4</ele>
        <time>2018-12-15T16:45:59Z</time>
      </trkpt>
      <trkpt lat="41.4821680" lon="2.1690730">
        <ele>38.8</ele>
        <time>2018-12-15T16:46:03Z</time>
      </trkpt>
      <trkpt lat="41.4821150" lon="2.1687400">
        <ele>38.4</ele>
        <time>2018-12-15T16:46:07Z</time>
      </trkpt>
      <trkpt lat="41.4820600" lon="2.1684100">
        <ele>39.0</ele>
        <time>2018-12-15T16:46:11Z</time>
      </trkpt>
      <trkpt lat="41.4820060" lon="2.1680680">
        <ele>39.4</ele>
        <time>2018-12-15T16:46:15Z</time>
      </trkpt>
      <trkpt lat="41.4819480" lon="2.1677330">
        <ele>39.6</ele>
        <time>2018-12-15T16:46:19Z</time>
      </trkpt>
      <trkpt lat="41.4819000" lon="2.1674100">
        <ele>40.0</ele>
        <time>2018-12-15T16:46:23Z</time>
      </trkpt>
      <trkpt lat="41.4818650" lon="2.1671410">
        <ele>40.8</ele>
        <time>2018-12-15T16:46:27Z</time>
      </trkpt>
      <trkpt lat="41.4819480" lon="2.1669900">
        <ele>40.2</ele>
        <time>2018-12-15T16:46:31Z</time>
      </trkpt>
      <trkpt lat="41.4820960" lon="2.1669350">
        <ele>40.2</ele>
        <time>2018-12-15T16:46:35Z</time>
      </trkpt>
      <trkpt lat="41.4822610" lon="2.1668780">
        <ele>40.0</ele>
        <time>2018-12-15T16:46:39Z</time>
      </trkpt>
      <trkpt lat="41.4824310" lon="2.1668460">
        <ele>40.0</ele>
        <time>2018-12-15T16:46:43Z</time>
      </trkpt>
      <trkpt lat="41.4826210" lon="2.1668060">
        <ele>40.2</ele>
        <time>2018-12-15T16:46:47Z</time>
      </trkpt>
      <trkpt lat="41.4828060" lon="2.1667860">
        <ele>39.6</ele>
        <time>2018-12-15T16:46:51Z</time>
      </trkpt>
      <trkpt lat="41.4830130" lon="2.1667330">
        <ele>40.2</ele>
        <time>2018-12-15T16:46:55Z</time>
      </trkpt>
      <trkpt lat="41.4832060" lon="2.1666730">
        <ele>40.4</ele>
        <time>2018-12-15T16:46:59Z</time>
      </trkpt>
      <trkpt lat="41.4832850" lon="2.1664960">
        <ele>40.0</ele>
        <time>2018-12-15T16:47:03Z</time>
      </trkpt>
      <trkpt lat="41.4832400" lon="2.1662450">
        <ele>40.2</ele>
        <time>2018-12-15T16:47:07Z</time>
      </trkpt>
      <trkpt lat="41.4832110" lon="2.1659810">
        <ele>40.2</ele>
        <time>2018-12-15T16:47:11Z</time>
      </trkpt>
      <trkpt lat="41.4831630" lon="2.1657100">
        <ele>40.2</ele>
        <time>2018-12-15T16:47:15Z</time>
      </trkpt>
      <trkpt lat="41.4831300" lon="2.1654210">
        <ele>40.0</ele>
        <time>2018-12-15T16:47:19Z</time>
      </trkpt>
      <trkpt lat="41.4831080" lon="2.1650980">
        <ele>40.4</ele>
        <time>2018-12-15T16:47:23Z</time>
      </trkpt>
      <trkpt lat="41.4830550" lon="2.1647800">
        <ele>40.4</ele>
        <time>2018-12-15T16:47:27Z</time>
      </trkpt>
      <trkpt lat="41.4830110" lon="2.1644760">
        <ele>40.6</ele>
        <time>2018-12-15T16:47:31Z</time>
      </trkpt>
      <trkpt lat="41.4829600" lon="2.1641900">
        <ele>41.0</ele>
        <time>2018-12-15T16:47:35Z</time>
      </trkpt>
      <trkpt lat="41.4829080" lon="2.1639060">
        <ele>41.0</ele>
        <time>2018-12-15T16:47:39Z</time>
      </trkpt>
      <trkpt lat="41.4828580" lon="2.1636150">
        <ele>41.4</ele>
        <time>2018-12-15T16:47:43Z</time>
      </trkpt>
      <trkpt lat="41.4828160" lon="2.1633300">
        <ele>41.4</ele>
        <time>2018-12-15T16:47:47Z</time>
      </trkpt>
      <trkpt lat="41.4827710" lon="2.1630500">
        <ele>42.6</ele>
        <time>2018-12-15T16:47:51Z</time>
      </trkpt>
      <trkpt lat="41.4827400" lon="2.1628160">
        <ele>43.0</ele>
        <time>2018-12-15T16:47:55Z</time>
      </trkpt>
      <trkpt lat="41.4828010" lon="2.1626960">
        <ele>43.4</ele>
        <time>2018-12-15T16:47:59Z</time>
      </trkpt>
      <trkpt lat="41.4828010" lon="2.1626960">
        <ele>43.4</ele>
        <time>2018-12-15T16:48:03Z</time>
      </trkpt>
      <trkpt lat="41.4828010" lon="2.1626960">
        <ele>43.4</ele>
        <time>2018-12-15T16:48:07Z</time>
      </trkpt>
      <trkpt lat="41.4828010" lon="2.1626960">
        <ele>43.4</ele>
        <time>2018-12-15T16:48:11Z</time>
      </trkpt>
      <trkpt lat="41.4828010" lon="2.1626960">
        <ele>43.4</ele>
        <time>2018-12-15T16:48:15Z</time>
      </trkpt>
      <trkpt lat="41.4828010" lon="2.1626960">
        <ele>43.4</ele>
        <time>2018-12-15T16:48:19Z</time>
      </trkpt>
      <trkpt lat="41.4828010" lon="2.1626960">
        <ele>43.4</ele>
        <time>2018-12-15T16:48:23Z</time>
      </trkpt>
      <trkpt lat="41.4828010" lon="2.1626960">
        <ele>43.4</ele>
        <time>2018-12-15T16:48:27Z</time>
      </trkpt>
      <trkpt lat="41.4828010" lon="2.1626960">
        <ele>43.4</ele>
        <time>2018-12-15T16:48:31Z</time>
      </trkpt>
      <trkpt lat="41.4828010" lon="2.1626960">
        <ele>43.4</ele>
        <time>2018-12-15T16:48:35Z</time>
      </trkpt>
      <trkpt lat="41.4828010" lon="2.1626960">
        <ele>43.4</ele>
        <time>2018-12-15T16:48:39Z</time>
      </trkpt>
      <trkpt lat="41.4828010" lon="2.1626960">
        <ele>43.4</ele>
        <time>2018-12-15T16:48:43Z</time>
      </trkpt>
      <trkpt lat="41.4828010" lon="2.1626960">
        <ele>43.4</ele>
        <time>2018-12-15T16:48:47Z</time>
      </trkpt>
      <trkpt lat="41.4827730" lon="2.1625360">
        <ele>43.6</ele>
        <time>2018-12-15T16:48:51Z</time>
      </trkpt>
      <trkpt lat="41.4828210" lon="2.1624310">
        <ele>43.4</ele>
        <time>2018-12-15T16:48:55Z</time>
      </trkpt>
      <trkpt lat="41.4829460" lon="2.1622410">
        <ele>42.8</ele>
        <time>2018-12-15T16:48:59Z</time>
      </trkpt>
      <trkpt lat="41.4831130" lon="2.1620100">
        <ele>42.6</ele>
        <time>2018-12-15T16:49:03Z</time>
      </trkpt>
      <trkpt lat="41.4832930" lon="2.1617810">
        <ele>42.6</ele>
        <time>2018-12-15T16:49:07Z</time>
      </trkpt>
      <trkpt lat="41.4834730" lon="2.1615460">
        <ele>43.2</ele>
        <time>2018-12-15T16:49:11Z</time>
      </trkpt>
      <trkpt lat="41.4836560" lon="2.1613010">
        <ele>42.8</ele>
        <time>2018-12-15T16:49:15Z</time>
      </trkpt>
      <trkpt lat="41.4838400" lon="2.1610560">
        <ele>43.8</ele>
        <time>2018-12-15T16:49:19Z</time>
      </trkpt>
      <trkpt lat="41.4840260" lon="2.1608110">
        <ele>43.4</ele>
        <time>2018-12-15T16:49:23Z</time>
      </trkpt>
      <trkpt lat="41.4842130" lon="2.1605680">
        <ele>43.6</ele>
        <time>2018-12-15T16:49:27Z</time>
      </trkpt>
      <trkpt lat="41.4843930" lon="2.1603130">
        <ele>44.4</ele>
        <time>2018-12-15T16:49:31Z</time>
      </trkpt>
      <trkpt lat="41.4845930" lon="2.1601760">
        <ele>45.2</ele>
        <time>2018-12-15T16:49:35Z</time>
      </trkpt>
      <trkpt lat="41.4847860" lon="2.1600360">
        <ele>44.8</ele>
        <time>2018-12-15T16:49:39Z</time>
      </trkpt>
      <trkpt lat="41.4849800" lon="2.1597630">
        <ele>45.0</ele>
        <time>2018-12-15T16:49:43Z</time>
      </trkpt>
      <trkpt lat="41.4851630" lon="2.1594480">
        <ele>45.8</ele>
        <time>2018-12-15T16:49:47Z</time>
      </trkpt>
      <trkpt lat="41.4853500" lon="2.1591530">
        <ele>45.6</ele>
        <time>2018-12-15T16:49:51Z</time>
      </trkpt>
      <trkpt lat="41.4855400" lon="2.1588680">
        <ele>45.6</ele>
        <time>2018-12-15T16:49:55Z</time>
      </trkpt>
      <trkpt lat="41.4857260" lon="2.1585980">
        <ele>45.8</ele>
        <time>2018-12-15T16:49:59Z</time>
      </trkpt>
      <trkpt lat="41.4859110" lon="2.1583360">
        <ele>45.6</ele>
        <time>2018-12-15T16:50:03Z</time>
      </trkpt>
      <trkpt lat="41.4861060" lon="2.1580580">
        <ele>46.2</ele>
        <time>2018-12-15T16:50:07Z</time>
      </trkpt>
      <trkpt lat="41.4862960" lon="2.1577980">
        <ele>47.4</ele>
        <time>2018-12-15T16:50:11Z</time>
      </trkpt>
      <trkpt lat="41.4864780" lon="2.1575460">
        <ele>48.4</ele>
        <time>2018-12-15T16:50:15Z</time>
      </trkpt>
      <trkpt lat="41.4866630" lon="2.1572900">
        <ele>48.4</ele>
        <time>2018-12-15T16:50:19Z</time>
      </trkpt>
      <trkpt lat="41.4868530" lon="2.1570380">
        <ele>49.6</ele>
        <time>2018-12-15T16:50:23Z</time>
      </trkpt>
      <trkpt lat="41.4870430" lon="2.1567860">
        <ele>50.6</ele>
        <time>2018-12-15T16:50:27Z</time>
      </trkpt>
      <trkpt lat="41.4872300" lon="2.1565260">
        <ele>50.8</ele>
        <time>2018-12-15T16:50:31Z</time>
      </trkpt>
      <trkpt lat="41.4874100" lon="2.1562730">
        <ele>51.4</ele>
        <time>2018-12-15T16:50:35Z</time>
      </trkpt>
      <trkpt lat="41.4875880" lon="2.1560280">
        <ele>52.0</ele>
        <time>2018-12-15T16:50:39Z</time>
      </trkpt>
      <trkpt lat="41.4877660" lon="2.1557900">
        <ele>53.2</ele>
        <time>2018-12-15T16:50:43Z</time>
      </trkpt>
      <trkpt lat="41.4879430" lon="2.1555510">
        <ele>53.2</ele>
        <time>2018-12-15T16:50:47Z</time>
      </trkpt>
      <trkpt lat="41.4881180" lon="2.1553100">
        <ele>53.4</ele>
        <time>2018-12-15T16:50:51Z</time>
      </trkpt>
      <trkpt lat="41.4882880" lon="2.1550730">
        <ele>54.0</ele>
        <time>2018-12-15T16:50:55Z</time>
      </trkpt>
      <trkpt lat="41.4884550" lon="2.1548450">
        <ele>54.6</ele>
        <time>2018-12-15T16:50:59Z</time>
      </trkpt>
      <trkpt lat="41.4886080" lon="2.1546300">
        <ele>55.0</ele>
        <time>2018-12-15T16:51:03Z</time>
      </trkpt>
      <trkpt lat="41.4887610" lon="2.1544200">
        <ele>55.4</ele>
        <time>2018-12-15T16:51:07Z</time>
      </trkpt>
      <trkpt lat="41.4889160" lon="2.1542210">
        <ele>56.0</ele>
        <time>2018-12-15T16:51:11Z</time>
      </trkpt>
      <trkpt lat="41.4890650" lon="2.1540100">
        <ele>56.2</ele>
        <time>2018-12-15T16:51:15Z</time>
      </trkpt>
      <trkpt lat="41.4892100" lon="2.1537960">
        <ele>56.8</ele>
        <time>2018-12-15T16:51:19Z</time>
      </trkpt>
      <trkpt lat="41.4893610" lon="2.1535860">
        <ele>56.4</ele>
        <time>2018-12-15T16:51:23Z</time>
      </trkpt>
      <trkpt lat="41.4895180" lon="2.1533710">
        <ele>56.4</ele>
        <time>2018-12-15T16:51:27Z</time>
      </trkpt>
      <trkpt lat="41.4896830" lon="2.1531430">
        <ele>56.4</ele>
        <time>2018-12-15T16:51:31Z</time>
      </trkpt>
      <trkpt lat="41.4898530" lon="2.1529010">
        <ele>56.4</ele>
        <time>2018-12-15T16:51:35Z</time>
      </trkpt>
      <trkpt lat="41.4900310" lon="2.1526580">
        <ele>56.2</ele>
        <time>2018-12-15T16:51:39Z</time>
      </trkpt>
      <trkpt lat="41.4902060" lon="2.1524180">
        <ele>55.6</ele>
        <time>2018-12-15T16:51:43Z</time>
      </trkpt>
      <trkpt lat="41.4903630" lon="2.1521430">
        <ele>56.2</ele>
        <time>2018-12-15T16:51:47Z</time>
      </trkpt>
      <trkpt lat="41.4905350" lon="2.1518800">
        <ele>55.6</ele>
        <time>2018-12-15T16:51:51Z</time>
      </trkpt>
      <trkpt lat="41.4907160" lon="2.1516250">
        <ele>56.4</ele>
        <time>2018-12-15T16:51:55Z</time>
      </trkpt>
      <trkpt lat="41.4909000" lon="2.1513700">
        <ele>56.2</ele>
        <time>2018-12-15T16:51:59Z</time>
      </trkpt>
      <trkpt lat="41.4910530" lon="2.1511010">
        <ele>56.2</ele>
        <time>2018-12-15T16:52:03Z</time>
      </trkpt>
      <trkpt lat="41.4911660" lon="2.1508900">
        <ele>57.2</ele>
        <time>2018-12-15T16:52:07Z</time>
      </trkpt>
      <trkpt lat="41.4911660" lon="2.1508900">
        <ele>57.2</ele>
        <time>2018-12-15T16:52:11Z</time>
      </trkpt>
      <trkpt lat="41.4911660" lon="2.1508900">
        <ele>57.2</ele>
        <time>2018-12-15T16:52:15Z</time>
      </trkpt>
      <trkpt lat="41.4911660" lon="2.1508900">
        <ele>57.2</ele>
        <time>2018-12-15T16:52:19Z</time>
      </trkpt>
      <trkpt lat="41.4911660" lon="2.1508900">
        <ele>57.2</ele>
        <time>2018-12-15T16:52:23Z</time>
      </trkpt>
      <trkpt lat="41.4911660" lon="2.1508900">
        <ele>57.2</ele>
        <time>2018-12-15T16:52:27Z</time>
      </trkpt>
      <trkpt lat="41.4911660" lon="2.1508900">
        <ele>57.2</ele>
        <time>2018-12-15T16:52:31Z</time>
      </trkpt>
      <trkpt lat="41.4911660" lon="2.1508900">
        <ele>57.2</ele>
        <time>2018-12-15T16:52:35Z</time>
      </trkpt>
      <trkpt lat="41.4911660" lon="2.1508900">
        <ele>57.2</ele>
        <time>2018-12-15T16:52:39Z</time>
      </trkpt>
      <trkpt lat="41.4911660" lon="2.1508900">
        <ele>57.2</ele>
        <time>2018-12-15T16:52:43Z</time>
      </trkpt>
      <trkpt lat="41.4911660" lon="2.1508900">
        <ele>57.2</ele>
        <time>2018-12-15T16:52:47Z</time>
      </trkpt>
      <trkpt lat="41.4911660" lon="2.1508900">
        <ele>57.2</ele>
        <time>2018-12-15T16:52:51Z</time>
      </trkpt>
      <trkpt lat="41.4911660" lon="2.1508900">
        <ele>57.2</ele>
        <time>2018-12-15T16:52:55Z</time>
      </trkpt>
      <trkpt lat="41.4912950" lon="2.1508460">
        <ele>57.8</ele>
        <time>2018-12-15T16:52:59Z</time>
      </trkpt>
      <trkpt lat="41.4913410" lon="2.1507750">
        <ele>57.2</ele>
        <time>2018-12-15T16:53:03Z</time>
      </trkpt>
      <trkpt lat="41.4914710" lon="2.1505550">
        <ele>56.8</ele>
        <time>2018-12-15T16:53:07Z</time>
      </trkpt>
      <trkpt lat="41.4916730" lon="2.1502700">
        <ele>57.8</ele>
        <time>2018-12-15T16:53:11Z</time>
      </trkpt>
      <trkpt lat="41.4918650" lon="2.1500010">
        <ele>57.6</ele>
        <time>2018-12-15T16:53:15Z</time>
      </trkpt>
      <trkpt lat="41.4920710" lon="2.1497430">
        <ele>59.0</ele>
        <time>2018-12-15T16:53:19Z</time>
      </trkpt>
      <trkpt lat="41.4922530" lon="2.1494810">
        <ele>59.4</ele>
        <time>2018-12-15T16:53:23Z</time>
      </trkpt>
      <trkpt lat="41.4924500" lon="2.1492260">
        <ele>60.6</ele>
        <time>2018-12-15T16:53:27Z</time>
      </trkpt>
      <trkpt lat="41.4926400" lon="2.1489680">
        <ele>61.6</ele>
        <time>2018-12-15T16:53:31Z</time>
      </trkpt>
      <trkpt lat="41.4928030" lon="2.1487060">
        <ele>62.8</ele>
        <time>2018-12-15T16:53:35Z</time>
      </trkpt>
      <trkpt lat="41.4929400" lon="2.1485300">
        <ele>63.6</ele>
        <time>2018-12-15T16:53:39Z</time>
      </trkpt>
      <trkpt lat="41.4930000" lon="2.1484350">
        <ele>63.6</ele>
        <time>2018-12-15T16:53:43Z</time>
      </trkpt>
      <trkpt lat="41.4930060" lon="2.1484080">
        <ele>63.6</ele>
        <time>2018-12-15T16:53:47Z</time>
      </trkpt>
      <trkpt lat="41.4930530" lon="2.1483510">
        <ele>63.6</ele>
        <time>2018-12-15T16:53:51Z</time>
      </trkpt>
      <trkpt lat="41.4930530" lon="2.1483510">
        <ele>63.6</ele>
        <time>2018-12-15T16:53:55Z</time>
      </trkpt>
      <trkpt lat="41.4930530" lon="2.1483510">
        <ele>63.6</ele>
        <time>2018-12-15T16:53:59Z</time>
      </trkpt>
      <trkpt lat="41.4930530" lon="2.1483510">
        <ele>63.6</ele>
        <time>2018-12-15T16:54:03Z</time>
      </trkpt>
      <trkpt lat="41.4930530" lon="2.1483510">
        <ele>63.6</ele>
        <time>2018-12-15T16:54:07Z</time>
      </trkpt>
      <trkpt lat="41.4930530" lon="2.1483510">
        <ele>63.6</ele>
        <time>2018-12-15T16:54:11Z</time>
      </trkpt>
      <trkpt lat="41.4930530" lon="2.1483510">
        <ele>63.6</ele>
        <time>2018-12-15T16:54:15Z</time>
      </trkpt>
      <trkpt lat="41.4931700" lon="2.1483150">
        <ele>64.0</ele>
        <time>2018-12-15T16:54:19Z</time>
      </trkpt>
      <trkpt lat="41.4932160" lon="2.1482400">
        <ele>63.2</ele>
        <time>2018-12-15T16:54:23Z</time>
      </trkpt>
      <trkpt lat="41.4932460" lon="2.1479950">
        <ele>62.8</ele>
        <time>2018-12-15T16:54:27Z</time>
      </trkpt>
      <trkpt lat="41.4930650" lon="2.1476950">
        <ele>61.2</ele>
        <time>2018-12-15T16:54:31Z</time>
      </trkpt>
      <trkpt lat="41.4928800" lon="2.1474650">
        <ele>61.4</ele>
        <time>2018-12-15T16:54:35Z</time>
      </trkpt>
      <trkpt lat="41.4927510" lon="2.1473050">
        <ele>62.6</ele>
        <time>2018-12-15T16:54:39Z</time>
      </trkpt>
      <trkpt lat="41.4926680" lon="2.1471880">
        <ele>63.8</ele>
        <time>2018-12-15T16:54:43Z</time>
      </trkpt>
      <trkpt lat="41.4926000" lon="2.1470710">
        <ele>64.0</ele>
        <time>2018-12-15T16:54:47Z</time>
      </trkpt>
      <trkpt lat="41.4926060" lon="2.1469480">
        <ele>64.8</ele>
        <time>2018-12-15T16:54:51Z</time>
      </trkpt>
      <trkpt lat="41.4926210" lon="2.1468710">
        <ele>64.6</ele>
        <time>2018-12-15T16:54:55Z</time>
      </trkpt>
      <trkpt lat="41.4926660" lon="2.1467600">
        <ele>65.4</ele>
        <time>2018-12-15T16:54:59Z</time>
      </trkpt>
      <trkpt lat="41.4926950" lon="2.1466850">
        <ele>65.4</ele>
        <time>2018-12-15T16:55:03Z</time>
      </trkpt>
      <trkpt lat="41.4927360" lon="2.1465610">
        <ele>65.4</ele>
        <time>2018-12-15T16:55:07Z</time>
      </trkpt>
      <trkpt lat="41.4927810" lon="2.1464500">
        <ele>65.6</ele>
        <time>2018-12-15T16:55:11Z</time>
      </trkpt>
      <trkpt lat="41.4928310" lon="2.1462750">
        <ele>65.6</ele>
        <time>2018-12-15T16:55:15Z</time>
      </trkpt>
      <trkpt lat="41.4928850" lon="2.1460850">
        <ele>65.4</ele>
        <time>2018-12-15T16:55:19Z</time>
      </trkpt>
      <trkpt lat="41.4929280" lon="2.1459650">
        <ele>65.4</ele>
        <time>2018-12-15T16:55:23Z</time>
      </trkpt>
      <trkpt lat="41.4929110" lon="2.1458760">
        <ele>65.8</ele>
        <time>2018-12-15T16:55:27Z</time>
      </trkpt>
      <trkpt lat="41.4929030" lon="2.1458010">
        <ele>65.6</ele>
        <time>2018-12-15T16:55:31Z</time>
      </trkpt>
      <trkpt lat="41.4928960" lon="2.1457080">
        <ele>65.8</ele>
        <time>2018-12-15T16:55:35Z</time>
      </trkpt>
      <trkpt lat="41.4929080" lon="2.1456160">
        <ele>66.0</ele>
        <time>2018-12-15T16:55:39Z</time>
      </trkpt>
      <trkpt lat="41.4929300" lon="2.1454930">
        <ele>65.6</ele>
        <time>2018-12-15T16:55:43Z</time>
      </trkpt>
      <trkpt lat="41.4929660" lon="2.1453780">
        <ele>65.8</ele>
        <time>2018-12-15T16:55:47Z</time>
      </trkpt>
      <trkpt lat="41.4930300" lon="2.1452510">
        <ele>65.6</ele>
        <time>2018-12-15T16:55:51Z</time>
      </trkpt>
      <trkpt lat="41.4930460" lon="2.1450980">
        <ele>65.6</ele>
        <time>2018-12-15T16:55:55Z</time>
      </trkpt>
      <trkpt lat="41.4930760" lon="2.1449330">
        <ele>65.2</ele>
        <time>2018-12-15T16:55:59Z</time>
      </trkpt>
      <trkpt lat="41.4931360" lon="2.1447950">
        <ele>65.2</ele>
        <time>2018-12-15T16:56:03Z</time>
      </trkpt>
      <trkpt lat="41.4931360" lon="2.1446330">
        <ele>65.4</ele>
        <time>2018-12-15T16:56:07Z</time>
      </trkpt>
      <trkpt lat="41.4932130" lon="2.1444600">
        <ele>65.6</ele>
        <time>2018-12-15T16:56:11Z</time>
      </trkpt>
      <trkpt lat="41.4932330" lon="2.1443360">
        <ele>65.8</ele>
        <time>2018-12-15T16:56:15Z</time>
      </trkpt>
      <trkpt lat="41.4932380" lon="2.1442310">
        <ele>65.8</ele>
        <time>2018-12-15T16:56:19Z</time>
      </trkpt>
      <trkpt lat="41.4932510" lon="2.1440850">
        <ele>65.2</ele>
        <time>2018-12-15T16:56:23Z</time>
      </trkpt>
      <trkpt lat="41.4933550" lon="2.1439250">
        <ele>65.0</ele>
        <time>2018-12-15T16:56:27Z</time>
      </trkpt>
      <trkpt lat="41.4933830" lon="2.1437060">
        <ele>65.2</ele>
        <time>2018-12-15T16:56:31Z</time>
      </trkpt>
      <trkpt lat="41.4934730" lon="2.1436210">
        <ele>64.4</ele>
        <time>2018-12-15T16:56:35Z</time>
      </trkpt>
      <trkpt lat="41.4935800" lon="2.1433800">
        <ele>64.6</ele>
        <time>2018-12-15T16:56:39Z</time>
      </trkpt>
      <trkpt lat="41.4937410" lon="2.1430650">
        <ele>64.8</ele>
        <time>2018-12-15T16:56:43Z</time>
      </trkpt>
      <trkpt lat="41.4939450" lon="2.1427030">
        <ele>65.6</ele>
        <time>2018-12-15T16:56:47Z</time>
      </trkpt>
      <trkpt lat="41.4942000" lon="2.1424060">
        <ele>66.8</ele>
        <time>2018-12-15T16:56:51Z</time>
      </trkpt>
      <trkpt lat="41.4944010" lon="2.1420960">
        <ele>67.4</ele>
        <time>2018-12-15T16:56:55Z</time>
      </trkpt>
      <trkpt lat="41.4945880" lon="2.1417760">
        <ele>66.2</ele>
        <time>2018-12-15T16:56:59Z</time>
      </trkpt>
      <trkpt lat="41.4947780" lon="2.1414380">
        <ele>66.6</ele>
        <time>2018-12-15T16:57:03Z</time>
      </trkpt>
      <trkpt lat="41.4949400" lon="2.1410730">
        <ele>65.8</ele>
        <time>2018-12-15T16:57:07Z</time>
      </trkpt>
      <trkpt lat="41.4951200" lon="2.1407650">
        <ele>66.2</ele>
        <time>2018-12-15T16:57:11Z</time>
      </trkpt>
      <trkpt lat="41.4952850" lon="2.1404700">
        <ele>66.4</ele>
        <time>2018-12-15T16:57:15Z</time>
      </trkpt>
      <trkpt lat="41.4954560" lon="2.1402010">
        <ele>66.4</ele>
        <time>2018-12-15T16:57:19Z</time>
      </trkpt>
      <trkpt lat="41.4956200" lon="2.1399410">
        <ele>66.2</ele>
        <time>2018-12-15T16:57:23Z</time>
      </trkpt>
      <trkpt lat="41.4957680" lon="2.1396780">
        <ele>67.0</ele>
        <time>2018-12-15T16:57:27Z</time>
      </trkpt>
      <trkpt lat="41.4959260" lon="2.1394410">
        <ele>67.4</ele>
        <time>2018-12-15T16:57:31Z</time>
      </trkpt>
      <trkpt lat="41.4960730" lon="2.1392400">
        <ele>68.2</ele>
        <time>2018-12-15T16:57:35Z</time>
      </trkpt>
      <trkpt lat="41.4961150" lon="2.1391130">
        <ele>68.8</ele>
        <time>2018-12-15T16:57:39Z</time>
      </trkpt>
      <trkpt lat="41.4961150" lon="2.1391130">
        <ele>68.8</ele>
        <time>2018-12-15T16:57:43Z</time>
      </trkpt>
      <trkpt lat="41.4961150" lon="2.1391130">
        <ele>68.8</ele>
        <time>2018-12-15T16:57:47Z</time>
      </trkpt>
      <trkpt lat="41.4961150" lon="2.1391130">
        <ele>68.8</ele>
        <time>2018-12-15T16:57:51Z</time>
      </trkpt>
      <trkpt lat="41.4961150" lon="2.1391130">
        <ele>68.8</ele>
        <time>2018-12-15T16:57:55Z</time>
      </trkpt>
      <trkpt lat="41.4961150" lon="2.1391130">
        <ele>68.8</ele>
        <time>2018-12-15T16:57:59Z</time>
      </trkpt>
      <trkpt lat="41.4961150" lon="2.1391130">
        <ele>68.8</ele>
        <time>2018-12-15T16:58:03Z</time>
      </trkpt>
      <trkpt lat="41.4961150" lon="2.1391130">
        <ele>68.8</ele>
        <time>2018-12-15T16:58:07Z</time>
      </trkpt>
      <trkpt lat="41.4961150" lon="2.1391130">
        <ele>68.8</ele>
        <time>2018-12-15T16:58:11Z</time>
      </trkpt>
      <trkpt lat="41.4961150" lon="2.1391130">
        <ele>68.8</ele>
        <time>2018-12-15T16:58:15Z</time>
      </trkpt>
      <trkpt lat="41.4961180" lon="2.1389710">
        <ele>68.6</ele>
        <time>2018-12-15T16:58:19Z</time>
      </trkpt>
      <trkpt lat="41.4961110" lon="2.1388900">
        <ele>68.4</ele>
        <time>2018-12-15T16:58:23Z</time>
      </trkpt>
      <trkpt lat="41.4962450" lon="2.1387080">
        <ele>67.8</ele>
        <time>2018-12-15T16:58:27Z</time>
      </trkpt>
      <trkpt lat="41.4964150" lon="2.1384680">
        <ele>67.8</ele>
        <time>2018-12-15T16:58:31Z</time>
      </trkpt>
      <trkpt lat="41.4966130" lon="2.1382300">
        <ele>68.6</ele>
        <time>2018-12-15T16:58:35Z</time>
      </trkpt>
      <trkpt lat="41.4967730" lon="2.1379780">
        <ele>68.6</ele>
        <time>2018-12-15T16:58:39Z</time>
      </trkpt>
      <trkpt lat="41.4969500" lon="2.1377210">
        <ele>69.2</ele>
        <time>2018-12-15T16:58:43Z</time>
      </trkpt>
      <trkpt lat="41.4971230" lon="2.1374530">
        <ele>69.8</ele>
        <time>2018-12-15T16:58:47Z</time>
      </trkpt>
      <trkpt lat="41.4972930" lon="2.1371930">
        <ele>70.8</ele>
        <time>2018-12-15T16:58:51Z</time>
      </trkpt>
      <trkpt lat="41.4975410" lon="2.1370500">
        <ele>71.8</ele>
        <time>2018-12-15T16:58:55Z</time>
      </trkpt>
      <trkpt lat="41.4977060" lon="2.1368000">
        <ele>72.4</ele>
        <time>2018-12-15T16:58:59Z</time>
      </trkpt>
      <trkpt lat="41.4978480" lon="2.1365180">
        <ele>72.8</ele>
        <time>2018-12-15T16:59:03Z</time>
      </trkpt>
      <trkpt lat="41.4980260" lon="2.1363000">
        <ele>74.4</ele>
        <time>2018-12-15T16:59:07Z</time>
      </trkpt>
      <trkpt lat="41.4982010" lon="2.1360980">
        <ele>74.2</ele>
        <time>2018-12-15T16:59:11Z</time>
      </trkpt>
      <trkpt lat="41.4983660" lon="2.1358950">
        <ele>73.8</ele>
        <time>2018-12-15T16:59:15Z</time>
      </trkpt>
      <trkpt lat="41.4985310" lon="2.1356780">
        <ele>73.6</ele>
        <time>2018-12-15T16:59:19Z</time>
      </trkpt>
      <trkpt lat="41.4986760" lon="2.1354210">
        <ele>73.2</ele>
        <time>2018-12-15T16:59:23Z</time>
      </trkpt>
      <trkpt lat="41.4988130" lon="2.1351400">
        <ele>72.4</ele>
        <time>2018-12-15T16:59:27Z</time>
      </trkpt>
      <trkpt lat="41.4989710" lon="2.1348830">
        <ele>73.4</ele>
        <time>2018-12-15T16:59:31Z</time>
      </trkpt>
      <trkpt lat="41.4991110" lon="2.1346010">
        <ele>73.4</ele>
        <time>2018-12-15T16:59:35Z</time>
      </trkpt>
      <trkpt lat="41.4992810" lon="2.1343130">
        <ele>72.4</ele>
        <time>2018-12-15T16:59:39Z</time>
      </trkpt>
      <trkpt lat="41.4994550" lon="2.1340510">
        <ele>72.2</ele>
        <time>2018-12-15T16:59:43Z</time>
      </trkpt>
      <trkpt lat="41.4996410" lon="2.1338060">
        <ele>72.6</ele>
        <time>2018-12-15T16:59:47Z</time>
      </trkpt>
      <trkpt lat="41.4998160" lon="2.1335710">
        <ele>72.8</ele>
        <time>2018-12-15T16:59:51Z</time>
      </trkpt>
      <trkpt lat="41.5000010" lon="2.1333260">
        <ele>73.0</ele>
        <time>2018-12-15T16:59:55Z</time>
      </trkpt>
      <trkpt lat="41.5001860" lon="2.1330900">
        <ele>73.8</ele>
        <time>2018-12-15T16:59:59Z</time>
      </trkpt>
      <trkpt lat="41.5003750" lon="2.1328530">
        <ele>73.6</ele>
        <time>2018-12-15T17:00:03Z</time>
      </trkpt>
      <trkpt lat="41.5005530" lon="2.1325960">
        <ele>73.6</ele>
        <time>2018-12-15T17:00:07Z</time>
      </trkpt>
      <trkpt lat="41.5007210" lon="2.1323350">
        <ele>74.0</ele>
        <time>2018-12-15T17:00:11Z</time>
      </trkpt>
      <trkpt lat="41.5009060" lon="2.1320860">
        <ele>74.0</ele>
        <time>2018-12-15T17:00:15Z</time>
      </trkpt>
      <trkpt lat="41.5010560" lon="2.1318030">
        <ele>75.0</ele>
        <time>2018-12-15T17:00:19Z</time>
      </trkpt>
      <trkpt lat="41.5010860" lon="2.1314550">
        <ele>76.0</ele>
        <time>2018-12-15T17:00:23Z</time>
      </trkpt>
      <trkpt lat="41.5010560" lon="2.1311130">
        <ele>76.6</ele>
        <time>2018-12-15T17:00:27Z</time>
      </trkpt>
      <trkpt lat="41.5010300" lon="2.1307930">
        <ele>76.4</ele>
        <time>2018-12-15T17:00:31Z</time>
      </trkpt>
      <trkpt lat="41.5010000" lon="2.1304800">
        <ele>76.6</ele>
        <time>2018-12-15T17:00:35Z</time>
      </trkpt>
      <trkpt lat="41.5009680" lon="2.1301630">
        <ele>76.8</ele>
        <time>2018-12-15T17:00:39Z</time>
      </trkpt>
      <trkpt lat="41.5009380" lon="2.1298530">
        <ele>76.6</ele>
        <time>2018-12-15T17:00:43Z</time>
      </trkpt>
      <trkpt lat="41.5009080" lon="2.1295400">
        <ele>76.8</ele>
        <time>2018-12-15T17:00:47Z</time>
      </trkpt>
      <trkpt lat="41.5008780" lon="2.1292210">
        <ele>77.2</ele>
        <time>2018-12-15T17:00:51Z</time>
      </trkpt>
      <trkpt lat="41.5008460" lon="2.1289080">
        <ele>77.8</ele>
        <time>2018-12-15T17:00:55Z</time>
      </trkpt>
      <trkpt lat="41.5008130" lon="2.1286010">
        <ele>78.0</ele>
        <time>2018-12-15T17:00:59Z</time>
      </trkpt>
      <trkpt lat="41.5007760" lon="2.1282880">
        <ele>78.6</ele>
        <time>2018-12-15T17:01:03Z</time>
      </trkpt>
      <trkpt lat="41.5007430" lon="2.1279750">
        <ele>78.6</ele>
        <time>2018-12-15T17:01:07Z</time>
      </trkpt>
      <trkpt lat="41.5007310" lon="2.1276730">
        <ele>79.2</ele>
        <time>2018-12-15T17:01:11Z</time>
      </trkpt>
      <trkpt lat="41.5006880" lon="2.1273560">
        <ele>79.0</ele>
        <time>2018-12-15T17:01:15Z</time>
      </trkpt>
      <trkpt lat="41.5006550" lon="2.1270480">
        <ele>79.6</ele>
        <time>2018-12-15T17:01:19Z</time>
      </trkpt>
      <trkpt lat="41.5006150" lon="2.1267330">
        <ele>79.8</ele>
        <time>2018-12-15T17:01:23Z</time>
      </trkpt>
      <trkpt lat="41.5005780" lon="2.1264130">
        <ele>80.0</ele>
        <time>2018-12-15T17:01:27Z</time>
      </trkpt>
      <trkpt lat="41.5005300" lon="2.1260860">
        <ele>80.4</ele>
        <time>2018-12-15T17:01:31Z</time>
      </trkpt>
      <trkpt lat="41.5004910" lon="2.1257650">
        <ele>80.4</ele>
        <time>2018-12-15T17:01:35Z</time>
      </trkpt>
      <trkpt lat="41.5004480" lon="2.1254450">
        <ele>81.0</ele>
        <time>2018-12-15T17:01:39Z</time>
      </trkpt>
      <trkpt lat="41.5004230" lon="2.1251310">
        <ele>80.4</ele>
        <time>2018-12-15T17:01:43Z</time>
      </trkpt>
      <trkpt lat="41.5003930" lon="2.1248150">
        <ele>81.6</ele>
        <time>2018-12-15T17:01:47Z</time>
      </trkpt>
      <trkpt lat="41.5004210" lon="2.1245280">
        <ele>82.2</ele>
        <time>2018-12-15T17:01:51Z</time>
      </trkpt>
      <trkpt lat="41.5005110" lon="2.1242410">
        <ele>83.2</ele>
        <time>2018-12-15T17:01:55Z</time>
      </trkpt>
      <trkpt lat="41.5006280" lon="2.1239710">
        <ele>83.0</ele>
        <time>2018-12-15T17:01:59Z</time>
      </trkpt>
      <trkpt lat="41.5007560" lon="2.1237160">
        <ele>83.6</ele>
        <time>2018-12-15T17:02:03Z</time>
      </trkpt>
      <trkpt lat="41.5008860" lon="2.1234710">
        <ele>84.0</ele>
        <time>2018-12-15T17:02:07Z</time>
      </trkpt>
      <trkpt lat="41.5010200" lon="2.1232330">
        <ele>84.6</ele>
        <time>2018-12-15T17:02:11Z</time>
      </trkpt>
      <trkpt lat="41.5011550" lon="2.1229900">
        <ele>84.6</ele>
        <time>2018-12-15T17:02:15Z</time>
      </trkpt>
      <trkpt lat="41.5012880" lon="2.1227300">
        <ele>85.0</ele>
        <time>2018-12-15T17:02:19Z</time>
      </trkpt>
      <trkpt lat="41.5014110" lon="2.1224730">
        <ele>85.0</ele>
        <time>2018-12-15T17:02:23Z</time>
      </trkpt>
      <trkpt lat="41.5015230" lon="2.1221830">
        <ele>85.2</ele>
        <time>2018-12-15T17:02:27Z</time>
      </trkpt>
      <trkpt lat="41.5016600" lon="2.1218950">
        <ele>86.4</ele>
        <time>2018-12-15T17:02:31Z</time>
      </trkpt>
      <trkpt lat="41.5017680" lon="2.1216110">
        <ele>86.2</ele>
        <time>2018-12-15T17:02:35Z</time>
      </trkpt>
      <trkpt lat="41.5019250" lon="2.1213610">
        <ele>87.2</ele>
        <time>2018-12-15T17:02:39Z</time>
      </trkpt>
      <trkpt lat="41.5020680" lon="2.1210780">
        <ele>87.6</ele>
        <time>2018-12-15T17:02:43Z</time>
      </trkpt>
      <trkpt lat="41.5021880" lon="2.1207860">
        <ele>87.4</ele>
        <time>2018-12-15T17:02:47Z</time>
      </trkpt>
      <trkpt lat="41.5022950" lon="2.1204880">
        <ele>87.4</ele>
        <time>2018-12-15T17:02:51Z</time>
      </trkpt>
      <trkpt lat="41.5023760" lon="2.1202660">
        <ele>88.2</ele>
        <time>2018-12-15T17:02:55Z</time>
      </trkpt>
      <trkpt lat="41.5025360" lon="2.1200650">
        <ele>88.0</ele>
        <time>2018-12-15T17:02:59Z</time>
      </trkpt>
      <trkpt lat="41.5027110" lon="2.1197680">
        <ele>89.0</ele>
        <time>2018-12-15T17:03:03Z</time>
      </trkpt>
      <trkpt lat="41.5028610" lon="2.1194630">
        <ele>88.8</ele>
        <time>2018-12-15T17:03:07Z</time>
      </trkpt>
      <trkpt lat="41.5029800" lon="2.1191700">
        <ele>89.2</ele>
        <time>2018-12-15T17:03:11Z</time>
      </trkpt>
      <trkpt lat="41.5030630" lon="2.1188510">
        <ele>91.8</ele>
        <time>2018-12-15T17:03:15Z</time>
      </trkpt>
      <trkpt lat="41.5031410" lon="2.1185410">
        <ele>92.6</ele>
        <time>2018-12-15T17:03:19Z</time>
      </trkpt>
      <trkpt lat="41.5032730" lon="2.1182610">
        <ele>93.8</ele>
        <time>2018-12-15T17:03:23Z</time>
      </trkpt>
      <trkpt lat="41.5034660" lon="2.1181000">
        <ele>94.2</ele>
        <time>2018-12-15T17:03:27Z</time>
      </trkpt>
      <trkpt lat="41.5036830" lon="2.1180050">
        <ele>94.4</ele>
        <time>2018-12-15T17:03:31Z</time>
      </trkpt>
      <trkpt lat="41.5038930" lon="2.1179080">
        <ele>94.4</ele>
        <time>2018-12-15T17:03:35Z</time>
      </trkpt>
      <trkpt lat="41.5040830" lon="2.1177510">
        <ele>94.8</ele>
        <time>2018-12-15T17:03:39Z</time>
      </trkpt>
      <trkpt lat="41.5042310" lon="2.1174960">
        <ele>93.0</ele>
        <time>2018-12-15T17:03:43Z</time>
      </trkpt>
      <trkpt lat="41.5043030" lon="2.1171280">
        <ele>92.0</ele>
        <time>2018-12-15T17:03:47Z</time>
      </trkpt>
      <trkpt lat="41.5043430" lon="2.1167200">
        <ele>90.8</ele>
        <time>2018-12-15T17:03:51Z</time>
      </trkpt>
      <trkpt lat="41.5043860" lon="2.1163110">
        <ele>91.2</ele>
        <time>2018-12-15T17:03:55Z</time>
      </trkpt>
      <trkpt lat="41.5044380" lon="2.1159250">
        <ele>91.8</ele>
        <time>2018-12-15T17:03:59Z</time>
      </trkpt>
      <trkpt lat="41.5044910" lon="2.1155450">
        <ele>92.0</ele>
        <time>2018-12-15T17:04:03Z</time>
      </trkpt>
      <trkpt lat="41.5045480" lon="2.1151780">
        <ele>92.2</ele>
        <time>2018-12-15T17:04:07Z</time>
      </trkpt>
      <trkpt lat="41.5046050" lon="2.1148260">
        <ele>92.6</ele>
        <time>2018-12-15T17:04:11Z</time>
      </trkpt>
      <trkpt lat="41.5046660" lon="2.1144830">
        <ele>93.0</ele>
        <time>2018-12-15T17:04:15Z</time>
      </trkpt>
      <trkpt lat="41.5047280" lon="2.1141480">
        <ele>92.6</ele>
        <time>2018-12-15T17:04:19Z</time>
      </trkpt>
      <trkpt lat="41.5047960" lon="2.1138200">
        <ele>92.8</ele>
        <time>2018-12-15T17:04:23Z</time>
      </trkpt>
      <trkpt lat="41.5048710" lon="2.1134960">
        <ele>92.6</ele>
        <time>2018-12-15T17:04:27Z</time>
      </trkpt>
      <trkpt lat="41.5049430" lon="2.1131850">
        <ele>93.6</ele>
        <time>2018-12-15T17:04:31Z</time>
      </trkpt>
      <trkpt lat="41.5050180" lon="2.1128830">
        <ele>94.2</ele>
        <time>2018-12-15T17:04:35Z</time>
      </trkpt>
      <trkpt lat="41.5050960" lon="2.1125810">
        <ele>94.2</ele>
        <time>2018-12-15T17:04:39Z</time>
      </trkpt>
      <trkpt lat="41.5051800" lon="2.1122760">
        <ele>94.2</ele>
        <time>2018-12-15T17:04:43Z</time>
      </trkpt>
      <trkpt lat="41.5052650" lon="2.1119750">
        <ele>94.8</ele>
        <time>2018-12-15T17:04:47Z</time>
      </trkpt>
      <trkpt lat="41.5053510" lon="2.1116760">
        <ele>95.4</ele>
        <time>2018-12-15T17:04:51Z</time>
      </trkpt>
      <trkpt lat="41.5054450" lon="2.1113850">
        <ele>95.6</ele>
        <time>2018-12-15T17:04:55Z</time>
      </trkpt>
      <trkpt lat="41.5055380" lon="2.1110930">
        <ele>95.2</ele>
        <time>2018-12-15T17:04:59Z</time>
      </trkpt>
      <trkpt lat="41.5056350" lon="2.1108050">
        <ele>95.8</ele>
        <time>2018-12-15T17:05:03Z</time>
      </trkpt>
      <trkpt lat="41.5057360" lon="2.1105150">
        <ele>96.0</ele>
        <time>2018-12-15T17:05:07Z</time>
      </trkpt>
      <trkpt lat="41.5058410" lon="2.1102210">
        <ele>95.6</ele>
        <time>2018-12-15T17:05:11Z</time>
      </trkpt>
      <trkpt lat="41.5059530" lon="2.1099180">
        <ele>96.4</ele>
        <time>2018-12-15T17:05:15Z</time>
      </trkpt>
      <trkpt lat="41.5060930" lon="2.1096260">
        <ele>95.6</ele>
        <time>2018-12-15T17:05:19Z</time>
      </trkpt>
      <trkpt lat="41.5063080" lon="2.1094050">
        <ele>95.4</ele>
        <time>2018-12-15T17:05:23Z</time>
      </trkpt>
      <trkpt lat="41.5065850" lon="2.1093100">
        <ele>95.0</ele>
        <time>2018-12-15T17:05:27Z</time>
      </trkpt>
      <trkpt lat="41.5067710" lon="2.1093710">
        <ele>96.0</ele>
        <time>2018-12-15T17:05:31Z</time>
      </trkpt>
      <trkpt lat="41.5068710" lon="2.1096930">
        <ele>96.4</ele>
        <time>2018-12-15T17:05:35Z</time>
      </trkpt>
      <trkpt lat="41.5067210" lon="2.1099900">
        <ele>98.2</ele>
        <time>2018-12-15T17:05:39Z</time>
      </trkpt>
      <trkpt lat="41.5065450" lon="2.1103460">
        <ele>97.6</ele>
        <time>2018-12-15T17:05:43Z</time>
      </trkpt>
      <trkpt lat="41.5065210" lon="2.1107500">
        <ele>96.4</ele>
        <time>2018-12-15T17:05:47Z</time>
      </trkpt>
      <trkpt lat="41.5064560" lon="2.1111330">
        <ele>95.8</ele>
        <time>2018-12-15T17:05:51Z</time>
      </trkpt>
      <trkpt lat="41.5062700" lon="2.1114110">
        <ele>95.4</ele>
        <time>2018-12-15T17:05:55Z</time>
      </trkpt>
      <trkpt lat="41.5061200" lon="2.1117160">
        <ele>95.8</ele>
        <time>2018-12-15T17:05:59Z</time>
      </trkpt>
      <trkpt lat="41.5060400" lon="2.1120860">
        <ele>95.2</ele>
        <time>2018-12-15T17:06:03Z</time>
      </trkpt>
      <trkpt lat="41.5060080" lon="2.1124600">
        <ele>94.6</ele>
        <time>2018-12-15T17:06:07Z</time>
      </trkpt>
      <trkpt lat="41.5059880" lon="2.1128350">
        <ele>94.4</ele>
        <time>2018-12-15T17:06:11Z</time>
      </trkpt>
      <trkpt lat="41.5059510" lon="2.1132260">
        <ele>94.0</ele>
        <time>2018-12-15T17:06:15Z</time>
      </trkpt>
      <trkpt lat="41.5059330" lon="2.1136350">
        <ele>94.0</ele>
        <time>2018-12-15T17:06:19Z</time>
      </trkpt>
      <trkpt lat="41.5059200" lon="2.1140160">
        <ele>94.0</ele>
        <time>2018-12-15T17:06:23Z</time>
      </trkpt>
      <trkpt lat="41.5059000" lon="2.1143650">
        <ele>93.4</ele>
        <time>2018-12-15T17:06:27Z</time>
      </trkpt>
      <trkpt lat="41.5058650" lon="2.1146910">
        <ele>93.4</ele>
        <time>2018-12-15T17:06:31Z</time>
      </trkpt>
      <trkpt lat="41.5058360" lon="2.1150300">
        <ele>93.4</ele>
        <time>2018-12-15T17:06:35Z</time>
      </trkpt>
      <trkpt lat="41.5057680" lon="2.1153110">
        <ele>93.4</ele>
        <time>2018-12-15T17:06:39Z</time>
      </trkpt>
      <trkpt lat="41.5056010" lon="2.1152980">
        <ele>92.8</ele>
        <time>2018-12-15T17:06:43Z</time>
      </trkpt>
      <trkpt lat="41.5054180" lon="2.1153760">
        <ele>92.6</ele>
        <time>2018-12-15T17:06:47Z</time>
      </trkpt>
      <trkpt lat="41.5052730" lon="2.1156250">
        <ele>92.0</ele>
        <time>2018-12-15T17:06:51Z</time>
      </trkpt>
      <trkpt lat="41.5051660" lon="2.1159280">
        <ele>93.4</ele>
        <time>2018-12-15T17:06:55Z</time>
      </trkpt>
      <trkpt lat="41.5051260" lon="2.1162410">
        <ele>93.4</ele>
        <time>2018-12-15T17:06:59Z</time>
      </trkpt>
    </trkseg>
  </trk>
</gpx>
